<?xml version="1.0" encoding="UTF-8" standalone="no" ?>
<gpx xmlns="http://www.topografix.com/GPX/1/1" xmlns:xsi="http://www.w3.org/2001/XMLSchema-instance" xsi:schemaLocation="http://www.topografix.com/GPX/1/1 http://www.topografix.com/GPX/1/1/gpx.xsd" version="1.1" creator="VisuGPX - https://www.visugpx.com">
  <metadata>
    <name>Pornichet 20/03/2022</name>
    <desc><![CDATA[Sortie dimanche 20 mars 2022]]></desc>
  </metadata>
  <trk>
    <name><![CDATA[Pornichet Cyclisme]]></name>
    <trkseg>
      <trkpt lat="47.26315" lon="-2.31608">
        <ele>6.3</ele>
        <time>2022-03-20T07:54:47.000Z</time>
      </trkpt>
      <trkpt lat="47.26319" lon="-2.31603">
        <ele>6.5</ele>
        <time>2022-03-20T07:54:50.000Z</time>
      </trkpt>
      <trkpt lat="47.2632" lon="-2.31602">
        <ele>-6.1999998092651</ele>
        <time>2022-03-20T07:54:51.000Z</time>
      </trkpt>
      <trkpt lat="47.26321" lon="-2.316">
        <ele>-4.1999998092651</ele>
        <time>2022-03-20T07:54:52.000Z</time>
      </trkpt>
      <trkpt lat="47.26322" lon="-2.31598">
        <ele>-3.4000000953674</ele>
        <time>2022-03-20T07:54:53.000Z</time>
      </trkpt>
      <trkpt lat="47.26323" lon="-2.31594">
        <ele>-2.7999999523163</ele>
        <time>2022-03-20T07:54:54.000Z</time>
      </trkpt>
      <trkpt lat="47.26323" lon="-2.31592">
        <ele>-2</ele>
        <time>2022-03-20T07:54:55.000Z</time>
      </trkpt>
      <trkpt lat="47.26324" lon="-2.31591">
        <ele>-1.3999999761581</ele>
        <time>2022-03-20T07:54:56.000Z</time>
      </trkpt>
      <trkpt lat="47.26325" lon="-2.3159">
        <ele>-0.60000002384186</ele>
        <time>2022-03-20T07:54:57.000Z</time>
      </trkpt>
      <trkpt lat="47.26327" lon="-2.31586">
        <ele>-0.60000002384186</ele>
        <time>2022-03-20T07:54:58.000Z</time>
      </trkpt>
      <trkpt lat="47.26331" lon="-2.31577">
        <ele>-0.60000002384186</ele>
        <time>2022-03-20T07:55:04.000Z</time>
      </trkpt>
      <trkpt lat="47.26336" lon="-2.31571">
        <ele>-0.60000002384186</ele>
        <time>2022-03-20T07:55:08.000Z</time>
      </trkpt>
      <trkpt lat="47.26342" lon="-2.31562">
        <ele>-0.60000002384186</ele>
        <time>2022-03-20T07:55:33.000Z</time>
      </trkpt>
      <trkpt lat="47.2634" lon="-2.31564">
        <ele>-0.60000002384186</ele>
        <time>2022-03-20T07:55:34.000Z</time>
      </trkpt>
      <trkpt lat="47.2634" lon="-2.31578">
        <ele>-0.60000002384186</ele>
        <time>2022-03-20T07:55:37.000Z</time>
      </trkpt>
      <trkpt lat="47.26342" lon="-2.31614">
        <ele>-0.60000002384186</ele>
        <time>2022-03-20T07:55:44.000Z</time>
      </trkpt>
      <trkpt lat="47.26347" lon="-2.31667">
        <ele>-0.60000002384186</ele>
        <time>2022-03-20T07:55:53.000Z</time>
      </trkpt>
      <trkpt lat="47.26344" lon="-2.31671">
        <ele>-0.60000002384186</ele>
        <time>2022-03-20T07:55:54.000Z</time>
      </trkpt>
      <trkpt lat="47.26341" lon="-2.31673">
        <ele>-0.60000002384186</ele>
        <time>2022-03-20T07:55:55.000Z</time>
      </trkpt>
      <trkpt lat="47.26329" lon="-2.31678">
        <ele>-1.3999999761581</ele>
        <time>2022-03-20T07:55:58.000Z</time>
      </trkpt>
      <trkpt lat="47.26326" lon="-2.31681">
        <ele>-1.7999999523163</ele>
        <time>2022-03-20T07:55:59.000Z</time>
      </trkpt>
      <trkpt lat="47.26322" lon="-2.31684">
        <ele>-2.2000000476837</ele>
        <time>2022-03-20T07:56:00.000Z</time>
      </trkpt>
      <trkpt lat="47.26318" lon="-2.31688">
        <ele>-2.5999999046326</ele>
        <time>2022-03-20T07:56:01.000Z</time>
      </trkpt>
      <trkpt lat="47.263" lon="-2.31697">
        <ele>-2.5999999046326</ele>
        <time>2022-03-20T07:56:05.000Z</time>
      </trkpt>
      <trkpt lat="47.26291" lon="-2.31703">
        <ele>-2.5999999046326</ele>
        <time>2022-03-20T07:56:07.000Z</time>
      </trkpt>
      <trkpt lat="47.26277" lon="-2.31711">
        <ele>-2.5999999046326</ele>
        <time>2022-03-20T07:56:10.000Z</time>
      </trkpt>
      <trkpt lat="47.26266" lon="-2.31717">
        <ele>-3.2000000476837</ele>
        <time>2022-03-20T07:56:12.000Z</time>
      </trkpt>
      <trkpt lat="47.26261" lon="-2.3172">
        <ele>-3.5999999046326</ele>
        <time>2022-03-20T07:56:13.000Z</time>
      </trkpt>
      <trkpt lat="47.26256" lon="-2.31723">
        <ele>-4</ele>
        <time>2022-03-20T07:56:14.000Z</time>
      </trkpt>
      <trkpt lat="47.26251" lon="-2.31727">
        <ele>-4.4000000953674</ele>
        <time>2022-03-20T07:56:15.000Z</time>
      </trkpt>
      <trkpt lat="47.26247" lon="-2.31733">
        <ele>-4.8000001907349</ele>
        <time>2022-03-20T07:56:16.000Z</time>
      </trkpt>
      <trkpt lat="47.26246" lon="-2.31752">
        <ele>-4.8000001907349</ele>
        <time>2022-03-20T07:56:19.000Z</time>
      </trkpt>
      <trkpt lat="47.26247" lon="-2.31759">
        <ele>-4.8000001907349</ele>
        <time>2022-03-20T07:56:20.000Z</time>
      </trkpt>
      <trkpt lat="47.26249" lon="-2.31771">
        <ele>-4.8000001907349</ele>
        <time>2022-03-20T07:56:22.000Z</time>
      </trkpt>
      <trkpt lat="47.2625" lon="-2.31791">
        <ele>-4.8000001907349</ele>
        <time>2022-03-20T07:56:24.000Z</time>
      </trkpt>
      <trkpt lat="47.26251" lon="-2.31803">
        <ele>-4.8000001907349</ele>
        <time>2022-03-20T07:56:27.000Z</time>
      </trkpt>
      <trkpt lat="47.26251" lon="-2.3183">
        <ele>-4.8000001907349</ele>
        <time>2022-03-20T07:56:31.000Z</time>
      </trkpt>
      <trkpt lat="47.26249" lon="-2.31876">
        <ele>-4.8000001907349</ele>
        <time>2022-03-20T07:56:38.000Z</time>
      </trkpt>
      <trkpt lat="47.26247" lon="-2.31893">
        <ele>-4.8000001907349</ele>
        <time>2022-03-20T07:56:41.000Z</time>
      </trkpt>
      <trkpt lat="47.26244" lon="-2.31897">
        <ele>-4.8000001907349</ele>
        <time>2022-03-20T07:56:42.000Z</time>
      </trkpt>
      <trkpt lat="47.2624" lon="-2.31901">
        <ele>-5.4000000953674</ele>
        <time>2022-03-20T07:56:43.000Z</time>
      </trkpt>
      <trkpt lat="47.26237" lon="-2.31904">
        <ele>-5.8000001907349</ele>
        <time>2022-03-20T07:56:44.000Z</time>
      </trkpt>
      <trkpt lat="47.26234" lon="-2.31907">
        <ele>-6.1999998092651</ele>
        <time>2022-03-20T07:56:45.000Z</time>
      </trkpt>
      <trkpt lat="47.26231" lon="-2.31911">
        <ele>-7</ele>
        <time>2022-03-20T07:56:46.000Z</time>
      </trkpt>
      <trkpt lat="47.26228" lon="-2.31915">
        <ele>-7</ele>
        <time>2022-03-20T07:56:47.000Z</time>
      </trkpt>
      <trkpt lat="47.26213" lon="-2.31942">
        <ele>-7</ele>
        <time>2022-03-20T07:56:53.000Z</time>
      </trkpt>
      <trkpt lat="47.26201" lon="-2.31969">
        <ele>-7</ele>
        <time>2022-03-20T07:56:59.000Z</time>
      </trkpt>
      <trkpt lat="47.26198" lon="-2.31975">
        <ele>-7</ele>
        <time>2022-03-20T07:57:01.000Z</time>
      </trkpt>
      <trkpt lat="47.26191" lon="-2.31975">
        <ele>-7</ele>
        <time>2022-03-20T07:57:03.000Z</time>
      </trkpt>
      <trkpt lat="47.26186" lon="-2.31977">
        <ele>-7</ele>
        <time>2022-03-20T07:57:05.000Z</time>
      </trkpt>
      <trkpt lat="47.26183" lon="-2.31982">
        <ele>-7</ele>
        <time>2022-03-20T07:57:07.000Z</time>
      </trkpt>
      <trkpt lat="47.26173" lon="-2.31997">
        <ele>-7</ele>
        <time>2022-03-20T07:57:12.000Z</time>
      </trkpt>
      <trkpt lat="47.26165" lon="-2.32006">
        <ele>-7</ele>
        <time>2022-03-20T07:57:15.000Z</time>
      </trkpt>
      <trkpt lat="47.26165" lon="-2.3201">
        <ele>-7</ele>
        <time>2022-03-20T07:57:16.000Z</time>
      </trkpt>
      <trkpt lat="47.26162" lon="-2.32021">
        <ele>-7</ele>
        <time>2022-03-20T07:57:20.000Z</time>
      </trkpt>
      <trkpt lat="47.26158" lon="-2.32021">
        <ele>-7</ele>
        <time>2022-03-20T07:57:22.000Z</time>
      </trkpt>
      <trkpt lat="47.26145" lon="-2.32023">
        <ele>-7</ele>
        <time>2022-03-20T07:57:27.000Z</time>
      </trkpt>
      <trkpt lat="47.26126" lon="-2.32033">
        <ele>-7</ele>
        <time>2022-03-20T07:57:32.000Z</time>
      </trkpt>
      <trkpt lat="47.26117" lon="-2.32051">
        <ele>-7</ele>
        <time>2022-03-20T07:57:36.000Z</time>
      </trkpt>
      <trkpt lat="47.26113" lon="-2.32063">
        <ele>-7</ele>
        <time>2022-03-20T07:57:38.000Z</time>
      </trkpt>
      <trkpt lat="47.26106" lon="-2.32087">
        <ele>-7</ele>
        <time>2022-03-20T07:57:42.000Z</time>
      </trkpt>
      <trkpt lat="47.26104" lon="-2.32093">
        <ele>-7</ele>
        <time>2022-03-20T07:57:43.000Z</time>
      </trkpt>
      <trkpt lat="47.26094" lon="-2.32123">
        <ele>-7</ele>
        <time>2022-03-20T07:57:48.000Z</time>
      </trkpt>
      <trkpt lat="47.26077" lon="-2.3217">
        <ele>-7</ele>
        <time>2022-03-20T07:57:56.000Z</time>
      </trkpt>
      <trkpt lat="47.26058" lon="-2.32206">
        <ele>-7</ele>
        <time>2022-03-20T07:58:03.000Z</time>
      </trkpt>
      <trkpt lat="47.26029" lon="-2.32243">
        <ele>-7</ele>
        <time>2022-03-20T07:58:11.000Z</time>
      </trkpt>
      <trkpt lat="47.26" lon="-2.32275">
        <ele>-7</ele>
        <time>2022-03-20T07:58:19.000Z</time>
      </trkpt>
      <trkpt lat="47.25982" lon="-2.32296">
        <ele>-7</ele>
        <time>2022-03-20T07:58:24.000Z</time>
      </trkpt>
      <trkpt lat="47.25974" lon="-2.32304">
        <ele>-7</ele>
        <time>2022-03-20T07:58:26.000Z</time>
      </trkpt>
      <trkpt lat="47.25943" lon="-2.32341">
        <ele>-7</ele>
        <time>2022-03-20T07:58:34.000Z</time>
      </trkpt>
      <trkpt lat="47.25911" lon="-2.32383">
        <ele>-7</ele>
        <time>2022-03-20T07:58:43.000Z</time>
      </trkpt>
      <trkpt lat="47.2589" lon="-2.32439">
        <ele>-7</ele>
        <time>2022-03-20T07:58:53.000Z</time>
      </trkpt>
      <trkpt lat="47.25881" lon="-2.32466">
        <ele>-7</ele>
        <time>2022-03-20T07:58:59.000Z</time>
      </trkpt>
      <trkpt lat="47.25879" lon="-2.32468">
        <ele>-7</ele>
        <time>2022-03-20T07:59:00.000Z</time>
      </trkpt>
      <trkpt lat="47.25874" lon="-2.32472">
        <ele>-7</ele>
        <time>2022-03-20T07:59:02.000Z</time>
      </trkpt>
      <trkpt lat="47.25862" lon="-2.32474">
        <ele>-7</ele>
        <time>2022-03-20T07:59:06.000Z</time>
      </trkpt>
      <trkpt lat="47.25858" lon="-2.32474">
        <ele>-7</ele>
        <time>2022-03-20T07:59:07.000Z</time>
      </trkpt>
      <trkpt lat="47.25854" lon="-2.32474">
        <ele>-6.5999999046326</ele>
        <time>2022-03-20T07:59:08.000Z</time>
      </trkpt>
      <trkpt lat="47.2585" lon="-2.32474">
        <ele>-6.1999998092651</ele>
        <time>2022-03-20T07:59:09.000Z</time>
      </trkpt>
      <trkpt lat="47.25846" lon="-2.32473">
        <ele>-5.8000001907349</ele>
        <time>2022-03-20T07:59:10.000Z</time>
      </trkpt>
      <trkpt lat="47.25842" lon="-2.32472">
        <ele>-5.4000000953674</ele>
        <time>2022-03-20T07:59:11.000Z</time>
      </trkpt>
      <trkpt lat="47.25837" lon="-2.3247">
        <ele>-5</ele>
        <time>2022-03-20T07:59:12.000Z</time>
      </trkpt>
      <trkpt lat="47.25833" lon="-2.32467">
        <ele>-5</ele>
        <time>2022-03-20T07:59:13.000Z</time>
      </trkpt>
      <trkpt lat="47.25801" lon="-2.32453">
        <ele>-5</ele>
        <time>2022-03-20T07:59:20.000Z</time>
      </trkpt>
      <trkpt lat="47.25797" lon="-2.32453">
        <ele>-5</ele>
        <time>2022-03-20T07:59:21.000Z</time>
      </trkpt>
      <trkpt lat="47.25785" lon="-2.32454">
        <ele>-5</ele>
        <time>2022-03-20T07:59:24.000Z</time>
      </trkpt>
      <trkpt lat="47.25772" lon="-2.32438">
        <ele>-5</ele>
        <time>2022-03-20T07:59:28.000Z</time>
      </trkpt>
      <trkpt lat="47.25763" lon="-2.32424">
        <ele>-5</ele>
        <time>2022-03-20T07:59:31.000Z</time>
      </trkpt>
      <trkpt lat="47.25759" lon="-2.32422">
        <ele>-5</ele>
        <time>2022-03-20T07:59:32.000Z</time>
      </trkpt>
      <trkpt lat="47.25743" lon="-2.32421">
        <ele>-5</ele>
        <time>2022-03-20T07:59:35.000Z</time>
      </trkpt>
      <trkpt lat="47.25738" lon="-2.32421">
        <ele>-5</ele>
        <time>2022-03-20T07:59:36.000Z</time>
      </trkpt>
      <trkpt lat="47.25694" lon="-2.32419">
        <ele>-5</ele>
        <time>2022-03-20T07:59:45.000Z</time>
      </trkpt>
      <trkpt lat="47.25668" lon="-2.32418">
        <ele>-5</ele>
        <time>2022-03-20T07:59:51.000Z</time>
      </trkpt>
      <trkpt lat="47.25665" lon="-2.32422">
        <ele>-5</ele>
        <time>2022-03-20T07:59:52.000Z</time>
      </trkpt>
      <trkpt lat="47.25662" lon="-2.32433">
        <ele>-4.5999999046326</ele>
        <time>2022-03-20T07:59:54.000Z</time>
      </trkpt>
      <trkpt lat="47.25662" lon="-2.32439">
        <ele>-4.1999998092651</ele>
        <time>2022-03-20T07:59:55.000Z</time>
      </trkpt>
      <trkpt lat="47.25663" lon="-2.32446">
        <ele>-3.7999999523163</ele>
        <time>2022-03-20T07:59:56.000Z</time>
      </trkpt>
      <trkpt lat="47.25665" lon="-2.32452">
        <ele>-3.2000000476837</ele>
        <time>2022-03-20T07:59:57.000Z</time>
      </trkpt>
      <trkpt lat="47.25666" lon="-2.32458">
        <ele>-2.7999999523163</ele>
        <time>2022-03-20T07:59:58.000Z</time>
      </trkpt>
      <trkpt lat="47.25668" lon="-2.32464">
        <ele>-2.7999999523163</ele>
        <time>2022-03-20T07:59:59.000Z</time>
      </trkpt>
      <trkpt lat="47.2568" lon="-2.32498">
        <ele>-2.4000000953674</ele>
        <time>2022-03-20T08:00:05.000Z</time>
      </trkpt>
      <trkpt lat="47.25681" lon="-2.32504">
        <ele>-2</ele>
        <time>2022-03-20T08:00:06.000Z</time>
      </trkpt>
      <trkpt lat="47.25683" lon="-2.32509">
        <ele>-1.6000000238419</ele>
        <time>2022-03-20T08:00:07.000Z</time>
      </trkpt>
      <trkpt lat="47.25685" lon="-2.32515">
        <ele>-1.2000000476837</ele>
        <time>2022-03-20T08:00:08.000Z</time>
      </trkpt>
      <trkpt lat="47.25687" lon="-2.3252">
        <ele>-0.80000001192093</ele>
        <time>2022-03-20T08:00:09.000Z</time>
      </trkpt>
      <trkpt lat="47.25693" lon="-2.32541">
        <ele>-0.80000001192093</ele>
        <time>2022-03-20T08:00:13.000Z</time>
      </trkpt>
      <trkpt lat="47.25699" lon="-2.32556">
        <ele>-0.80000001192093</ele>
        <time>2022-03-20T08:00:16.000Z</time>
      </trkpt>
      <trkpt lat="47.25704" lon="-2.32571">
        <ele>-0.20000000298023</ele>
        <time>2022-03-20T08:00:19.000Z</time>
      </trkpt>
      <trkpt lat="47.25705" lon="-2.32576">
        <ele>0.20000000298023</ele>
        <time>2022-03-20T08:00:20.000Z</time>
      </trkpt>
      <trkpt lat="47.25707" lon="-2.32581">
        <ele>0.60000002384186</ele>
        <time>2022-03-20T08:00:21.000Z</time>
      </trkpt>
      <trkpt lat="47.25708" lon="-2.32587">
        <ele>1</ele>
        <time>2022-03-20T08:00:22.000Z</time>
      </trkpt>
      <trkpt lat="47.25709" lon="-2.32593">
        <ele>1.3999999761581</ele>
        <time>2022-03-20T08:00:23.000Z</time>
      </trkpt>
      <trkpt lat="47.2571" lon="-2.32599">
        <ele>1.3999999761581</ele>
        <time>2022-03-20T08:00:24.000Z</time>
      </trkpt>
      <trkpt lat="47.25706" lon="-2.32621">
        <ele>1.3999999761581</ele>
        <time>2022-03-20T08:00:28.000Z</time>
      </trkpt>
      <trkpt lat="47.25694" lon="-2.32626">
        <ele>1.3999999761581</ele>
        <time>2022-03-20T08:00:31.000Z</time>
      </trkpt>
      <trkpt lat="47.2569" lon="-2.32628">
        <ele>1.3999999761581</ele>
        <time>2022-03-20T08:00:32.000Z</time>
      </trkpt>
      <trkpt lat="47.25687" lon="-2.3263">
        <ele>1.7999999523163</ele>
        <time>2022-03-20T08:00:33.000Z</time>
      </trkpt>
      <trkpt lat="47.25683" lon="-2.32631">
        <ele>2.2000000476837</ele>
        <time>2022-03-20T08:00:34.000Z</time>
      </trkpt>
      <trkpt lat="47.25679" lon="-2.32634">
        <ele>2.5999999046326</ele>
        <time>2022-03-20T08:00:35.000Z</time>
      </trkpt>
      <trkpt lat="47.25675" lon="-2.32636">
        <ele>3</ele>
        <time>2022-03-20T08:00:36.000Z</time>
      </trkpt>
      <trkpt lat="47.25671" lon="-2.32638">
        <ele>3.4000000953674</ele>
        <time>2022-03-20T08:00:37.000Z</time>
      </trkpt>
      <trkpt lat="47.25664" lon="-2.32641">
        <ele>3.4000000953674</ele>
        <time>2022-03-20T08:00:39.000Z</time>
      </trkpt>
      <trkpt lat="47.25642" lon="-2.32652">
        <ele>3.7999999523163</ele>
        <time>2022-03-20T08:00:45.000Z</time>
      </trkpt>
      <trkpt lat="47.25638" lon="-2.32653">
        <ele>4.1999998092651</ele>
        <time>2022-03-20T08:00:46.000Z</time>
      </trkpt>
      <trkpt lat="47.25634" lon="-2.32654">
        <ele>4.5999999046326</ele>
        <time>2022-03-20T08:00:47.000Z</time>
      </trkpt>
      <trkpt lat="47.2563" lon="-2.32655">
        <ele>5</ele>
        <time>2022-03-20T08:00:48.000Z</time>
      </trkpt>
      <trkpt lat="47.25626" lon="-2.32657">
        <ele>5.4000000953674</ele>
        <time>2022-03-20T08:00:49.000Z</time>
      </trkpt>
      <trkpt lat="47.25603" lon="-2.32667">
        <ele>5.4000000953674</ele>
        <time>2022-03-20T08:00:55.000Z</time>
      </trkpt>
      <trkpt lat="47.25574" lon="-2.3268">
        <ele>5.4000000953674</ele>
        <time>2022-03-20T08:01:02.000Z</time>
      </trkpt>
      <trkpt lat="47.25543" lon="-2.32693">
        <ele>5.4000000953674</ele>
        <time>2022-03-20T08:01:09.000Z</time>
      </trkpt>
      <trkpt lat="47.25514" lon="-2.32699">
        <ele>5.4000000953674</ele>
        <time>2022-03-20T08:01:15.000Z</time>
      </trkpt>
      <trkpt lat="47.25487" lon="-2.32704">
        <ele>6</ele>
        <time>2022-03-20T08:01:21.000Z</time>
      </trkpt>
      <trkpt lat="47.25483" lon="-2.32707">
        <ele>6.4000000953674</ele>
        <time>2022-03-20T08:01:22.000Z</time>
      </trkpt>
      <trkpt lat="47.25478" lon="-2.3271">
        <ele>6.8000001907349</ele>
        <time>2022-03-20T08:01:23.000Z</time>
      </trkpt>
      <trkpt lat="47.25475" lon="-2.32714">
        <ele>7.1999998092651</ele>
        <time>2022-03-20T08:01:24.000Z</time>
      </trkpt>
      <trkpt lat="47.25471" lon="-2.32718">
        <ele>7.5999999046326</ele>
        <time>2022-03-20T08:01:25.000Z</time>
      </trkpt>
      <trkpt lat="47.25464" lon="-2.32727">
        <ele>7.5999999046326</ele>
        <time>2022-03-20T08:01:27.000Z</time>
      </trkpt>
      <trkpt lat="47.25439" lon="-2.32762">
        <ele>7.5999999046326</ele>
        <time>2022-03-20T08:01:34.000Z</time>
      </trkpt>
      <trkpt lat="47.25433" lon="-2.32781">
        <ele>7.5999999046326</ele>
        <time>2022-03-20T08:01:38.000Z</time>
      </trkpt>
      <trkpt lat="47.25423" lon="-2.32795">
        <ele>7.5999999046326</ele>
        <time>2022-03-20T08:01:41.000Z</time>
      </trkpt>
      <trkpt lat="47.25399" lon="-2.32829">
        <ele>7.5999999046326</ele>
        <time>2022-03-20T08:01:47.000Z</time>
      </trkpt>
      <trkpt lat="47.25369" lon="-2.32863">
        <ele>7.5999999046326</ele>
        <time>2022-03-20T08:01:54.000Z</time>
      </trkpt>
      <trkpt lat="47.25339" lon="-2.32892">
        <ele>7.5999999046326</ele>
        <time>2022-03-20T08:02:01.000Z</time>
      </trkpt>
      <trkpt lat="47.25314" lon="-2.32917">
        <ele>7.5999999046326</ele>
        <time>2022-03-20T08:02:07.000Z</time>
      </trkpt>
      <trkpt lat="47.25312" lon="-2.32923">
        <ele>7.5999999046326</ele>
        <time>2022-03-20T08:02:08.000Z</time>
      </trkpt>
      <trkpt lat="47.25309" lon="-2.32945">
        <ele>7.5999999046326</ele>
        <time>2022-03-20T08:02:11.000Z</time>
      </trkpt>
      <trkpt lat="47.25317" lon="-2.32973">
        <ele>7.5999999046326</ele>
        <time>2022-03-20T08:02:15.000Z</time>
      </trkpt>
      <trkpt lat="47.25338" lon="-2.33026">
        <ele>7.5999999046326</ele>
        <time>2022-03-20T08:02:23.000Z</time>
      </trkpt>
      <trkpt lat="47.25358" lon="-2.33075">
        <ele>7.5999999046326</ele>
        <time>2022-03-20T08:02:31.000Z</time>
      </trkpt>
      <trkpt lat="47.25363" lon="-2.33087">
        <ele>7.5999999046326</ele>
        <time>2022-03-20T08:02:33.000Z</time>
      </trkpt>
      <trkpt lat="47.25367" lon="-2.33099">
        <ele>7.5999999046326</ele>
        <time>2022-03-20T08:02:36.000Z</time>
      </trkpt>
      <trkpt lat="47.25368" lon="-2.331">
        <ele>7.5999999046326</ele>
        <time>2022-03-20T08:02:40.000Z</time>
      </trkpt>
      <trkpt lat="47.25371" lon="-2.33103">
        <ele>20.60000038147</ele>
        <time>2022-03-20T08:09:55.000Z</time>
      </trkpt>
      <trkpt lat="47.25372" lon="-2.33105">
        <ele>21.39999961853</ele>
        <time>2022-03-20T08:09:56.000Z</time>
      </trkpt>
      <trkpt lat="47.25374" lon="-2.33106">
        <ele>21.799999237061</ele>
        <time>2022-03-20T08:09:57.000Z</time>
      </trkpt>
      <trkpt lat="47.25375" lon="-2.33109">
        <ele>21.799999237061</ele>
        <time>2022-03-20T08:09:58.000Z</time>
      </trkpt>
      <trkpt lat="47.25383" lon="-2.33127">
        <ele>21.799999237061</ele>
        <time>2022-03-20T08:10:03.000Z</time>
      </trkpt>
      <trkpt lat="47.25387" lon="-2.33134">
        <ele>21.799999237061</ele>
        <time>2022-03-20T08:10:05.000Z</time>
      </trkpt>
      <trkpt lat="47.25393" lon="-2.33136">
        <ele>21.799999237061</ele>
        <time>2022-03-20T08:10:07.000Z</time>
      </trkpt>
      <trkpt lat="47.25403" lon="-2.3313">
        <ele>21.799999237061</ele>
        <time>2022-03-20T08:10:10.000Z</time>
      </trkpt>
      <trkpt lat="47.25407" lon="-2.33128">
        <ele>21.799999237061</ele>
        <time>2022-03-20T08:10:11.000Z</time>
      </trkpt>
      <trkpt lat="47.25437" lon="-2.33116">
        <ele>21.799999237061</ele>
        <time>2022-03-20T08:10:18.000Z</time>
      </trkpt>
      <trkpt lat="47.25471" lon="-2.33098">
        <ele>21.799999237061</ele>
        <time>2022-03-20T08:10:26.000Z</time>
      </trkpt>
      <trkpt lat="47.25483" lon="-2.33091">
        <ele>21.799999237061</ele>
        <time>2022-03-20T08:10:29.000Z</time>
      </trkpt>
      <trkpt lat="47.25493" lon="-2.33082">
        <ele>21.799999237061</ele>
        <time>2022-03-20T08:10:32.000Z</time>
      </trkpt>
      <trkpt lat="47.25498" lon="-2.33093">
        <ele>21.799999237061</ele>
        <time>2022-03-20T08:10:35.000Z</time>
      </trkpt>
      <trkpt lat="47.25499" lon="-2.33099">
        <ele>21.799999237061</ele>
        <time>2022-03-20T08:10:36.000Z</time>
      </trkpt>
      <trkpt lat="47.25499" lon="-2.33105">
        <ele>21.799999237061</ele>
        <time>2022-03-20T08:10:37.000Z</time>
      </trkpt>
      <trkpt lat="47.25503" lon="-2.3313">
        <ele>21.799999237061</ele>
        <time>2022-03-20T08:10:41.000Z</time>
      </trkpt>
      <trkpt lat="47.25503" lon="-2.33136">
        <ele>21.799999237061</ele>
        <time>2022-03-20T08:10:42.000Z</time>
      </trkpt>
      <trkpt lat="47.25507" lon="-2.33166">
        <ele>21.799999237061</ele>
        <time>2022-03-20T08:10:47.000Z</time>
      </trkpt>
      <trkpt lat="47.25512" lon="-2.33201">
        <ele>21.799999237061</ele>
        <time>2022-03-20T08:10:53.000Z</time>
      </trkpt>
      <trkpt lat="47.25518" lon="-2.33243">
        <ele>21.799999237061</ele>
        <time>2022-03-20T08:11:00.000Z</time>
      </trkpt>
      <trkpt lat="47.2552" lon="-2.33263">
        <ele>22.200000762939</ele>
        <time>2022-03-20T08:11:03.000Z</time>
      </trkpt>
      <trkpt lat="47.25521" lon="-2.33269">
        <ele>22.60000038147</ele>
        <time>2022-03-20T08:11:04.000Z</time>
      </trkpt>
      <trkpt lat="47.25523" lon="-2.33275">
        <ele>23</ele>
        <time>2022-03-20T08:11:05.000Z</time>
      </trkpt>
      <trkpt lat="47.25524" lon="-2.33281">
        <ele>23.39999961853</ele>
        <time>2022-03-20T08:11:06.000Z</time>
      </trkpt>
      <trkpt lat="47.25525" lon="-2.33288">
        <ele>23.799999237061</ele>
        <time>2022-03-20T08:11:07.000Z</time>
      </trkpt>
      <trkpt lat="47.25532" lon="-2.33339">
        <ele>23.799999237061</ele>
        <time>2022-03-20T08:11:15.000Z</time>
      </trkpt>
      <trkpt lat="47.25538" lon="-2.33386">
        <ele>23.799999237061</ele>
        <time>2022-03-20T08:11:22.000Z</time>
      </trkpt>
      <trkpt lat="47.25548" lon="-2.33426">
        <ele>23.799999237061</ele>
        <time>2022-03-20T08:11:28.000Z</time>
      </trkpt>
      <trkpt lat="47.25564" lon="-2.33469">
        <ele>23.799999237061</ele>
        <time>2022-03-20T08:11:35.000Z</time>
      </trkpt>
      <trkpt lat="47.25586" lon="-2.33508">
        <ele>23.799999237061</ele>
        <time>2022-03-20T08:11:42.000Z</time>
      </trkpt>
      <trkpt lat="47.25614" lon="-2.33541">
        <ele>23.799999237061</ele>
        <time>2022-03-20T08:11:49.000Z</time>
      </trkpt>
      <trkpt lat="47.25619" lon="-2.33545">
        <ele>23.799999237061</ele>
        <time>2022-03-20T08:11:50.000Z</time>
      </trkpt>
      <trkpt lat="47.25656" lon="-2.3357">
        <ele>23.799999237061</ele>
        <time>2022-03-20T08:11:58.000Z</time>
      </trkpt>
      <trkpt lat="47.25691" lon="-2.3358">
        <ele>23.799999237061</ele>
        <time>2022-03-20T08:12:05.000Z</time>
      </trkpt>
      <trkpt lat="47.25731" lon="-2.3358">
        <ele>23.799999237061</ele>
        <time>2022-03-20T08:12:13.000Z</time>
      </trkpt>
      <trkpt lat="47.25769" lon="-2.33576">
        <ele>23.799999237061</ele>
        <time>2022-03-20T08:12:20.000Z</time>
      </trkpt>
      <trkpt lat="47.25806" lon="-2.33574">
        <ele>23.799999237061</ele>
        <time>2022-03-20T08:12:27.000Z</time>
      </trkpt>
      <trkpt lat="47.25849" lon="-2.33571">
        <ele>23.799999237061</ele>
        <time>2022-03-20T08:12:35.000Z</time>
      </trkpt>
      <trkpt lat="47.2587" lon="-2.33569">
        <ele>23.799999237061</ele>
        <time>2022-03-20T08:12:39.000Z</time>
      </trkpt>
      <trkpt lat="47.25879" lon="-2.33563">
        <ele>23.799999237061</ele>
        <time>2022-03-20T08:12:41.000Z</time>
      </trkpt>
      <trkpt lat="47.2589" lon="-2.33559">
        <ele>23.799999237061</ele>
        <time>2022-03-20T08:12:43.000Z</time>
      </trkpt>
      <trkpt lat="47.25895" lon="-2.33556">
        <ele>23.799999237061</ele>
        <time>2022-03-20T08:12:44.000Z</time>
      </trkpt>
      <trkpt lat="47.259" lon="-2.33552">
        <ele>23.799999237061</ele>
        <time>2022-03-20T08:12:45.000Z</time>
      </trkpt>
      <trkpt lat="47.25939" lon="-2.33516">
        <ele>23.799999237061</ele>
        <time>2022-03-20T08:12:53.000Z</time>
      </trkpt>
      <trkpt lat="47.25964" lon="-2.33495">
        <ele>23.799999237061</ele>
        <time>2022-03-20T08:12:58.000Z</time>
      </trkpt>
      <trkpt lat="47.25969" lon="-2.33494">
        <ele>23.799999237061</ele>
        <time>2022-03-20T08:12:59.000Z</time>
      </trkpt>
      <trkpt lat="47.25994" lon="-2.33493">
        <ele>23.799999237061</ele>
        <time>2022-03-20T08:13:04.000Z</time>
      </trkpt>
      <trkpt lat="47.25999" lon="-2.33492">
        <ele>23.799999237061</ele>
        <time>2022-03-20T08:13:05.000Z</time>
      </trkpt>
      <trkpt lat="47.26026" lon="-2.33486">
        <ele>23.799999237061</ele>
        <time>2022-03-20T08:13:10.000Z</time>
      </trkpt>
      <trkpt lat="47.26031" lon="-2.33483">
        <ele>23.799999237061</ele>
        <time>2022-03-20T08:13:11.000Z</time>
      </trkpt>
      <trkpt lat="47.26042" lon="-2.3347">
        <ele>23.799999237061</ele>
        <time>2022-03-20T08:13:14.000Z</time>
      </trkpt>
      <trkpt lat="47.26045" lon="-2.33464">
        <ele>23.799999237061</ele>
        <time>2022-03-20T08:13:15.000Z</time>
      </trkpt>
      <trkpt lat="47.26048" lon="-2.33458">
        <ele>23.799999237061</ele>
        <time>2022-03-20T08:13:16.000Z</time>
      </trkpt>
      <trkpt lat="47.26059" lon="-2.33443">
        <ele>23.799999237061</ele>
        <time>2022-03-20T08:13:19.000Z</time>
      </trkpt>
      <trkpt lat="47.26068" lon="-2.33423">
        <ele>23.799999237061</ele>
        <time>2022-03-20T08:13:22.000Z</time>
      </trkpt>
      <trkpt lat="47.26071" lon="-2.33416">
        <ele>23.799999237061</ele>
        <time>2022-03-20T08:13:23.000Z</time>
      </trkpt>
      <trkpt lat="47.26074" lon="-2.3341">
        <ele>23.799999237061</ele>
        <time>2022-03-20T08:13:24.000Z</time>
      </trkpt>
      <trkpt lat="47.26082" lon="-2.33402">
        <ele>23.799999237061</ele>
        <time>2022-03-20T08:13:26.000Z</time>
      </trkpt>
      <trkpt lat="47.26098" lon="-2.33401">
        <ele>23.799999237061</ele>
        <time>2022-03-20T08:13:29.000Z</time>
      </trkpt>
      <trkpt lat="47.26115" lon="-2.33418">
        <ele>23.799999237061</ele>
        <time>2022-03-20T08:13:33.000Z</time>
      </trkpt>
      <trkpt lat="47.26118" lon="-2.33424">
        <ele>23.799999237061</ele>
        <time>2022-03-20T08:13:34.000Z</time>
      </trkpt>
      <trkpt lat="47.26126" lon="-2.33434">
        <ele>23.799999237061</ele>
        <time>2022-03-20T08:13:36.000Z</time>
      </trkpt>
      <trkpt lat="47.26136" lon="-2.33439">
        <ele>23.799999237061</ele>
        <time>2022-03-20T08:13:38.000Z</time>
      </trkpt>
      <trkpt lat="47.26147" lon="-2.3344">
        <ele>23.799999237061</ele>
        <time>2022-03-20T08:13:40.000Z</time>
      </trkpt>
      <trkpt lat="47.26175" lon="-2.33445">
        <ele>23.799999237061</ele>
        <time>2022-03-20T08:13:45.000Z</time>
      </trkpt>
      <trkpt lat="47.26204" lon="-2.33442">
        <ele>23.799999237061</ele>
        <time>2022-03-20T08:13:50.000Z</time>
      </trkpt>
      <trkpt lat="47.26254" lon="-2.33432">
        <ele>23.799999237061</ele>
        <time>2022-03-20T08:13:59.000Z</time>
      </trkpt>
      <trkpt lat="47.26292" lon="-2.33426">
        <ele>23.799999237061</ele>
        <time>2022-03-20T08:14:06.000Z</time>
      </trkpt>
      <trkpt lat="47.26329" lon="-2.33415">
        <ele>23.799999237061</ele>
        <time>2022-03-20T08:14:13.000Z</time>
      </trkpt>
      <trkpt lat="47.26351" lon="-2.33412">
        <ele>23.799999237061</ele>
        <time>2022-03-20T08:14:17.000Z</time>
      </trkpt>
      <trkpt lat="47.26362" lon="-2.33409">
        <ele>23.799999237061</ele>
        <time>2022-03-20T08:14:19.000Z</time>
      </trkpt>
      <trkpt lat="47.26404" lon="-2.33391">
        <ele>23.799999237061</ele>
        <time>2022-03-20T08:14:27.000Z</time>
      </trkpt>
      <trkpt lat="47.26449" lon="-2.33364">
        <ele>23.799999237061</ele>
        <time>2022-03-20T08:14:36.000Z</time>
      </trkpt>
      <trkpt lat="47.26484" lon="-2.33334">
        <ele>23.799999237061</ele>
        <time>2022-03-20T08:14:44.000Z</time>
      </trkpt>
      <trkpt lat="47.26494" lon="-2.33316">
        <ele>23.799999237061</ele>
        <time>2022-03-20T08:14:47.000Z</time>
      </trkpt>
      <trkpt lat="47.265" lon="-2.33303">
        <ele>24.200000762939</ele>
        <time>2022-03-20T08:14:49.000Z</time>
      </trkpt>
      <trkpt lat="47.26504" lon="-2.33298">
        <ele>24.799999237061</ele>
        <time>2022-03-20T08:14:50.000Z</time>
      </trkpt>
      <trkpt lat="47.26508" lon="-2.33296">
        <ele>25.60000038147</ele>
        <time>2022-03-20T08:14:51.000Z</time>
      </trkpt>
      <trkpt lat="47.26514" lon="-2.33297">
        <ele>26</ele>
        <time>2022-03-20T08:14:52.000Z</time>
      </trkpt>
      <trkpt lat="47.26519" lon="-2.333">
        <ele>26</ele>
        <time>2022-03-20T08:14:53.000Z</time>
      </trkpt>
      <trkpt lat="47.26527" lon="-2.33321">
        <ele>26</ele>
        <time>2022-03-20T08:14:56.000Z</time>
      </trkpt>
      <trkpt lat="47.26528" lon="-2.33354">
        <ele>26</ele>
        <time>2022-03-20T08:15:00.000Z</time>
      </trkpt>
      <trkpt lat="47.26532" lon="-2.33371">
        <ele>26</ele>
        <time>2022-03-20T08:15:02.000Z</time>
      </trkpt>
      <trkpt lat="47.2654" lon="-2.33403">
        <ele>26</ele>
        <time>2022-03-20T08:15:06.000Z</time>
      </trkpt>
      <trkpt lat="47.26553" lon="-2.33477">
        <ele>26</ele>
        <time>2022-03-20T08:15:15.000Z</time>
      </trkpt>
      <trkpt lat="47.26557" lon="-2.335">
        <ele>26</ele>
        <time>2022-03-20T08:15:18.000Z</time>
      </trkpt>
      <trkpt lat="47.26561" lon="-2.33514">
        <ele>26</ele>
        <time>2022-03-20T08:15:20.000Z</time>
      </trkpt>
      <trkpt lat="47.26565" lon="-2.33536">
        <ele>26</ele>
        <time>2022-03-20T08:15:23.000Z</time>
      </trkpt>
      <trkpt lat="47.26566" lon="-2.33543">
        <ele>26</ele>
        <time>2022-03-20T08:15:24.000Z</time>
      </trkpt>
      <trkpt lat="47.26575" lon="-2.33604">
        <ele>26</ele>
        <time>2022-03-20T08:15:32.000Z</time>
      </trkpt>
      <trkpt lat="47.26577" lon="-2.33619">
        <ele>26.39999961853</ele>
        <time>2022-03-20T08:15:34.000Z</time>
      </trkpt>
      <trkpt lat="47.26577" lon="-2.33626">
        <ele>26.799999237061</ele>
        <time>2022-03-20T08:15:35.000Z</time>
      </trkpt>
      <trkpt lat="47.26577" lon="-2.33634">
        <ele>27.200000762939</ele>
        <time>2022-03-20T08:15:36.000Z</time>
      </trkpt>
      <trkpt lat="47.26577" lon="-2.33641">
        <ele>27.799999237061</ele>
        <time>2022-03-20T08:15:37.000Z</time>
      </trkpt>
      <trkpt lat="47.26577" lon="-2.33648">
        <ele>28.200000762939</ele>
        <time>2022-03-20T08:15:38.000Z</time>
      </trkpt>
      <trkpt lat="47.26578" lon="-2.33655">
        <ele>28.200000762939</ele>
        <time>2022-03-20T08:15:39.000Z</time>
      </trkpt>
      <trkpt lat="47.26585" lon="-2.33672">
        <ele>28.200000762939</ele>
        <time>2022-03-20T08:15:42.000Z</time>
      </trkpt>
      <trkpt lat="47.26588" lon="-2.33677">
        <ele>28.200000762939</ele>
        <time>2022-03-20T08:15:43.000Z</time>
      </trkpt>
      <trkpt lat="47.26591" lon="-2.33683">
        <ele>28.60000038147</ele>
        <time>2022-03-20T08:15:44.000Z</time>
      </trkpt>
      <trkpt lat="47.26594" lon="-2.33688">
        <ele>29</ele>
        <time>2022-03-20T08:15:45.000Z</time>
      </trkpt>
      <trkpt lat="47.26598" lon="-2.33693">
        <ele>29.39999961853</ele>
        <time>2022-03-20T08:15:46.000Z</time>
      </trkpt>
      <trkpt lat="47.26602" lon="-2.33696">
        <ele>29.799999237061</ele>
        <time>2022-03-20T08:15:47.000Z</time>
      </trkpt>
      <trkpt lat="47.26607" lon="-2.33698">
        <ele>30.200000762939</ele>
        <time>2022-03-20T08:15:48.000Z</time>
      </trkpt>
      <trkpt lat="47.26612" lon="-2.33699">
        <ele>30.200000762939</ele>
        <time>2022-03-20T08:15:49.000Z</time>
      </trkpt>
      <trkpt lat="47.26617" lon="-2.337">
        <ele>30.200000762939</ele>
        <time>2022-03-20T08:15:50.000Z</time>
      </trkpt>
      <trkpt lat="47.26628" lon="-2.33701">
        <ele>30.200000762939</ele>
        <time>2022-03-20T08:15:52.000Z</time>
      </trkpt>
      <trkpt lat="47.26659" lon="-2.337">
        <ele>30.200000762939</ele>
        <time>2022-03-20T08:15:58.000Z</time>
      </trkpt>
      <trkpt lat="47.26697" lon="-2.33699">
        <ele>30.200000762939</ele>
        <time>2022-03-20T08:16:05.000Z</time>
      </trkpt>
      <trkpt lat="47.26738" lon="-2.33699">
        <ele>30.200000762939</ele>
        <time>2022-03-20T08:16:12.000Z</time>
      </trkpt>
      <trkpt lat="47.26769" lon="-2.33704">
        <ele>30.200000762939</ele>
        <time>2022-03-20T08:16:18.000Z</time>
      </trkpt>
      <trkpt lat="47.26773" lon="-2.33703">
        <ele>30.200000762939</ele>
        <time>2022-03-20T08:16:19.000Z</time>
      </trkpt>
      <trkpt lat="47.26776" lon="-2.33698">
        <ele>30.200000762939</ele>
        <time>2022-03-20T08:16:20.000Z</time>
      </trkpt>
      <trkpt lat="47.26777" lon="-2.33677">
        <ele>30.200000762939</ele>
        <time>2022-03-20T08:16:23.000Z</time>
      </trkpt>
      <trkpt lat="47.26777" lon="-2.33668">
        <ele>30.200000762939</ele>
        <time>2022-03-20T08:16:24.000Z</time>
      </trkpt>
      <trkpt lat="47.26777" lon="-2.33623">
        <ele>30.200000762939</ele>
        <time>2022-03-20T08:16:29.000Z</time>
      </trkpt>
      <trkpt lat="47.26781" lon="-2.33572">
        <ele>30.200000762939</ele>
        <time>2022-03-20T08:16:35.000Z</time>
      </trkpt>
      <trkpt lat="47.26794" lon="-2.33561">
        <ele>30.200000762939</ele>
        <time>2022-03-20T08:16:38.000Z</time>
      </trkpt>
      <trkpt lat="47.26799" lon="-2.33559">
        <ele>30.200000762939</ele>
        <time>2022-03-20T08:16:39.000Z</time>
      </trkpt>
      <trkpt lat="47.26804" lon="-2.33557">
        <ele>30.200000762939</ele>
        <time>2022-03-20T08:16:40.000Z</time>
      </trkpt>
      <trkpt lat="47.26819" lon="-2.33552">
        <ele>30.200000762939</ele>
        <time>2022-03-20T08:16:43.000Z</time>
      </trkpt>
      <trkpt lat="47.26823" lon="-2.3355">
        <ele>30.200000762939</ele>
        <time>2022-03-20T08:16:44.000Z</time>
      </trkpt>
      <trkpt lat="47.26849" lon="-2.33539">
        <ele>30.200000762939</ele>
        <time>2022-03-20T08:16:50.000Z</time>
      </trkpt>
      <trkpt lat="47.26871" lon="-2.33534">
        <ele>30.200000762939</ele>
        <time>2022-03-20T08:16:54.000Z</time>
      </trkpt>
      <trkpt lat="47.2688" lon="-2.33531">
        <ele>30.200000762939</ele>
        <time>2022-03-20T08:16:56.000Z</time>
      </trkpt>
      <trkpt lat="47.26886" lon="-2.33517">
        <ele>30.200000762939</ele>
        <time>2022-03-20T08:16:59.000Z</time>
      </trkpt>
      <trkpt lat="47.26886" lon="-2.33512">
        <ele>30.60000038147</ele>
        <time>2022-03-20T08:17:00.000Z</time>
      </trkpt>
      <trkpt lat="47.26885" lon="-2.33507">
        <ele>31.200000762939</ele>
        <time>2022-03-20T08:17:01.000Z</time>
      </trkpt>
      <trkpt lat="47.26884" lon="-2.33502">
        <ele>31.60000038147</ele>
        <time>2022-03-20T08:17:02.000Z</time>
      </trkpt>
      <trkpt lat="47.26884" lon="-2.33497">
        <ele>32</ele>
        <time>2022-03-20T08:17:03.000Z</time>
      </trkpt>
      <trkpt lat="47.26883" lon="-2.33492">
        <ele>32.400001525879</ele>
        <time>2022-03-20T08:17:04.000Z</time>
      </trkpt>
      <trkpt lat="47.26879" lon="-2.33477">
        <ele>32.799999237061</ele>
        <time>2022-03-20T08:17:07.000Z</time>
      </trkpt>
      <trkpt lat="47.26878" lon="-2.33473">
        <ele>33.400001525879</ele>
        <time>2022-03-20T08:17:08.000Z</time>
      </trkpt>
      <trkpt lat="47.26878" lon="-2.33468">
        <ele>33.799999237061</ele>
        <time>2022-03-20T08:17:09.000Z</time>
      </trkpt>
      <trkpt lat="47.26877" lon="-2.33464">
        <ele>34.400001525879</ele>
        <time>2022-03-20T08:17:10.000Z</time>
      </trkpt>
      <trkpt lat="47.26876" lon="-2.3346">
        <ele>34.799999237061</ele>
        <time>2022-03-20T08:17:11.000Z</time>
      </trkpt>
      <trkpt lat="47.26876" lon="-2.33451">
        <ele>35.200000762939</ele>
        <time>2022-03-20T08:17:13.000Z</time>
      </trkpt>
      <trkpt lat="47.26876" lon="-2.33447">
        <ele>35.799999237061</ele>
        <time>2022-03-20T08:17:14.000Z</time>
      </trkpt>
      <trkpt lat="47.26875" lon="-2.33443">
        <ele>36.200000762939</ele>
        <time>2022-03-20T08:17:15.000Z</time>
      </trkpt>
      <trkpt lat="47.26875" lon="-2.33439">
        <ele>36.599998474121</ele>
        <time>2022-03-20T08:17:16.000Z</time>
      </trkpt>
      <trkpt lat="47.26876" lon="-2.33435">
        <ele>37</ele>
        <time>2022-03-20T08:17:17.000Z</time>
      </trkpt>
      <trkpt lat="47.26878" lon="-2.33431">
        <ele>37</ele>
        <time>2022-03-20T08:17:18.000Z</time>
      </trkpt>
      <trkpt lat="47.26879" lon="-2.33427">
        <ele>37.599998474121</ele>
        <time>2022-03-20T08:17:19.000Z</time>
      </trkpt>
      <trkpt lat="47.2688" lon="-2.33424">
        <ele>38.400001525879</ele>
        <time>2022-03-20T08:17:20.000Z</time>
      </trkpt>
      <trkpt lat="47.26882" lon="-2.33421">
        <ele>39</ele>
        <time>2022-03-20T08:17:21.000Z</time>
      </trkpt>
      <trkpt lat="47.26885" lon="-2.33419">
        <ele>39.400001525879</ele>
        <time>2022-03-20T08:17:22.000Z</time>
      </trkpt>
      <trkpt lat="47.26887" lon="-2.33416">
        <ele>39.799999237061</ele>
        <time>2022-03-20T08:17:23.000Z</time>
      </trkpt>
      <trkpt lat="47.2689" lon="-2.33414">
        <ele>40.200000762939</ele>
        <time>2022-03-20T08:17:24.000Z</time>
      </trkpt>
      <trkpt lat="47.26893" lon="-2.33413">
        <ele>40.599998474121</ele>
        <time>2022-03-20T08:17:25.000Z</time>
      </trkpt>
      <trkpt lat="47.26896" lon="-2.33412">
        <ele>41</ele>
        <time>2022-03-20T08:17:26.000Z</time>
      </trkpt>
      <trkpt lat="47.269" lon="-2.3341">
        <ele>41.400001525879</ele>
        <time>2022-03-20T08:17:27.000Z</time>
      </trkpt>
      <trkpt lat="47.26903" lon="-2.33408">
        <ele>41.400001525879</ele>
        <time>2022-03-20T08:17:28.000Z</time>
      </trkpt>
      <trkpt lat="47.26917" lon="-2.33401">
        <ele>41.799999237061</ele>
        <time>2022-03-20T08:17:32.000Z</time>
      </trkpt>
      <trkpt lat="47.2692" lon="-2.33399">
        <ele>42.200000762939</ele>
        <time>2022-03-20T08:17:33.000Z</time>
      </trkpt>
      <trkpt lat="47.26923" lon="-2.33397">
        <ele>42.599998474121</ele>
        <time>2022-03-20T08:17:34.000Z</time>
      </trkpt>
      <trkpt lat="47.26927" lon="-2.33396">
        <ele>43.200000762939</ele>
        <time>2022-03-20T08:17:35.000Z</time>
      </trkpt>
      <trkpt lat="47.2693" lon="-2.33394">
        <ele>43.599998474121</ele>
        <time>2022-03-20T08:17:36.000Z</time>
      </trkpt>
      <trkpt lat="47.26936" lon="-2.33392">
        <ele>43.599998474121</ele>
        <time>2022-03-20T08:17:38.000Z</time>
      </trkpt>
      <trkpt lat="47.26953" lon="-2.33385">
        <ele>44</ele>
        <time>2022-03-20T08:17:43.000Z</time>
      </trkpt>
      <trkpt lat="47.26957" lon="-2.33384">
        <ele>44.799999237061</ele>
        <time>2022-03-20T08:17:44.000Z</time>
      </trkpt>
      <trkpt lat="47.2696" lon="-2.33382">
        <ele>45.200000762939</ele>
        <time>2022-03-20T08:17:45.000Z</time>
      </trkpt>
      <trkpt lat="47.26963" lon="-2.33381">
        <ele>45.599998474121</ele>
        <time>2022-03-20T08:17:46.000Z</time>
      </trkpt>
      <trkpt lat="47.26968" lon="-2.33377">
        <ele>45.599998474121</ele>
        <time>2022-03-20T08:17:48.000Z</time>
      </trkpt>
      <trkpt lat="47.26968" lon="-2.33362">
        <ele>45.599998474121</ele>
        <time>2022-03-20T08:17:51.000Z</time>
      </trkpt>
      <trkpt lat="47.26964" lon="-2.3335">
        <ele>45.599998474121</ele>
        <time>2022-03-20T08:17:53.000Z</time>
      </trkpt>
      <trkpt lat="47.26957" lon="-2.33332">
        <ele>45.599998474121</ele>
        <time>2022-03-20T08:17:56.000Z</time>
      </trkpt>
      <trkpt lat="47.26943" lon="-2.3329">
        <ele>45.599998474121</ele>
        <time>2022-03-20T08:18:03.000Z</time>
      </trkpt>
      <trkpt lat="47.26929" lon="-2.3324">
        <ele>45.599998474121</ele>
        <time>2022-03-20T08:18:12.000Z</time>
      </trkpt>
      <trkpt lat="47.26928" lon="-2.33226">
        <ele>45.599998474121</ele>
        <time>2022-03-20T08:18:15.000Z</time>
      </trkpt>
      <trkpt lat="47.2693" lon="-2.33223">
        <ele>45.599998474121</ele>
        <time>2022-03-20T08:18:16.000Z</time>
      </trkpt>
      <trkpt lat="47.26941" lon="-2.33217">
        <ele>45.599998474121</ele>
        <time>2022-03-20T08:18:19.000Z</time>
      </trkpt>
      <trkpt lat="47.26946" lon="-2.33214">
        <ele>45.599998474121</ele>
        <time>2022-03-20T08:18:20.000Z</time>
      </trkpt>
      <trkpt lat="47.26951" lon="-2.33211">
        <ele>46</ele>
        <time>2022-03-20T08:18:21.000Z</time>
      </trkpt>
      <trkpt lat="47.26955" lon="-2.33209">
        <ele>46.400001525879</ele>
        <time>2022-03-20T08:18:22.000Z</time>
      </trkpt>
      <trkpt lat="47.26959" lon="-2.33205">
        <ele>46.799999237061</ele>
        <time>2022-03-20T08:18:23.000Z</time>
      </trkpt>
      <trkpt lat="47.26962" lon="-2.33202">
        <ele>47.200000762939</ele>
        <time>2022-03-20T08:18:24.000Z</time>
      </trkpt>
      <trkpt lat="47.26966" lon="-2.33199">
        <ele>47.799999237061</ele>
        <time>2022-03-20T08:18:25.000Z</time>
      </trkpt>
      <trkpt lat="47.2697" lon="-2.33196">
        <ele>47.799999237061</ele>
        <time>2022-03-20T08:18:26.000Z</time>
      </trkpt>
      <trkpt lat="47.26985" lon="-2.33178">
        <ele>47.799999237061</ele>
        <time>2022-03-20T08:18:30.000Z</time>
      </trkpt>
      <trkpt lat="47.26989" lon="-2.33174">
        <ele>47.799999237061</ele>
        <time>2022-03-20T08:18:31.000Z</time>
      </trkpt>
      <trkpt lat="47.26993" lon="-2.33171">
        <ele>47.799999237061</ele>
        <time>2022-03-20T08:18:32.000Z</time>
      </trkpt>
      <trkpt lat="47.27011" lon="-2.33158">
        <ele>47.799999237061</ele>
        <time>2022-03-20T08:18:36.000Z</time>
      </trkpt>
      <trkpt lat="47.27045" lon="-2.33124">
        <ele>47.799999237061</ele>
        <time>2022-03-20T08:18:44.000Z</time>
      </trkpt>
      <trkpt lat="47.27081" lon="-2.33084">
        <ele>47.799999237061</ele>
        <time>2022-03-20T08:18:53.000Z</time>
      </trkpt>
      <trkpt lat="47.27085" lon="-2.33081">
        <ele>47.799999237061</ele>
        <time>2022-03-20T08:18:54.000Z</time>
      </trkpt>
      <trkpt lat="47.27093" lon="-2.33073">
        <ele>47.799999237061</ele>
        <time>2022-03-20T08:18:56.000Z</time>
      </trkpt>
      <trkpt lat="47.27101" lon="-2.33065">
        <ele>47.799999237061</ele>
        <time>2022-03-20T08:18:58.000Z</time>
      </trkpt>
      <trkpt lat="47.27128" lon="-2.33043">
        <ele>47.799999237061</ele>
        <time>2022-03-20T08:19:04.000Z</time>
      </trkpt>
      <trkpt lat="47.27132" lon="-2.33039">
        <ele>47.799999237061</ele>
        <time>2022-03-20T08:19:05.000Z</time>
      </trkpt>
      <trkpt lat="47.27158" lon="-2.3302">
        <ele>47.799999237061</ele>
        <time>2022-03-20T08:19:11.000Z</time>
      </trkpt>
      <trkpt lat="47.27162" lon="-2.33016">
        <ele>47.799999237061</ele>
        <time>2022-03-20T08:19:12.000Z</time>
      </trkpt>
      <trkpt lat="47.27182" lon="-2.33003">
        <ele>47.799999237061</ele>
        <time>2022-03-20T08:19:17.000Z</time>
      </trkpt>
      <trkpt lat="47.27208" lon="-2.32985">
        <ele>47.799999237061</ele>
        <time>2022-03-20T08:19:23.000Z</time>
      </trkpt>
      <trkpt lat="47.27213" lon="-2.32984">
        <ele>47.799999237061</ele>
        <time>2022-03-20T08:19:24.000Z</time>
      </trkpt>
      <trkpt lat="47.27224" lon="-2.32992">
        <ele>47.799999237061</ele>
        <time>2022-03-20T08:19:27.000Z</time>
      </trkpt>
      <trkpt lat="47.27227" lon="-2.32997">
        <ele>47.799999237061</ele>
        <time>2022-03-20T08:19:28.000Z</time>
      </trkpt>
      <trkpt lat="47.2725" lon="-2.33033">
        <ele>47.799999237061</ele>
        <time>2022-03-20T08:19:35.000Z</time>
      </trkpt>
      <trkpt lat="47.27257" lon="-2.33044">
        <ele>48.200000762939</ele>
        <time>2022-03-20T08:19:37.000Z</time>
      </trkpt>
      <trkpt lat="47.2726" lon="-2.33049">
        <ele>48.599998474121</ele>
        <time>2022-03-20T08:19:38.000Z</time>
      </trkpt>
      <trkpt lat="47.27263" lon="-2.33054">
        <ele>49</ele>
        <time>2022-03-20T08:19:39.000Z</time>
      </trkpt>
      <trkpt lat="47.27266" lon="-2.33059">
        <ele>49.400001525879</ele>
        <time>2022-03-20T08:19:40.000Z</time>
      </trkpt>
      <trkpt lat="47.27269" lon="-2.33064">
        <ele>49.799999237061</ele>
        <time>2022-03-20T08:19:41.000Z</time>
      </trkpt>
      <trkpt lat="47.27275" lon="-2.33073">
        <ele>49.799999237061</ele>
        <time>2022-03-20T08:19:43.000Z</time>
      </trkpt>
      <trkpt lat="47.27294" lon="-2.33099">
        <ele>49.799999237061</ele>
        <time>2022-03-20T08:19:49.000Z</time>
      </trkpt>
      <trkpt lat="47.273" lon="-2.33107">
        <ele>49.799999237061</ele>
        <time>2022-03-20T08:19:51.000Z</time>
      </trkpt>
      <trkpt lat="47.27308" lon="-2.33106">
        <ele>49.799999237061</ele>
        <time>2022-03-20T08:19:53.000Z</time>
      </trkpt>
      <trkpt lat="47.27314" lon="-2.33104">
        <ele>50.200000762939</ele>
        <time>2022-03-20T08:19:55.000Z</time>
      </trkpt>
      <trkpt lat="47.27317" lon="-2.33102">
        <ele>50.599998474121</ele>
        <time>2022-03-20T08:19:56.000Z</time>
      </trkpt>
      <trkpt lat="47.2732" lon="-2.33098">
        <ele>51</ele>
        <time>2022-03-20T08:19:57.000Z</time>
      </trkpt>
      <trkpt lat="47.27322" lon="-2.33093">
        <ele>51.400001525879</ele>
        <time>2022-03-20T08:19:58.000Z</time>
      </trkpt>
      <trkpt lat="47.27324" lon="-2.33087">
        <ele>51.799999237061</ele>
        <time>2022-03-20T08:19:59.000Z</time>
      </trkpt>
      <trkpt lat="47.27332" lon="-2.33067">
        <ele>51.799999237061</ele>
        <time>2022-03-20T08:20:02.000Z</time>
      </trkpt>
      <trkpt lat="47.27354" lon="-2.32999">
        <ele>51.799999237061</ele>
        <time>2022-03-20T08:20:12.000Z</time>
      </trkpt>
      <trkpt lat="47.2736" lon="-2.32983">
        <ele>51.799999237061</ele>
        <time>2022-03-20T08:20:15.000Z</time>
      </trkpt>
      <trkpt lat="47.27368" lon="-2.32967">
        <ele>51.799999237061</ele>
        <time>2022-03-20T08:20:18.000Z</time>
      </trkpt>
      <trkpt lat="47.27379" lon="-2.32944">
        <ele>51.799999237061</ele>
        <time>2022-03-20T08:20:22.000Z</time>
      </trkpt>
      <trkpt lat="47.27381" lon="-2.32939">
        <ele>51.400001525879</ele>
        <time>2022-03-20T08:20:23.000Z</time>
      </trkpt>
      <trkpt lat="47.27384" lon="-2.32935">
        <ele>51</ele>
        <time>2022-03-20T08:20:24.000Z</time>
      </trkpt>
      <trkpt lat="47.27388" lon="-2.32932">
        <ele>50.400001525879</ele>
        <time>2022-03-20T08:20:25.000Z</time>
      </trkpt>
      <trkpt lat="47.27391" lon="-2.32931">
        <ele>50</ele>
        <time>2022-03-20T08:20:26.000Z</time>
      </trkpt>
      <trkpt lat="47.27394" lon="-2.32933">
        <ele>49.599998474121</ele>
        <time>2022-03-20T08:20:27.000Z</time>
      </trkpt>
      <trkpt lat="47.27401" lon="-2.32945">
        <ele>49.599998474121</ele>
        <time>2022-03-20T08:20:30.000Z</time>
      </trkpt>
      <trkpt lat="47.27403" lon="-2.32951">
        <ele>49.599998474121</ele>
        <time>2022-03-20T08:20:31.000Z</time>
      </trkpt>
      <trkpt lat="47.27407" lon="-2.32964">
        <ele>49.599998474121</ele>
        <time>2022-03-20T08:20:33.000Z</time>
      </trkpt>
      <trkpt lat="47.27411" lon="-2.32984">
        <ele>49.599998474121</ele>
        <time>2022-03-20T08:20:36.000Z</time>
      </trkpt>
      <trkpt lat="47.27418" lon="-2.33009">
        <ele>50</ele>
        <time>2022-03-20T08:20:40.000Z</time>
      </trkpt>
      <trkpt lat="47.27419" lon="-2.33015">
        <ele>50.400001525879</ele>
        <time>2022-03-20T08:20:41.000Z</time>
      </trkpt>
      <trkpt lat="47.27421" lon="-2.33021">
        <ele>51</ele>
        <time>2022-03-20T08:20:42.000Z</time>
      </trkpt>
      <trkpt lat="47.27423" lon="-2.33027">
        <ele>51.400001525879</ele>
        <time>2022-03-20T08:20:43.000Z</time>
      </trkpt>
      <trkpt lat="47.27425" lon="-2.33033">
        <ele>51.799999237061</ele>
        <time>2022-03-20T08:20:44.000Z</time>
      </trkpt>
      <trkpt lat="47.2743" lon="-2.33045">
        <ele>51.799999237061</ele>
        <time>2022-03-20T08:20:46.000Z</time>
      </trkpt>
      <trkpt lat="47.27436" lon="-2.33052">
        <ele>51.799999237061</ele>
        <time>2022-03-20T08:20:48.000Z</time>
      </trkpt>
      <trkpt lat="47.2744" lon="-2.33053">
        <ele>52.200000762939</ele>
        <time>2022-03-20T08:20:49.000Z</time>
      </trkpt>
      <trkpt lat="47.27444" lon="-2.33053">
        <ele>52.599998474121</ele>
        <time>2022-03-20T08:20:50.000Z</time>
      </trkpt>
      <trkpt lat="47.27448" lon="-2.33051">
        <ele>53</ele>
        <time>2022-03-20T08:20:51.000Z</time>
      </trkpt>
      <trkpt lat="47.27453" lon="-2.33048">
        <ele>53.400001525879</ele>
        <time>2022-03-20T08:20:52.000Z</time>
      </trkpt>
      <trkpt lat="47.27456" lon="-2.33045">
        <ele>53.799999237061</ele>
        <time>2022-03-20T08:20:53.000Z</time>
      </trkpt>
      <trkpt lat="47.27463" lon="-2.33035">
        <ele>53.799999237061</ele>
        <time>2022-03-20T08:20:55.000Z</time>
      </trkpt>
      <trkpt lat="47.27471" lon="-2.33013">
        <ele>53.799999237061</ele>
        <time>2022-03-20T08:20:58.000Z</time>
      </trkpt>
      <trkpt lat="47.27474" lon="-2.33006">
        <ele>53.799999237061</ele>
        <time>2022-03-20T08:20:59.000Z</time>
      </trkpt>
      <trkpt lat="47.27497" lon="-2.3294">
        <ele>53.799999237061</ele>
        <time>2022-03-20T08:21:07.000Z</time>
      </trkpt>
      <trkpt lat="47.275" lon="-2.32931">
        <ele>53.400001525879</ele>
        <time>2022-03-20T08:21:08.000Z</time>
      </trkpt>
      <trkpt lat="47.27502" lon="-2.32921">
        <ele>53</ele>
        <time>2022-03-20T08:21:09.000Z</time>
      </trkpt>
      <trkpt lat="47.27504" lon="-2.32912">
        <ele>52.599998474121</ele>
        <time>2022-03-20T08:21:10.000Z</time>
      </trkpt>
      <trkpt lat="47.27507" lon="-2.32903">
        <ele>52</ele>
        <time>2022-03-20T08:21:11.000Z</time>
      </trkpt>
      <trkpt lat="47.2751" lon="-2.32893">
        <ele>51.599998474121</ele>
        <time>2022-03-20T08:21:12.000Z</time>
      </trkpt>
      <trkpt lat="47.27516" lon="-2.32876">
        <ele>51.599998474121</ele>
        <time>2022-03-20T08:21:14.000Z</time>
      </trkpt>
      <trkpt lat="47.27523" lon="-2.32864">
        <ele>51.599998474121</ele>
        <time>2022-03-20T08:21:16.000Z</time>
      </trkpt>
      <trkpt lat="47.2753" lon="-2.32853">
        <ele>51.599998474121</ele>
        <time>2022-03-20T08:21:18.000Z</time>
      </trkpt>
      <trkpt lat="47.27534" lon="-2.32848">
        <ele>51.200000762939</ele>
        <time>2022-03-20T08:21:19.000Z</time>
      </trkpt>
      <trkpt lat="47.27538" lon="-2.32844">
        <ele>50.799999237061</ele>
        <time>2022-03-20T08:21:20.000Z</time>
      </trkpt>
      <trkpt lat="47.27543" lon="-2.3284">
        <ele>50.400001525879</ele>
        <time>2022-03-20T08:21:21.000Z</time>
      </trkpt>
      <trkpt lat="47.27547" lon="-2.32838">
        <ele>49.799999237061</ele>
        <time>2022-03-20T08:21:22.000Z</time>
      </trkpt>
      <trkpt lat="47.27552" lon="-2.32835">
        <ele>49.400001525879</ele>
        <time>2022-03-20T08:21:23.000Z</time>
      </trkpt>
      <trkpt lat="47.27559" lon="-2.32829">
        <ele>49.400001525879</ele>
        <time>2022-03-20T08:21:25.000Z</time>
      </trkpt>
      <trkpt lat="47.27561" lon="-2.32825">
        <ele>49.400001525879</ele>
        <time>2022-03-20T08:21:26.000Z</time>
      </trkpt>
      <trkpt lat="47.2757" lon="-2.32801">
        <ele>49.400001525879</ele>
        <time>2022-03-20T08:21:30.000Z</time>
      </trkpt>
      <trkpt lat="47.27574" lon="-2.32787">
        <ele>49</ele>
        <time>2022-03-20T08:21:32.000Z</time>
      </trkpt>
      <trkpt lat="47.27576" lon="-2.32782">
        <ele>48.599998474121</ele>
        <time>2022-03-20T08:21:33.000Z</time>
      </trkpt>
      <trkpt lat="47.27577" lon="-2.32778">
        <ele>48</ele>
        <time>2022-03-20T08:21:34.000Z</time>
      </trkpt>
      <trkpt lat="47.27578" lon="-2.32775">
        <ele>47.599998474121</ele>
        <time>2022-03-20T08:21:35.000Z</time>
      </trkpt>
      <trkpt lat="47.27579" lon="-2.32772">
        <ele>47.200000762939</ele>
        <time>2022-03-20T08:21:36.000Z</time>
      </trkpt>
      <trkpt lat="47.27584" lon="-2.32761">
        <ele>47.200000762939</ele>
        <time>2022-03-20T08:21:39.000Z</time>
      </trkpt>
      <trkpt lat="47.27584" lon="-2.32749">
        <ele>47.200000762939</ele>
        <time>2022-03-20T08:21:41.000Z</time>
      </trkpt>
      <trkpt lat="47.27583" lon="-2.32742">
        <ele>46.799999237061</ele>
        <time>2022-03-20T08:21:42.000Z</time>
      </trkpt>
      <trkpt lat="47.27584" lon="-2.32735">
        <ele>46.400001525879</ele>
        <time>2022-03-20T08:21:43.000Z</time>
      </trkpt>
      <trkpt lat="47.27585" lon="-2.32728">
        <ele>46</ele>
        <time>2022-03-20T08:21:44.000Z</time>
      </trkpt>
      <trkpt lat="47.27587" lon="-2.32721">
        <ele>45.400001525879</ele>
        <time>2022-03-20T08:21:45.000Z</time>
      </trkpt>
      <trkpt lat="47.27588" lon="-2.32713">
        <ele>44.799999237061</ele>
        <time>2022-03-20T08:21:46.000Z</time>
      </trkpt>
      <trkpt lat="47.27591" lon="-2.32705">
        <ele>44.200000762939</ele>
        <time>2022-03-20T08:21:47.000Z</time>
      </trkpt>
      <trkpt lat="47.27594" lon="-2.32697">
        <ele>43.599998474121</ele>
        <time>2022-03-20T08:21:48.000Z</time>
      </trkpt>
      <trkpt lat="47.27599" lon="-2.32692">
        <ele>43</ele>
        <time>2022-03-20T08:21:49.000Z</time>
      </trkpt>
      <trkpt lat="47.27604" lon="-2.32691">
        <ele>43</ele>
        <time>2022-03-20T08:21:50.000Z</time>
      </trkpt>
      <trkpt lat="47.27608" lon="-2.32692">
        <ele>42.200000762939</ele>
        <time>2022-03-20T08:21:51.000Z</time>
      </trkpt>
      <trkpt lat="47.27613" lon="-2.32695">
        <ele>41.799999237061</ele>
        <time>2022-03-20T08:21:52.000Z</time>
      </trkpt>
      <trkpt lat="47.27617" lon="-2.327">
        <ele>41.400001525879</ele>
        <time>2022-03-20T08:21:53.000Z</time>
      </trkpt>
      <trkpt lat="47.27621" lon="-2.32704">
        <ele>41</ele>
        <time>2022-03-20T08:21:54.000Z</time>
      </trkpt>
      <trkpt lat="47.27625" lon="-2.32707">
        <ele>41</ele>
        <time>2022-03-20T08:21:55.000Z</time>
      </trkpt>
      <trkpt lat="47.27639" lon="-2.32715">
        <ele>41</ele>
        <time>2022-03-20T08:21:58.000Z</time>
      </trkpt>
      <trkpt lat="47.27668" lon="-2.32729">
        <ele>41</ele>
        <time>2022-03-20T08:22:04.000Z</time>
      </trkpt>
      <trkpt lat="47.27684" lon="-2.32729">
        <ele>41</ele>
        <time>2022-03-20T08:22:08.000Z</time>
      </trkpt>
      <trkpt lat="47.27694" lon="-2.32722">
        <ele>41</ele>
        <time>2022-03-20T08:22:12.000Z</time>
      </trkpt>
      <trkpt lat="47.27698" lon="-2.3272">
        <ele>41</ele>
        <time>2022-03-20T08:22:14.000Z</time>
      </trkpt>
      <trkpt lat="47.27704" lon="-2.32712">
        <ele>41</ele>
        <time>2022-03-20T08:22:17.000Z</time>
      </trkpt>
      <trkpt lat="47.27714" lon="-2.327">
        <ele>41</ele>
        <time>2022-03-20T08:22:21.000Z</time>
      </trkpt>
      <trkpt lat="47.27719" lon="-2.32692">
        <ele>41.599998474121</ele>
        <time>2022-03-20T08:22:23.000Z</time>
      </trkpt>
      <trkpt lat="47.27721" lon="-2.32688">
        <ele>42</ele>
        <time>2022-03-20T08:22:24.000Z</time>
      </trkpt>
      <trkpt lat="47.27724" lon="-2.32683">
        <ele>42.400001525879</ele>
        <time>2022-03-20T08:22:25.000Z</time>
      </trkpt>
      <trkpt lat="47.27726" lon="-2.32679">
        <ele>43</ele>
        <time>2022-03-20T08:22:26.000Z</time>
      </trkpt>
      <trkpt lat="47.27728" lon="-2.32674">
        <ele>43.400001525879</ele>
        <time>2022-03-20T08:22:27.000Z</time>
      </trkpt>
      <trkpt lat="47.27729" lon="-2.32669">
        <ele>43.799999237061</ele>
        <time>2022-03-20T08:22:28.000Z</time>
      </trkpt>
      <trkpt lat="47.27731" lon="-2.32666">
        <ele>44.200000762939</ele>
        <time>2022-03-20T08:22:29.000Z</time>
      </trkpt>
      <trkpt lat="47.27733" lon="-2.32662">
        <ele>44.599998474121</ele>
        <time>2022-03-20T08:22:30.000Z</time>
      </trkpt>
      <trkpt lat="47.27735" lon="-2.32659">
        <ele>45</ele>
        <time>2022-03-20T08:22:31.000Z</time>
      </trkpt>
      <trkpt lat="47.27736" lon="-2.32655">
        <ele>45.400001525879</ele>
        <time>2022-03-20T08:22:32.000Z</time>
      </trkpt>
      <trkpt lat="47.27738" lon="-2.32652">
        <ele>46</ele>
        <time>2022-03-20T08:22:33.000Z</time>
      </trkpt>
      <trkpt lat="47.27739" lon="-2.32648">
        <ele>46.400001525879</ele>
        <time>2022-03-20T08:22:34.000Z</time>
      </trkpt>
      <trkpt lat="47.27741" lon="-2.32645">
        <ele>46.799999237061</ele>
        <time>2022-03-20T08:22:35.000Z</time>
      </trkpt>
      <trkpt lat="47.27742" lon="-2.32642">
        <ele>47.200000762939</ele>
        <time>2022-03-20T08:22:36.000Z</time>
      </trkpt>
      <trkpt lat="47.27743" lon="-2.32638">
        <ele>47.799999237061</ele>
        <time>2022-03-20T08:22:37.000Z</time>
      </trkpt>
      <trkpt lat="47.27744" lon="-2.32634">
        <ele>48.200000762939</ele>
        <time>2022-03-20T08:22:38.000Z</time>
      </trkpt>
      <trkpt lat="47.27746" lon="-2.3263">
        <ele>48.599998474121</ele>
        <time>2022-03-20T08:22:39.000Z</time>
      </trkpt>
      <trkpt lat="47.27748" lon="-2.32626">
        <ele>49</ele>
        <time>2022-03-20T08:22:40.000Z</time>
      </trkpt>
      <trkpt lat="47.2775" lon="-2.32622">
        <ele>50</ele>
        <time>2022-03-20T08:22:41.000Z</time>
      </trkpt>
      <trkpt lat="47.27755" lon="-2.32614">
        <ele>50</ele>
        <time>2022-03-20T08:22:43.000Z</time>
      </trkpt>
      <trkpt lat="47.27771" lon="-2.32586">
        <ele>50</ele>
        <time>2022-03-20T08:22:49.000Z</time>
      </trkpt>
      <trkpt lat="47.27775" lon="-2.32581">
        <ele>50.400001525879</ele>
        <time>2022-03-20T08:22:50.000Z</time>
      </trkpt>
      <trkpt lat="47.27778" lon="-2.32578">
        <ele>50.799999237061</ele>
        <time>2022-03-20T08:22:51.000Z</time>
      </trkpt>
      <trkpt lat="47.27781" lon="-2.32573">
        <ele>51.200000762939</ele>
        <time>2022-03-20T08:22:52.000Z</time>
      </trkpt>
      <trkpt lat="47.27784" lon="-2.32569">
        <ele>51.599998474121</ele>
        <time>2022-03-20T08:22:53.000Z</time>
      </trkpt>
      <trkpt lat="47.27786" lon="-2.32565">
        <ele>52</ele>
        <time>2022-03-20T08:22:54.000Z</time>
      </trkpt>
      <trkpt lat="47.27788" lon="-2.32562">
        <ele>52</ele>
        <time>2022-03-20T08:22:55.000Z</time>
      </trkpt>
      <trkpt lat="47.27805" lon="-2.32541">
        <ele>52</ele>
        <time>2022-03-20T08:23:02.000Z</time>
      </trkpt>
      <trkpt lat="47.27818" lon="-2.32524">
        <ele>52</ele>
        <time>2022-03-20T08:23:07.000Z</time>
      </trkpt>
      <trkpt lat="47.2783" lon="-2.32498">
        <ele>52</ele>
        <time>2022-03-20T08:23:13.000Z</time>
      </trkpt>
      <trkpt lat="47.27839" lon="-2.32481">
        <ele>52</ele>
        <time>2022-03-20T08:23:18.000Z</time>
      </trkpt>
      <trkpt lat="47.27857" lon="-2.32462">
        <ele>52</ele>
        <time>2022-03-20T08:23:23.000Z</time>
      </trkpt>
      <trkpt lat="47.27867" lon="-2.32454">
        <ele>52</ele>
        <time>2022-03-20T08:23:28.000Z</time>
      </trkpt>
      <trkpt lat="47.27869" lon="-2.32452">
        <ele>52</ele>
        <time>2022-03-20T08:23:29.000Z</time>
      </trkpt>
      <trkpt lat="47.27877" lon="-2.32438">
        <ele>52</ele>
        <time>2022-03-20T08:23:35.000Z</time>
      </trkpt>
      <trkpt lat="47.27885" lon="-2.32425">
        <ele>52</ele>
        <time>2022-03-20T08:23:40.000Z</time>
      </trkpt>
      <trkpt lat="47.27888" lon="-2.32422">
        <ele>52</ele>
        <time>2022-03-20T08:23:44.000Z</time>
      </trkpt>
      <trkpt lat="47.27899" lon="-2.32403">
        <ele>52</ele>
        <time>2022-03-20T08:24:04.000Z</time>
      </trkpt>
      <trkpt lat="47.279" lon="-2.32401">
        <ele>52</ele>
        <time>2022-03-20T08:24:05.000Z</time>
      </trkpt>
      <trkpt lat="47.279" lon="-2.32398">
        <ele>52</ele>
        <time>2022-03-20T08:24:06.000Z</time>
      </trkpt>
      <trkpt lat="47.27902" lon="-2.32391">
        <ele>52</ele>
        <time>2022-03-20T08:24:10.000Z</time>
      </trkpt>
      <trkpt lat="47.27907" lon="-2.32385">
        <ele>52</ele>
        <time>2022-03-20T08:24:16.000Z</time>
      </trkpt>
      <trkpt lat="47.27908" lon="-2.32385">
        <ele>52</ele>
        <time>2022-03-20T08:24:17.000Z</time>
      </trkpt>
      <trkpt lat="47.27914" lon="-2.32388">
        <ele>54</ele>
        <time>2022-03-20T08:24:28.000Z</time>
      </trkpt>
      <trkpt lat="47.27919" lon="-2.32391">
        <ele>54</ele>
        <time>2022-03-20T08:24:30.000Z</time>
      </trkpt>
      <trkpt lat="47.27924" lon="-2.32394">
        <ele>54</ele>
        <time>2022-03-20T08:24:32.000Z</time>
      </trkpt>
      <trkpt lat="47.27929" lon="-2.32396">
        <ele>54</ele>
        <time>2022-03-20T08:24:35.000Z</time>
      </trkpt>
      <trkpt lat="47.27931" lon="-2.32397">
        <ele>54</ele>
        <time>2022-03-20T08:24:36.000Z</time>
      </trkpt>
      <trkpt lat="47.27938" lon="-2.32399">
        <ele>54</ele>
        <time>2022-03-20T08:24:39.000Z</time>
      </trkpt>
      <trkpt lat="47.27946" lon="-2.32401">
        <ele>54</ele>
        <time>2022-03-20T08:24:43.000Z</time>
      </trkpt>
      <trkpt lat="47.27948" lon="-2.32401">
        <ele>54</ele>
        <time>2022-03-20T08:24:44.000Z</time>
      </trkpt>
      <trkpt lat="47.27955" lon="-2.324">
        <ele>54</ele>
        <time>2022-03-20T08:24:49.000Z</time>
      </trkpt>
      <trkpt lat="47.27958" lon="-2.32402">
        <ele>54</ele>
        <time>2022-03-20T08:24:51.000Z</time>
      </trkpt>
      <trkpt lat="47.2797" lon="-2.32409">
        <ele>54</ele>
        <time>2022-03-20T08:24:57.000Z</time>
      </trkpt>
      <trkpt lat="47.27992" lon="-2.32416">
        <ele>54</ele>
        <time>2022-03-20T08:25:03.000Z</time>
      </trkpt>
      <trkpt lat="47.28012" lon="-2.32422">
        <ele>54</ele>
        <time>2022-03-20T08:25:08.000Z</time>
      </trkpt>
      <trkpt lat="47.28021" lon="-2.32424">
        <ele>54</ele>
        <time>2022-03-20T08:25:10.000Z</time>
      </trkpt>
      <trkpt lat="47.28044" lon="-2.32428">
        <ele>54</ele>
        <time>2022-03-20T08:25:15.000Z</time>
      </trkpt>
      <trkpt lat="47.28057" lon="-2.3243">
        <ele>54</ele>
        <time>2022-03-20T08:25:18.000Z</time>
      </trkpt>
      <trkpt lat="47.28066" lon="-2.3243">
        <ele>54</ele>
        <time>2022-03-20T08:25:20.000Z</time>
      </trkpt>
      <trkpt lat="47.28083" lon="-2.32431">
        <ele>54</ele>
        <time>2022-03-20T08:25:24.000Z</time>
      </trkpt>
      <trkpt lat="47.28101" lon="-2.32441">
        <ele>54</ele>
        <time>2022-03-20T08:25:29.000Z</time>
      </trkpt>
      <trkpt lat="47.28119" lon="-2.32451">
        <ele>54</ele>
        <time>2022-03-20T08:25:34.000Z</time>
      </trkpt>
      <trkpt lat="47.28136" lon="-2.32453">
        <ele>54</ele>
        <time>2022-03-20T08:25:38.000Z</time>
      </trkpt>
      <trkpt lat="47.28141" lon="-2.32452">
        <ele>54</ele>
        <time>2022-03-20T08:25:39.000Z</time>
      </trkpt>
      <trkpt lat="47.28165" lon="-2.32448">
        <ele>54</ele>
        <time>2022-03-20T08:25:44.000Z</time>
      </trkpt>
      <trkpt lat="47.2817" lon="-2.32448">
        <ele>54</ele>
        <time>2022-03-20T08:25:45.000Z</time>
      </trkpt>
      <trkpt lat="47.28197" lon="-2.32452">
        <ele>54</ele>
        <time>2022-03-20T08:25:50.000Z</time>
      </trkpt>
      <trkpt lat="47.28215" lon="-2.32459">
        <ele>54</ele>
        <time>2022-03-20T08:25:53.000Z</time>
      </trkpt>
      <trkpt lat="47.28224" lon="-2.32466">
        <ele>54</ele>
        <time>2022-03-20T08:25:55.000Z</time>
      </trkpt>
      <trkpt lat="47.28235" lon="-2.32476">
        <ele>54</ele>
        <time>2022-03-20T08:25:59.000Z</time>
      </trkpt>
      <trkpt lat="47.28241" lon="-2.32483">
        <ele>54</ele>
        <time>2022-03-20T08:26:04.000Z</time>
      </trkpt>
      <trkpt lat="47.28247" lon="-2.32495">
        <ele>54</ele>
        <time>2022-03-20T08:26:10.000Z</time>
      </trkpt>
      <trkpt lat="47.28253" lon="-2.32503">
        <ele>54</ele>
        <time>2022-03-20T08:26:16.000Z</time>
      </trkpt>
      <trkpt lat="47.28266" lon="-2.32512">
        <ele>54</ele>
        <time>2022-03-20T08:26:24.000Z</time>
      </trkpt>
      <trkpt lat="47.28287" lon="-2.32519">
        <ele>54</ele>
        <time>2022-03-20T08:26:31.000Z</time>
      </trkpt>
      <trkpt lat="47.28307" lon="-2.32518">
        <ele>54</ele>
        <time>2022-03-20T08:26:37.000Z</time>
      </trkpt>
      <trkpt lat="47.28331" lon="-2.32519">
        <ele>54</ele>
        <time>2022-03-20T08:26:44.000Z</time>
      </trkpt>
      <trkpt lat="47.28345" lon="-2.3252">
        <ele>54</ele>
        <time>2022-03-20T08:26:50.000Z</time>
      </trkpt>
      <trkpt lat="47.28368" lon="-2.32525">
        <ele>54</ele>
        <time>2022-03-20T08:26:56.000Z</time>
      </trkpt>
      <trkpt lat="47.28384" lon="-2.3252">
        <ele>54</ele>
        <time>2022-03-20T08:26:59.000Z</time>
      </trkpt>
      <trkpt lat="47.28386" lon="-2.32515">
        <ele>54</ele>
        <time>2022-03-20T08:27:00.000Z</time>
      </trkpt>
      <trkpt lat="47.28383" lon="-2.32501">
        <ele>54</ele>
        <time>2022-03-20T08:27:03.000Z</time>
      </trkpt>
      <trkpt lat="47.28381" lon="-2.3249">
        <ele>54</ele>
        <time>2022-03-20T08:27:05.000Z</time>
      </trkpt>
      <trkpt lat="47.28375" lon="-2.32461">
        <ele>54</ele>
        <time>2022-03-20T08:27:10.000Z</time>
      </trkpt>
      <trkpt lat="47.28371" lon="-2.32427">
        <ele>54</ele>
        <time>2022-03-20T08:27:16.000Z</time>
      </trkpt>
      <trkpt lat="47.28373" lon="-2.3242">
        <ele>54</ele>
        <time>2022-03-20T08:27:18.000Z</time>
      </trkpt>
      <trkpt lat="47.28376" lon="-2.32418">
        <ele>54</ele>
        <time>2022-03-20T08:27:20.000Z</time>
      </trkpt>
      <trkpt lat="47.28376" lon="-2.32418">
        <ele>54</ele>
        <time>2022-03-20T08:27:21.000Z</time>
      </trkpt>
      <trkpt lat="47.28378" lon="-2.32417">
        <ele>54</ele>
        <time>2022-03-20T08:27:40.000Z</time>
      </trkpt>
      <trkpt lat="47.2838" lon="-2.32417">
        <ele>54</ele>
        <time>2022-03-20T08:27:41.000Z</time>
      </trkpt>
      <trkpt lat="47.28382" lon="-2.32415">
        <ele>54.400001525879</ele>
        <time>2022-03-20T08:27:42.000Z</time>
      </trkpt>
      <trkpt lat="47.28384" lon="-2.32413">
        <ele>54.799999237061</ele>
        <time>2022-03-20T08:27:43.000Z</time>
      </trkpt>
      <trkpt lat="47.28386" lon="-2.32412">
        <ele>55.200000762939</ele>
        <time>2022-03-20T08:27:44.000Z</time>
      </trkpt>
      <trkpt lat="47.28389" lon="-2.3241">
        <ele>55.599998474121</ele>
        <time>2022-03-20T08:27:45.000Z</time>
      </trkpt>
      <trkpt lat="47.28392" lon="-2.32408">
        <ele>56</ele>
        <time>2022-03-20T08:27:46.000Z</time>
      </trkpt>
      <trkpt lat="47.28412" lon="-2.32396">
        <ele>56</ele>
        <time>2022-03-20T08:27:52.000Z</time>
      </trkpt>
      <trkpt lat="47.2844" lon="-2.3238">
        <ele>56</ele>
        <time>2022-03-20T08:27:59.000Z</time>
      </trkpt>
      <trkpt lat="47.28477" lon="-2.32357">
        <ele>56</ele>
        <time>2022-03-20T08:28:08.000Z</time>
      </trkpt>
      <trkpt lat="47.28494" lon="-2.32345">
        <ele>56.400001525879</ele>
        <time>2022-03-20T08:28:13.000Z</time>
      </trkpt>
      <trkpt lat="47.28498" lon="-2.32342">
        <ele>56.799999237061</ele>
        <time>2022-03-20T08:28:14.000Z</time>
      </trkpt>
      <trkpt lat="47.28502" lon="-2.32339">
        <ele>57.200000762939</ele>
        <time>2022-03-20T08:28:15.000Z</time>
      </trkpt>
      <trkpt lat="47.28506" lon="-2.32335">
        <ele>57.799999237061</ele>
        <time>2022-03-20T08:28:16.000Z</time>
      </trkpt>
      <trkpt lat="47.28511" lon="-2.32331">
        <ele>58.200000762939</ele>
        <time>2022-03-20T08:28:17.000Z</time>
      </trkpt>
      <trkpt lat="47.28524" lon="-2.32319">
        <ele>58.200000762939</ele>
        <time>2022-03-20T08:28:20.000Z</time>
      </trkpt>
      <trkpt lat="47.28556" lon="-2.32289">
        <ele>58.200000762939</ele>
        <time>2022-03-20T08:28:27.000Z</time>
      </trkpt>
      <trkpt lat="47.28559" lon="-2.32285">
        <ele>58.200000762939</ele>
        <time>2022-03-20T08:28:28.000Z</time>
      </trkpt>
      <trkpt lat="47.28566" lon="-2.32277">
        <ele>58.599998474121</ele>
        <time>2022-03-20T08:28:30.000Z</time>
      </trkpt>
      <trkpt lat="47.28569" lon="-2.32273">
        <ele>59</ele>
        <time>2022-03-20T08:28:31.000Z</time>
      </trkpt>
      <trkpt lat="47.28572" lon="-2.32269">
        <ele>59.400001525879</ele>
        <time>2022-03-20T08:28:32.000Z</time>
      </trkpt>
      <trkpt lat="47.28575" lon="-2.32266">
        <ele>59.799999237061</ele>
        <time>2022-03-20T08:28:33.000Z</time>
      </trkpt>
      <trkpt lat="47.28578" lon="-2.32262">
        <ele>60.400001525879</ele>
        <time>2022-03-20T08:28:34.000Z</time>
      </trkpt>
      <trkpt lat="47.28597" lon="-2.32245">
        <ele>60.400001525879</ele>
        <time>2022-03-20T08:28:39.000Z</time>
      </trkpt>
      <trkpt lat="47.28611" lon="-2.32236">
        <ele>60.400001525879</ele>
        <time>2022-03-20T08:28:42.000Z</time>
      </trkpt>
      <trkpt lat="47.28637" lon="-2.32218">
        <ele>60.799999237061</ele>
        <time>2022-03-20T08:28:47.000Z</time>
      </trkpt>
      <trkpt lat="47.28643" lon="-2.32214">
        <ele>61.200000762939</ele>
        <time>2022-03-20T08:28:48.000Z</time>
      </trkpt>
      <trkpt lat="47.28648" lon="-2.32209">
        <ele>61.599998474121</ele>
        <time>2022-03-20T08:28:49.000Z</time>
      </trkpt>
      <trkpt lat="47.28653" lon="-2.32204">
        <ele>62</ele>
        <time>2022-03-20T08:28:50.000Z</time>
      </trkpt>
      <trkpt lat="47.28657" lon="-2.32199">
        <ele>62.400001525879</ele>
        <time>2022-03-20T08:28:51.000Z</time>
      </trkpt>
      <trkpt lat="47.28668" lon="-2.32183">
        <ele>62.400001525879</ele>
        <time>2022-03-20T08:28:54.000Z</time>
      </trkpt>
      <trkpt lat="47.28677" lon="-2.32166">
        <ele>62.799999237061</ele>
        <time>2022-03-20T08:28:57.000Z</time>
      </trkpt>
      <trkpt lat="47.2868" lon="-2.3216">
        <ele>63.200000762939</ele>
        <time>2022-03-20T08:28:58.000Z</time>
      </trkpt>
      <trkpt lat="47.28682" lon="-2.32154">
        <ele>63.599998474121</ele>
        <time>2022-03-20T08:28:59.000Z</time>
      </trkpt>
      <trkpt lat="47.28684" lon="-2.32148">
        <ele>64</ele>
        <time>2022-03-20T08:29:00.000Z</time>
      </trkpt>
      <trkpt lat="47.28686" lon="-2.32142">
        <ele>64.400001525879</ele>
        <time>2022-03-20T08:29:01.000Z</time>
      </trkpt>
      <trkpt lat="47.28689" lon="-2.32122">
        <ele>64.400001525879</ele>
        <time>2022-03-20T08:29:04.000Z</time>
      </trkpt>
      <trkpt lat="47.28689" lon="-2.32108">
        <ele>64.400001525879</ele>
        <time>2022-03-20T08:29:06.000Z</time>
      </trkpt>
      <trkpt lat="47.28687" lon="-2.32094">
        <ele>64.400001525879</ele>
        <time>2022-03-20T08:29:08.000Z</time>
      </trkpt>
      <trkpt lat="47.28686" lon="-2.32088">
        <ele>64.400001525879</ele>
        <time>2022-03-20T08:29:09.000Z</time>
      </trkpt>
      <trkpt lat="47.28682" lon="-2.32067">
        <ele>64.400001525879</ele>
        <time>2022-03-20T08:29:12.000Z</time>
      </trkpt>
      <trkpt lat="47.28669" lon="-2.32016">
        <ele>64.400001525879</ele>
        <time>2022-03-20T08:29:19.000Z</time>
      </trkpt>
      <trkpt lat="47.28667" lon="-2.32008">
        <ele>64.800003051758</ele>
        <time>2022-03-20T08:29:20.000Z</time>
      </trkpt>
      <trkpt lat="47.28665" lon="-2.32001">
        <ele>65.199996948242</ele>
        <time>2022-03-20T08:29:21.000Z</time>
      </trkpt>
      <trkpt lat="47.28664" lon="-2.31993">
        <ele>65.599998474121</ele>
        <time>2022-03-20T08:29:22.000Z</time>
      </trkpt>
      <trkpt lat="47.28662" lon="-2.31985">
        <ele>66</ele>
        <time>2022-03-20T08:29:23.000Z</time>
      </trkpt>
      <trkpt lat="47.28661" lon="-2.31978">
        <ele>66.400001525879</ele>
        <time>2022-03-20T08:29:24.000Z</time>
      </trkpt>
      <trkpt lat="47.28658" lon="-2.31964">
        <ele>66.400001525879</ele>
        <time>2022-03-20T08:29:26.000Z</time>
      </trkpt>
      <trkpt lat="47.28651" lon="-2.31901">
        <ele>66.400001525879</ele>
        <time>2022-03-20T08:29:34.000Z</time>
      </trkpt>
      <trkpt lat="47.28645" lon="-2.31844">
        <ele>66.400001525879</ele>
        <time>2022-03-20T08:29:42.000Z</time>
      </trkpt>
      <trkpt lat="47.28638" lon="-2.3178">
        <ele>66.400001525879</ele>
        <time>2022-03-20T08:29:51.000Z</time>
      </trkpt>
      <trkpt lat="47.28637" lon="-2.31772">
        <ele>66.800003051758</ele>
        <time>2022-03-20T08:29:52.000Z</time>
      </trkpt>
      <trkpt lat="47.28636" lon="-2.31765">
        <ele>67.199996948242</ele>
        <time>2022-03-20T08:29:53.000Z</time>
      </trkpt>
      <trkpt lat="47.28635" lon="-2.31758">
        <ele>67.599998474121</ele>
        <time>2022-03-20T08:29:54.000Z</time>
      </trkpt>
      <trkpt lat="47.28633" lon="-2.3175">
        <ele>68</ele>
        <time>2022-03-20T08:29:55.000Z</time>
      </trkpt>
      <trkpt lat="47.28632" lon="-2.31742">
        <ele>68.400001525879</ele>
        <time>2022-03-20T08:29:56.000Z</time>
      </trkpt>
      <trkpt lat="47.2863" lon="-2.31726">
        <ele>68.400001525879</ele>
        <time>2022-03-20T08:29:58.000Z</time>
      </trkpt>
      <trkpt lat="47.28622" lon="-2.31665">
        <ele>68.400001525879</ele>
        <time>2022-03-20T08:30:06.000Z</time>
      </trkpt>
      <trkpt lat="47.28621" lon="-2.3161">
        <ele>68.400001525879</ele>
        <time>2022-03-20T08:30:13.000Z</time>
      </trkpt>
      <trkpt lat="47.28623" lon="-2.31541">
        <ele>68.400001525879</ele>
        <time>2022-03-20T08:30:22.000Z</time>
      </trkpt>
      <trkpt lat="47.28622" lon="-2.31519">
        <ele>68.400001525879</ele>
        <time>2022-03-20T08:30:25.000Z</time>
      </trkpt>
      <trkpt lat="47.28619" lon="-2.31495">
        <ele>68.400001525879</ele>
        <time>2022-03-20T08:30:29.000Z</time>
      </trkpt>
      <trkpt lat="47.28617" lon="-2.31478">
        <ele>68.400001525879</ele>
        <time>2022-03-20T08:30:33.000Z</time>
      </trkpt>
      <trkpt lat="47.28629" lon="-2.31465">
        <ele>68.400001525879</ele>
        <time>2022-03-20T08:30:37.000Z</time>
      </trkpt>
      <trkpt lat="47.28642" lon="-2.3146">
        <ele>68.400001525879</ele>
        <time>2022-03-20T08:30:40.000Z</time>
      </trkpt>
      <trkpt lat="47.28655" lon="-2.31454">
        <ele>68.400001525879</ele>
        <time>2022-03-20T08:30:43.000Z</time>
      </trkpt>
      <trkpt lat="47.2866" lon="-2.31453">
        <ele>68.400001525879</ele>
        <time>2022-03-20T08:30:44.000Z</time>
      </trkpt>
      <trkpt lat="47.2867" lon="-2.31461">
        <ele>68.400001525879</ele>
        <time>2022-03-20T08:30:47.000Z</time>
      </trkpt>
      <trkpt lat="47.28676" lon="-2.3148">
        <ele>68.400001525879</ele>
        <time>2022-03-20T08:30:50.000Z</time>
      </trkpt>
      <trkpt lat="47.2868" lon="-2.31486">
        <ele>68.400001525879</ele>
        <time>2022-03-20T08:30:51.000Z</time>
      </trkpt>
      <trkpt lat="47.28696" lon="-2.31496">
        <ele>68.400001525879</ele>
        <time>2022-03-20T08:30:54.000Z</time>
      </trkpt>
      <trkpt lat="47.28713" lon="-2.3149">
        <ele>68.400001525879</ele>
        <time>2022-03-20T08:30:57.000Z</time>
      </trkpt>
      <trkpt lat="47.28718" lon="-2.31487">
        <ele>68.400001525879</ele>
        <time>2022-03-20T08:30:58.000Z</time>
      </trkpt>
      <trkpt lat="47.28753" lon="-2.31466">
        <ele>68.400001525879</ele>
        <time>2022-03-20T08:31:04.000Z</time>
      </trkpt>
      <trkpt lat="47.28791" lon="-2.31444">
        <ele>68.400001525879</ele>
        <time>2022-03-20T08:31:11.000Z</time>
      </trkpt>
      <trkpt lat="47.28838" lon="-2.31414">
        <ele>68.400001525879</ele>
        <time>2022-03-20T08:31:19.000Z</time>
      </trkpt>
      <trkpt lat="47.2888" lon="-2.31395">
        <ele>68.400001525879</ele>
        <time>2022-03-20T08:31:26.000Z</time>
      </trkpt>
      <trkpt lat="47.28914" lon="-2.31392">
        <ele>68.400001525879</ele>
        <time>2022-03-20T08:31:32.000Z</time>
      </trkpt>
      <trkpt lat="47.28937" lon="-2.3139">
        <ele>68</ele>
        <time>2022-03-20T08:31:36.000Z</time>
      </trkpt>
      <trkpt lat="47.28942" lon="-2.31389">
        <ele>67.599998474121</ele>
        <time>2022-03-20T08:31:37.000Z</time>
      </trkpt>
      <trkpt lat="47.28948" lon="-2.31386">
        <ele>67.199996948242</ele>
        <time>2022-03-20T08:31:38.000Z</time>
      </trkpt>
      <trkpt lat="47.28953" lon="-2.31383">
        <ele>66.800003051758</ele>
        <time>2022-03-20T08:31:39.000Z</time>
      </trkpt>
      <trkpt lat="47.28958" lon="-2.3138">
        <ele>66.400001525879</ele>
        <time>2022-03-20T08:31:40.000Z</time>
      </trkpt>
      <trkpt lat="47.28977" lon="-2.3136">
        <ele>66.400001525879</ele>
        <time>2022-03-20T08:31:44.000Z</time>
      </trkpt>
      <trkpt lat="47.28993" lon="-2.31336">
        <ele>66.400001525879</ele>
        <time>2022-03-20T08:31:48.000Z</time>
      </trkpt>
      <trkpt lat="47.29" lon="-2.31322">
        <ele>66.400001525879</ele>
        <time>2022-03-20T08:31:50.000Z</time>
      </trkpt>
      <trkpt lat="47.29019" lon="-2.31275">
        <ele>66.400001525879</ele>
        <time>2022-03-20T08:31:56.000Z</time>
      </trkpt>
      <trkpt lat="47.2904" lon="-2.31223">
        <ele>66.400001525879</ele>
        <time>2022-03-20T08:32:03.000Z</time>
      </trkpt>
      <trkpt lat="47.29041" lon="-2.31215">
        <ele>66.400001525879</ele>
        <time>2022-03-20T08:32:04.000Z</time>
      </trkpt>
      <trkpt lat="47.2904" lon="-2.31188">
        <ele>66.400001525879</ele>
        <time>2022-03-20T08:32:07.000Z</time>
      </trkpt>
      <trkpt lat="47.29039" lon="-2.31179">
        <ele>66.400001525879</ele>
        <time>2022-03-20T08:32:08.000Z</time>
      </trkpt>
      <trkpt lat="47.29036" lon="-2.31154">
        <ele>66</ele>
        <time>2022-03-20T08:32:11.000Z</time>
      </trkpt>
      <trkpt lat="47.29035" lon="-2.31146">
        <ele>65.599998474121</ele>
        <time>2022-03-20T08:32:12.000Z</time>
      </trkpt>
      <trkpt lat="47.29035" lon="-2.31138">
        <ele>65.199996948242</ele>
        <time>2022-03-20T08:32:13.000Z</time>
      </trkpt>
      <trkpt lat="47.29034" lon="-2.3113">
        <ele>64.800003051758</ele>
        <time>2022-03-20T08:32:14.000Z</time>
      </trkpt>
      <trkpt lat="47.29034" lon="-2.31121">
        <ele>64.400001525879</ele>
        <time>2022-03-20T08:32:15.000Z</time>
      </trkpt>
      <trkpt lat="47.2903" lon="-2.31053">
        <ele>64.400001525879</ele>
        <time>2022-03-20T08:32:22.000Z</time>
      </trkpt>
      <trkpt lat="47.2903" lon="-2.31033">
        <ele>64</ele>
        <time>2022-03-20T08:32:24.000Z</time>
      </trkpt>
      <trkpt lat="47.2903" lon="-2.31022">
        <ele>63.599998474121</ele>
        <time>2022-03-20T08:32:25.000Z</time>
      </trkpt>
      <trkpt lat="47.2903" lon="-2.31012">
        <ele>63.200000762939</ele>
        <time>2022-03-20T08:32:26.000Z</time>
      </trkpt>
      <trkpt lat="47.29031" lon="-2.31001">
        <ele>62.799999237061</ele>
        <time>2022-03-20T08:32:27.000Z</time>
      </trkpt>
      <trkpt lat="47.29031" lon="-2.3099">
        <ele>62.200000762939</ele>
        <time>2022-03-20T08:32:28.000Z</time>
      </trkpt>
      <trkpt lat="47.29031" lon="-2.30979">
        <ele>62.200000762939</ele>
        <time>2022-03-20T08:32:29.000Z</time>
      </trkpt>
      <trkpt lat="47.2903" lon="-2.30958">
        <ele>61.799999237061</ele>
        <time>2022-03-20T08:32:31.000Z</time>
      </trkpt>
      <trkpt lat="47.2903" lon="-2.30947">
        <ele>61.400001525879</ele>
        <time>2022-03-20T08:32:32.000Z</time>
      </trkpt>
      <trkpt lat="47.29029" lon="-2.30936">
        <ele>60.400001525879</ele>
        <time>2022-03-20T08:32:33.000Z</time>
      </trkpt>
      <trkpt lat="47.29029" lon="-2.30925">
        <ele>60</ele>
        <time>2022-03-20T08:32:34.000Z</time>
      </trkpt>
      <trkpt lat="47.29027" lon="-2.30892">
        <ele>59.400001525879</ele>
        <time>2022-03-20T08:32:37.000Z</time>
      </trkpt>
      <trkpt lat="47.29026" lon="-2.3088">
        <ele>59</ele>
        <time>2022-03-20T08:32:38.000Z</time>
      </trkpt>
      <trkpt lat="47.29025" lon="-2.30869">
        <ele>58.599998474121</ele>
        <time>2022-03-20T08:32:39.000Z</time>
      </trkpt>
      <trkpt lat="47.29024" lon="-2.30858">
        <ele>58.200000762939</ele>
        <time>2022-03-20T08:32:40.000Z</time>
      </trkpt>
      <trkpt lat="47.29023" lon="-2.30847">
        <ele>57.599998474121</ele>
        <time>2022-03-20T08:32:41.000Z</time>
      </trkpt>
      <trkpt lat="47.29018" lon="-2.30815">
        <ele>57.200000762939</ele>
        <time>2022-03-20T08:32:44.000Z</time>
      </trkpt>
      <trkpt lat="47.29017" lon="-2.30804">
        <ele>56.799999237061</ele>
        <time>2022-03-20T08:32:45.000Z</time>
      </trkpt>
      <trkpt lat="47.29015" lon="-2.30794">
        <ele>56.400001525879</ele>
        <time>2022-03-20T08:32:46.000Z</time>
      </trkpt>
      <trkpt lat="47.29013" lon="-2.30784">
        <ele>56</ele>
        <time>2022-03-20T08:32:47.000Z</time>
      </trkpt>
      <trkpt lat="47.2901" lon="-2.30775">
        <ele>55.599998474121</ele>
        <time>2022-03-20T08:32:48.000Z</time>
      </trkpt>
      <trkpt lat="47.29005" lon="-2.30756">
        <ele>55.599998474121</ele>
        <time>2022-03-20T08:32:50.000Z</time>
      </trkpt>
      <trkpt lat="47.29003" lon="-2.30717">
        <ele>55.599998474121</ele>
        <time>2022-03-20T08:32:54.000Z</time>
      </trkpt>
      <trkpt lat="47.29003" lon="-2.30708">
        <ele>55.599998474121</ele>
        <time>2022-03-20T08:32:55.000Z</time>
      </trkpt>
      <trkpt lat="47.29003" lon="-2.30699">
        <ele>55.200000762939</ele>
        <time>2022-03-20T08:32:56.000Z</time>
      </trkpt>
      <trkpt lat="47.29003" lon="-2.3069">
        <ele>54.400001525879</ele>
        <time>2022-03-20T08:32:57.000Z</time>
      </trkpt>
      <trkpt lat="47.29003" lon="-2.30682">
        <ele>54</ele>
        <time>2022-03-20T08:32:58.000Z</time>
      </trkpt>
      <trkpt lat="47.29002" lon="-2.30674">
        <ele>53.599998474121</ele>
        <time>2022-03-20T08:32:59.000Z</time>
      </trkpt>
      <trkpt lat="47.29" lon="-2.30649">
        <ele>53.599998474121</ele>
        <time>2022-03-20T08:33:02.000Z</time>
      </trkpt>
      <trkpt lat="47.29" lon="-2.30628">
        <ele>53.599998474121</ele>
        <time>2022-03-20T08:33:05.000Z</time>
      </trkpt>
      <trkpt lat="47.29005" lon="-2.30618">
        <ele>53.599998474121</ele>
        <time>2022-03-20T08:33:07.000Z</time>
      </trkpt>
      <trkpt lat="47.29025" lon="-2.30601">
        <ele>53.599998474121</ele>
        <time>2022-03-20T08:33:11.000Z</time>
      </trkpt>
      <trkpt lat="47.29067" lon="-2.30574">
        <ele>53.599998474121</ele>
        <time>2022-03-20T08:33:18.000Z</time>
      </trkpt>
      <trkpt lat="47.29121" lon="-2.30541">
        <ele>53.599998474121</ele>
        <time>2022-03-20T08:33:27.000Z</time>
      </trkpt>
      <trkpt lat="47.29154" lon="-2.30521">
        <ele>53.599998474121</ele>
        <time>2022-03-20T08:33:33.000Z</time>
      </trkpt>
      <trkpt lat="47.29195" lon="-2.30497">
        <ele>53.599998474121</ele>
        <time>2022-03-20T08:33:40.000Z</time>
      </trkpt>
      <trkpt lat="47.2923" lon="-2.30487">
        <ele>53.599998474121</ele>
        <time>2022-03-20T08:33:46.000Z</time>
      </trkpt>
      <trkpt lat="47.29262" lon="-2.30492">
        <ele>53.599998474121</ele>
        <time>2022-03-20T08:33:51.000Z</time>
      </trkpt>
      <trkpt lat="47.29294" lon="-2.3051">
        <ele>53.599998474121</ele>
        <time>2022-03-20T08:33:57.000Z</time>
      </trkpt>
      <trkpt lat="47.29334" lon="-2.30535">
        <ele>53.599998474121</ele>
        <time>2022-03-20T08:34:04.000Z</time>
      </trkpt>
      <trkpt lat="47.29379" lon="-2.30563">
        <ele>53.599998474121</ele>
        <time>2022-03-20T08:34:12.000Z</time>
      </trkpt>
      <trkpt lat="47.29399" lon="-2.30573">
        <ele>54</ele>
        <time>2022-03-20T08:34:16.000Z</time>
      </trkpt>
      <trkpt lat="47.29404" lon="-2.30575">
        <ele>54.400001525879</ele>
        <time>2022-03-20T08:34:17.000Z</time>
      </trkpt>
      <trkpt lat="47.29409" lon="-2.30577">
        <ele>54.799999237061</ele>
        <time>2022-03-20T08:34:18.000Z</time>
      </trkpt>
      <trkpt lat="47.29414" lon="-2.30579">
        <ele>55.200000762939</ele>
        <time>2022-03-20T08:34:19.000Z</time>
      </trkpt>
      <trkpt lat="47.29419" lon="-2.3058">
        <ele>55.599998474121</ele>
        <time>2022-03-20T08:34:20.000Z</time>
      </trkpt>
      <trkpt lat="47.29425" lon="-2.3058">
        <ele>55.599998474121</ele>
        <time>2022-03-20T08:34:21.000Z</time>
      </trkpt>
      <trkpt lat="47.29435" lon="-2.3058">
        <ele>56</ele>
        <time>2022-03-20T08:34:23.000Z</time>
      </trkpt>
      <trkpt lat="47.2944" lon="-2.30579">
        <ele>56.400001525879</ele>
        <time>2022-03-20T08:34:24.000Z</time>
      </trkpt>
      <trkpt lat="47.29446" lon="-2.30579">
        <ele>57</ele>
        <time>2022-03-20T08:34:25.000Z</time>
      </trkpt>
      <trkpt lat="47.29451" lon="-2.30578">
        <ele>57.400001525879</ele>
        <time>2022-03-20T08:34:26.000Z</time>
      </trkpt>
      <trkpt lat="47.29457" lon="-2.30577">
        <ele>57.799999237061</ele>
        <time>2022-03-20T08:34:27.000Z</time>
      </trkpt>
      <trkpt lat="47.29483" lon="-2.30573">
        <ele>57.799999237061</ele>
        <time>2022-03-20T08:34:32.000Z</time>
      </trkpt>
      <trkpt lat="47.29507" lon="-2.30569">
        <ele>58.200000762939</ele>
        <time>2022-03-20T08:34:37.000Z</time>
      </trkpt>
      <trkpt lat="47.29512" lon="-2.30568">
        <ele>58.599998474121</ele>
        <time>2022-03-20T08:34:38.000Z</time>
      </trkpt>
      <trkpt lat="47.29516" lon="-2.30568">
        <ele>59</ele>
        <time>2022-03-20T08:34:39.000Z</time>
      </trkpt>
      <trkpt lat="47.29521" lon="-2.30567">
        <ele>59.400001525879</ele>
        <time>2022-03-20T08:34:40.000Z</time>
      </trkpt>
      <trkpt lat="47.29526" lon="-2.30566">
        <ele>59.799999237061</ele>
        <time>2022-03-20T08:34:41.000Z</time>
      </trkpt>
      <trkpt lat="47.29553" lon="-2.30563">
        <ele>59.799999237061</ele>
        <time>2022-03-20T08:34:46.000Z</time>
      </trkpt>
      <trkpt lat="47.29603" lon="-2.30556">
        <ele>59.799999237061</ele>
        <time>2022-03-20T08:34:55.000Z</time>
      </trkpt>
      <trkpt lat="47.29642" lon="-2.30543">
        <ele>59.799999237061</ele>
        <time>2022-03-20T08:35:02.000Z</time>
      </trkpt>
      <trkpt lat="47.29693" lon="-2.30524">
        <ele>59.799999237061</ele>
        <time>2022-03-20T08:35:11.000Z</time>
      </trkpt>
      <trkpt lat="47.2974" lon="-2.3051">
        <ele>59.799999237061</ele>
        <time>2022-03-20T08:35:19.000Z</time>
      </trkpt>
      <trkpt lat="47.29766" lon="-2.305">
        <ele>59.400001525879</ele>
        <time>2022-03-20T08:35:23.000Z</time>
      </trkpt>
      <trkpt lat="47.29773" lon="-2.30498">
        <ele>59</ele>
        <time>2022-03-20T08:35:24.000Z</time>
      </trkpt>
      <trkpt lat="47.2978" lon="-2.30496">
        <ele>58.200000762939</ele>
        <time>2022-03-20T08:35:25.000Z</time>
      </trkpt>
      <trkpt lat="47.29788" lon="-2.30494">
        <ele>57.599998474121</ele>
        <time>2022-03-20T08:35:26.000Z</time>
      </trkpt>
      <trkpt lat="47.29838" lon="-2.30483">
        <ele>57.200000762939</ele>
        <time>2022-03-20T08:35:33.000Z</time>
      </trkpt>
      <trkpt lat="47.29845" lon="-2.30482">
        <ele>56.799999237061</ele>
        <time>2022-03-20T08:35:34.000Z</time>
      </trkpt>
      <trkpt lat="47.29852" lon="-2.3048">
        <ele>56.400001525879</ele>
        <time>2022-03-20T08:35:35.000Z</time>
      </trkpt>
      <trkpt lat="47.2986" lon="-2.30479">
        <ele>55.799999237061</ele>
        <time>2022-03-20T08:35:36.000Z</time>
      </trkpt>
      <trkpt lat="47.29867" lon="-2.30478">
        <ele>55.400001525879</ele>
        <time>2022-03-20T08:35:37.000Z</time>
      </trkpt>
      <trkpt lat="47.29888" lon="-2.30477">
        <ele>55.400001525879</ele>
        <time>2022-03-20T08:35:40.000Z</time>
      </trkpt>
      <trkpt lat="47.29909" lon="-2.30481">
        <ele>55</ele>
        <time>2022-03-20T08:35:43.000Z</time>
      </trkpt>
      <trkpt lat="47.29915" lon="-2.30485">
        <ele>54.599998474121</ele>
        <time>2022-03-20T08:35:44.000Z</time>
      </trkpt>
      <trkpt lat="47.29921" lon="-2.30489">
        <ele>54.200000762939</ele>
        <time>2022-03-20T08:35:45.000Z</time>
      </trkpt>
      <trkpt lat="47.29927" lon="-2.30493">
        <ele>53.799999237061</ele>
        <time>2022-03-20T08:35:46.000Z</time>
      </trkpt>
      <trkpt lat="47.29933" lon="-2.30497">
        <ele>53.200000762939</ele>
        <time>2022-03-20T08:35:47.000Z</time>
      </trkpt>
      <trkpt lat="47.29984" lon="-2.30526">
        <ele>53.200000762939</ele>
        <time>2022-03-20T08:35:55.000Z</time>
      </trkpt>
      <trkpt lat="47.29997" lon="-2.30533">
        <ele>52.799999237061</ele>
        <time>2022-03-20T08:35:57.000Z</time>
      </trkpt>
      <trkpt lat="47.30003" lon="-2.30535">
        <ele>52.400001525879</ele>
        <time>2022-03-20T08:35:58.000Z</time>
      </trkpt>
      <trkpt lat="47.3001" lon="-2.30537">
        <ele>52</ele>
        <time>2022-03-20T08:35:59.000Z</time>
      </trkpt>
      <trkpt lat="47.30017" lon="-2.30538">
        <ele>51.599998474121</ele>
        <time>2022-03-20T08:36:00.000Z</time>
      </trkpt>
      <trkpt lat="47.30023" lon="-2.30539">
        <ele>51.200000762939</ele>
        <time>2022-03-20T08:36:01.000Z</time>
      </trkpt>
      <trkpt lat="47.30062" lon="-2.30537">
        <ele>51.200000762939</ele>
        <time>2022-03-20T08:36:07.000Z</time>
      </trkpt>
      <trkpt lat="47.30105" lon="-2.30537">
        <ele>51.200000762939</ele>
        <time>2022-03-20T08:36:14.000Z</time>
      </trkpt>
      <trkpt lat="47.30115" lon="-2.30542">
        <ele>51.200000762939</ele>
        <time>2022-03-20T08:36:16.000Z</time>
      </trkpt>
      <trkpt lat="47.30125" lon="-2.30552">
        <ele>51.200000762939</ele>
        <time>2022-03-20T08:36:18.000Z</time>
      </trkpt>
      <trkpt lat="47.3014" lon="-2.3058">
        <ele>51.200000762939</ele>
        <time>2022-03-20T08:36:22.000Z</time>
      </trkpt>
      <trkpt lat="47.30144" lon="-2.30586">
        <ele>51.200000762939</ele>
        <time>2022-03-20T08:36:23.000Z</time>
      </trkpt>
      <trkpt lat="47.30155" lon="-2.3062">
        <ele>51.200000762939</ele>
        <time>2022-03-20T08:36:28.000Z</time>
      </trkpt>
      <trkpt lat="47.30158" lon="-2.30625">
        <ele>51.200000762939</ele>
        <time>2022-03-20T08:36:29.000Z</time>
      </trkpt>
      <trkpt lat="47.30166" lon="-2.30626">
        <ele>51.200000762939</ele>
        <time>2022-03-20T08:36:31.000Z</time>
      </trkpt>
      <trkpt lat="47.3017" lon="-2.30616">
        <ele>51.200000762939</ele>
        <time>2022-03-20T08:36:33.000Z</time>
      </trkpt>
      <trkpt lat="47.30171" lon="-2.30602">
        <ele>51.200000762939</ele>
        <time>2022-03-20T08:36:35.000Z</time>
      </trkpt>
      <trkpt lat="47.30173" lon="-2.30595">
        <ele>51.200000762939</ele>
        <time>2022-03-20T08:36:36.000Z</time>
      </trkpt>
      <trkpt lat="47.30188" lon="-2.30583">
        <ele>51.200000762939</ele>
        <time>2022-03-20T08:36:39.000Z</time>
      </trkpt>
      <trkpt lat="47.302" lon="-2.30584">
        <ele>51.200000762939</ele>
        <time>2022-03-20T08:36:41.000Z</time>
      </trkpt>
      <trkpt lat="47.30213" lon="-2.30581">
        <ele>51.200000762939</ele>
        <time>2022-03-20T08:36:43.000Z</time>
      </trkpt>
      <trkpt lat="47.30224" lon="-2.30575">
        <ele>51.200000762939</ele>
        <time>2022-03-20T08:36:45.000Z</time>
      </trkpt>
      <trkpt lat="47.3023" lon="-2.3056">
        <ele>51.200000762939</ele>
        <time>2022-03-20T08:36:47.000Z</time>
      </trkpt>
      <trkpt lat="47.30224" lon="-2.30538">
        <ele>51.200000762939</ele>
        <time>2022-03-20T08:36:50.000Z</time>
      </trkpt>
      <trkpt lat="47.30211" lon="-2.30524">
        <ele>51.200000762939</ele>
        <time>2022-03-20T08:36:53.000Z</time>
      </trkpt>
      <trkpt lat="47.30207" lon="-2.3052">
        <ele>51.200000762939</ele>
        <time>2022-03-20T08:36:54.000Z</time>
      </trkpt>
      <trkpt lat="47.30177" lon="-2.30489">
        <ele>51.200000762939</ele>
        <time>2022-03-20T08:37:01.000Z</time>
      </trkpt>
      <trkpt lat="47.30152" lon="-2.3045">
        <ele>51.200000762939</ele>
        <time>2022-03-20T08:37:07.000Z</time>
      </trkpt>
      <trkpt lat="47.30144" lon="-2.30435">
        <ele>51.200000762939</ele>
        <time>2022-03-20T08:37:09.000Z</time>
      </trkpt>
      <trkpt lat="47.30136" lon="-2.30409">
        <ele>51.200000762939</ele>
        <time>2022-03-20T08:37:12.000Z</time>
      </trkpt>
      <trkpt lat="47.30133" lon="-2.304">
        <ele>51.200000762939</ele>
        <time>2022-03-20T08:37:13.000Z</time>
      </trkpt>
      <trkpt lat="47.30115" lon="-2.30341">
        <ele>51.200000762939</ele>
        <time>2022-03-20T08:37:20.000Z</time>
      </trkpt>
      <trkpt lat="47.30102" lon="-2.30293">
        <ele>51.200000762939</ele>
        <time>2022-03-20T08:37:26.000Z</time>
      </trkpt>
      <trkpt lat="47.30103" lon="-2.30284">
        <ele>51.200000762939</ele>
        <time>2022-03-20T08:37:27.000Z</time>
      </trkpt>
      <trkpt lat="47.30113" lon="-2.30262">
        <ele>51.200000762939</ele>
        <time>2022-03-20T08:37:30.000Z</time>
      </trkpt>
      <trkpt lat="47.30131" lon="-2.30257">
        <ele>51.200000762939</ele>
        <time>2022-03-20T08:37:33.000Z</time>
      </trkpt>
      <trkpt lat="47.30137" lon="-2.30256">
        <ele>51.200000762939</ele>
        <time>2022-03-20T08:37:34.000Z</time>
      </trkpt>
      <trkpt lat="47.30172" lon="-2.30245">
        <ele>51.200000762939</ele>
        <time>2022-03-20T08:37:40.000Z</time>
      </trkpt>
      <trkpt lat="47.30194" lon="-2.30233">
        <ele>51.200000762939</ele>
        <time>2022-03-20T08:37:44.000Z</time>
      </trkpt>
      <trkpt lat="47.30202" lon="-2.30223">
        <ele>51.200000762939</ele>
        <time>2022-03-20T08:37:46.000Z</time>
      </trkpt>
      <trkpt lat="47.30202" lon="-2.30202">
        <ele>51.200000762939</ele>
        <time>2022-03-20T08:37:49.000Z</time>
      </trkpt>
      <trkpt lat="47.30191" lon="-2.30178">
        <ele>51.200000762939</ele>
        <time>2022-03-20T08:37:53.000Z</time>
      </trkpt>
      <trkpt lat="47.30188" lon="-2.30172">
        <ele>51.200000762939</ele>
        <time>2022-03-20T08:37:54.000Z</time>
      </trkpt>
      <trkpt lat="47.30172" lon="-2.30127">
        <ele>51.200000762939</ele>
        <time>2022-03-20T08:38:01.000Z</time>
      </trkpt>
      <trkpt lat="47.30158" lon="-2.30085">
        <ele>51.200000762939</ele>
        <time>2022-03-20T08:38:07.000Z</time>
      </trkpt>
      <trkpt lat="47.30153" lon="-2.30074">
        <ele>51.200000762939</ele>
        <time>2022-03-20T08:38:09.000Z</time>
      </trkpt>
      <trkpt lat="47.30144" lon="-2.30058">
        <ele>51.200000762939</ele>
        <time>2022-03-20T08:38:12.000Z</time>
      </trkpt>
      <trkpt lat="47.30134" lon="-2.30033">
        <ele>51.200000762939</ele>
        <time>2022-03-20T08:38:16.000Z</time>
      </trkpt>
      <trkpt lat="47.30129" lon="-2.30022">
        <ele>51.200000762939</ele>
        <time>2022-03-20T08:38:18.000Z</time>
      </trkpt>
      <trkpt lat="47.30122" lon="-2.30014">
        <ele>51.200000762939</ele>
        <time>2022-03-20T08:38:20.000Z</time>
      </trkpt>
      <trkpt lat="47.30114" lon="-2.30003">
        <ele>50.799999237061</ele>
        <time>2022-03-20T08:38:23.000Z</time>
      </trkpt>
      <trkpt lat="47.30111" lon="-2.30002">
        <ele>50.400001525879</ele>
        <time>2022-03-20T08:38:24.000Z</time>
      </trkpt>
      <trkpt lat="47.30108" lon="-2.30001">
        <ele>50</ele>
        <time>2022-03-20T08:38:25.000Z</time>
      </trkpt>
      <trkpt lat="47.30106" lon="-2.29998">
        <ele>49.599998474121</ele>
        <time>2022-03-20T08:38:26.000Z</time>
      </trkpt>
      <trkpt lat="47.30103" lon="-2.29994">
        <ele>49.200000762939</ele>
        <time>2022-03-20T08:38:27.000Z</time>
      </trkpt>
      <trkpt lat="47.30101" lon="-2.29985">
        <ele>49.200000762939</ele>
        <time>2022-03-20T08:38:29.000Z</time>
      </trkpt>
      <trkpt lat="47.301" lon="-2.29982">
        <ele>49.200000762939</ele>
        <time>2022-03-20T08:38:30.000Z</time>
      </trkpt>
      <trkpt lat="47.30098" lon="-2.29975">
        <ele>49.200000762939</ele>
        <time>2022-03-20T08:38:32.000Z</time>
      </trkpt>
      <trkpt lat="47.30101" lon="-2.29964">
        <ele>49.200000762939</ele>
        <time>2022-03-20T08:38:35.000Z</time>
      </trkpt>
      <trkpt lat="47.30101" lon="-2.29959">
        <ele>49.200000762939</ele>
        <time>2022-03-20T08:38:36.000Z</time>
      </trkpt>
      <trkpt lat="47.30096" lon="-2.29946">
        <ele>49.200000762939</ele>
        <time>2022-03-20T08:38:39.000Z</time>
      </trkpt>
      <trkpt lat="47.30092" lon="-2.29932">
        <ele>49.200000762939</ele>
        <time>2022-03-20T08:38:43.000Z</time>
      </trkpt>
      <trkpt lat="47.30092" lon="-2.29927">
        <ele>49.200000762939</ele>
        <time>2022-03-20T08:38:44.000Z</time>
      </trkpt>
      <trkpt lat="47.30093" lon="-2.29923">
        <ele>49.200000762939</ele>
        <time>2022-03-20T08:38:45.000Z</time>
      </trkpt>
      <trkpt lat="47.30097" lon="-2.2992">
        <ele>49.200000762939</ele>
        <time>2022-03-20T08:38:47.000Z</time>
      </trkpt>
      <trkpt lat="47.30109" lon="-2.29904">
        <ele>49.200000762939</ele>
        <time>2022-03-20T08:38:52.000Z</time>
      </trkpt>
      <trkpt lat="47.30127" lon="-2.29882">
        <ele>49.200000762939</ele>
        <time>2022-03-20T08:38:58.000Z</time>
      </trkpt>
      <trkpt lat="47.3014" lon="-2.2987">
        <ele>49.200000762939</ele>
        <time>2022-03-20T08:39:02.000Z</time>
      </trkpt>
      <trkpt lat="47.30156" lon="-2.29848">
        <ele>49.200000762939</ele>
        <time>2022-03-20T08:39:07.000Z</time>
      </trkpt>
      <trkpt lat="47.30166" lon="-2.29835">
        <ele>49.200000762939</ele>
        <time>2022-03-20T08:39:11.000Z</time>
      </trkpt>
      <trkpt lat="47.30174" lon="-2.29826">
        <ele>49.200000762939</ele>
        <time>2022-03-20T08:39:16.000Z</time>
      </trkpt>
      <trkpt lat="47.30183" lon="-2.29813">
        <ele>49.200000762939</ele>
        <time>2022-03-20T08:39:43.000Z</time>
      </trkpt>
      <trkpt lat="47.30192" lon="-2.29799">
        <ele>49.200000762939</ele>
        <time>2022-03-20T08:39:47.000Z</time>
      </trkpt>
      <trkpt lat="47.30201" lon="-2.2979">
        <ele>49.200000762939</ele>
        <time>2022-03-20T08:39:51.000Z</time>
      </trkpt>
      <trkpt lat="47.30213" lon="-2.29766">
        <ele>49.200000762939</ele>
        <time>2022-03-20T08:39:56.000Z</time>
      </trkpt>
      <trkpt lat="47.30228" lon="-2.29743">
        <ele>49.200000762939</ele>
        <time>2022-03-20T08:40:02.000Z</time>
      </trkpt>
      <trkpt lat="47.30243" lon="-2.29723">
        <ele>49.200000762939</ele>
        <time>2022-03-20T08:40:08.000Z</time>
      </trkpt>
      <trkpt lat="47.30249" lon="-2.29718">
        <ele>49.200000762939</ele>
        <time>2022-03-20T08:40:10.000Z</time>
      </trkpt>
      <trkpt lat="47.30253" lon="-2.29719">
        <ele>49.200000762939</ele>
        <time>2022-03-20T08:40:11.000Z</time>
      </trkpt>
      <trkpt lat="47.30261" lon="-2.2972">
        <ele>49.200000762939</ele>
        <time>2022-03-20T08:40:13.000Z</time>
      </trkpt>
      <trkpt lat="47.30273" lon="-2.29719">
        <ele>49.200000762939</ele>
        <time>2022-03-20T08:40:16.000Z</time>
      </trkpt>
      <trkpt lat="47.30291" lon="-2.29714">
        <ele>49.200000762939</ele>
        <time>2022-03-20T08:40:22.000Z</time>
      </trkpt>
      <trkpt lat="47.30304" lon="-2.29711">
        <ele>49.200000762939</ele>
        <time>2022-03-20T08:40:28.000Z</time>
      </trkpt>
      <trkpt lat="47.30306" lon="-2.29711">
        <ele>49.200000762939</ele>
        <time>2022-03-20T08:40:31.000Z</time>
      </trkpt>
      <trkpt lat="47.30309" lon="-2.29708">
        <ele>49.200000762939</ele>
        <time>2022-03-20T08:40:47.000Z</time>
      </trkpt>
      <trkpt lat="47.30311" lon="-2.29708">
        <ele>49.200000762939</ele>
        <time>2022-03-20T08:40:48.000Z</time>
      </trkpt>
      <trkpt lat="47.3033" lon="-2.29702">
        <ele>49.200000762939</ele>
        <time>2022-03-20T08:40:54.000Z</time>
      </trkpt>
      <trkpt lat="47.3036" lon="-2.29689">
        <ele>49.200000762939</ele>
        <time>2022-03-20T08:41:02.000Z</time>
      </trkpt>
      <trkpt lat="47.30384" lon="-2.29679">
        <ele>49.200000762939</ele>
        <time>2022-03-20T08:41:08.000Z</time>
      </trkpt>
      <trkpt lat="47.30425" lon="-2.29666">
        <ele>49.200000762939</ele>
        <time>2022-03-20T08:41:16.000Z</time>
      </trkpt>
      <trkpt lat="47.30459" lon="-2.29654">
        <ele>49.200000762939</ele>
        <time>2022-03-20T08:41:23.000Z</time>
      </trkpt>
      <trkpt lat="47.30464" lon="-2.29653">
        <ele>49.599998474121</ele>
        <time>2022-03-20T08:41:24.000Z</time>
      </trkpt>
      <trkpt lat="47.30468" lon="-2.29651">
        <ele>50</ele>
        <time>2022-03-20T08:41:25.000Z</time>
      </trkpt>
      <trkpt lat="47.30473" lon="-2.2965">
        <ele>50.400001525879</ele>
        <time>2022-03-20T08:41:26.000Z</time>
      </trkpt>
      <trkpt lat="47.30478" lon="-2.29648">
        <ele>50.799999237061</ele>
        <time>2022-03-20T08:41:27.000Z</time>
      </trkpt>
      <trkpt lat="47.30483" lon="-2.29647">
        <ele>51.200000762939</ele>
        <time>2022-03-20T08:41:28.000Z</time>
      </trkpt>
      <trkpt lat="47.30488" lon="-2.29645">
        <ele>51.200000762939</ele>
        <time>2022-03-20T08:41:29.000Z</time>
      </trkpt>
      <trkpt lat="47.30528" lon="-2.29633">
        <ele>51.200000762939</ele>
        <time>2022-03-20T08:41:37.000Z</time>
      </trkpt>
      <trkpt lat="47.30569" lon="-2.2962">
        <ele>51.200000762939</ele>
        <time>2022-03-20T08:41:45.000Z</time>
      </trkpt>
      <trkpt lat="47.306" lon="-2.2961">
        <ele>51.200000762939</ele>
        <time>2022-03-20T08:41:51.000Z</time>
      </trkpt>
      <trkpt lat="47.30605" lon="-2.29608">
        <ele>51.200000762939</ele>
        <time>2022-03-20T08:41:52.000Z</time>
      </trkpt>
      <trkpt lat="47.30611" lon="-2.29606">
        <ele>51.200000762939</ele>
        <time>2022-03-20T08:41:53.000Z</time>
      </trkpt>
      <trkpt lat="47.30633" lon="-2.29598">
        <ele>51.200000762939</ele>
        <time>2022-03-20T08:41:57.000Z</time>
      </trkpt>
      <trkpt lat="47.30676" lon="-2.29586">
        <ele>51.200000762939</ele>
        <time>2022-03-20T08:42:05.000Z</time>
      </trkpt>
      <trkpt lat="47.30686" lon="-2.29583">
        <ele>51.200000762939</ele>
        <time>2022-03-20T08:42:07.000Z</time>
      </trkpt>
      <trkpt lat="47.30702" lon="-2.2958">
        <ele>51.200000762939</ele>
        <time>2022-03-20T08:42:10.000Z</time>
      </trkpt>
      <trkpt lat="47.30731" lon="-2.2957">
        <ele>51.200000762939</ele>
        <time>2022-03-20T08:42:16.000Z</time>
      </trkpt>
      <trkpt lat="47.30765" lon="-2.29559">
        <ele>51.200000762939</ele>
        <time>2022-03-20T08:42:24.000Z</time>
      </trkpt>
      <trkpt lat="47.30774" lon="-2.29557">
        <ele>51.599998474121</ele>
        <time>2022-03-20T08:42:26.000Z</time>
      </trkpt>
      <trkpt lat="47.30778" lon="-2.29556">
        <ele>52</ele>
        <time>2022-03-20T08:42:27.000Z</time>
      </trkpt>
      <trkpt lat="47.30782" lon="-2.29554">
        <ele>52.400001525879</ele>
        <time>2022-03-20T08:42:28.000Z</time>
      </trkpt>
      <trkpt lat="47.30787" lon="-2.29553">
        <ele>52.799999237061</ele>
        <time>2022-03-20T08:42:29.000Z</time>
      </trkpt>
      <trkpt lat="47.30791" lon="-2.29551">
        <ele>53.200000762939</ele>
        <time>2022-03-20T08:42:30.000Z</time>
      </trkpt>
      <trkpt lat="47.30795" lon="-2.2955">
        <ele>53.200000762939</ele>
        <time>2022-03-20T08:42:31.000Z</time>
      </trkpt>
      <trkpt lat="47.30827" lon="-2.29543">
        <ele>53.200000762939</ele>
        <time>2022-03-20T08:42:38.000Z</time>
      </trkpt>
      <trkpt lat="47.30857" lon="-2.29547">
        <ele>53.200000762939</ele>
        <time>2022-03-20T08:42:44.000Z</time>
      </trkpt>
      <trkpt lat="47.30877" lon="-2.29552">
        <ele>53.799999237061</ele>
        <time>2022-03-20T08:42:48.000Z</time>
      </trkpt>
      <trkpt lat="47.30882" lon="-2.29554">
        <ele>54.200000762939</ele>
        <time>2022-03-20T08:42:49.000Z</time>
      </trkpt>
      <trkpt lat="47.30887" lon="-2.29556">
        <ele>54.599998474121</ele>
        <time>2022-03-20T08:42:50.000Z</time>
      </trkpt>
      <trkpt lat="47.30891" lon="-2.29557">
        <ele>55</ele>
        <time>2022-03-20T08:42:51.000Z</time>
      </trkpt>
      <trkpt lat="47.30896" lon="-2.29559">
        <ele>55.400001525879</ele>
        <time>2022-03-20T08:42:52.000Z</time>
      </trkpt>
      <trkpt lat="47.30944" lon="-2.29574">
        <ele>55.400001525879</ele>
        <time>2022-03-20T08:43:01.000Z</time>
      </trkpt>
      <trkpt lat="47.30988" lon="-2.29593">
        <ele>55.400001525879</ele>
        <time>2022-03-20T08:43:09.000Z</time>
      </trkpt>
      <trkpt lat="47.31009" lon="-2.2962">
        <ele>55.400001525879</ele>
        <time>2022-03-20T08:43:14.000Z</time>
      </trkpt>
      <trkpt lat="47.31029" lon="-2.2967">
        <ele>55.400001525879</ele>
        <time>2022-03-20T08:43:21.000Z</time>
      </trkpt>
      <trkpt lat="47.31035" lon="-2.29691">
        <ele>55.400001525879</ele>
        <time>2022-03-20T08:43:24.000Z</time>
      </trkpt>
      <trkpt lat="47.31044" lon="-2.29699">
        <ele>55.400001525879</ele>
        <time>2022-03-20T08:43:26.000Z</time>
      </trkpt>
      <trkpt lat="47.31059" lon="-2.29695">
        <ele>55.400001525879</ele>
        <time>2022-03-20T08:43:29.000Z</time>
      </trkpt>
      <trkpt lat="47.31064" lon="-2.29691">
        <ele>55.400001525879</ele>
        <time>2022-03-20T08:43:30.000Z</time>
      </trkpt>
      <trkpt lat="47.31082" lon="-2.29672">
        <ele>55.400001525879</ele>
        <time>2022-03-20T08:43:34.000Z</time>
      </trkpt>
      <trkpt lat="47.31109" lon="-2.29638">
        <ele>55.400001525879</ele>
        <time>2022-03-20T08:43:40.000Z</time>
      </trkpt>
      <trkpt lat="47.31141" lon="-2.29608">
        <ele>55.400001525879</ele>
        <time>2022-03-20T08:43:46.000Z</time>
      </trkpt>
      <trkpt lat="47.31161" lon="-2.29592">
        <ele>55.400001525879</ele>
        <time>2022-03-20T08:43:50.000Z</time>
      </trkpt>
      <trkpt lat="47.31165" lon="-2.29585">
        <ele>55.400001525879</ele>
        <time>2022-03-20T08:43:51.000Z</time>
      </trkpt>
      <trkpt lat="47.31168" lon="-2.29568">
        <ele>55.400001525879</ele>
        <time>2022-03-20T08:43:53.000Z</time>
      </trkpt>
      <trkpt lat="47.3116" lon="-2.29537">
        <ele>55.400001525879</ele>
        <time>2022-03-20T08:43:57.000Z</time>
      </trkpt>
      <trkpt lat="47.31145" lon="-2.29489">
        <ele>55.400001525879</ele>
        <time>2022-03-20T08:44:03.000Z</time>
      </trkpt>
      <trkpt lat="47.31144" lon="-2.29482">
        <ele>55.400001525879</ele>
        <time>2022-03-20T08:44:04.000Z</time>
      </trkpt>
      <trkpt lat="47.31148" lon="-2.29469">
        <ele>55.400001525879</ele>
        <time>2022-03-20T08:44:06.000Z</time>
      </trkpt>
      <trkpt lat="47.31157" lon="-2.2946">
        <ele>55.400001525879</ele>
        <time>2022-03-20T08:44:08.000Z</time>
      </trkpt>
      <trkpt lat="47.31167" lon="-2.2945">
        <ele>55.400001525879</ele>
        <time>2022-03-20T08:44:10.000Z</time>
      </trkpt>
      <trkpt lat="47.31193" lon="-2.29428">
        <ele>55.400001525879</ele>
        <time>2022-03-20T08:44:15.000Z</time>
      </trkpt>
      <trkpt lat="47.31214" lon="-2.29413">
        <ele>55.799999237061</ele>
        <time>2022-03-20T08:44:19.000Z</time>
      </trkpt>
      <trkpt lat="47.31219" lon="-2.29409">
        <ele>56.200000762939</ele>
        <time>2022-03-20T08:44:20.000Z</time>
      </trkpt>
      <trkpt lat="47.31224" lon="-2.29404">
        <ele>56.599998474121</ele>
        <time>2022-03-20T08:44:21.000Z</time>
      </trkpt>
      <trkpt lat="47.31229" lon="-2.294">
        <ele>57.200000762939</ele>
        <time>2022-03-20T08:44:22.000Z</time>
      </trkpt>
      <trkpt lat="47.31233" lon="-2.29397">
        <ele>57.599998474121</ele>
        <time>2022-03-20T08:44:23.000Z</time>
      </trkpt>
      <trkpt lat="47.31253" lon="-2.29381">
        <ele>57.599998474121</ele>
        <time>2022-03-20T08:44:27.000Z</time>
      </trkpt>
      <trkpt lat="47.31264" lon="-2.29354">
        <ele>57.599998474121</ele>
        <time>2022-03-20T08:44:31.000Z</time>
      </trkpt>
      <trkpt lat="47.31272" lon="-2.29335">
        <ele>57.599998474121</ele>
        <time>2022-03-20T08:44:34.000Z</time>
      </trkpt>
      <trkpt lat="47.31277" lon="-2.29326">
        <ele>57.599998474121</ele>
        <time>2022-03-20T08:44:36.000Z</time>
      </trkpt>
      <trkpt lat="47.31292" lon="-2.29306">
        <ele>57.599998474121</ele>
        <time>2022-03-20T08:44:41.000Z</time>
      </trkpt>
      <trkpt lat="47.31295" lon="-2.29303">
        <ele>57.599998474121</ele>
        <time>2022-03-20T08:44:42.000Z</time>
      </trkpt>
      <trkpt lat="47.31312" lon="-2.29296">
        <ele>57.599998474121</ele>
        <time>2022-03-20T08:44:46.000Z</time>
      </trkpt>
      <trkpt lat="47.31317" lon="-2.29296">
        <ele>57.599998474121</ele>
        <time>2022-03-20T08:44:47.000Z</time>
      </trkpt>
      <trkpt lat="47.31353" lon="-2.29308">
        <ele>57.599998474121</ele>
        <time>2022-03-20T08:44:54.000Z</time>
      </trkpt>
      <trkpt lat="47.31368" lon="-2.29315">
        <ele>57.599998474121</ele>
        <time>2022-03-20T08:44:57.000Z</time>
      </trkpt>
      <trkpt lat="47.31377" lon="-2.29319">
        <ele>58</ele>
        <time>2022-03-20T08:44:59.000Z</time>
      </trkpt>
      <trkpt lat="47.31381" lon="-2.29321">
        <ele>58.400001525879</ele>
        <time>2022-03-20T08:45:00.000Z</time>
      </trkpt>
      <trkpt lat="47.31386" lon="-2.29323">
        <ele>58.799999237061</ele>
        <time>2022-03-20T08:45:01.000Z</time>
      </trkpt>
      <trkpt lat="47.3139" lon="-2.29325">
        <ele>59.200000762939</ele>
        <time>2022-03-20T08:45:02.000Z</time>
      </trkpt>
      <trkpt lat="47.31395" lon="-2.29327">
        <ele>59.799999237061</ele>
        <time>2022-03-20T08:45:03.000Z</time>
      </trkpt>
      <trkpt lat="47.31403" lon="-2.29332">
        <ele>59.799999237061</ele>
        <time>2022-03-20T08:45:05.000Z</time>
      </trkpt>
      <trkpt lat="47.3141" lon="-2.29339">
        <ele>59.799999237061</ele>
        <time>2022-03-20T08:45:07.000Z</time>
      </trkpt>
      <trkpt lat="47.31419" lon="-2.29349">
        <ele>59.799999237061</ele>
        <time>2022-03-20T08:45:10.000Z</time>
      </trkpt>
      <trkpt lat="47.31422" lon="-2.29353">
        <ele>59.799999237061</ele>
        <time>2022-03-20T08:45:11.000Z</time>
      </trkpt>
      <trkpt lat="47.3144" lon="-2.29382">
        <ele>59.799999237061</ele>
        <time>2022-03-20T08:45:17.000Z</time>
      </trkpt>
      <trkpt lat="47.31444" lon="-2.29387">
        <ele>59.799999237061</ele>
        <time>2022-03-20T08:45:18.000Z</time>
      </trkpt>
      <trkpt lat="47.31451" lon="-2.29395">
        <ele>60.200000762939</ele>
        <time>2022-03-20T08:45:20.000Z</time>
      </trkpt>
      <trkpt lat="47.31455" lon="-2.29397">
        <ele>61</ele>
        <time>2022-03-20T08:45:21.000Z</time>
      </trkpt>
      <trkpt lat="47.31459" lon="-2.29398">
        <ele>61.400001525879</ele>
        <time>2022-03-20T08:45:22.000Z</time>
      </trkpt>
      <trkpt lat="47.31463" lon="-2.29397">
        <ele>61.799999237061</ele>
        <time>2022-03-20T08:45:23.000Z</time>
      </trkpt>
      <trkpt lat="47.31468" lon="-2.29395">
        <ele>61.799999237061</ele>
        <time>2022-03-20T08:45:24.000Z</time>
      </trkpt>
      <trkpt lat="47.31487" lon="-2.29391">
        <ele>61.799999237061</ele>
        <time>2022-03-20T08:45:28.000Z</time>
      </trkpt>
      <trkpt lat="47.31497" lon="-2.29393">
        <ele>61.799999237061</ele>
        <time>2022-03-20T08:45:30.000Z</time>
      </trkpt>
      <trkpt lat="47.31511" lon="-2.29407">
        <ele>61.799999237061</ele>
        <time>2022-03-20T08:45:34.000Z</time>
      </trkpt>
      <trkpt lat="47.31519" lon="-2.29423">
        <ele>62.400001525879</ele>
        <time>2022-03-20T08:45:37.000Z</time>
      </trkpt>
      <trkpt lat="47.31522" lon="-2.29429">
        <ele>62.799999237061</ele>
        <time>2022-03-20T08:45:38.000Z</time>
      </trkpt>
      <trkpt lat="47.31524" lon="-2.29436">
        <ele>63.200000762939</ele>
        <time>2022-03-20T08:45:39.000Z</time>
      </trkpt>
      <trkpt lat="47.31526" lon="-2.29443">
        <ele>63.599998474121</ele>
        <time>2022-03-20T08:45:40.000Z</time>
      </trkpt>
      <trkpt lat="47.31529" lon="-2.2945">
        <ele>64</ele>
        <time>2022-03-20T08:45:41.000Z</time>
      </trkpt>
      <trkpt lat="47.31531" lon="-2.29457">
        <ele>64</ele>
        <time>2022-03-20T08:45:42.000Z</time>
      </trkpt>
      <trkpt lat="47.31537" lon="-2.29475">
        <ele>64</ele>
        <time>2022-03-20T08:45:45.000Z</time>
      </trkpt>
      <trkpt lat="47.31541" lon="-2.29499">
        <ele>64.400001525879</ele>
        <time>2022-03-20T08:45:49.000Z</time>
      </trkpt>
      <trkpt lat="47.31543" lon="-2.29506">
        <ele>64.800003051758</ele>
        <time>2022-03-20T08:45:50.000Z</time>
      </trkpt>
      <trkpt lat="47.31544" lon="-2.29512">
        <ele>65.199996948242</ele>
        <time>2022-03-20T08:45:51.000Z</time>
      </trkpt>
      <trkpt lat="47.31545" lon="-2.29518">
        <ele>65.599998474121</ele>
        <time>2022-03-20T08:45:52.000Z</time>
      </trkpt>
      <trkpt lat="47.31547" lon="-2.29524">
        <ele>66</ele>
        <time>2022-03-20T08:45:53.000Z</time>
      </trkpt>
      <trkpt lat="47.31554" lon="-2.29542">
        <ele>66</ele>
        <time>2022-03-20T08:45:56.000Z</time>
      </trkpt>
      <trkpt lat="47.31573" lon="-2.29574">
        <ele>66</ele>
        <time>2022-03-20T08:46:02.000Z</time>
      </trkpt>
      <trkpt lat="47.3159" lon="-2.29595">
        <ele>66</ele>
        <time>2022-03-20T08:46:07.000Z</time>
      </trkpt>
      <trkpt lat="47.31612" lon="-2.29617">
        <ele>66</ele>
        <time>2022-03-20T08:46:13.000Z</time>
      </trkpt>
      <trkpt lat="47.31615" lon="-2.29622">
        <ele>66</ele>
        <time>2022-03-20T08:46:14.000Z</time>
      </trkpt>
      <trkpt lat="47.31624" lon="-2.29638">
        <ele>66</ele>
        <time>2022-03-20T08:46:17.000Z</time>
      </trkpt>
      <trkpt lat="47.31638" lon="-2.2967">
        <ele>66</ele>
        <time>2022-03-20T08:46:22.000Z</time>
      </trkpt>
      <trkpt lat="47.3164" lon="-2.29677">
        <ele>66.400001525879</ele>
        <time>2022-03-20T08:46:23.000Z</time>
      </trkpt>
      <trkpt lat="47.31643" lon="-2.29685">
        <ele>66.800003051758</ele>
        <time>2022-03-20T08:46:24.000Z</time>
      </trkpt>
      <trkpt lat="47.31645" lon="-2.29693">
        <ele>67.199996948242</ele>
        <time>2022-03-20T08:46:25.000Z</time>
      </trkpt>
      <trkpt lat="47.31647" lon="-2.29701">
        <ele>67.599998474121</ele>
        <time>2022-03-20T08:46:26.000Z</time>
      </trkpt>
      <trkpt lat="47.3165" lon="-2.29708">
        <ele>68</ele>
        <time>2022-03-20T08:46:27.000Z</time>
      </trkpt>
      <trkpt lat="47.31652" lon="-2.29716">
        <ele>68</ele>
        <time>2022-03-20T08:46:28.000Z</time>
      </trkpt>
      <trkpt lat="47.31655" lon="-2.29722">
        <ele>68</ele>
        <time>2022-03-20T08:46:29.000Z</time>
      </trkpt>
      <trkpt lat="47.31664" lon="-2.29732">
        <ele>68</ele>
        <time>2022-03-20T08:46:31.000Z</time>
      </trkpt>
      <trkpt lat="47.31682" lon="-2.29734">
        <ele>68</ele>
        <time>2022-03-20T08:46:34.000Z</time>
      </trkpt>
      <trkpt lat="47.31709" lon="-2.29724">
        <ele>68</ele>
        <time>2022-03-20T08:46:39.000Z</time>
      </trkpt>
      <trkpt lat="47.31725" lon="-2.29712">
        <ele>68</ele>
        <time>2022-03-20T08:46:42.000Z</time>
      </trkpt>
      <trkpt lat="47.31735" lon="-2.29705">
        <ele>68</ele>
        <time>2022-03-20T08:46:44.000Z</time>
      </trkpt>
      <trkpt lat="47.31746" lon="-2.29697">
        <ele>68</ele>
        <time>2022-03-20T08:46:46.000Z</time>
      </trkpt>
      <trkpt lat="47.31768" lon="-2.29681">
        <ele>68</ele>
        <time>2022-03-20T08:46:50.000Z</time>
      </trkpt>
      <trkpt lat="47.318" lon="-2.29658">
        <ele>68</ele>
        <time>2022-03-20T08:46:56.000Z</time>
      </trkpt>
      <trkpt lat="47.31842" lon="-2.29632">
        <ele>68</ele>
        <time>2022-03-20T08:47:04.000Z</time>
      </trkpt>
      <trkpt lat="47.31857" lon="-2.29624">
        <ele>68</ele>
        <time>2022-03-20T08:47:07.000Z</time>
      </trkpt>
      <trkpt lat="47.31865" lon="-2.29616">
        <ele>68</ele>
        <time>2022-03-20T08:47:09.000Z</time>
      </trkpt>
      <trkpt lat="47.31877" lon="-2.29593">
        <ele>68</ele>
        <time>2022-03-20T08:47:14.000Z</time>
      </trkpt>
      <trkpt lat="47.31873" lon="-2.29576">
        <ele>68</ele>
        <time>2022-03-20T08:47:18.000Z</time>
      </trkpt>
      <trkpt lat="47.31864" lon="-2.29547">
        <ele>68</ele>
        <time>2022-03-20T08:47:24.000Z</time>
      </trkpt>
      <trkpt lat="47.31852" lon="-2.29509">
        <ele>68</ele>
        <time>2022-03-20T08:47:31.000Z</time>
      </trkpt>
      <trkpt lat="47.31847" lon="-2.29498">
        <ele>68</ele>
        <time>2022-03-20T08:47:33.000Z</time>
      </trkpt>
      <trkpt lat="47.31845" lon="-2.29477">
        <ele>68</ele>
        <time>2022-03-20T08:47:36.000Z</time>
      </trkpt>
      <trkpt lat="47.31845" lon="-2.29471">
        <ele>68</ele>
        <time>2022-03-20T08:47:37.000Z</time>
      </trkpt>
      <trkpt lat="47.31845" lon="-2.29464">
        <ele>68</ele>
        <time>2022-03-20T08:47:38.000Z</time>
      </trkpt>
      <trkpt lat="47.31848" lon="-2.29445">
        <ele>68</ele>
        <time>2022-03-20T08:47:41.000Z</time>
      </trkpt>
      <trkpt lat="47.31849" lon="-2.29416">
        <ele>68</ele>
        <time>2022-03-20T08:47:45.000Z</time>
      </trkpt>
      <trkpt lat="47.31849" lon="-2.29408">
        <ele>68</ele>
        <time>2022-03-20T08:47:46.000Z</time>
      </trkpt>
      <trkpt lat="47.31845" lon="-2.29384">
        <ele>68</ele>
        <time>2022-03-20T08:47:49.000Z</time>
      </trkpt>
      <trkpt lat="47.3184" lon="-2.29362">
        <ele>68</ele>
        <time>2022-03-20T08:47:52.000Z</time>
      </trkpt>
      <trkpt lat="47.31834" lon="-2.29331">
        <ele>68</ele>
        <time>2022-03-20T08:47:56.000Z</time>
      </trkpt>
      <trkpt lat="47.31831" lon="-2.29306">
        <ele>67.599998474121</ele>
        <time>2022-03-20T08:47:59.000Z</time>
      </trkpt>
      <trkpt lat="47.31831" lon="-2.29297">
        <ele>67.199996948242</ele>
        <time>2022-03-20T08:48:00.000Z</time>
      </trkpt>
      <trkpt lat="47.3183" lon="-2.29288">
        <ele>66.800003051758</ele>
        <time>2022-03-20T08:48:01.000Z</time>
      </trkpt>
      <trkpt lat="47.31829" lon="-2.29279">
        <ele>66.400001525879</ele>
        <time>2022-03-20T08:48:02.000Z</time>
      </trkpt>
      <trkpt lat="47.31829" lon="-2.2927">
        <ele>65.800003051758</ele>
        <time>2022-03-20T08:48:03.000Z</time>
      </trkpt>
      <trkpt lat="47.31826" lon="-2.29251">
        <ele>65.800003051758</ele>
        <time>2022-03-20T08:48:05.000Z</time>
      </trkpt>
      <trkpt lat="47.31822" lon="-2.29202">
        <ele>65.400001525879</ele>
        <time>2022-03-20T08:48:10.000Z</time>
      </trkpt>
      <trkpt lat="47.31822" lon="-2.29192">
        <ele>65</ele>
        <time>2022-03-20T08:48:11.000Z</time>
      </trkpt>
      <trkpt lat="47.31823" lon="-2.2918">
        <ele>64.599998474121</ele>
        <time>2022-03-20T08:48:12.000Z</time>
      </trkpt>
      <trkpt lat="47.31823" lon="-2.29169">
        <ele>64.199996948242</ele>
        <time>2022-03-20T08:48:13.000Z</time>
      </trkpt>
      <trkpt lat="47.31824" lon="-2.29159">
        <ele>63.799999237061</ele>
        <time>2022-03-20T08:48:14.000Z</time>
      </trkpt>
      <trkpt lat="47.31828" lon="-2.29126">
        <ele>63.400001525879</ele>
        <time>2022-03-20T08:48:17.000Z</time>
      </trkpt>
      <trkpt lat="47.3183" lon="-2.29116">
        <ele>63</ele>
        <time>2022-03-20T08:48:18.000Z</time>
      </trkpt>
      <trkpt lat="47.31832" lon="-2.29105">
        <ele>62.599998474121</ele>
        <time>2022-03-20T08:48:19.000Z</time>
      </trkpt>
      <trkpt lat="47.31834" lon="-2.29094">
        <ele>62.200000762939</ele>
        <time>2022-03-20T08:48:20.000Z</time>
      </trkpt>
      <trkpt lat="47.31836" lon="-2.29083">
        <ele>61.599998474121</ele>
        <time>2022-03-20T08:48:21.000Z</time>
      </trkpt>
      <trkpt lat="47.31842" lon="-2.29053">
        <ele>61.200000762939</ele>
        <time>2022-03-20T08:48:24.000Z</time>
      </trkpt>
      <trkpt lat="47.31844" lon="-2.29044">
        <ele>60.799999237061</ele>
        <time>2022-03-20T08:48:25.000Z</time>
      </trkpt>
      <trkpt lat="47.31846" lon="-2.29034">
        <ele>60.400001525879</ele>
        <time>2022-03-20T08:48:26.000Z</time>
      </trkpt>
      <trkpt lat="47.31848" lon="-2.29023">
        <ele>60</ele>
        <time>2022-03-20T08:48:27.000Z</time>
      </trkpt>
      <trkpt lat="47.3185" lon="-2.29014">
        <ele>59.599998474121</ele>
        <time>2022-03-20T08:48:28.000Z</time>
      </trkpt>
      <trkpt lat="47.31855" lon="-2.28993">
        <ele>59.599998474121</ele>
        <time>2022-03-20T08:48:30.000Z</time>
      </trkpt>
      <trkpt lat="47.31857" lon="-2.28982">
        <ele>59.599998474121</ele>
        <time>2022-03-20T08:48:31.000Z</time>
      </trkpt>
      <trkpt lat="47.31863" lon="-2.2892">
        <ele>59.599998474121</ele>
        <time>2022-03-20T08:48:37.000Z</time>
      </trkpt>
      <trkpt lat="47.31864" lon="-2.28877">
        <ele>59.599998474121</ele>
        <time>2022-03-20T08:48:42.000Z</time>
      </trkpt>
      <trkpt lat="47.31865" lon="-2.28846">
        <ele>59.599998474121</ele>
        <time>2022-03-20T08:48:47.000Z</time>
      </trkpt>
      <trkpt lat="47.31869" lon="-2.28826">
        <ele>59.599998474121</ele>
        <time>2022-03-20T08:48:51.000Z</time>
      </trkpt>
      <trkpt lat="47.31872" lon="-2.28798">
        <ele>59.599998474121</ele>
        <time>2022-03-20T08:48:55.000Z</time>
      </trkpt>
      <trkpt lat="47.31875" lon="-2.28761">
        <ele>59.599998474121</ele>
        <time>2022-03-20T08:49:00.000Z</time>
      </trkpt>
      <trkpt lat="47.31875" lon="-2.28754">
        <ele>59.599998474121</ele>
        <time>2022-03-20T08:49:01.000Z</time>
      </trkpt>
      <trkpt lat="47.31876" lon="-2.28746">
        <ele>59.599998474121</ele>
        <time>2022-03-20T08:49:02.000Z</time>
      </trkpt>
      <trkpt lat="47.3188" lon="-2.28713">
        <ele>59.599998474121</ele>
        <time>2022-03-20T08:49:06.000Z</time>
      </trkpt>
      <trkpt lat="47.31886" lon="-2.28661">
        <ele>59.599998474121</ele>
        <time>2022-03-20T08:49:13.000Z</time>
      </trkpt>
      <trkpt lat="47.31887" lon="-2.28654">
        <ele>59.599998474121</ele>
        <time>2022-03-20T08:49:14.000Z</time>
      </trkpt>
      <trkpt lat="47.31891" lon="-2.2863">
        <ele>59.599998474121</ele>
        <time>2022-03-20T08:49:17.000Z</time>
      </trkpt>
      <trkpt lat="47.31893" lon="-2.28615">
        <ele>59.599998474121</ele>
        <time>2022-03-20T08:49:19.000Z</time>
      </trkpt>
      <trkpt lat="47.31897" lon="-2.28583">
        <ele>59.599998474121</ele>
        <time>2022-03-20T08:49:23.000Z</time>
      </trkpt>
      <trkpt lat="47.31896" lon="-2.28567">
        <ele>59.599998474121</ele>
        <time>2022-03-20T08:49:25.000Z</time>
      </trkpt>
      <trkpt lat="47.31893" lon="-2.28529">
        <ele>59.599998474121</ele>
        <time>2022-03-20T08:49:30.000Z</time>
      </trkpt>
      <trkpt lat="47.31896" lon="-2.28474">
        <ele>59.599998474121</ele>
        <time>2022-03-20T08:49:37.000Z</time>
      </trkpt>
      <trkpt lat="47.31898" lon="-2.28435">
        <ele>59.599998474121</ele>
        <time>2022-03-20T08:49:42.000Z</time>
      </trkpt>
      <trkpt lat="47.31897" lon="-2.28427">
        <ele>59.599998474121</ele>
        <time>2022-03-20T08:49:43.000Z</time>
      </trkpt>
      <trkpt lat="47.31887" lon="-2.28367">
        <ele>59.599998474121</ele>
        <time>2022-03-20T08:49:51.000Z</time>
      </trkpt>
      <trkpt lat="47.31878" lon="-2.2832">
        <ele>59.599998474121</ele>
        <time>2022-03-20T08:49:58.000Z</time>
      </trkpt>
      <trkpt lat="47.31866" lon="-2.28262">
        <ele>59.599998474121</ele>
        <time>2022-03-20T08:50:06.000Z</time>
      </trkpt>
      <trkpt lat="47.3186" lon="-2.2822">
        <ele>59.599998474121</ele>
        <time>2022-03-20T08:50:11.000Z</time>
      </trkpt>
      <trkpt lat="47.3186" lon="-2.2816">
        <ele>59.599998474121</ele>
        <time>2022-03-20T08:50:17.000Z</time>
      </trkpt>
      <trkpt lat="47.31861" lon="-2.28103">
        <ele>59.599998474121</ele>
        <time>2022-03-20T08:50:23.000Z</time>
      </trkpt>
      <trkpt lat="47.3186" lon="-2.28031">
        <ele>59.599998474121</ele>
        <time>2022-03-20T08:50:31.000Z</time>
      </trkpt>
      <trkpt lat="47.3186" lon="-2.27956">
        <ele>59.599998474121</ele>
        <time>2022-03-20T08:50:40.000Z</time>
      </trkpt>
      <trkpt lat="47.31859" lon="-2.279">
        <ele>59.599998474121</ele>
        <time>2022-03-20T08:50:47.000Z</time>
      </trkpt>
      <trkpt lat="47.31859" lon="-2.27892">
        <ele>60</ele>
        <time>2022-03-20T08:50:48.000Z</time>
      </trkpt>
      <trkpt lat="47.3186" lon="-2.27884">
        <ele>60.400001525879</ele>
        <time>2022-03-20T08:50:49.000Z</time>
      </trkpt>
      <trkpt lat="47.3186" lon="-2.27875">
        <ele>60.799999237061</ele>
        <time>2022-03-20T08:50:50.000Z</time>
      </trkpt>
      <trkpt lat="47.31861" lon="-2.27866">
        <ele>61.200000762939</ele>
        <time>2022-03-20T08:50:51.000Z</time>
      </trkpt>
      <trkpt lat="47.31862" lon="-2.27858">
        <ele>61.799999237061</ele>
        <time>2022-03-20T08:50:52.000Z</time>
      </trkpt>
      <trkpt lat="47.31863" lon="-2.27824">
        <ele>61.799999237061</ele>
        <time>2022-03-20T08:50:56.000Z</time>
      </trkpt>
      <trkpt lat="47.31865" lon="-2.27763">
        <ele>61.799999237061</ele>
        <time>2022-03-20T08:51:03.000Z</time>
      </trkpt>
      <trkpt lat="47.31866" lon="-2.2769">
        <ele>61.799999237061</ele>
        <time>2022-03-20T08:51:11.000Z</time>
      </trkpt>
      <trkpt lat="47.31862" lon="-2.27612">
        <ele>61.799999237061</ele>
        <time>2022-03-20T08:51:19.000Z</time>
      </trkpt>
      <trkpt lat="47.3186" lon="-2.27553">
        <ele>61.799999237061</ele>
        <time>2022-03-20T08:51:25.000Z</time>
      </trkpt>
      <trkpt lat="47.31858" lon="-2.27487">
        <ele>61.799999237061</ele>
        <time>2022-03-20T08:51:32.000Z</time>
      </trkpt>
      <trkpt lat="47.31857" lon="-2.2743">
        <ele>61.799999237061</ele>
        <time>2022-03-20T08:51:38.000Z</time>
      </trkpt>
      <trkpt lat="47.31855" lon="-2.27378">
        <ele>61.799999237061</ele>
        <time>2022-03-20T08:51:44.000Z</time>
      </trkpt>
      <trkpt lat="47.31853" lon="-2.27316">
        <ele>61.799999237061</ele>
        <time>2022-03-20T08:51:51.000Z</time>
      </trkpt>
      <trkpt lat="47.31851" lon="-2.27274">
        <ele>61.799999237061</ele>
        <time>2022-03-20T08:51:56.000Z</time>
      </trkpt>
      <trkpt lat="47.3185" lon="-2.27207">
        <ele>61.799999237061</ele>
        <time>2022-03-20T08:52:04.000Z</time>
      </trkpt>
      <trkpt lat="47.31849" lon="-2.27172">
        <ele>61.799999237061</ele>
        <time>2022-03-20T08:52:08.000Z</time>
      </trkpt>
      <trkpt lat="47.31848" lon="-2.27156">
        <ele>61.799999237061</ele>
        <time>2022-03-20T08:52:10.000Z</time>
      </trkpt>
      <trkpt lat="47.31846" lon="-2.27102">
        <ele>61.799999237061</ele>
        <time>2022-03-20T08:52:17.000Z</time>
      </trkpt>
      <trkpt lat="47.31846" lon="-2.27092">
        <ele>61.799999237061</ele>
        <time>2022-03-20T08:52:20.000Z</time>
      </trkpt>
      <trkpt lat="47.31846" lon="-2.27092">
        <ele>61.799999237061</ele>
        <time>2022-03-20T08:52:21.000Z</time>
      </trkpt>
      <trkpt lat="47.31846" lon="-2.27092">
        <ele>61.799999237061</ele>
        <time>2022-03-20T08:52:32.000Z</time>
      </trkpt>
      <trkpt lat="47.31847" lon="-2.27085">
        <ele>61.799999237061</ele>
        <time>2022-03-20T08:52:34.000Z</time>
      </trkpt>
      <trkpt lat="47.31847" lon="-2.27068">
        <ele>61.799999237061</ele>
        <time>2022-03-20T08:52:37.000Z</time>
      </trkpt>
      <trkpt lat="47.31846" lon="-2.27054">
        <ele>61.799999237061</ele>
        <time>2022-03-20T08:52:39.000Z</time>
      </trkpt>
      <trkpt lat="47.31845" lon="-2.27031">
        <ele>61.799999237061</ele>
        <time>2022-03-20T08:52:42.000Z</time>
      </trkpt>
      <trkpt lat="47.31844" lon="-2.27014">
        <ele>61.200000762939</ele>
        <time>2022-03-20T08:52:44.000Z</time>
      </trkpt>
      <trkpt lat="47.31843" lon="-2.27006">
        <ele>60.799999237061</ele>
        <time>2022-03-20T08:52:45.000Z</time>
      </trkpt>
      <trkpt lat="47.31843" lon="-2.26997">
        <ele>60</ele>
        <time>2022-03-20T08:52:46.000Z</time>
      </trkpt>
      <trkpt lat="47.31842" lon="-2.26988">
        <ele>59.599998474121</ele>
        <time>2022-03-20T08:52:47.000Z</time>
      </trkpt>
      <trkpt lat="47.31842" lon="-2.2698">
        <ele>59.599998474121</ele>
        <time>2022-03-20T08:52:48.000Z</time>
      </trkpt>
      <trkpt lat="47.31839" lon="-2.26909">
        <ele>59.599998474121</ele>
        <time>2022-03-20T08:52:56.000Z</time>
      </trkpt>
      <trkpt lat="47.31836" lon="-2.26851">
        <ele>59.599998474121</ele>
        <time>2022-03-20T08:53:03.000Z</time>
      </trkpt>
      <trkpt lat="47.31834" lon="-2.26799">
        <ele>59.599998474121</ele>
        <time>2022-03-20T08:53:10.000Z</time>
      </trkpt>
      <trkpt lat="47.31834" lon="-2.26792">
        <ele>60</ele>
        <time>2022-03-20T08:53:11.000Z</time>
      </trkpt>
      <trkpt lat="47.31833" lon="-2.26784">
        <ele>60.400001525879</ele>
        <time>2022-03-20T08:53:12.000Z</time>
      </trkpt>
      <trkpt lat="47.31833" lon="-2.26776">
        <ele>60.799999237061</ele>
        <time>2022-03-20T08:53:13.000Z</time>
      </trkpt>
      <trkpt lat="47.31832" lon="-2.26768">
        <ele>61.200000762939</ele>
        <time>2022-03-20T08:53:14.000Z</time>
      </trkpt>
      <trkpt lat="47.3183" lon="-2.26761">
        <ele>61.799999237061</ele>
        <time>2022-03-20T08:53:15.000Z</time>
      </trkpt>
      <trkpt lat="47.31828" lon="-2.26754">
        <ele>61.799999237061</ele>
        <time>2022-03-20T08:53:16.000Z</time>
      </trkpt>
      <trkpt lat="47.31809" lon="-2.26705">
        <ele>61.799999237061</ele>
        <time>2022-03-20T08:53:23.000Z</time>
      </trkpt>
      <trkpt lat="47.31806" lon="-2.26699">
        <ele>61.799999237061</ele>
        <time>2022-03-20T08:53:24.000Z</time>
      </trkpt>
      <trkpt lat="47.31795" lon="-2.26694">
        <ele>61.799999237061</ele>
        <time>2022-03-20T08:53:26.000Z</time>
      </trkpt>
      <trkpt lat="47.31776" lon="-2.26699">
        <ele>61.799999237061</ele>
        <time>2022-03-20T08:53:29.000Z</time>
      </trkpt>
      <trkpt lat="47.31729" lon="-2.26718">
        <ele>61.799999237061</ele>
        <time>2022-03-20T08:53:36.000Z</time>
      </trkpt>
      <trkpt lat="47.31695" lon="-2.26725">
        <ele>61.200000762939</ele>
        <time>2022-03-20T08:53:41.000Z</time>
      </trkpt>
      <trkpt lat="47.31689" lon="-2.26725">
        <ele>60.799999237061</ele>
        <time>2022-03-20T08:53:42.000Z</time>
      </trkpt>
      <trkpt lat="47.31685" lon="-2.26725">
        <ele>60.400001525879</ele>
        <time>2022-03-20T08:53:43.000Z</time>
      </trkpt>
      <trkpt lat="47.31681" lon="-2.26726">
        <ele>59.799999237061</ele>
        <time>2022-03-20T08:53:44.000Z</time>
      </trkpt>
      <trkpt lat="47.31677" lon="-2.26727">
        <ele>59.400001525879</ele>
        <time>2022-03-20T08:53:45.000Z</time>
      </trkpt>
      <trkpt lat="47.31655" lon="-2.26732">
        <ele>59.400001525879</ele>
        <time>2022-03-20T08:53:50.000Z</time>
      </trkpt>
      <trkpt lat="47.31643" lon="-2.26739">
        <ele>59.400001525879</ele>
        <time>2022-03-20T08:53:53.000Z</time>
      </trkpt>
      <trkpt lat="47.31635" lon="-2.26747">
        <ele>59.400001525879</ele>
        <time>2022-03-20T08:53:55.000Z</time>
      </trkpt>
      <trkpt lat="47.31626" lon="-2.26754">
        <ele>59.400001525879</ele>
        <time>2022-03-20T08:53:57.000Z</time>
      </trkpt>
      <trkpt lat="47.31609" lon="-2.26758">
        <ele>59.400001525879</ele>
        <time>2022-03-20T08:54:00.000Z</time>
      </trkpt>
      <trkpt lat="47.31596" lon="-2.26757">
        <ele>59.400001525879</ele>
        <time>2022-03-20T08:54:02.000Z</time>
      </trkpt>
      <trkpt lat="47.31579" lon="-2.26757">
        <ele>59.400001525879</ele>
        <time>2022-03-20T08:54:05.000Z</time>
      </trkpt>
      <trkpt lat="47.31564" lon="-2.26769">
        <ele>59.400001525879</ele>
        <time>2022-03-20T08:54:08.000Z</time>
      </trkpt>
      <trkpt lat="47.31555" lon="-2.26789">
        <ele>59.400001525879</ele>
        <time>2022-03-20T08:54:11.000Z</time>
      </trkpt>
      <trkpt lat="47.31552" lon="-2.26796">
        <ele>59</ele>
        <time>2022-03-20T08:54:12.000Z</time>
      </trkpt>
      <trkpt lat="47.31549" lon="-2.26802">
        <ele>58.599998474121</ele>
        <time>2022-03-20T08:54:13.000Z</time>
      </trkpt>
      <trkpt lat="47.31546" lon="-2.26808">
        <ele>58.200000762939</ele>
        <time>2022-03-20T08:54:14.000Z</time>
      </trkpt>
      <trkpt lat="47.31544" lon="-2.26814">
        <ele>57.799999237061</ele>
        <time>2022-03-20T08:54:15.000Z</time>
      </trkpt>
      <trkpt lat="47.31542" lon="-2.2682">
        <ele>57.400001525879</ele>
        <time>2022-03-20T08:54:16.000Z</time>
      </trkpt>
      <trkpt lat="47.31537" lon="-2.26832">
        <ele>57.400001525879</ele>
        <time>2022-03-20T08:54:18.000Z</time>
      </trkpt>
      <trkpt lat="47.31524" lon="-2.26862">
        <ele>57.400001525879</ele>
        <time>2022-03-20T08:54:23.000Z</time>
      </trkpt>
      <trkpt lat="47.31514" lon="-2.26883">
        <ele>57.400001525879</ele>
        <time>2022-03-20T08:54:27.000Z</time>
      </trkpt>
      <trkpt lat="47.31512" lon="-2.26889">
        <ele>57.400001525879</ele>
        <time>2022-03-20T08:54:28.000Z</time>
      </trkpt>
      <trkpt lat="47.31501" lon="-2.26924">
        <ele>57.400001525879</ele>
        <time>2022-03-20T08:54:33.000Z</time>
      </trkpt>
      <trkpt lat="47.31496" lon="-2.26939">
        <ele>57.799999237061</ele>
        <time>2022-03-20T08:54:35.000Z</time>
      </trkpt>
      <trkpt lat="47.31494" lon="-2.26947">
        <ele>58.200000762939</ele>
        <time>2022-03-20T08:54:36.000Z</time>
      </trkpt>
      <trkpt lat="47.31491" lon="-2.26954">
        <ele>58.599998474121</ele>
        <time>2022-03-20T08:54:37.000Z</time>
      </trkpt>
      <trkpt lat="47.31489" lon="-2.26961">
        <ele>59</ele>
        <time>2022-03-20T08:54:38.000Z</time>
      </trkpt>
      <trkpt lat="47.31487" lon="-2.26968">
        <ele>59.400001525879</ele>
        <time>2022-03-20T08:54:39.000Z</time>
      </trkpt>
      <trkpt lat="47.31484" lon="-2.26974">
        <ele>59.400001525879</ele>
        <time>2022-03-20T08:54:40.000Z</time>
      </trkpt>
      <trkpt lat="47.31466" lon="-2.26992">
        <ele>59.400001525879</ele>
        <time>2022-03-20T08:54:44.000Z</time>
      </trkpt>
      <trkpt lat="47.31435" lon="-2.2702">
        <ele>59.400001525879</ele>
        <time>2022-03-20T08:54:50.000Z</time>
      </trkpt>
      <trkpt lat="47.31404" lon="-2.27044">
        <ele>59.799999237061</ele>
        <time>2022-03-20T08:54:56.000Z</time>
      </trkpt>
      <trkpt lat="47.31399" lon="-2.27047">
        <ele>60.200000762939</ele>
        <time>2022-03-20T08:54:57.000Z</time>
      </trkpt>
      <trkpt lat="47.31394" lon="-2.2705">
        <ele>60.599998474121</ele>
        <time>2022-03-20T08:54:58.000Z</time>
      </trkpt>
      <trkpt lat="47.31389" lon="-2.27053">
        <ele>61</ele>
        <time>2022-03-20T08:54:59.000Z</time>
      </trkpt>
      <trkpt lat="47.31383" lon="-2.27056">
        <ele>61.400001525879</ele>
        <time>2022-03-20T08:55:00.000Z</time>
      </trkpt>
      <trkpt lat="47.31351" lon="-2.2707">
        <ele>61.400001525879</ele>
        <time>2022-03-20T08:55:06.000Z</time>
      </trkpt>
      <trkpt lat="47.31312" lon="-2.27083">
        <ele>61.400001525879</ele>
        <time>2022-03-20T08:55:13.000Z</time>
      </trkpt>
      <trkpt lat="47.31306" lon="-2.27085">
        <ele>62.400001525879</ele>
        <time>2022-03-20T08:55:14.000Z</time>
      </trkpt>
      <trkpt lat="47.313" lon="-2.27088">
        <ele>62.799999237061</ele>
        <time>2022-03-20T08:55:15.000Z</time>
      </trkpt>
      <trkpt lat="47.31295" lon="-2.2709">
        <ele>63.200000762939</ele>
        <time>2022-03-20T08:55:16.000Z</time>
      </trkpt>
      <trkpt lat="47.3129" lon="-2.27093">
        <ele>63.599998474121</ele>
        <time>2022-03-20T08:55:17.000Z</time>
      </trkpt>
      <trkpt lat="47.31276" lon="-2.27103">
        <ele>63.599998474121</ele>
        <time>2022-03-20T08:55:20.000Z</time>
      </trkpt>
      <trkpt lat="47.31272" lon="-2.27123">
        <ele>63.599998474121</ele>
        <time>2022-03-20T08:55:23.000Z</time>
      </trkpt>
      <trkpt lat="47.31276" lon="-2.27145">
        <ele>63.599998474121</ele>
        <time>2022-03-20T08:55:26.000Z</time>
      </trkpt>
      <trkpt lat="47.31279" lon="-2.2716">
        <ele>63.599998474121</ele>
        <time>2022-03-20T08:55:28.000Z</time>
      </trkpt>
      <trkpt lat="47.3129" lon="-2.27219">
        <ele>63.599998474121</ele>
        <time>2022-03-20T08:55:35.000Z</time>
      </trkpt>
      <trkpt lat="47.31296" lon="-2.27246">
        <ele>62.799999237061</ele>
        <time>2022-03-20T08:55:38.000Z</time>
      </trkpt>
      <trkpt lat="47.31298" lon="-2.27254">
        <ele>62.400001525879</ele>
        <time>2022-03-20T08:55:39.000Z</time>
      </trkpt>
      <trkpt lat="47.31301" lon="-2.27263">
        <ele>62</ele>
        <time>2022-03-20T08:55:40.000Z</time>
      </trkpt>
      <trkpt lat="47.31304" lon="-2.27271">
        <ele>61.599998474121</ele>
        <time>2022-03-20T08:55:41.000Z</time>
      </trkpt>
      <trkpt lat="47.31308" lon="-2.27279">
        <ele>61.599998474121</ele>
        <time>2022-03-20T08:55:42.000Z</time>
      </trkpt>
      <trkpt lat="47.31325" lon="-2.27307">
        <ele>61.200000762939</ele>
        <time>2022-03-20T08:55:46.000Z</time>
      </trkpt>
      <trkpt lat="47.3133" lon="-2.27312">
        <ele>60.799999237061</ele>
        <time>2022-03-20T08:55:47.000Z</time>
      </trkpt>
      <trkpt lat="47.31334" lon="-2.27318">
        <ele>60.400001525879</ele>
        <time>2022-03-20T08:55:48.000Z</time>
      </trkpt>
      <trkpt lat="47.31338" lon="-2.27324">
        <ele>60</ele>
        <time>2022-03-20T08:55:49.000Z</time>
      </trkpt>
      <trkpt lat="47.31343" lon="-2.2733">
        <ele>59.599998474121</ele>
        <time>2022-03-20T08:55:50.000Z</time>
      </trkpt>
      <trkpt lat="47.31365" lon="-2.2736">
        <ele>59.599998474121</ele>
        <time>2022-03-20T08:55:55.000Z</time>
      </trkpt>
      <trkpt lat="47.31399" lon="-2.27402">
        <ele>59.599998474121</ele>
        <time>2022-03-20T08:56:02.000Z</time>
      </trkpt>
      <trkpt lat="47.3143" lon="-2.27427">
        <ele>59.599998474121</ele>
        <time>2022-03-20T08:56:09.000Z</time>
      </trkpt>
      <trkpt lat="47.31445" lon="-2.27441">
        <ele>59.599998474121</ele>
        <time>2022-03-20T08:56:12.000Z</time>
      </trkpt>
      <trkpt lat="47.31453" lon="-2.27455">
        <ele>59.599998474121</ele>
        <time>2022-03-20T08:56:14.000Z</time>
      </trkpt>
      <trkpt lat="47.3146" lon="-2.27481">
        <ele>59.599998474121</ele>
        <time>2022-03-20T08:56:17.000Z</time>
      </trkpt>
      <trkpt lat="47.31464" lon="-2.27497">
        <ele>59.599998474121</ele>
        <time>2022-03-20T08:56:19.000Z</time>
      </trkpt>
      <trkpt lat="47.3147" lon="-2.2751">
        <ele>59.599998474121</ele>
        <time>2022-03-20T08:56:21.000Z</time>
      </trkpt>
      <trkpt lat="47.31488" lon="-2.27554">
        <ele>59.599998474121</ele>
        <time>2022-03-20T08:56:27.000Z</time>
      </trkpt>
      <trkpt lat="47.3149" lon="-2.27562">
        <ele>59.599998474121</ele>
        <time>2022-03-20T08:56:28.000Z</time>
      </trkpt>
      <trkpt lat="47.31498" lon="-2.27599">
        <ele>59.599998474121</ele>
        <time>2022-03-20T08:56:32.000Z</time>
      </trkpt>
      <trkpt lat="47.31495" lon="-2.27636">
        <ele>59.599998474121</ele>
        <time>2022-03-20T08:56:36.000Z</time>
      </trkpt>
      <trkpt lat="47.31489" lon="-2.27652">
        <ele>59.599998474121</ele>
        <time>2022-03-20T08:56:38.000Z</time>
      </trkpt>
      <trkpt lat="47.31482" lon="-2.27667">
        <ele>59.599998474121</ele>
        <time>2022-03-20T08:56:40.000Z</time>
      </trkpt>
      <trkpt lat="47.31459" lon="-2.27699">
        <ele>59.599998474121</ele>
        <time>2022-03-20T08:56:45.000Z</time>
      </trkpt>
      <trkpt lat="47.31424" lon="-2.27728">
        <ele>59.599998474121</ele>
        <time>2022-03-20T08:56:51.000Z</time>
      </trkpt>
      <trkpt lat="47.3139" lon="-2.27746">
        <ele>59.599998474121</ele>
        <time>2022-03-20T08:56:57.000Z</time>
      </trkpt>
      <trkpt lat="47.3135" lon="-2.2776">
        <ele>59.599998474121</ele>
        <time>2022-03-20T08:57:04.000Z</time>
      </trkpt>
      <trkpt lat="47.31301" lon="-2.2777">
        <ele>59.599998474121</ele>
        <time>2022-03-20T08:57:12.000Z</time>
      </trkpt>
      <trkpt lat="47.31264" lon="-2.27775">
        <ele>59.599998474121</ele>
        <time>2022-03-20T08:57:18.000Z</time>
      </trkpt>
      <trkpt lat="47.31252" lon="-2.27776">
        <ele>59.599998474121</ele>
        <time>2022-03-20T08:57:20.000Z</time>
      </trkpt>
      <trkpt lat="47.31241" lon="-2.27775">
        <ele>59.599998474121</ele>
        <time>2022-03-20T08:57:22.000Z</time>
      </trkpt>
      <trkpt lat="47.31234" lon="-2.27773">
        <ele>59.599998474121</ele>
        <time>2022-03-20T08:57:23.000Z</time>
      </trkpt>
      <trkpt lat="47.31221" lon="-2.27758">
        <ele>59.599998474121</ele>
        <time>2022-03-20T08:57:26.000Z</time>
      </trkpt>
      <trkpt lat="47.31218" lon="-2.27745">
        <ele>59.599998474121</ele>
        <time>2022-03-20T08:57:28.000Z</time>
      </trkpt>
      <trkpt lat="47.31215" lon="-2.27738">
        <ele>59.599998474121</ele>
        <time>2022-03-20T08:57:29.000Z</time>
      </trkpt>
      <trkpt lat="47.31212" lon="-2.27732">
        <ele>59.599998474121</ele>
        <time>2022-03-20T08:57:30.000Z</time>
      </trkpt>
      <trkpt lat="47.31197" lon="-2.27729">
        <ele>59.599998474121</ele>
        <time>2022-03-20T08:57:33.000Z</time>
      </trkpt>
      <trkpt lat="47.31179" lon="-2.27736">
        <ele>59.599998474121</ele>
        <time>2022-03-20T08:57:36.000Z</time>
      </trkpt>
      <trkpt lat="47.31168" lon="-2.27741">
        <ele>59.599998474121</ele>
        <time>2022-03-20T08:57:38.000Z</time>
      </trkpt>
      <trkpt lat="47.31157" lon="-2.27743">
        <ele>59.599998474121</ele>
        <time>2022-03-20T08:57:40.000Z</time>
      </trkpt>
      <trkpt lat="47.31147" lon="-2.27744">
        <ele>59.599998474121</ele>
        <time>2022-03-20T08:57:42.000Z</time>
      </trkpt>
      <trkpt lat="47.31143" lon="-2.27748">
        <ele>59.599998474121</ele>
        <time>2022-03-20T08:57:43.000Z</time>
      </trkpt>
      <trkpt lat="47.31141" lon="-2.27766">
        <ele>59.599998474121</ele>
        <time>2022-03-20T08:57:46.000Z</time>
      </trkpt>
      <trkpt lat="47.31144" lon="-2.27781">
        <ele>59.599998474121</ele>
        <time>2022-03-20T08:57:48.000Z</time>
      </trkpt>
      <trkpt lat="47.31149" lon="-2.27805">
        <ele>59.599998474121</ele>
        <time>2022-03-20T08:57:51.000Z</time>
      </trkpt>
      <trkpt lat="47.3115" lon="-2.27815">
        <ele>59.599998474121</ele>
        <time>2022-03-20T08:57:52.000Z</time>
      </trkpt>
      <trkpt lat="47.3115" lon="-2.27844">
        <ele>59.599998474121</ele>
        <time>2022-03-20T08:57:55.000Z</time>
      </trkpt>
      <trkpt lat="47.31141" lon="-2.27869">
        <ele>59.599998474121</ele>
        <time>2022-03-20T08:57:58.000Z</time>
      </trkpt>
      <trkpt lat="47.31129" lon="-2.2789">
        <ele>59.599998474121</ele>
        <time>2022-03-20T08:58:01.000Z</time>
      </trkpt>
      <trkpt lat="47.31119" lon="-2.27904">
        <ele>59.599998474121</ele>
        <time>2022-03-20T08:58:03.000Z</time>
      </trkpt>
      <trkpt lat="47.31089" lon="-2.27953">
        <ele>59.599998474121</ele>
        <time>2022-03-20T08:58:10.000Z</time>
      </trkpt>
      <trkpt lat="47.31054" lon="-2.28007">
        <ele>59.599998474121</ele>
        <time>2022-03-20T08:58:18.000Z</time>
      </trkpt>
      <trkpt lat="47.31026" lon="-2.28039">
        <ele>59.599998474121</ele>
        <time>2022-03-20T08:58:24.000Z</time>
      </trkpt>
      <trkpt lat="47.30996" lon="-2.28061">
        <ele>59.599998474121</ele>
        <time>2022-03-20T08:58:29.000Z</time>
      </trkpt>
      <trkpt lat="47.3096" lon="-2.28093">
        <ele>59.599998474121</ele>
        <time>2022-03-20T08:58:35.000Z</time>
      </trkpt>
      <trkpt lat="47.30921" lon="-2.28145">
        <ele>59.599998474121</ele>
        <time>2022-03-20T08:58:43.000Z</time>
      </trkpt>
      <trkpt lat="47.30896" lon="-2.28181">
        <ele>59.599998474121</ele>
        <time>2022-03-20T08:58:49.000Z</time>
      </trkpt>
      <trkpt lat="47.30865" lon="-2.28224">
        <ele>59.599998474121</ele>
        <time>2022-03-20T08:58:56.000Z</time>
      </trkpt>
      <trkpt lat="47.30843" lon="-2.28241">
        <ele>59.599998474121</ele>
        <time>2022-03-20T08:59:00.000Z</time>
      </trkpt>
      <trkpt lat="47.30831" lon="-2.28246">
        <ele>59.599998474121</ele>
        <time>2022-03-20T08:59:02.000Z</time>
      </trkpt>
      <trkpt lat="47.30808" lon="-2.28251">
        <ele>59.599998474121</ele>
        <time>2022-03-20T08:59:06.000Z</time>
      </trkpt>
      <trkpt lat="47.30784" lon="-2.28245">
        <ele>59.599998474121</ele>
        <time>2022-03-20T08:59:10.000Z</time>
      </trkpt>
      <trkpt lat="47.30763" lon="-2.28228">
        <ele>59.599998474121</ele>
        <time>2022-03-20T08:59:14.000Z</time>
      </trkpt>
      <trkpt lat="47.30759" lon="-2.28224">
        <ele>59.599998474121</ele>
        <time>2022-03-20T08:59:15.000Z</time>
      </trkpt>
      <trkpt lat="47.30734" lon="-2.28189">
        <ele>59.599998474121</ele>
        <time>2022-03-20T08:59:21.000Z</time>
      </trkpt>
      <trkpt lat="47.30701" lon="-2.28145">
        <ele>59.599998474121</ele>
        <time>2022-03-20T08:59:28.000Z</time>
      </trkpt>
      <trkpt lat="47.30691" lon="-2.28135">
        <ele>60</ele>
        <time>2022-03-20T08:59:30.000Z</time>
      </trkpt>
      <trkpt lat="47.30685" lon="-2.2813">
        <ele>60.400001525879</ele>
        <time>2022-03-20T08:59:31.000Z</time>
      </trkpt>
      <trkpt lat="47.3068" lon="-2.28125">
        <ele>60.799999237061</ele>
        <time>2022-03-20T08:59:32.000Z</time>
      </trkpt>
      <trkpt lat="47.30674" lon="-2.2812">
        <ele>61.200000762939</ele>
        <time>2022-03-20T08:59:33.000Z</time>
      </trkpt>
      <trkpt lat="47.30669" lon="-2.28115">
        <ele>61.599998474121</ele>
        <time>2022-03-20T08:59:34.000Z</time>
      </trkpt>
      <trkpt lat="47.30637" lon="-2.28081">
        <ele>61.599998474121</ele>
        <time>2022-03-20T08:59:40.000Z</time>
      </trkpt>
      <trkpt lat="47.30598" lon="-2.28043">
        <ele>61.599998474121</ele>
        <time>2022-03-20T08:59:47.000Z</time>
      </trkpt>
      <trkpt lat="47.30591" lon="-2.28039">
        <ele>61.599998474121</ele>
        <time>2022-03-20T08:59:48.000Z</time>
      </trkpt>
      <trkpt lat="47.30573" lon="-2.28033">
        <ele>61.599998474121</ele>
        <time>2022-03-20T08:59:51.000Z</time>
      </trkpt>
      <trkpt lat="47.3055" lon="-2.28023">
        <ele>61.599998474121</ele>
        <time>2022-03-20T08:59:56.000Z</time>
      </trkpt>
      <trkpt lat="47.30535" lon="-2.27999">
        <ele>61.599998474121</ele>
        <time>2022-03-20T09:00:00.000Z</time>
      </trkpt>
      <trkpt lat="47.30531" lon="-2.27992">
        <ele>61.599998474121</ele>
        <time>2022-03-20T09:00:01.000Z</time>
      </trkpt>
      <trkpt lat="47.30529" lon="-2.27984">
        <ele>61.599998474121</ele>
        <time>2022-03-20T09:00:02.000Z</time>
      </trkpt>
      <trkpt lat="47.30524" lon="-2.27969">
        <ele>61.599998474121</ele>
        <time>2022-03-20T09:00:04.000Z</time>
      </trkpt>
      <trkpt lat="47.30523" lon="-2.27961">
        <ele>61.599998474121</ele>
        <time>2022-03-20T09:00:05.000Z</time>
      </trkpt>
      <trkpt lat="47.30519" lon="-2.27939">
        <ele>61.599998474121</ele>
        <time>2022-03-20T09:00:08.000Z</time>
      </trkpt>
      <trkpt lat="47.30513" lon="-2.27927">
        <ele>61.599998474121</ele>
        <time>2022-03-20T09:00:10.000Z</time>
      </trkpt>
      <trkpt lat="47.30498" lon="-2.27923">
        <ele>61.599998474121</ele>
        <time>2022-03-20T09:00:13.000Z</time>
      </trkpt>
      <trkpt lat="47.30492" lon="-2.27924">
        <ele>61.599998474121</ele>
        <time>2022-03-20T09:00:14.000Z</time>
      </trkpt>
      <trkpt lat="47.30476" lon="-2.27921">
        <ele>61.599998474121</ele>
        <time>2022-03-20T09:00:17.000Z</time>
      </trkpt>
      <trkpt lat="47.30466" lon="-2.27916">
        <ele>61.599998474121</ele>
        <time>2022-03-20T09:00:19.000Z</time>
      </trkpt>
      <trkpt lat="47.30452" lon="-2.27901">
        <ele>61.599998474121</ele>
        <time>2022-03-20T09:00:23.000Z</time>
      </trkpt>
      <trkpt lat="47.30458" lon="-2.27884">
        <ele>61.599998474121</ele>
        <time>2022-03-20T09:00:26.000Z</time>
      </trkpt>
      <trkpt lat="47.30462" lon="-2.27879">
        <ele>61.599998474121</ele>
        <time>2022-03-20T09:00:27.000Z</time>
      </trkpt>
      <trkpt lat="47.30465" lon="-2.27873">
        <ele>61.599998474121</ele>
        <time>2022-03-20T09:00:28.000Z</time>
      </trkpt>
      <trkpt lat="47.30473" lon="-2.27851">
        <ele>61.599998474121</ele>
        <time>2022-03-20T09:00:31.000Z</time>
      </trkpt>
      <trkpt lat="47.30475" lon="-2.27844">
        <ele>61.599998474121</ele>
        <time>2022-03-20T09:00:32.000Z</time>
      </trkpt>
      <trkpt lat="47.30478" lon="-2.27828">
        <ele>61.599998474121</ele>
        <time>2022-03-20T09:00:34.000Z</time>
      </trkpt>
      <trkpt lat="47.30475" lon="-2.27813">
        <ele>61.599998474121</ele>
        <time>2022-03-20T09:00:36.000Z</time>
      </trkpt>
      <trkpt lat="47.30461" lon="-2.27788">
        <ele>61.599998474121</ele>
        <time>2022-03-20T09:00:40.000Z</time>
      </trkpt>
      <trkpt lat="47.30451" lon="-2.27777">
        <ele>61.599998474121</ele>
        <time>2022-03-20T09:00:42.000Z</time>
      </trkpt>
      <trkpt lat="47.30437" lon="-2.27761">
        <ele>61.599998474121</ele>
        <time>2022-03-20T09:00:45.000Z</time>
      </trkpt>
      <trkpt lat="47.30429" lon="-2.2775">
        <ele>62</ele>
        <time>2022-03-20T09:00:47.000Z</time>
      </trkpt>
      <trkpt lat="47.30425" lon="-2.27744">
        <ele>62.400001525879</ele>
        <time>2022-03-20T09:00:48.000Z</time>
      </trkpt>
      <trkpt lat="47.30421" lon="-2.27739">
        <ele>62.799999237061</ele>
        <time>2022-03-20T09:00:49.000Z</time>
      </trkpt>
      <trkpt lat="47.30417" lon="-2.27733">
        <ele>63.400001525879</ele>
        <time>2022-03-20T09:00:50.000Z</time>
      </trkpt>
      <trkpt lat="47.30414" lon="-2.27726">
        <ele>63.799999237061</ele>
        <time>2022-03-20T09:00:51.000Z</time>
      </trkpt>
      <trkpt lat="47.30411" lon="-2.27719">
        <ele>63.799999237061</ele>
        <time>2022-03-20T09:00:52.000Z</time>
      </trkpt>
      <trkpt lat="47.30406" lon="-2.27706">
        <ele>63.799999237061</ele>
        <time>2022-03-20T09:00:54.000Z</time>
      </trkpt>
      <trkpt lat="47.30403" lon="-2.27685">
        <ele>63.799999237061</ele>
        <time>2022-03-20T09:00:57.000Z</time>
      </trkpt>
      <trkpt lat="47.30405" lon="-2.27678">
        <ele>64.199996948242</ele>
        <time>2022-03-20T09:00:58.000Z</time>
      </trkpt>
      <trkpt lat="47.30407" lon="-2.27672">
        <ele>64.599998474121</ele>
        <time>2022-03-20T09:00:59.000Z</time>
      </trkpt>
      <trkpt lat="47.3041" lon="-2.27667">
        <ele>65</ele>
        <time>2022-03-20T09:01:00.000Z</time>
      </trkpt>
      <trkpt lat="47.30414" lon="-2.27662">
        <ele>66</ele>
        <time>2022-03-20T09:01:01.000Z</time>
      </trkpt>
      <trkpt lat="47.30423" lon="-2.27655">
        <ele>66</ele>
        <time>2022-03-20T09:01:03.000Z</time>
      </trkpt>
      <trkpt lat="47.30429" lon="-2.27652">
        <ele>66</ele>
        <time>2022-03-20T09:01:04.000Z</time>
      </trkpt>
      <trkpt lat="47.30456" lon="-2.27635">
        <ele>66</ele>
        <time>2022-03-20T09:01:09.000Z</time>
      </trkpt>
      <trkpt lat="47.30476" lon="-2.27618">
        <ele>66</ele>
        <time>2022-03-20T09:01:13.000Z</time>
      </trkpt>
      <trkpt lat="47.30485" lon="-2.27608">
        <ele>66</ele>
        <time>2022-03-20T09:01:15.000Z</time>
      </trkpt>
      <trkpt lat="47.30502" lon="-2.27585">
        <ele>66</ele>
        <time>2022-03-20T09:01:19.000Z</time>
      </trkpt>
      <trkpt lat="47.30512" lon="-2.27575">
        <ele>66</ele>
        <time>2022-03-20T09:01:21.000Z</time>
      </trkpt>
      <trkpt lat="47.30522" lon="-2.27567">
        <ele>66</ele>
        <time>2022-03-20T09:01:23.000Z</time>
      </trkpt>
      <trkpt lat="47.30533" lon="-2.27562">
        <ele>66</ele>
        <time>2022-03-20T09:01:25.000Z</time>
      </trkpt>
      <trkpt lat="47.30573" lon="-2.27544">
        <ele>65.599998474121</ele>
        <time>2022-03-20T09:01:31.000Z</time>
      </trkpt>
      <trkpt lat="47.30578" lon="-2.27541">
        <ele>65.199996948242</ele>
        <time>2022-03-20T09:01:32.000Z</time>
      </trkpt>
      <trkpt lat="47.30584" lon="-2.27539">
        <ele>64.800003051758</ele>
        <time>2022-03-20T09:01:33.000Z</time>
      </trkpt>
      <trkpt lat="47.30588" lon="-2.27536">
        <ele>64.400001525879</ele>
        <time>2022-03-20T09:01:34.000Z</time>
      </trkpt>
      <trkpt lat="47.30591" lon="-2.27533">
        <ele>64</ele>
        <time>2022-03-20T09:01:35.000Z</time>
      </trkpt>
      <trkpt lat="47.30595" lon="-2.27522">
        <ele>64</ele>
        <time>2022-03-20T09:01:38.000Z</time>
      </trkpt>
      <trkpt lat="47.30591" lon="-2.27512">
        <ele>64</ele>
        <time>2022-03-20T09:01:42.000Z</time>
      </trkpt>
      <trkpt lat="47.30583" lon="-2.27497">
        <ele>64</ele>
        <time>2022-03-20T09:01:48.000Z</time>
      </trkpt>
      <trkpt lat="47.30577" lon="-2.2748">
        <ele>64</ele>
        <time>2022-03-20T09:01:54.000Z</time>
      </trkpt>
      <trkpt lat="47.30572" lon="-2.27466">
        <ele>64</ele>
        <time>2022-03-20T09:02:01.000Z</time>
      </trkpt>
      <trkpt lat="47.30565" lon="-2.27449">
        <ele>64</ele>
        <time>2022-03-20T09:02:08.000Z</time>
      </trkpt>
      <trkpt lat="47.30555" lon="-2.27427">
        <ele>64</ele>
        <time>2022-03-20T09:02:12.000Z</time>
      </trkpt>
      <trkpt lat="47.30531" lon="-2.27383">
        <ele>64</ele>
        <time>2022-03-20T09:02:20.000Z</time>
      </trkpt>
      <trkpt lat="47.30514" lon="-2.27357">
        <ele>64</ele>
        <time>2022-03-20T09:02:26.000Z</time>
      </trkpt>
      <trkpt lat="47.30493" lon="-2.2733">
        <ele>64</ele>
        <time>2022-03-20T09:02:33.000Z</time>
      </trkpt>
      <trkpt lat="47.30469" lon="-2.27293">
        <ele>64</ele>
        <time>2022-03-20T09:02:40.000Z</time>
      </trkpt>
      <trkpt lat="47.30448" lon="-2.27257">
        <ele>64</ele>
        <time>2022-03-20T09:02:46.000Z</time>
      </trkpt>
      <trkpt lat="47.30445" lon="-2.2725">
        <ele>64</ele>
        <time>2022-03-20T09:02:47.000Z</time>
      </trkpt>
      <trkpt lat="47.30431" lon="-2.27216">
        <ele>64</ele>
        <time>2022-03-20T09:02:52.000Z</time>
      </trkpt>
      <trkpt lat="47.30427" lon="-2.27199">
        <ele>64</ele>
        <time>2022-03-20T09:02:54.000Z</time>
      </trkpt>
      <trkpt lat="47.30416" lon="-2.27142">
        <ele>64.400001525879</ele>
        <time>2022-03-20T09:03:01.000Z</time>
      </trkpt>
      <trkpt lat="47.30414" lon="-2.27134">
        <ele>64.800003051758</ele>
        <time>2022-03-20T09:03:02.000Z</time>
      </trkpt>
      <trkpt lat="47.30413" lon="-2.27126">
        <ele>65.199996948242</ele>
        <time>2022-03-20T09:03:03.000Z</time>
      </trkpt>
      <trkpt lat="47.30411" lon="-2.27117">
        <ele>65.599998474121</ele>
        <time>2022-03-20T09:03:04.000Z</time>
      </trkpt>
      <trkpt lat="47.3041" lon="-2.27109">
        <ele>66</ele>
        <time>2022-03-20T09:03:05.000Z</time>
      </trkpt>
      <trkpt lat="47.30401" lon="-2.27078">
        <ele>66</ele>
        <time>2022-03-20T09:03:09.000Z</time>
      </trkpt>
      <trkpt lat="47.30388" lon="-2.27062">
        <ele>66</ele>
        <time>2022-03-20T09:03:12.000Z</time>
      </trkpt>
      <trkpt lat="47.30378" lon="-2.27056">
        <ele>66</ele>
        <time>2022-03-20T09:03:14.000Z</time>
      </trkpt>
      <trkpt lat="47.30374" lon="-2.27052">
        <ele>66</ele>
        <time>2022-03-20T09:03:15.000Z</time>
      </trkpt>
      <trkpt lat="47.30373" lon="-2.27045">
        <ele>66</ele>
        <time>2022-03-20T09:03:16.000Z</time>
      </trkpt>
      <trkpt lat="47.30371" lon="-2.27023">
        <ele>66</ele>
        <time>2022-03-20T09:03:19.000Z</time>
      </trkpt>
      <trkpt lat="47.30371" lon="-2.27016">
        <ele>66</ele>
        <time>2022-03-20T09:03:20.000Z</time>
      </trkpt>
      <trkpt lat="47.30371" lon="-2.27002">
        <ele>66.400001525879</ele>
        <time>2022-03-20T09:03:22.000Z</time>
      </trkpt>
      <trkpt lat="47.30371" lon="-2.26994">
        <ele>66.800003051758</ele>
        <time>2022-03-20T09:03:23.000Z</time>
      </trkpt>
      <trkpt lat="47.30371" lon="-2.26986">
        <ele>67.400001525879</ele>
        <time>2022-03-20T09:03:24.000Z</time>
      </trkpt>
      <trkpt lat="47.30371" lon="-2.26979">
        <ele>67.800003051758</ele>
        <time>2022-03-20T09:03:25.000Z</time>
      </trkpt>
      <trkpt lat="47.3037" lon="-2.26971">
        <ele>68.199996948242</ele>
        <time>2022-03-20T09:03:26.000Z</time>
      </trkpt>
      <trkpt lat="47.30369" lon="-2.26963">
        <ele>68.199996948242</ele>
        <time>2022-03-20T09:03:27.000Z</time>
      </trkpt>
      <trkpt lat="47.30359" lon="-2.26909">
        <ele>68.199996948242</ele>
        <time>2022-03-20T09:03:34.000Z</time>
      </trkpt>
      <trkpt lat="47.30354" lon="-2.26879">
        <ele>68.199996948242</ele>
        <time>2022-03-20T09:03:38.000Z</time>
      </trkpt>
      <trkpt lat="47.30352" lon="-2.26864">
        <ele>68.199996948242</ele>
        <time>2022-03-20T09:03:40.000Z</time>
      </trkpt>
      <trkpt lat="47.30352" lon="-2.26858">
        <ele>68.199996948242</ele>
        <time>2022-03-20T09:03:41.000Z</time>
      </trkpt>
      <trkpt lat="47.3035" lon="-2.26839">
        <ele>68.199996948242</ele>
        <time>2022-03-20T09:03:44.000Z</time>
      </trkpt>
      <trkpt lat="47.30347" lon="-2.26819">
        <ele>68.199996948242</ele>
        <time>2022-03-20T09:03:47.000Z</time>
      </trkpt>
      <trkpt lat="47.30345" lon="-2.26805">
        <ele>68.199996948242</ele>
        <time>2022-03-20T09:03:49.000Z</time>
      </trkpt>
      <trkpt lat="47.30345" lon="-2.26799">
        <ele>68.199996948242</ele>
        <time>2022-03-20T09:03:50.000Z</time>
      </trkpt>
      <trkpt lat="47.30353" lon="-2.26773">
        <ele>68.199996948242</ele>
        <time>2022-03-20T09:03:54.000Z</time>
      </trkpt>
      <trkpt lat="47.30355" lon="-2.26766">
        <ele>68.199996948242</ele>
        <time>2022-03-20T09:03:55.000Z</time>
      </trkpt>
      <trkpt lat="47.30365" lon="-2.26746">
        <ele>68.199996948242</ele>
        <time>2022-03-20T09:03:58.000Z</time>
      </trkpt>
      <trkpt lat="47.30382" lon="-2.26714">
        <ele>68.199996948242</ele>
        <time>2022-03-20T09:04:03.000Z</time>
      </trkpt>
      <trkpt lat="47.30388" lon="-2.26701">
        <ele>68.599998474121</ele>
        <time>2022-03-20T09:04:05.000Z</time>
      </trkpt>
      <trkpt lat="47.30392" lon="-2.26694">
        <ele>69</ele>
        <time>2022-03-20T09:04:06.000Z</time>
      </trkpt>
      <trkpt lat="47.30395" lon="-2.26687">
        <ele>69.400001525879</ele>
        <time>2022-03-20T09:04:07.000Z</time>
      </trkpt>
      <trkpt lat="47.30398" lon="-2.2668">
        <ele>70</ele>
        <time>2022-03-20T09:04:08.000Z</time>
      </trkpt>
      <trkpt lat="47.30401" lon="-2.26674">
        <ele>70.400001525879</ele>
        <time>2022-03-20T09:04:09.000Z</time>
      </trkpt>
      <trkpt lat="47.30424" lon="-2.26625">
        <ele>70.400001525879</ele>
        <time>2022-03-20T09:04:16.000Z</time>
      </trkpt>
      <trkpt lat="47.30443" lon="-2.26584">
        <ele>70.400001525879</ele>
        <time>2022-03-20T09:04:22.000Z</time>
      </trkpt>
      <trkpt lat="47.30461" lon="-2.26548">
        <ele>70.400001525879</ele>
        <time>2022-03-20T09:04:28.000Z</time>
      </trkpt>
      <trkpt lat="47.30481" lon="-2.26508">
        <ele>70.400001525879</ele>
        <time>2022-03-20T09:04:35.000Z</time>
      </trkpt>
      <trkpt lat="47.30491" lon="-2.26485">
        <ele>70.400001525879</ele>
        <time>2022-03-20T09:04:39.000Z</time>
      </trkpt>
      <trkpt lat="47.30496" lon="-2.26473">
        <ele>70.400001525879</ele>
        <time>2022-03-20T09:04:41.000Z</time>
      </trkpt>
      <trkpt lat="47.30512" lon="-2.26438">
        <ele>70.400001525879</ele>
        <time>2022-03-20T09:04:46.000Z</time>
      </trkpt>
      <trkpt lat="47.30534" lon="-2.26384">
        <ele>70.400001525879</ele>
        <time>2022-03-20T09:04:53.000Z</time>
      </trkpt>
      <trkpt lat="47.30547" lon="-2.26339">
        <ele>70.400001525879</ele>
        <time>2022-03-20T09:04:58.000Z</time>
      </trkpt>
      <trkpt lat="47.30549" lon="-2.2633">
        <ele>70.400001525879</ele>
        <time>2022-03-20T09:04:59.000Z</time>
      </trkpt>
      <trkpt lat="47.30558" lon="-2.26294">
        <ele>70.400001525879</ele>
        <time>2022-03-20T09:05:03.000Z</time>
      </trkpt>
      <trkpt lat="47.30565" lon="-2.26277">
        <ele>70.400001525879</ele>
        <time>2022-03-20T09:05:05.000Z</time>
      </trkpt>
      <trkpt lat="47.30579" lon="-2.26219">
        <ele>70.400001525879</ele>
        <time>2022-03-20T09:05:12.000Z</time>
      </trkpt>
      <trkpt lat="47.30597" lon="-2.26166">
        <ele>70.400001525879</ele>
        <time>2022-03-20T09:05:19.000Z</time>
      </trkpt>
      <trkpt lat="47.30617" lon="-2.26137">
        <ele>70.400001525879</ele>
        <time>2022-03-20T09:05:24.000Z</time>
      </trkpt>
      <trkpt lat="47.30634" lon="-2.26112">
        <ele>70.400001525879</ele>
        <time>2022-03-20T09:05:30.000Z</time>
      </trkpt>
      <trkpt lat="47.30651" lon="-2.26098">
        <ele>70.400001525879</ele>
        <time>2022-03-20T09:05:34.000Z</time>
      </trkpt>
      <trkpt lat="47.30656" lon="-2.26096">
        <ele>70.400001525879</ele>
        <time>2022-03-20T09:05:35.000Z</time>
      </trkpt>
      <trkpt lat="47.30692" lon="-2.26076">
        <ele>70.400001525879</ele>
        <time>2022-03-20T09:05:42.000Z</time>
      </trkpt>
      <trkpt lat="47.30696" lon="-2.26073">
        <ele>70.800003051758</ele>
        <time>2022-03-20T09:05:43.000Z</time>
      </trkpt>
      <trkpt lat="47.30701" lon="-2.26071">
        <ele>71.199996948242</ele>
        <time>2022-03-20T09:05:44.000Z</time>
      </trkpt>
      <trkpt lat="47.30706" lon="-2.26069">
        <ele>71.599998474121</ele>
        <time>2022-03-20T09:05:45.000Z</time>
      </trkpt>
      <trkpt lat="47.3071" lon="-2.26066">
        <ele>72</ele>
        <time>2022-03-20T09:05:46.000Z</time>
      </trkpt>
      <trkpt lat="47.30715" lon="-2.26064">
        <ele>72.400001525879</ele>
        <time>2022-03-20T09:05:47.000Z</time>
      </trkpt>
      <trkpt lat="47.3072" lon="-2.26061">
        <ele>72.400001525879</ele>
        <time>2022-03-20T09:05:48.000Z</time>
      </trkpt>
      <trkpt lat="47.30753" lon="-2.26043">
        <ele>72.400001525879</ele>
        <time>2022-03-20T09:05:55.000Z</time>
      </trkpt>
      <trkpt lat="47.30782" lon="-2.26025">
        <ele>72.400001525879</ele>
        <time>2022-03-20T09:06:01.000Z</time>
      </trkpt>
      <trkpt lat="47.30802" lon="-2.26011">
        <ele>72.800003051758</ele>
        <time>2022-03-20T09:06:05.000Z</time>
      </trkpt>
      <trkpt lat="47.30807" lon="-2.26007">
        <ele>73.199996948242</ele>
        <time>2022-03-20T09:06:06.000Z</time>
      </trkpt>
      <trkpt lat="47.30812" lon="-2.26003">
        <ele>73.599998474121</ele>
        <time>2022-03-20T09:06:07.000Z</time>
      </trkpt>
      <trkpt lat="47.30818" lon="-2.25997">
        <ele>74</ele>
        <time>2022-03-20T09:06:08.000Z</time>
      </trkpt>
      <trkpt lat="47.30822" lon="-2.25992">
        <ele>74.400001525879</ele>
        <time>2022-03-20T09:06:09.000Z</time>
      </trkpt>
      <trkpt lat="47.30841" lon="-2.2597">
        <ele>74.400001525879</ele>
        <time>2022-03-20T09:06:13.000Z</time>
      </trkpt>
      <trkpt lat="47.30885" lon="-2.2592">
        <ele>74.400001525879</ele>
        <time>2022-03-20T09:06:22.000Z</time>
      </trkpt>
      <trkpt lat="47.30911" lon="-2.25887">
        <ele>74.400001525879</ele>
        <time>2022-03-20T09:06:28.000Z</time>
      </trkpt>
      <trkpt lat="47.30911" lon="-2.25863">
        <ele>74.400001525879</ele>
        <time>2022-03-20T09:06:31.000Z</time>
      </trkpt>
      <trkpt lat="47.30902" lon="-2.25843">
        <ele>74.400001525879</ele>
        <time>2022-03-20T09:06:34.000Z</time>
      </trkpt>
      <trkpt lat="47.309" lon="-2.25835">
        <ele>74.400001525879</ele>
        <time>2022-03-20T09:06:35.000Z</time>
      </trkpt>
      <trkpt lat="47.30885" lon="-2.25792">
        <ele>74.400001525879</ele>
        <time>2022-03-20T09:06:41.000Z</time>
      </trkpt>
      <trkpt lat="47.30883" lon="-2.25784">
        <ele>74.400001525879</ele>
        <time>2022-03-20T09:06:42.000Z</time>
      </trkpt>
      <trkpt lat="47.30876" lon="-2.25746">
        <ele>74.400001525879</ele>
        <time>2022-03-20T09:06:47.000Z</time>
      </trkpt>
      <trkpt lat="47.30876" lon="-2.25695">
        <ele>74.400001525879</ele>
        <time>2022-03-20T09:06:53.000Z</time>
      </trkpt>
      <trkpt lat="47.30872" lon="-2.25646">
        <ele>74.400001525879</ele>
        <time>2022-03-20T09:06:59.000Z</time>
      </trkpt>
      <trkpt lat="47.30869" lon="-2.2559">
        <ele>74.400001525879</ele>
        <time>2022-03-20T09:07:06.000Z</time>
      </trkpt>
      <trkpt lat="47.30864" lon="-2.25547">
        <ele>74</ele>
        <time>2022-03-20T09:07:11.000Z</time>
      </trkpt>
      <trkpt lat="47.30863" lon="-2.25539">
        <ele>73.199996948242</ele>
        <time>2022-03-20T09:07:12.000Z</time>
      </trkpt>
      <trkpt lat="47.30862" lon="-2.2553">
        <ele>72.800003051758</ele>
        <time>2022-03-20T09:07:13.000Z</time>
      </trkpt>
      <trkpt lat="47.30861" lon="-2.25521">
        <ele>72.400001525879</ele>
        <time>2022-03-20T09:07:14.000Z</time>
      </trkpt>
      <trkpt lat="47.30856" lon="-2.25469">
        <ele>72.400001525879</ele>
        <time>2022-03-20T09:07:20.000Z</time>
      </trkpt>
      <trkpt lat="47.30853" lon="-2.2543">
        <ele>72.400001525879</ele>
        <time>2022-03-20T09:07:25.000Z</time>
      </trkpt>
      <trkpt lat="47.30861" lon="-2.25407">
        <ele>72.400001525879</ele>
        <time>2022-03-20T09:07:29.000Z</time>
      </trkpt>
      <trkpt lat="47.30875" lon="-2.25404">
        <ele>72.400001525879</ele>
        <time>2022-03-20T09:07:32.000Z</time>
      </trkpt>
      <trkpt lat="47.3088" lon="-2.25403">
        <ele>72.400001525879</ele>
        <time>2022-03-20T09:07:33.000Z</time>
      </trkpt>
      <trkpt lat="47.30906" lon="-2.25402">
        <ele>72.400001525879</ele>
        <time>2022-03-20T09:07:38.000Z</time>
      </trkpt>
      <trkpt lat="47.30921" lon="-2.25402">
        <ele>72.400001525879</ele>
        <time>2022-03-20T09:07:41.000Z</time>
      </trkpt>
      <trkpt lat="47.30937" lon="-2.25401">
        <ele>72</ele>
        <time>2022-03-20T09:07:44.000Z</time>
      </trkpt>
      <trkpt lat="47.30942" lon="-2.25398">
        <ele>71.599998474121</ele>
        <time>2022-03-20T09:07:45.000Z</time>
      </trkpt>
      <trkpt lat="47.30946" lon="-2.25394">
        <ele>71.199996948242</ele>
        <time>2022-03-20T09:07:46.000Z</time>
      </trkpt>
      <trkpt lat="47.30948" lon="-2.25389">
        <ele>70.800003051758</ele>
        <time>2022-03-20T09:07:47.000Z</time>
      </trkpt>
      <trkpt lat="47.30949" lon="-2.25384">
        <ele>70.400001525879</ele>
        <time>2022-03-20T09:07:48.000Z</time>
      </trkpt>
      <trkpt lat="47.30951" lon="-2.25379">
        <ele>70.400001525879</ele>
        <time>2022-03-20T09:07:49.000Z</time>
      </trkpt>
      <trkpt lat="47.30953" lon="-2.25369">
        <ele>70.400001525879</ele>
        <time>2022-03-20T09:07:51.000Z</time>
      </trkpt>
      <trkpt lat="47.30961" lon="-2.25342">
        <ele>70.400001525879</ele>
        <time>2022-03-20T09:07:55.000Z</time>
      </trkpt>
      <trkpt lat="47.30962" lon="-2.25334">
        <ele>70.400001525879</ele>
        <time>2022-03-20T09:07:56.000Z</time>
      </trkpt>
      <trkpt lat="47.30969" lon="-2.25292">
        <ele>70.400001525879</ele>
        <time>2022-03-20T09:08:01.000Z</time>
      </trkpt>
      <trkpt lat="47.30974" lon="-2.25285">
        <ele>70.400001525879</ele>
        <time>2022-03-20T09:08:02.000Z</time>
      </trkpt>
      <trkpt lat="47.30979" lon="-2.25278">
        <ele>70</ele>
        <time>2022-03-20T09:08:03.000Z</time>
      </trkpt>
      <trkpt lat="47.30984" lon="-2.25271">
        <ele>69.599998474121</ele>
        <time>2022-03-20T09:08:04.000Z</time>
      </trkpt>
      <trkpt lat="47.30988" lon="-2.25264">
        <ele>69.199996948242</ele>
        <time>2022-03-20T09:08:05.000Z</time>
      </trkpt>
      <trkpt lat="47.3099" lon="-2.25255">
        <ele>68.800003051758</ele>
        <time>2022-03-20T09:08:06.000Z</time>
      </trkpt>
      <trkpt lat="47.30991" lon="-2.25247">
        <ele>68.400001525879</ele>
        <time>2022-03-20T09:08:07.000Z</time>
      </trkpt>
      <trkpt lat="47.30999" lon="-2.2522">
        <ele>68.400001525879</ele>
        <time>2022-03-20T09:08:11.000Z</time>
      </trkpt>
      <trkpt lat="47.31008" lon="-2.25176">
        <ele>68.400001525879</ele>
        <time>2022-03-20T09:08:16.000Z</time>
      </trkpt>
      <trkpt lat="47.31012" lon="-2.25168">
        <ele>68.400001525879</ele>
        <time>2022-03-20T09:08:17.000Z</time>
      </trkpt>
      <trkpt lat="47.31024" lon="-2.25148">
        <ele>68.400001525879</ele>
        <time>2022-03-20T09:08:20.000Z</time>
      </trkpt>
      <trkpt lat="47.31028" lon="-2.25141">
        <ele>68.400001525879</ele>
        <time>2022-03-20T09:08:21.000Z</time>
      </trkpt>
      <trkpt lat="47.31047" lon="-2.25106">
        <ele>68.400001525879</ele>
        <time>2022-03-20T09:08:26.000Z</time>
      </trkpt>
      <trkpt lat="47.31066" lon="-2.25077">
        <ele>68.400001525879</ele>
        <time>2022-03-20T09:08:31.000Z</time>
      </trkpt>
      <trkpt lat="47.3107" lon="-2.25073">
        <ele>68.400001525879</ele>
        <time>2022-03-20T09:08:32.000Z</time>
      </trkpt>
      <trkpt lat="47.31098" lon="-2.25055">
        <ele>68.400001525879</ele>
        <time>2022-03-20T09:08:37.000Z</time>
      </trkpt>
      <trkpt lat="47.31117" lon="-2.25045">
        <ele>67.800003051758</ele>
        <time>2022-03-20T09:08:40.000Z</time>
      </trkpt>
      <trkpt lat="47.31123" lon="-2.25041">
        <ele>67.400001525879</ele>
        <time>2022-03-20T09:08:41.000Z</time>
      </trkpt>
      <trkpt lat="47.31129" lon="-2.25036">
        <ele>67</ele>
        <time>2022-03-20T09:08:42.000Z</time>
      </trkpt>
      <trkpt lat="47.31135" lon="-2.25031">
        <ele>66.599998474121</ele>
        <time>2022-03-20T09:08:43.000Z</time>
      </trkpt>
      <trkpt lat="47.31141" lon="-2.25026">
        <ele>66.199996948242</ele>
        <time>2022-03-20T09:08:44.000Z</time>
      </trkpt>
      <trkpt lat="47.31161" lon="-2.24999">
        <ele>66.199996948242</ele>
        <time>2022-03-20T09:08:48.000Z</time>
      </trkpt>
      <trkpt lat="47.3116" lon="-2.24972">
        <ele>66.199996948242</ele>
        <time>2022-03-20T09:08:51.000Z</time>
      </trkpt>
      <trkpt lat="47.3116" lon="-2.24963">
        <ele>66.199996948242</ele>
        <time>2022-03-20T09:08:52.000Z</time>
      </trkpt>
      <trkpt lat="47.31151" lon="-2.24911">
        <ele>66.199996948242</ele>
        <time>2022-03-20T09:08:58.000Z</time>
      </trkpt>
      <trkpt lat="47.3114" lon="-2.24845">
        <ele>66.199996948242</ele>
        <time>2022-03-20T09:09:06.000Z</time>
      </trkpt>
      <trkpt lat="47.3113" lon="-2.24792">
        <ele>66.199996948242</ele>
        <time>2022-03-20T09:09:13.000Z</time>
      </trkpt>
      <trkpt lat="47.31127" lon="-2.24786">
        <ele>66.199996948242</ele>
        <time>2022-03-20T09:09:14.000Z</time>
      </trkpt>
      <trkpt lat="47.31118" lon="-2.24778">
        <ele>66.199996948242</ele>
        <time>2022-03-20T09:09:16.000Z</time>
      </trkpt>
      <trkpt lat="47.311" lon="-2.24776">
        <ele>66.199996948242</ele>
        <time>2022-03-20T09:09:19.000Z</time>
      </trkpt>
      <trkpt lat="47.31088" lon="-2.24777">
        <ele>66.199996948242</ele>
        <time>2022-03-20T09:09:21.000Z</time>
      </trkpt>
      <trkpt lat="47.31062" lon="-2.24776">
        <ele>66.199996948242</ele>
        <time>2022-03-20T09:09:25.000Z</time>
      </trkpt>
      <trkpt lat="47.31023" lon="-2.24761">
        <ele>66.199996948242</ele>
        <time>2022-03-20T09:09:31.000Z</time>
      </trkpt>
      <trkpt lat="47.3099" lon="-2.24757">
        <ele>66.199996948242</ele>
        <time>2022-03-20T09:09:36.000Z</time>
      </trkpt>
      <trkpt lat="47.30964" lon="-2.24765">
        <ele>66.199996948242</ele>
        <time>2022-03-20T09:09:40.000Z</time>
      </trkpt>
      <trkpt lat="47.30958" lon="-2.2477">
        <ele>66.199996948242</ele>
        <time>2022-03-20T09:09:41.000Z</time>
      </trkpt>
      <trkpt lat="47.30942" lon="-2.24784">
        <ele>66.199996948242</ele>
        <time>2022-03-20T09:09:44.000Z</time>
      </trkpt>
      <trkpt lat="47.30925" lon="-2.24803">
        <ele>66.199996948242</ele>
        <time>2022-03-20T09:09:47.000Z</time>
      </trkpt>
      <trkpt lat="47.30893" lon="-2.24849">
        <ele>66.199996948242</ele>
        <time>2022-03-20T09:09:54.000Z</time>
      </trkpt>
      <trkpt lat="47.30876" lon="-2.24877">
        <ele>66.199996948242</ele>
        <time>2022-03-20T09:09:58.000Z</time>
      </trkpt>
      <trkpt lat="47.30873" lon="-2.24885">
        <ele>66.199996948242</ele>
        <time>2022-03-20T09:09:59.000Z</time>
      </trkpt>
      <trkpt lat="47.30866" lon="-2.24915">
        <ele>66.199996948242</ele>
        <time>2022-03-20T09:10:03.000Z</time>
      </trkpt>
      <trkpt lat="47.30865" lon="-2.24922">
        <ele>66.199996948242</ele>
        <time>2022-03-20T09:10:04.000Z</time>
      </trkpt>
      <trkpt lat="47.30862" lon="-2.24935">
        <ele>66.199996948242</ele>
        <time>2022-03-20T09:10:06.000Z</time>
      </trkpt>
      <trkpt lat="47.30855" lon="-2.24938">
        <ele>66.199996948242</ele>
        <time>2022-03-20T09:10:08.000Z</time>
      </trkpt>
      <trkpt lat="47.30841" lon="-2.24932">
        <ele>66.199996948242</ele>
        <time>2022-03-20T09:10:11.000Z</time>
      </trkpt>
      <trkpt lat="47.30835" lon="-2.24931">
        <ele>66.199996948242</ele>
        <time>2022-03-20T09:10:12.000Z</time>
      </trkpt>
      <trkpt lat="47.30801" lon="-2.24915">
        <ele>66.199996948242</ele>
        <time>2022-03-20T09:10:18.000Z</time>
      </trkpt>
      <trkpt lat="47.30749" lon="-2.24889">
        <ele>66.199996948242</ele>
        <time>2022-03-20T09:10:27.000Z</time>
      </trkpt>
      <trkpt lat="47.30744" lon="-2.24885">
        <ele>66.199996948242</ele>
        <time>2022-03-20T09:10:28.000Z</time>
      </trkpt>
      <trkpt lat="47.30721" lon="-2.24858">
        <ele>66.199996948242</ele>
        <time>2022-03-20T09:10:33.000Z</time>
      </trkpt>
      <trkpt lat="47.30703" lon="-2.24823">
        <ele>66.199996948242</ele>
        <time>2022-03-20T09:10:38.000Z</time>
      </trkpt>
      <trkpt lat="47.30679" lon="-2.2479">
        <ele>66.199996948242</ele>
        <time>2022-03-20T09:10:43.000Z</time>
      </trkpt>
      <trkpt lat="47.30654" lon="-2.24752">
        <ele>66.199996948242</ele>
        <time>2022-03-20T09:10:49.000Z</time>
      </trkpt>
      <trkpt lat="47.30637" lon="-2.24703">
        <ele>66.199996948242</ele>
        <time>2022-03-20T09:10:55.000Z</time>
      </trkpt>
      <trkpt lat="47.30615" lon="-2.24634">
        <ele>66.199996948242</ele>
        <time>2022-03-20T09:11:04.000Z</time>
      </trkpt>
      <trkpt lat="47.30612" lon="-2.24618">
        <ele>66.199996948242</ele>
        <time>2022-03-20T09:11:06.000Z</time>
      </trkpt>
      <trkpt lat="47.30613" lon="-2.24602">
        <ele>66.199996948242</ele>
        <time>2022-03-20T09:11:08.000Z</time>
      </trkpt>
      <trkpt lat="47.30614" lon="-2.24586">
        <ele>66.199996948242</ele>
        <time>2022-03-20T09:11:10.000Z</time>
      </trkpt>
      <trkpt lat="47.30619" lon="-2.24548">
        <ele>66.199996948242</ele>
        <time>2022-03-20T09:11:15.000Z</time>
      </trkpt>
      <trkpt lat="47.30621" lon="-2.24534">
        <ele>66.599998474121</ele>
        <time>2022-03-20T09:11:17.000Z</time>
      </trkpt>
      <trkpt lat="47.30622" lon="-2.24527">
        <ele>67</ele>
        <time>2022-03-20T09:11:18.000Z</time>
      </trkpt>
      <trkpt lat="47.30623" lon="-2.2452">
        <ele>67.800003051758</ele>
        <time>2022-03-20T09:11:19.000Z</time>
      </trkpt>
      <trkpt lat="47.30624" lon="-2.24513">
        <ele>68.199996948242</ele>
        <time>2022-03-20T09:11:20.000Z</time>
      </trkpt>
      <trkpt lat="47.30626" lon="-2.245">
        <ele>68.199996948242</ele>
        <time>2022-03-20T09:11:22.000Z</time>
      </trkpt>
      <trkpt lat="47.30626" lon="-2.24494">
        <ele>68.800003051758</ele>
        <time>2022-03-20T09:11:23.000Z</time>
      </trkpt>
      <trkpt lat="47.30627" lon="-2.24487">
        <ele>69.199996948242</ele>
        <time>2022-03-20T09:11:24.000Z</time>
      </trkpt>
      <trkpt lat="47.30628" lon="-2.2448">
        <ele>69.599998474121</ele>
        <time>2022-03-20T09:11:25.000Z</time>
      </trkpt>
      <trkpt lat="47.30629" lon="-2.24474">
        <ele>70</ele>
        <time>2022-03-20T09:11:26.000Z</time>
      </trkpt>
      <trkpt lat="47.3063" lon="-2.24468">
        <ele>70.400001525879</ele>
        <time>2022-03-20T09:11:27.000Z</time>
      </trkpt>
      <trkpt lat="47.30631" lon="-2.24462">
        <ele>70.400001525879</ele>
        <time>2022-03-20T09:11:28.000Z</time>
      </trkpt>
      <trkpt lat="47.30633" lon="-2.24443">
        <ele>70.800003051758</ele>
        <time>2022-03-20T09:11:31.000Z</time>
      </trkpt>
      <trkpt lat="47.30634" lon="-2.24438">
        <ele>71.400001525879</ele>
        <time>2022-03-20T09:11:32.000Z</time>
      </trkpt>
      <trkpt lat="47.30634" lon="-2.24432">
        <ele>71.800003051758</ele>
        <time>2022-03-20T09:11:33.000Z</time>
      </trkpt>
      <trkpt lat="47.30632" lon="-2.24428">
        <ele>72.199996948242</ele>
        <time>2022-03-20T09:11:34.000Z</time>
      </trkpt>
      <trkpt lat="47.30631" lon="-2.24424">
        <ele>72.599998474121</ele>
        <time>2022-03-20T09:11:35.000Z</time>
      </trkpt>
      <trkpt lat="47.30622" lon="-2.2442">
        <ele>73.199996948242</ele>
        <time>2022-03-20T09:11:38.000Z</time>
      </trkpt>
      <trkpt lat="47.30619" lon="-2.24419">
        <ele>73.599998474121</ele>
        <time>2022-03-20T09:11:39.000Z</time>
      </trkpt>
      <trkpt lat="47.30615" lon="-2.24418">
        <ele>74</ele>
        <time>2022-03-20T09:11:40.000Z</time>
      </trkpt>
      <trkpt lat="47.30613" lon="-2.24417">
        <ele>74.400001525879</ele>
        <time>2022-03-20T09:11:41.000Z</time>
      </trkpt>
      <trkpt lat="47.30609" lon="-2.24415">
        <ele>74.800003051758</ele>
        <time>2022-03-20T09:11:42.000Z</time>
      </trkpt>
      <trkpt lat="47.30595" lon="-2.24405">
        <ele>74.800003051758</ele>
        <time>2022-03-20T09:11:46.000Z</time>
      </trkpt>
      <trkpt lat="47.30573" lon="-2.24379">
        <ele>74.800003051758</ele>
        <time>2022-03-20T09:11:52.000Z</time>
      </trkpt>
      <trkpt lat="47.30569" lon="-2.24376">
        <ele>75.199996948242</ele>
        <time>2022-03-20T09:11:53.000Z</time>
      </trkpt>
      <trkpt lat="47.30566" lon="-2.24372">
        <ele>75.599998474121</ele>
        <time>2022-03-20T09:11:54.000Z</time>
      </trkpt>
      <trkpt lat="47.30562" lon="-2.24368">
        <ele>76</ele>
        <time>2022-03-20T09:11:55.000Z</time>
      </trkpt>
      <trkpt lat="47.30558" lon="-2.24365">
        <ele>76.400001525879</ele>
        <time>2022-03-20T09:11:56.000Z</time>
      </trkpt>
      <trkpt lat="47.30555" lon="-2.24361">
        <ele>77</ele>
        <time>2022-03-20T09:11:57.000Z</time>
      </trkpt>
      <trkpt lat="47.30552" lon="-2.24357">
        <ele>77</ele>
        <time>2022-03-20T09:11:58.000Z</time>
      </trkpt>
      <trkpt lat="47.30532" lon="-2.24337">
        <ele>77</ele>
        <time>2022-03-20T09:12:04.000Z</time>
      </trkpt>
      <trkpt lat="47.30528" lon="-2.24332">
        <ele>77</ele>
        <time>2022-03-20T09:12:05.000Z</time>
      </trkpt>
      <trkpt lat="47.3051" lon="-2.24312">
        <ele>77</ele>
        <time>2022-03-20T09:12:10.000Z</time>
      </trkpt>
      <trkpt lat="47.30493" lon="-2.24297">
        <ele>77</ele>
        <time>2022-03-20T09:12:14.000Z</time>
      </trkpt>
      <trkpt lat="47.3048" lon="-2.24289">
        <ele>77</ele>
        <time>2022-03-20T09:12:17.000Z</time>
      </trkpt>
      <trkpt lat="47.30466" lon="-2.24283">
        <ele>77</ele>
        <time>2022-03-20T09:12:20.000Z</time>
      </trkpt>
      <trkpt lat="47.30457" lon="-2.2428">
        <ele>77</ele>
        <time>2022-03-20T09:12:22.000Z</time>
      </trkpt>
      <trkpt lat="47.30424" lon="-2.24274">
        <ele>77</ele>
        <time>2022-03-20T09:12:29.000Z</time>
      </trkpt>
      <trkpt lat="47.3042" lon="-2.24272">
        <ele>77</ele>
        <time>2022-03-20T09:12:30.000Z</time>
      </trkpt>
      <trkpt lat="47.30408" lon="-2.24263">
        <ele>77</ele>
        <time>2022-03-20T09:12:33.000Z</time>
      </trkpt>
      <trkpt lat="47.3039" lon="-2.24244">
        <ele>77</ele>
        <time>2022-03-20T09:12:38.000Z</time>
      </trkpt>
      <trkpt lat="47.3037" lon="-2.24223">
        <ele>77</ele>
        <time>2022-03-20T09:12:43.000Z</time>
      </trkpt>
      <trkpt lat="47.30362" lon="-2.24215">
        <ele>77</ele>
        <time>2022-03-20T09:12:45.000Z</time>
      </trkpt>
      <trkpt lat="47.30358" lon="-2.2421">
        <ele>77</ele>
        <time>2022-03-20T09:12:46.000Z</time>
      </trkpt>
      <trkpt lat="47.30353" lon="-2.2419">
        <ele>77</ele>
        <time>2022-03-20T09:12:49.000Z</time>
      </trkpt>
      <trkpt lat="47.30357" lon="-2.24165">
        <ele>77</ele>
        <time>2022-03-20T09:12:53.000Z</time>
      </trkpt>
      <trkpt lat="47.30363" lon="-2.24155">
        <ele>77</ele>
        <time>2022-03-20T09:12:55.000Z</time>
      </trkpt>
      <trkpt lat="47.30365" lon="-2.24151">
        <ele>77.400001525879</ele>
        <time>2022-03-20T09:12:56.000Z</time>
      </trkpt>
      <trkpt lat="47.30368" lon="-2.24146">
        <ele>77.800003051758</ele>
        <time>2022-03-20T09:12:57.000Z</time>
      </trkpt>
      <trkpt lat="47.30371" lon="-2.24141">
        <ele>78.599998474121</ele>
        <time>2022-03-20T09:12:58.000Z</time>
      </trkpt>
      <trkpt lat="47.30375" lon="-2.24137">
        <ele>79</ele>
        <time>2022-03-20T09:12:59.000Z</time>
      </trkpt>
      <trkpt lat="47.30395" lon="-2.24115">
        <ele>79</ele>
        <time>2022-03-20T09:13:05.000Z</time>
      </trkpt>
      <trkpt lat="47.30421" lon="-2.24084">
        <ele>79</ele>
        <time>2022-03-20T09:13:12.000Z</time>
      </trkpt>
      <trkpt lat="47.30439" lon="-2.2406">
        <ele>78.599998474121</ele>
        <time>2022-03-20T09:13:16.000Z</time>
      </trkpt>
      <trkpt lat="47.30445" lon="-2.24054">
        <ele>78.199996948242</ele>
        <time>2022-03-20T09:13:17.000Z</time>
      </trkpt>
      <trkpt lat="47.30449" lon="-2.24049">
        <ele>77.599998474121</ele>
        <time>2022-03-20T09:13:18.000Z</time>
      </trkpt>
      <trkpt lat="47.30455" lon="-2.24044">
        <ele>77.199996948242</ele>
        <time>2022-03-20T09:13:19.000Z</time>
      </trkpt>
      <trkpt lat="47.30461" lon="-2.24039">
        <ele>76.800003051758</ele>
        <time>2022-03-20T09:13:20.000Z</time>
      </trkpt>
      <trkpt lat="47.30482" lon="-2.24028">
        <ele>76.400001525879</ele>
        <time>2022-03-20T09:13:23.000Z</time>
      </trkpt>
      <trkpt lat="47.30489" lon="-2.24023">
        <ele>75.800003051758</ele>
        <time>2022-03-20T09:13:24.000Z</time>
      </trkpt>
      <trkpt lat="47.30496" lon="-2.24017">
        <ele>75.400001525879</ele>
        <time>2022-03-20T09:13:25.000Z</time>
      </trkpt>
      <trkpt lat="47.30503" lon="-2.2401">
        <ele>75</ele>
        <time>2022-03-20T09:13:26.000Z</time>
      </trkpt>
      <trkpt lat="47.30509" lon="-2.24004">
        <ele>74.400001525879</ele>
        <time>2022-03-20T09:13:27.000Z</time>
      </trkpt>
      <trkpt lat="47.30515" lon="-2.23993">
        <ele>73.800003051758</ele>
        <time>2022-03-20T09:13:28.000Z</time>
      </trkpt>
      <trkpt lat="47.30521" lon="-2.23984">
        <ele>73.199996948242</ele>
        <time>2022-03-20T09:13:29.000Z</time>
      </trkpt>
      <trkpt lat="47.30527" lon="-2.23976">
        <ele>72.800003051758</ele>
        <time>2022-03-20T09:13:30.000Z</time>
      </trkpt>
      <trkpt lat="47.30534" lon="-2.23966">
        <ele>72.199996948242</ele>
        <time>2022-03-20T09:13:31.000Z</time>
      </trkpt>
      <trkpt lat="47.30539" lon="-2.23959">
        <ele>71.599998474121</ele>
        <time>2022-03-20T09:13:32.000Z</time>
      </trkpt>
      <trkpt lat="47.30544" lon="-2.23953">
        <ele>71</ele>
        <time>2022-03-20T09:13:33.000Z</time>
      </trkpt>
      <trkpt lat="47.30548" lon="-2.23946">
        <ele>70.599998474121</ele>
        <time>2022-03-20T09:13:34.000Z</time>
      </trkpt>
      <trkpt lat="47.30551" lon="-2.2394">
        <ele>69.800003051758</ele>
        <time>2022-03-20T09:13:35.000Z</time>
      </trkpt>
      <trkpt lat="47.30552" lon="-2.23933">
        <ele>69.199996948242</ele>
        <time>2022-03-20T09:13:36.000Z</time>
      </trkpt>
      <trkpt lat="47.30551" lon="-2.23927">
        <ele>68.400001525879</ele>
        <time>2022-03-20T09:13:37.000Z</time>
      </trkpt>
      <trkpt lat="47.30547" lon="-2.23921">
        <ele>67.599998474121</ele>
        <time>2022-03-20T09:13:38.000Z</time>
      </trkpt>
      <trkpt lat="47.30543" lon="-2.23916">
        <ele>67</ele>
        <time>2022-03-20T09:13:39.000Z</time>
      </trkpt>
      <trkpt lat="47.30539" lon="-2.23911">
        <ele>67</ele>
        <time>2022-03-20T09:13:40.000Z</time>
      </trkpt>
      <trkpt lat="47.30526" lon="-2.23894">
        <ele>67</ele>
        <time>2022-03-20T09:13:43.000Z</time>
      </trkpt>
      <trkpt lat="47.30512" lon="-2.23877">
        <ele>67</ele>
        <time>2022-03-20T09:13:46.000Z</time>
      </trkpt>
      <trkpt lat="47.30491" lon="-2.23849">
        <ele>67</ele>
        <time>2022-03-20T09:13:51.000Z</time>
      </trkpt>
      <trkpt lat="47.3048" lon="-2.23842">
        <ele>67</ele>
        <time>2022-03-20T09:13:53.000Z</time>
      </trkpt>
      <trkpt lat="47.3046" lon="-2.23844">
        <ele>67</ele>
        <time>2022-03-20T09:13:56.000Z</time>
      </trkpt>
      <trkpt lat="47.30418" lon="-2.23851">
        <ele>67</ele>
        <time>2022-03-20T09:14:03.000Z</time>
      </trkpt>
      <trkpt lat="47.30412" lon="-2.23852">
        <ele>67</ele>
        <time>2022-03-20T09:14:04.000Z</time>
      </trkpt>
      <trkpt lat="47.30374" lon="-2.23857">
        <ele>67</ele>
        <time>2022-03-20T09:14:11.000Z</time>
      </trkpt>
      <trkpt lat="47.30335" lon="-2.23867">
        <ele>67</ele>
        <time>2022-03-20T09:14:18.000Z</time>
      </trkpt>
      <trkpt lat="47.30305" lon="-2.23881">
        <ele>67</ele>
        <time>2022-03-20T09:14:24.000Z</time>
      </trkpt>
      <trkpt lat="47.30296" lon="-2.23884">
        <ele>67</ele>
        <time>2022-03-20T09:14:26.000Z</time>
      </trkpt>
      <trkpt lat="47.30282" lon="-2.23885">
        <ele>67</ele>
        <time>2022-03-20T09:14:29.000Z</time>
      </trkpt>
      <trkpt lat="47.30268" lon="-2.23894">
        <ele>67</ele>
        <time>2022-03-20T09:14:32.000Z</time>
      </trkpt>
      <trkpt lat="47.30259" lon="-2.23915">
        <ele>67</ele>
        <time>2022-03-20T09:14:35.000Z</time>
      </trkpt>
      <trkpt lat="47.3026" lon="-2.23946">
        <ele>67</ele>
        <time>2022-03-20T09:14:39.000Z</time>
      </trkpt>
      <trkpt lat="47.30266" lon="-2.23962">
        <ele>67</ele>
        <time>2022-03-20T09:14:41.000Z</time>
      </trkpt>
      <trkpt lat="47.30272" lon="-2.23984">
        <ele>67</ele>
        <time>2022-03-20T09:14:44.000Z</time>
      </trkpt>
      <trkpt lat="47.30276" lon="-2.24005">
        <ele>67.400001525879</ele>
        <time>2022-03-20T09:14:47.000Z</time>
      </trkpt>
      <trkpt lat="47.30277" lon="-2.24011">
        <ele>68</ele>
        <time>2022-03-20T09:14:48.000Z</time>
      </trkpt>
      <trkpt lat="47.30278" lon="-2.24017">
        <ele>68.400001525879</ele>
        <time>2022-03-20T09:14:49.000Z</time>
      </trkpt>
      <trkpt lat="47.30278" lon="-2.24023">
        <ele>68.800003051758</ele>
        <time>2022-03-20T09:14:50.000Z</time>
      </trkpt>
      <trkpt lat="47.30279" lon="-2.24029">
        <ele>69.199996948242</ele>
        <time>2022-03-20T09:14:51.000Z</time>
      </trkpt>
      <trkpt lat="47.3028" lon="-2.24053">
        <ele>69.599998474121</ele>
        <time>2022-03-20T09:14:55.000Z</time>
      </trkpt>
      <trkpt lat="47.30278" lon="-2.24058">
        <ele>70.199996948242</ele>
        <time>2022-03-20T09:14:56.000Z</time>
      </trkpt>
      <trkpt lat="47.30275" lon="-2.24061">
        <ele>70.599998474121</ele>
        <time>2022-03-20T09:14:57.000Z</time>
      </trkpt>
      <trkpt lat="47.30271" lon="-2.24062">
        <ele>71</ele>
        <time>2022-03-20T09:14:58.000Z</time>
      </trkpt>
      <trkpt lat="47.30267" lon="-2.24062">
        <ele>71.400001525879</ele>
        <time>2022-03-20T09:14:59.000Z</time>
      </trkpt>
      <trkpt lat="47.30258" lon="-2.24062">
        <ele>71.400001525879</ele>
        <time>2022-03-20T09:15:01.000Z</time>
      </trkpt>
      <trkpt lat="47.30233" lon="-2.2406">
        <ele>71.400001525879</ele>
        <time>2022-03-20T09:15:06.000Z</time>
      </trkpt>
      <trkpt lat="47.30228" lon="-2.24059">
        <ele>71.800003051758</ele>
        <time>2022-03-20T09:15:07.000Z</time>
      </trkpt>
      <trkpt lat="47.30223" lon="-2.24059">
        <ele>72.199996948242</ele>
        <time>2022-03-20T09:15:08.000Z</time>
      </trkpt>
      <trkpt lat="47.30218" lon="-2.24059">
        <ele>72.599998474121</ele>
        <time>2022-03-20T09:15:09.000Z</time>
      </trkpt>
      <trkpt lat="47.30213" lon="-2.24059">
        <ele>73</ele>
        <time>2022-03-20T09:15:10.000Z</time>
      </trkpt>
      <trkpt lat="47.30208" lon="-2.24059">
        <ele>73.400001525879</ele>
        <time>2022-03-20T09:15:11.000Z</time>
      </trkpt>
      <trkpt lat="47.30193" lon="-2.24058">
        <ele>73.400001525879</ele>
        <time>2022-03-20T09:15:14.000Z</time>
      </trkpt>
      <trkpt lat="47.30189" lon="-2.24059">
        <ele>73.400001525879</ele>
        <time>2022-03-20T09:15:15.000Z</time>
      </trkpt>
      <trkpt lat="47.30181" lon="-2.24062">
        <ele>73.400001525879</ele>
        <time>2022-03-20T09:15:17.000Z</time>
      </trkpt>
      <trkpt lat="47.30172" lon="-2.24065">
        <ele>73.400001525879</ele>
        <time>2022-03-20T09:15:19.000Z</time>
      </trkpt>
      <trkpt lat="47.30167" lon="-2.24067">
        <ele>73.400001525879</ele>
        <time>2022-03-20T09:15:20.000Z</time>
      </trkpt>
      <trkpt lat="47.30146" lon="-2.24077">
        <ele>73.400001525879</ele>
        <time>2022-03-20T09:15:25.000Z</time>
      </trkpt>
      <trkpt lat="47.30136" lon="-2.24081">
        <ele>73.400001525879</ele>
        <time>2022-03-20T09:15:27.000Z</time>
      </trkpt>
      <trkpt lat="47.30132" lon="-2.24083">
        <ele>73.800003051758</ele>
        <time>2022-03-20T09:15:28.000Z</time>
      </trkpt>
      <trkpt lat="47.30127" lon="-2.24086">
        <ele>74.400001525879</ele>
        <time>2022-03-20T09:15:29.000Z</time>
      </trkpt>
      <trkpt lat="47.30123" lon="-2.24089">
        <ele>74.800003051758</ele>
        <time>2022-03-20T09:15:30.000Z</time>
      </trkpt>
      <trkpt lat="47.30119" lon="-2.24092">
        <ele>75.199996948242</ele>
        <time>2022-03-20T09:15:31.000Z</time>
      </trkpt>
      <trkpt lat="47.30114" lon="-2.24095">
        <ele>75.599998474121</ele>
        <time>2022-03-20T09:15:32.000Z</time>
      </trkpt>
      <trkpt lat="47.30092" lon="-2.24106">
        <ele>75.599998474121</ele>
        <time>2022-03-20T09:15:37.000Z</time>
      </trkpt>
      <trkpt lat="47.30082" lon="-2.24111">
        <ele>75.599998474121</ele>
        <time>2022-03-20T09:15:39.000Z</time>
      </trkpt>
      <trkpt lat="47.30065" lon="-2.24119">
        <ele>75.599998474121</ele>
        <time>2022-03-20T09:15:43.000Z</time>
      </trkpt>
      <trkpt lat="47.30038" lon="-2.24136">
        <ele>75.599998474121</ele>
        <time>2022-03-20T09:15:50.000Z</time>
      </trkpt>
      <trkpt lat="47.30034" lon="-2.24139">
        <ele>75.199996948242</ele>
        <time>2022-03-20T09:15:51.000Z</time>
      </trkpt>
      <trkpt lat="47.3003" lon="-2.24141">
        <ele>74.199996948242</ele>
        <time>2022-03-20T09:15:52.000Z</time>
      </trkpt>
      <trkpt lat="47.30028" lon="-2.24142">
        <ele>73.800003051758</ele>
        <time>2022-03-20T09:15:53.000Z</time>
      </trkpt>
      <trkpt lat="47.30026" lon="-2.24143">
        <ele>73.199996948242</ele>
        <time>2022-03-20T09:15:54.000Z</time>
      </trkpt>
      <trkpt lat="47.30025" lon="-2.24145">
        <ele>73.199996948242</ele>
        <time>2022-03-20T09:15:55.000Z</time>
      </trkpt>
      <trkpt lat="47.30025" lon="-2.24149">
        <ele>73.199996948242</ele>
        <time>2022-03-20T09:15:57.000Z</time>
      </trkpt>
      <trkpt lat="47.30025" lon="-2.24162">
        <ele>73.199996948242</ele>
        <time>2022-03-20T09:16:01.000Z</time>
      </trkpt>
      <trkpt lat="47.30025" lon="-2.24185">
        <ele>73.599998474121</ele>
        <time>2022-03-20T09:16:06.000Z</time>
      </trkpt>
      <trkpt lat="47.30025" lon="-2.2419">
        <ele>74.199996948242</ele>
        <time>2022-03-20T09:16:07.000Z</time>
      </trkpt>
      <trkpt lat="47.30024" lon="-2.24196">
        <ele>74.599998474121</ele>
        <time>2022-03-20T09:16:08.000Z</time>
      </trkpt>
      <trkpt lat="47.30023" lon="-2.24204">
        <ele>75</ele>
        <time>2022-03-20T09:16:09.000Z</time>
      </trkpt>
      <trkpt lat="47.30023" lon="-2.24214">
        <ele>75.400001525879</ele>
        <time>2022-03-20T09:16:10.000Z</time>
      </trkpt>
      <trkpt lat="47.30023" lon="-2.2424">
        <ele>75.400001525879</ele>
        <time>2022-03-20T09:16:14.000Z</time>
      </trkpt>
      <trkpt lat="47.30026" lon="-2.24251">
        <ele>76.400001525879</ele>
        <time>2022-03-20T09:16:16.000Z</time>
      </trkpt>
      <trkpt lat="47.30027" lon="-2.24255">
        <ele>76.800003051758</ele>
        <time>2022-03-20T09:16:17.000Z</time>
      </trkpt>
      <trkpt lat="47.30027" lon="-2.24259">
        <ele>77.199996948242</ele>
        <time>2022-03-20T09:16:18.000Z</time>
      </trkpt>
      <trkpt lat="47.30028" lon="-2.24263">
        <ele>77.599998474121</ele>
        <time>2022-03-20T09:16:19.000Z</time>
      </trkpt>
      <trkpt lat="47.30028" lon="-2.24269">
        <ele>78</ele>
        <time>2022-03-20T09:16:21.000Z</time>
      </trkpt>
      <trkpt lat="47.30027" lon="-2.24273">
        <ele>78.400001525879</ele>
        <time>2022-03-20T09:16:22.000Z</time>
      </trkpt>
      <trkpt lat="47.30026" lon="-2.24276">
        <ele>78.800003051758</ele>
        <time>2022-03-20T09:16:23.000Z</time>
      </trkpt>
      <trkpt lat="47.30024" lon="-2.24279">
        <ele>79.199996948242</ele>
        <time>2022-03-20T09:16:24.000Z</time>
      </trkpt>
      <trkpt lat="47.30022" lon="-2.24281">
        <ele>79.599998474121</ele>
        <time>2022-03-20T09:16:25.000Z</time>
      </trkpt>
      <trkpt lat="47.30016" lon="-2.24291">
        <ele>79.599998474121</ele>
        <time>2022-03-20T09:16:28.000Z</time>
      </trkpt>
      <trkpt lat="47.30014" lon="-2.243">
        <ele>79.599998474121</ele>
        <time>2022-03-20T09:16:30.000Z</time>
      </trkpt>
      <trkpt lat="47.30011" lon="-2.2431">
        <ele>79.599998474121</ele>
        <time>2022-03-20T09:16:32.000Z</time>
      </trkpt>
      <trkpt lat="47.30003" lon="-2.24338">
        <ele>79.599998474121</ele>
        <time>2022-03-20T09:16:38.000Z</time>
      </trkpt>
      <trkpt lat="47.29997" lon="-2.24359">
        <ele>79.599998474121</ele>
        <time>2022-03-20T09:16:43.000Z</time>
      </trkpt>
      <trkpt lat="47.29995" lon="-2.24361">
        <ele>79.599998474121</ele>
        <time>2022-03-20T09:16:44.000Z</time>
      </trkpt>
      <trkpt lat="47.2999" lon="-2.24361">
        <ele>79.599998474121</ele>
        <time>2022-03-20T09:16:47.000Z</time>
      </trkpt>
      <trkpt lat="47.29986" lon="-2.24358">
        <ele>79.599998474121</ele>
        <time>2022-03-20T09:16:51.000Z</time>
      </trkpt>
      <trkpt lat="47.29984" lon="-2.24356">
        <ele>79.599998474121</ele>
        <time>2022-03-20T09:18:54.000Z</time>
      </trkpt>
      <trkpt lat="47.29977" lon="-2.24349">
        <ele>79.599998474121</ele>
        <time>2022-03-20T09:18:59.000Z</time>
      </trkpt>
      <trkpt lat="47.29963" lon="-2.24333">
        <ele>79.599998474121</ele>
        <time>2022-03-20T09:19:04.000Z</time>
      </trkpt>
      <trkpt lat="47.29948" lon="-2.24319">
        <ele>79.599998474121</ele>
        <time>2022-03-20T09:19:09.000Z</time>
      </trkpt>
      <trkpt lat="47.29938" lon="-2.24298">
        <ele>79.599998474121</ele>
        <time>2022-03-20T09:19:14.000Z</time>
      </trkpt>
      <trkpt lat="47.29943" lon="-2.24276">
        <ele>79.599998474121</ele>
        <time>2022-03-20T09:19:18.000Z</time>
      </trkpt>
      <trkpt lat="47.29947" lon="-2.24266">
        <ele>79.599998474121</ele>
        <time>2022-03-20T09:19:20.000Z</time>
      </trkpt>
      <trkpt lat="47.29958" lon="-2.24243">
        <ele>79.599998474121</ele>
        <time>2022-03-20T09:19:25.000Z</time>
      </trkpt>
      <trkpt lat="47.29976" lon="-2.24207">
        <ele>79.599998474121</ele>
        <time>2022-03-20T09:19:33.000Z</time>
      </trkpt>
      <trkpt lat="47.2999" lon="-2.2417">
        <ele>79.599998474121</ele>
        <time>2022-03-20T09:19:40.000Z</time>
      </trkpt>
      <trkpt lat="47.29991" lon="-2.24164">
        <ele>79.199996948242</ele>
        <time>2022-03-20T09:19:41.000Z</time>
      </trkpt>
      <trkpt lat="47.29992" lon="-2.2416">
        <ele>78.800003051758</ele>
        <time>2022-03-20T09:19:42.000Z</time>
      </trkpt>
      <trkpt lat="47.29993" lon="-2.24157">
        <ele>78.199996948242</ele>
        <time>2022-03-20T09:19:43.000Z</time>
      </trkpt>
      <trkpt lat="47.29994" lon="-2.24154">
        <ele>77.800003051758</ele>
        <time>2022-03-20T09:19:44.000Z</time>
      </trkpt>
      <trkpt lat="47.29995" lon="-2.24152">
        <ele>77.400001525879</ele>
        <time>2022-03-20T09:19:45.000Z</time>
      </trkpt>
      <trkpt lat="47.29997" lon="-2.24148">
        <ele>77</ele>
        <time>2022-03-20T09:19:47.000Z</time>
      </trkpt>
      <trkpt lat="47.29997" lon="-2.24147">
        <ele>76.599998474121</ele>
        <time>2022-03-20T09:19:48.000Z</time>
      </trkpt>
      <trkpt lat="47.29997" lon="-2.24146">
        <ele>76.199996948242</ele>
        <time>2022-03-20T09:19:49.000Z</time>
      </trkpt>
      <trkpt lat="47.29998" lon="-2.24145">
        <ele>75.800003051758</ele>
        <time>2022-03-20T09:19:50.000Z</time>
      </trkpt>
      <trkpt lat="47.3" lon="-2.24145">
        <ele>75.400001525879</ele>
        <time>2022-03-20T09:19:51.000Z</time>
      </trkpt>
      <trkpt lat="47.30005" lon="-2.24149">
        <ele>75</ele>
        <time>2022-03-20T09:19:54.000Z</time>
      </trkpt>
      <trkpt lat="47.30007" lon="-2.24148">
        <ele>74.599998474121</ele>
        <time>2022-03-20T09:19:55.000Z</time>
      </trkpt>
      <trkpt lat="47.3001" lon="-2.24148">
        <ele>74.199996948242</ele>
        <time>2022-03-20T09:19:56.000Z</time>
      </trkpt>
      <trkpt lat="47.30011" lon="-2.24148">
        <ele>73.800003051758</ele>
        <time>2022-03-20T09:19:57.000Z</time>
      </trkpt>
      <trkpt lat="47.30012" lon="-2.24148">
        <ele>73.400001525879</ele>
        <time>2022-03-20T09:19:58.000Z</time>
      </trkpt>
      <trkpt lat="47.30013" lon="-2.24148">
        <ele>73.400001525879</ele>
        <time>2022-03-20T09:19:59.000Z</time>
      </trkpt>
      <trkpt lat="47.30013" lon="-2.2415">
        <ele>73.400001525879</ele>
        <time>2022-03-20T09:32:55.000Z</time>
      </trkpt>
      <trkpt lat="47.30007" lon="-2.24151">
        <ele>73.400001525879</ele>
        <time>2022-03-20T09:32:57.000Z</time>
      </trkpt>
      <trkpt lat="47.30002" lon="-2.24151">
        <ele>73.800003051758</ele>
        <time>2022-03-20T09:32:59.000Z</time>
      </trkpt>
      <trkpt lat="47.3" lon="-2.2415">
        <ele>74.199996948242</ele>
        <time>2022-03-20T09:33:00.000Z</time>
      </trkpt>
      <trkpt lat="47.29999" lon="-2.24148">
        <ele>74.599998474121</ele>
        <time>2022-03-20T09:33:01.000Z</time>
      </trkpt>
      <trkpt lat="47.29999" lon="-2.24147">
        <ele>75</ele>
        <time>2022-03-20T09:33:02.000Z</time>
      </trkpt>
      <trkpt lat="47.29999" lon="-2.24146">
        <ele>75.400001525879</ele>
        <time>2022-03-20T09:33:03.000Z</time>
      </trkpt>
      <trkpt lat="47.3" lon="-2.24141">
        <ele>77.599998474121</ele>
        <time>2022-03-20T09:33:53.000Z</time>
      </trkpt>
      <trkpt lat="47.3" lon="-2.24137">
        <ele>77.599998474121</ele>
        <time>2022-03-20T09:33:54.000Z</time>
      </trkpt>
      <trkpt lat="47.30003" lon="-2.24115">
        <ele>77.599998474121</ele>
        <time>2022-03-20T09:33:58.000Z</time>
      </trkpt>
      <trkpt lat="47.30003" lon="-2.24099">
        <ele>77.599998474121</ele>
        <time>2022-03-20T09:34:00.000Z</time>
      </trkpt>
      <trkpt lat="47.30003" lon="-2.2409">
        <ele>77</ele>
        <time>2022-03-20T09:34:01.000Z</time>
      </trkpt>
      <trkpt lat="47.30002" lon="-2.24081">
        <ele>76.599998474121</ele>
        <time>2022-03-20T09:34:02.000Z</time>
      </trkpt>
      <trkpt lat="47.30002" lon="-2.24071">
        <ele>76.199996948242</ele>
        <time>2022-03-20T09:34:03.000Z</time>
      </trkpt>
      <trkpt lat="47.30001" lon="-2.24061">
        <ele>75.800003051758</ele>
        <time>2022-03-20T09:34:04.000Z</time>
      </trkpt>
      <trkpt lat="47.3" lon="-2.24051">
        <ele>75.400001525879</ele>
        <time>2022-03-20T09:34:05.000Z</time>
      </trkpt>
      <trkpt lat="47.3" lon="-2.24005">
        <ele>75.400001525879</ele>
        <time>2022-03-20T09:34:10.000Z</time>
      </trkpt>
      <trkpt lat="47.3" lon="-2.23994">
        <ele>75</ele>
        <time>2022-03-20T09:34:11.000Z</time>
      </trkpt>
      <trkpt lat="47.30001" lon="-2.23985">
        <ele>74.599998474121</ele>
        <time>2022-03-20T09:34:12.000Z</time>
      </trkpt>
      <trkpt lat="47.30001" lon="-2.23976">
        <ele>74</ele>
        <time>2022-03-20T09:34:13.000Z</time>
      </trkpt>
      <trkpt lat="47.30002" lon="-2.23966">
        <ele>73.599998474121</ele>
        <time>2022-03-20T09:34:14.000Z</time>
      </trkpt>
      <trkpt lat="47.30002" lon="-2.23957">
        <ele>73.199996948242</ele>
        <time>2022-03-20T09:34:15.000Z</time>
      </trkpt>
      <trkpt lat="47.30002" lon="-2.23949">
        <ele>72.599998474121</ele>
        <time>2022-03-20T09:34:16.000Z</time>
      </trkpt>
      <trkpt lat="47.30001" lon="-2.23941">
        <ele>72.199996948242</ele>
        <time>2022-03-20T09:34:17.000Z</time>
      </trkpt>
      <trkpt lat="47.3" lon="-2.23933">
        <ele>71.599998474121</ele>
        <time>2022-03-20T09:34:18.000Z</time>
      </trkpt>
      <trkpt lat="47.3" lon="-2.23925">
        <ele>71.199996948242</ele>
        <time>2022-03-20T09:34:19.000Z</time>
      </trkpt>
      <trkpt lat="47.3" lon="-2.23917">
        <ele>71.199996948242</ele>
        <time>2022-03-20T09:34:20.000Z</time>
      </trkpt>
      <trkpt lat="47.30002" lon="-2.239">
        <ele>71.199996948242</ele>
        <time>2022-03-20T09:34:22.000Z</time>
      </trkpt>
      <trkpt lat="47.29996" lon="-2.23878">
        <ele>71.199996948242</ele>
        <time>2022-03-20T09:34:25.000Z</time>
      </trkpt>
      <trkpt lat="47.29979" lon="-2.2386">
        <ele>71.199996948242</ele>
        <time>2022-03-20T09:34:29.000Z</time>
      </trkpt>
      <trkpt lat="47.29969" lon="-2.23852">
        <ele>71.199996948242</ele>
        <time>2022-03-20T09:34:31.000Z</time>
      </trkpt>
      <trkpt lat="47.29951" lon="-2.23839">
        <ele>71.199996948242</ele>
        <time>2022-03-20T09:34:35.000Z</time>
      </trkpt>
      <trkpt lat="47.29933" lon="-2.2383">
        <ele>71.199996948242</ele>
        <time>2022-03-20T09:34:39.000Z</time>
      </trkpt>
      <trkpt lat="47.29927" lon="-2.23829">
        <ele>71.199996948242</ele>
        <time>2022-03-20T09:34:40.000Z</time>
      </trkpt>
      <trkpt lat="47.29902" lon="-2.23823">
        <ele>71.199996948242</ele>
        <time>2022-03-20T09:34:45.000Z</time>
      </trkpt>
      <trkpt lat="47.29897" lon="-2.23823">
        <ele>71.199996948242</ele>
        <time>2022-03-20T09:34:46.000Z</time>
      </trkpt>
      <trkpt lat="47.29868" lon="-2.23829">
        <ele>71.199996948242</ele>
        <time>2022-03-20T09:34:52.000Z</time>
      </trkpt>
      <trkpt lat="47.29858" lon="-2.23828">
        <ele>71.199996948242</ele>
        <time>2022-03-20T09:34:54.000Z</time>
      </trkpt>
      <trkpt lat="47.29848" lon="-2.23825">
        <ele>71.199996948242</ele>
        <time>2022-03-20T09:34:56.000Z</time>
      </trkpt>
      <trkpt lat="47.29836" lon="-2.23815">
        <ele>71.199996948242</ele>
        <time>2022-03-20T09:34:59.000Z</time>
      </trkpt>
      <trkpt lat="47.29831" lon="-2.23811">
        <ele>71.199996948242</ele>
        <time>2022-03-20T09:35:00.000Z</time>
      </trkpt>
      <trkpt lat="47.29826" lon="-2.23807">
        <ele>71.199996948242</ele>
        <time>2022-03-20T09:35:01.000Z</time>
      </trkpt>
      <trkpt lat="47.29812" lon="-2.23797">
        <ele>71.199996948242</ele>
        <time>2022-03-20T09:35:04.000Z</time>
      </trkpt>
      <trkpt lat="47.29807" lon="-2.23794">
        <ele>71.199996948242</ele>
        <time>2022-03-20T09:35:05.000Z</time>
      </trkpt>
      <trkpt lat="47.2979" lon="-2.23789">
        <ele>71.199996948242</ele>
        <time>2022-03-20T09:35:08.000Z</time>
      </trkpt>
      <trkpt lat="47.29784" lon="-2.23788">
        <ele>71.199996948242</ele>
        <time>2022-03-20T09:35:09.000Z</time>
      </trkpt>
      <trkpt lat="47.29778" lon="-2.23788">
        <ele>71.199996948242</ele>
        <time>2022-03-20T09:35:10.000Z</time>
      </trkpt>
      <trkpt lat="47.29762" lon="-2.23796">
        <ele>71.199996948242</ele>
        <time>2022-03-20T09:35:13.000Z</time>
      </trkpt>
      <trkpt lat="47.2975" lon="-2.23809">
        <ele>71.199996948242</ele>
        <time>2022-03-20T09:35:17.000Z</time>
      </trkpt>
      <trkpt lat="47.29745" lon="-2.23817">
        <ele>71.199996948242</ele>
        <time>2022-03-20T09:35:21.000Z</time>
      </trkpt>
      <trkpt lat="47.2974" lon="-2.23824">
        <ele>71.199996948242</ele>
        <time>2022-03-20T09:35:27.000Z</time>
      </trkpt>
      <trkpt lat="47.29733" lon="-2.23842">
        <ele>71.199996948242</ele>
        <time>2022-03-20T09:35:34.000Z</time>
      </trkpt>
      <trkpt lat="47.29724" lon="-2.23877">
        <ele>71.199996948242</ele>
        <time>2022-03-20T09:35:40.000Z</time>
      </trkpt>
      <trkpt lat="47.29718" lon="-2.23922">
        <ele>71.199996948242</ele>
        <time>2022-03-20T09:35:46.000Z</time>
      </trkpt>
      <trkpt lat="47.29707" lon="-2.23938">
        <ele>71.199996948242</ele>
        <time>2022-03-20T09:35:49.000Z</time>
      </trkpt>
      <trkpt lat="47.29698" lon="-2.23943">
        <ele>71.199996948242</ele>
        <time>2022-03-20T09:35:51.000Z</time>
      </trkpt>
      <trkpt lat="47.29684" lon="-2.23952">
        <ele>71.199996948242</ele>
        <time>2022-03-20T09:35:54.000Z</time>
      </trkpt>
      <trkpt lat="47.29674" lon="-2.23959">
        <ele>71.199996948242</ele>
        <time>2022-03-20T09:35:56.000Z</time>
      </trkpt>
      <trkpt lat="47.29657" lon="-2.23973">
        <ele>71.199996948242</ele>
        <time>2022-03-20T09:36:00.000Z</time>
      </trkpt>
      <trkpt lat="47.29641" lon="-2.2399">
        <ele>71.199996948242</ele>
        <time>2022-03-20T09:36:04.000Z</time>
      </trkpt>
      <trkpt lat="47.29637" lon="-2.24004">
        <ele>71.199996948242</ele>
        <time>2022-03-20T09:36:06.000Z</time>
      </trkpt>
      <trkpt lat="47.29629" lon="-2.2406">
        <ele>71.199996948242</ele>
        <time>2022-03-20T09:36:14.000Z</time>
      </trkpt>
      <trkpt lat="47.29621" lon="-2.24083">
        <ele>71.199996948242</ele>
        <time>2022-03-20T09:36:18.000Z</time>
      </trkpt>
      <trkpt lat="47.29618" lon="-2.24104">
        <ele>71.199996948242</ele>
        <time>2022-03-20T09:36:21.000Z</time>
      </trkpt>
      <trkpt lat="47.29616" lon="-2.24119">
        <ele>71.199996948242</ele>
        <time>2022-03-20T09:36:23.000Z</time>
      </trkpt>
      <trkpt lat="47.2961" lon="-2.24182">
        <ele>71.199996948242</ele>
        <time>2022-03-20T09:36:32.000Z</time>
      </trkpt>
      <trkpt lat="47.29609" lon="-2.24189">
        <ele>71.599998474121</ele>
        <time>2022-03-20T09:36:33.000Z</time>
      </trkpt>
      <trkpt lat="47.29607" lon="-2.24195">
        <ele>72</ele>
        <time>2022-03-20T09:36:34.000Z</time>
      </trkpt>
      <trkpt lat="47.29605" lon="-2.242">
        <ele>72.400001525879</ele>
        <time>2022-03-20T09:36:35.000Z</time>
      </trkpt>
      <trkpt lat="47.29601" lon="-2.24204">
        <ele>72.800003051758</ele>
        <time>2022-03-20T09:36:36.000Z</time>
      </trkpt>
      <trkpt lat="47.29598" lon="-2.24207">
        <ele>73.199996948242</ele>
        <time>2022-03-20T09:36:37.000Z</time>
      </trkpt>
      <trkpt lat="47.29589" lon="-2.24204">
        <ele>73.199996948242</ele>
        <time>2022-03-20T09:36:39.000Z</time>
      </trkpt>
      <trkpt lat="47.29581" lon="-2.24187">
        <ele>73.199996948242</ele>
        <time>2022-03-20T09:36:42.000Z</time>
      </trkpt>
      <trkpt lat="47.29578" lon="-2.24172">
        <ele>73.199996948242</ele>
        <time>2022-03-20T09:36:44.000Z</time>
      </trkpt>
      <trkpt lat="47.29573" lon="-2.24141">
        <ele>73.199996948242</ele>
        <time>2022-03-20T09:36:48.000Z</time>
      </trkpt>
      <trkpt lat="47.29562" lon="-2.24077">
        <ele>73.199996948242</ele>
        <time>2022-03-20T09:36:56.000Z</time>
      </trkpt>
      <trkpt lat="47.29554" lon="-2.24025">
        <ele>73.199996948242</ele>
        <time>2022-03-20T09:37:02.000Z</time>
      </trkpt>
      <trkpt lat="47.29544" lon="-2.23963">
        <ele>73.199996948242</ele>
        <time>2022-03-20T09:37:09.000Z</time>
      </trkpt>
      <trkpt lat="47.29536" lon="-2.23903">
        <ele>73.199996948242</ele>
        <time>2022-03-20T09:37:16.000Z</time>
      </trkpt>
      <trkpt lat="47.29524" lon="-2.23844">
        <ele>73.199996948242</ele>
        <time>2022-03-20T09:37:23.000Z</time>
      </trkpt>
      <trkpt lat="47.29506" lon="-2.23782">
        <ele>73.199996948242</ele>
        <time>2022-03-20T09:37:31.000Z</time>
      </trkpt>
      <trkpt lat="47.29497" lon="-2.23734">
        <ele>73.199996948242</ele>
        <time>2022-03-20T09:37:38.000Z</time>
      </trkpt>
      <trkpt lat="47.29496" lon="-2.237">
        <ele>73.599998474121</ele>
        <time>2022-03-20T09:37:43.000Z</time>
      </trkpt>
      <trkpt lat="47.29496" lon="-2.23693">
        <ele>74</ele>
        <time>2022-03-20T09:37:44.000Z</time>
      </trkpt>
      <trkpt lat="47.29496" lon="-2.23687">
        <ele>74.400001525879</ele>
        <time>2022-03-20T09:37:45.000Z</time>
      </trkpt>
      <trkpt lat="47.29495" lon="-2.2368">
        <ele>75</ele>
        <time>2022-03-20T09:37:46.000Z</time>
      </trkpt>
      <trkpt lat="47.29494" lon="-2.23674">
        <ele>75.400001525879</ele>
        <time>2022-03-20T09:37:47.000Z</time>
      </trkpt>
      <trkpt lat="47.29488" lon="-2.23666">
        <ele>75.400001525879</ele>
        <time>2022-03-20T09:37:49.000Z</time>
      </trkpt>
      <trkpt lat="47.29477" lon="-2.23669">
        <ele>75.400001525879</ele>
        <time>2022-03-20T09:37:52.000Z</time>
      </trkpt>
      <trkpt lat="47.29471" lon="-2.23672">
        <ele>75.800003051758</ele>
        <time>2022-03-20T09:37:54.000Z</time>
      </trkpt>
      <trkpt lat="47.29468" lon="-2.23674">
        <ele>76.199996948242</ele>
        <time>2022-03-20T09:37:55.000Z</time>
      </trkpt>
      <trkpt lat="47.29464" lon="-2.23677">
        <ele>76.599998474121</ele>
        <time>2022-03-20T09:37:56.000Z</time>
      </trkpt>
      <trkpt lat="47.2946" lon="-2.23679">
        <ele>77</ele>
        <time>2022-03-20T09:37:57.000Z</time>
      </trkpt>
      <trkpt lat="47.29456" lon="-2.23682">
        <ele>77.400001525879</ele>
        <time>2022-03-20T09:37:58.000Z</time>
      </trkpt>
      <trkpt lat="47.29429" lon="-2.23694">
        <ele>77.400001525879</ele>
        <time>2022-03-20T09:38:03.000Z</time>
      </trkpt>
      <trkpt lat="47.29402" lon="-2.23702">
        <ele>77</ele>
        <time>2022-03-20T09:38:07.000Z</time>
      </trkpt>
      <trkpt lat="47.29394" lon="-2.23705">
        <ele>76.599998474121</ele>
        <time>2022-03-20T09:38:08.000Z</time>
      </trkpt>
      <trkpt lat="47.29387" lon="-2.2371">
        <ele>76.199996948242</ele>
        <time>2022-03-20T09:38:09.000Z</time>
      </trkpt>
      <trkpt lat="47.29381" lon="-2.23716">
        <ele>75.800003051758</ele>
        <time>2022-03-20T09:38:10.000Z</time>
      </trkpt>
      <trkpt lat="47.29375" lon="-2.23724">
        <ele>75.400001525879</ele>
        <time>2022-03-20T09:38:11.000Z</time>
      </trkpt>
      <trkpt lat="47.29369" lon="-2.23743">
        <ele>74.800003051758</ele>
        <time>2022-03-20T09:38:13.000Z</time>
      </trkpt>
      <trkpt lat="47.29367" lon="-2.23752">
        <ele>74.400001525879</ele>
        <time>2022-03-20T09:38:14.000Z</time>
      </trkpt>
      <trkpt lat="47.29366" lon="-2.23762">
        <ele>74</ele>
        <time>2022-03-20T09:38:15.000Z</time>
      </trkpt>
      <trkpt lat="47.29365" lon="-2.23772">
        <ele>73.599998474121</ele>
        <time>2022-03-20T09:38:16.000Z</time>
      </trkpt>
      <trkpt lat="47.29363" lon="-2.23781">
        <ele>73.199996948242</ele>
        <time>2022-03-20T09:38:17.000Z</time>
      </trkpt>
      <trkpt lat="47.29357" lon="-2.23793">
        <ele>73.199996948242</ele>
        <time>2022-03-20T09:38:19.000Z</time>
      </trkpt>
      <trkpt lat="47.29348" lon="-2.23792">
        <ele>73.199996948242</ele>
        <time>2022-03-20T09:38:21.000Z</time>
      </trkpt>
      <trkpt lat="47.2934" lon="-2.23785">
        <ele>73.199996948242</ele>
        <time>2022-03-20T09:38:23.000Z</time>
      </trkpt>
      <trkpt lat="47.29326" lon="-2.23778">
        <ele>73.199996948242</ele>
        <time>2022-03-20T09:38:26.000Z</time>
      </trkpt>
      <trkpt lat="47.29311" lon="-2.23782">
        <ele>72.800003051758</ele>
        <time>2022-03-20T09:38:30.000Z</time>
      </trkpt>
      <trkpt lat="47.2931" lon="-2.23788">
        <ele>71.800003051758</ele>
        <time>2022-03-20T09:38:31.000Z</time>
      </trkpt>
      <trkpt lat="47.29309" lon="-2.23793">
        <ele>71.400001525879</ele>
        <time>2022-03-20T09:38:32.000Z</time>
      </trkpt>
      <trkpt lat="47.29309" lon="-2.23799">
        <ele>71</ele>
        <time>2022-03-20T09:38:33.000Z</time>
      </trkpt>
      <trkpt lat="47.2931" lon="-2.23814">
        <ele>71</ele>
        <time>2022-03-20T09:38:35.000Z</time>
      </trkpt>
      <trkpt lat="47.29312" lon="-2.23845">
        <ele>71</ele>
        <time>2022-03-20T09:38:39.000Z</time>
      </trkpt>
      <trkpt lat="47.29326" lon="-2.23897">
        <ele>71</ele>
        <time>2022-03-20T09:38:45.000Z</time>
      </trkpt>
      <trkpt lat="47.2934" lon="-2.23927">
        <ele>71</ele>
        <time>2022-03-20T09:38:49.000Z</time>
      </trkpt>
      <trkpt lat="47.29348" lon="-2.23939">
        <ele>71</ele>
        <time>2022-03-20T09:38:51.000Z</time>
      </trkpt>
      <trkpt lat="47.29359" lon="-2.2396">
        <ele>71</ele>
        <time>2022-03-20T09:38:54.000Z</time>
      </trkpt>
      <trkpt lat="47.29357" lon="-2.23975">
        <ele>71</ele>
        <time>2022-03-20T09:38:56.000Z</time>
      </trkpt>
      <trkpt lat="47.29345" lon="-2.2398">
        <ele>71</ele>
        <time>2022-03-20T09:38:59.000Z</time>
      </trkpt>
      <trkpt lat="47.29329" lon="-2.23978">
        <ele>71</ele>
        <time>2022-03-20T09:39:02.000Z</time>
      </trkpt>
      <trkpt lat="47.29323" lon="-2.23976">
        <ele>71</ele>
        <time>2022-03-20T09:39:03.000Z</time>
      </trkpt>
      <trkpt lat="47.29281" lon="-2.23967">
        <ele>71</ele>
        <time>2022-03-20T09:39:10.000Z</time>
      </trkpt>
      <trkpt lat="47.29276" lon="-2.23968">
        <ele>71</ele>
        <time>2022-03-20T09:39:11.000Z</time>
      </trkpt>
      <trkpt lat="47.29252" lon="-2.23975">
        <ele>71</ele>
        <time>2022-03-20T09:39:15.000Z</time>
      </trkpt>
      <trkpt lat="47.29247" lon="-2.23979">
        <ele>71</ele>
        <time>2022-03-20T09:39:16.000Z</time>
      </trkpt>
      <trkpt lat="47.2922" lon="-2.24002">
        <ele>71</ele>
        <time>2022-03-20T09:39:22.000Z</time>
      </trkpt>
      <trkpt lat="47.29202" lon="-2.24018">
        <ele>71.400001525879</ele>
        <time>2022-03-20T09:39:26.000Z</time>
      </trkpt>
      <trkpt lat="47.29197" lon="-2.24022">
        <ele>71.800003051758</ele>
        <time>2022-03-20T09:39:27.000Z</time>
      </trkpt>
      <trkpt lat="47.29193" lon="-2.24025">
        <ele>72.400001525879</ele>
        <time>2022-03-20T09:39:28.000Z</time>
      </trkpt>
      <trkpt lat="47.29189" lon="-2.24028">
        <ele>72.800003051758</ele>
        <time>2022-03-20T09:39:29.000Z</time>
      </trkpt>
      <trkpt lat="47.29184" lon="-2.24031">
        <ele>73.199996948242</ele>
        <time>2022-03-20T09:39:30.000Z</time>
      </trkpt>
      <trkpt lat="47.29167" lon="-2.24045">
        <ele>73.199996948242</ele>
        <time>2022-03-20T09:39:34.000Z</time>
      </trkpt>
      <trkpt lat="47.29158" lon="-2.2405">
        <ele>73.599998474121</ele>
        <time>2022-03-20T09:39:36.000Z</time>
      </trkpt>
      <trkpt lat="47.29154" lon="-2.24052">
        <ele>74</ele>
        <time>2022-03-20T09:39:37.000Z</time>
      </trkpt>
      <trkpt lat="47.2915" lon="-2.24054">
        <ele>74.400001525879</ele>
        <time>2022-03-20T09:39:38.000Z</time>
      </trkpt>
      <trkpt lat="47.29146" lon="-2.24056">
        <ele>74.800003051758</ele>
        <time>2022-03-20T09:39:39.000Z</time>
      </trkpt>
      <trkpt lat="47.29142" lon="-2.24059">
        <ele>75.199996948242</ele>
        <time>2022-03-20T09:39:40.000Z</time>
      </trkpt>
      <trkpt lat="47.29138" lon="-2.24061">
        <ele>75.199996948242</ele>
        <time>2022-03-20T09:39:41.000Z</time>
      </trkpt>
      <trkpt lat="47.29127" lon="-2.24069">
        <ele>75.599998474121</ele>
        <time>2022-03-20T09:39:44.000Z</time>
      </trkpt>
      <trkpt lat="47.29125" lon="-2.24074">
        <ele>76</ele>
        <time>2022-03-20T09:39:45.000Z</time>
      </trkpt>
      <trkpt lat="47.29123" lon="-2.24079">
        <ele>76.400001525879</ele>
        <time>2022-03-20T09:39:46.000Z</time>
      </trkpt>
      <trkpt lat="47.29122" lon="-2.24085">
        <ele>77</ele>
        <time>2022-03-20T09:39:47.000Z</time>
      </trkpt>
      <trkpt lat="47.29122" lon="-2.24092">
        <ele>77.400001525879</ele>
        <time>2022-03-20T09:39:48.000Z</time>
      </trkpt>
      <trkpt lat="47.29124" lon="-2.24098">
        <ele>77.400001525879</ele>
        <time>2022-03-20T09:39:49.000Z</time>
      </trkpt>
      <trkpt lat="47.29131" lon="-2.24132">
        <ele>77.400001525879</ele>
        <time>2022-03-20T09:39:54.000Z</time>
      </trkpt>
      <trkpt lat="47.29131" lon="-2.24139">
        <ele>77.400001525879</ele>
        <time>2022-03-20T09:39:55.000Z</time>
      </trkpt>
      <trkpt lat="47.29134" lon="-2.24156">
        <ele>77.400001525879</ele>
        <time>2022-03-20T09:39:58.000Z</time>
      </trkpt>
      <trkpt lat="47.29143" lon="-2.24191">
        <ele>77.400001525879</ele>
        <time>2022-03-20T09:40:03.000Z</time>
      </trkpt>
      <trkpt lat="47.2916" lon="-2.24249">
        <ele>77.400001525879</ele>
        <time>2022-03-20T09:40:10.000Z</time>
      </trkpt>
      <trkpt lat="47.29176" lon="-2.24305">
        <ele>77.400001525879</ele>
        <time>2022-03-20T09:40:17.000Z</time>
      </trkpt>
      <trkpt lat="47.29189" lon="-2.24335">
        <ele>77.400001525879</ele>
        <time>2022-03-20T09:40:21.000Z</time>
      </trkpt>
      <trkpt lat="47.29195" lon="-2.24349">
        <ele>77.400001525879</ele>
        <time>2022-03-20T09:40:23.000Z</time>
      </trkpt>
      <trkpt lat="47.29205" lon="-2.24372">
        <ele>77.400001525879</ele>
        <time>2022-03-20T09:40:26.000Z</time>
      </trkpt>
      <trkpt lat="47.29212" lon="-2.24393">
        <ele>77.400001525879</ele>
        <time>2022-03-20T09:40:29.000Z</time>
      </trkpt>
      <trkpt lat="47.29224" lon="-2.24434">
        <ele>77.400001525879</ele>
        <time>2022-03-20T09:40:35.000Z</time>
      </trkpt>
      <trkpt lat="47.29228" lon="-2.24455">
        <ele>77.800003051758</ele>
        <time>2022-03-20T09:40:38.000Z</time>
      </trkpt>
      <trkpt lat="47.2923" lon="-2.2446">
        <ele>78.199996948242</ele>
        <time>2022-03-20T09:40:39.000Z</time>
      </trkpt>
      <trkpt lat="47.29231" lon="-2.24466">
        <ele>78.599998474121</ele>
        <time>2022-03-20T09:40:40.000Z</time>
      </trkpt>
      <trkpt lat="47.29234" lon="-2.24471">
        <ele>79</ele>
        <time>2022-03-20T09:40:41.000Z</time>
      </trkpt>
      <trkpt lat="47.29237" lon="-2.24474">
        <ele>79.400001525879</ele>
        <time>2022-03-20T09:40:42.000Z</time>
      </trkpt>
      <trkpt lat="47.29245" lon="-2.24474">
        <ele>79.400001525879</ele>
        <time>2022-03-20T09:40:44.000Z</time>
      </trkpt>
      <trkpt lat="47.29258" lon="-2.24469">
        <ele>79.400001525879</ele>
        <time>2022-03-20T09:40:47.000Z</time>
      </trkpt>
      <trkpt lat="47.29268" lon="-2.24465">
        <ele>79.400001525879</ele>
        <time>2022-03-20T09:40:49.000Z</time>
      </trkpt>
      <trkpt lat="47.29288" lon="-2.24459">
        <ele>79.400001525879</ele>
        <time>2022-03-20T09:40:53.000Z</time>
      </trkpt>
      <trkpt lat="47.2929" lon="-2.24464">
        <ele>79.400001525879</ele>
        <time>2022-03-20T09:40:54.000Z</time>
      </trkpt>
      <trkpt lat="47.29291" lon="-2.24486">
        <ele>79.400001525879</ele>
        <time>2022-03-20T09:40:57.000Z</time>
      </trkpt>
      <trkpt lat="47.29292" lon="-2.24529">
        <ele>79.400001525879</ele>
        <time>2022-03-20T09:41:02.000Z</time>
      </trkpt>
      <trkpt lat="47.29298" lon="-2.24586">
        <ele>79.400001525879</ele>
        <time>2022-03-20T09:41:08.000Z</time>
      </trkpt>
      <trkpt lat="47.29299" lon="-2.24624">
        <ele>79.400001525879</ele>
        <time>2022-03-20T09:41:13.000Z</time>
      </trkpt>
      <trkpt lat="47.29299" lon="-2.24651">
        <ele>79.400001525879</ele>
        <time>2022-03-20T09:41:18.000Z</time>
      </trkpt>
      <trkpt lat="47.29302" lon="-2.24679">
        <ele>79.400001525879</ele>
        <time>2022-03-20T09:41:23.000Z</time>
      </trkpt>
      <trkpt lat="47.29311" lon="-2.24721">
        <ele>79.400001525879</ele>
        <time>2022-03-20T09:41:30.000Z</time>
      </trkpt>
      <trkpt lat="47.29314" lon="-2.24741">
        <ele>79.800003051758</ele>
        <time>2022-03-20T09:41:33.000Z</time>
      </trkpt>
      <trkpt lat="47.29315" lon="-2.24748">
        <ele>80.199996948242</ele>
        <time>2022-03-20T09:41:34.000Z</time>
      </trkpt>
      <trkpt lat="47.29317" lon="-2.24754">
        <ele>80.599998474121</ele>
        <time>2022-03-20T09:41:35.000Z</time>
      </trkpt>
      <trkpt lat="47.29319" lon="-2.24759">
        <ele>81</ele>
        <time>2022-03-20T09:41:36.000Z</time>
      </trkpt>
      <trkpt lat="47.29321" lon="-2.24764">
        <ele>81.400001525879</ele>
        <time>2022-03-20T09:41:37.000Z</time>
      </trkpt>
      <trkpt lat="47.29325" lon="-2.24782">
        <ele>81.400001525879</ele>
        <time>2022-03-20T09:41:40.000Z</time>
      </trkpt>
      <trkpt lat="47.29327" lon="-2.24789">
        <ele>81.400001525879</ele>
        <time>2022-03-20T09:41:41.000Z</time>
      </trkpt>
      <trkpt lat="47.29329" lon="-2.24802">
        <ele>81.400001525879</ele>
        <time>2022-03-20T09:41:43.000Z</time>
      </trkpt>
      <trkpt lat="47.29332" lon="-2.24829">
        <ele>81.400001525879</ele>
        <time>2022-03-20T09:41:47.000Z</time>
      </trkpt>
      <trkpt lat="47.29335" lon="-2.24863">
        <ele>81.400001525879</ele>
        <time>2022-03-20T09:41:52.000Z</time>
      </trkpt>
      <trkpt lat="47.29331" lon="-2.24912">
        <ele>81.400001525879</ele>
        <time>2022-03-20T09:41:59.000Z</time>
      </trkpt>
      <trkpt lat="47.29318" lon="-2.24916">
        <ele>81.400001525879</ele>
        <time>2022-03-20T09:42:02.000Z</time>
      </trkpt>
      <trkpt lat="47.29313" lon="-2.24916">
        <ele>81.400001525879</ele>
        <time>2022-03-20T09:42:03.000Z</time>
      </trkpt>
      <trkpt lat="47.29299" lon="-2.24918">
        <ele>81.800003051758</ele>
        <time>2022-03-20T09:42:06.000Z</time>
      </trkpt>
      <trkpt lat="47.29295" lon="-2.24918">
        <ele>82.199996948242</ele>
        <time>2022-03-20T09:42:07.000Z</time>
      </trkpt>
      <trkpt lat="47.2929" lon="-2.24918">
        <ele>82.599998474121</ele>
        <time>2022-03-20T09:42:08.000Z</time>
      </trkpt>
      <trkpt lat="47.29286" lon="-2.24919">
        <ele>83</ele>
        <time>2022-03-20T09:42:09.000Z</time>
      </trkpt>
      <trkpt lat="47.29281" lon="-2.24919">
        <ele>83.400001525879</ele>
        <time>2022-03-20T09:42:10.000Z</time>
      </trkpt>
      <trkpt lat="47.29261" lon="-2.24924">
        <ele>83.400001525879</ele>
        <time>2022-03-20T09:42:15.000Z</time>
      </trkpt>
      <trkpt lat="47.29257" lon="-2.24943">
        <ele>83.400001525879</ele>
        <time>2022-03-20T09:42:18.000Z</time>
      </trkpt>
      <trkpt lat="47.29261" lon="-2.24972">
        <ele>83.400001525879</ele>
        <time>2022-03-20T09:42:22.000Z</time>
      </trkpt>
      <trkpt lat="47.29271" lon="-2.25011">
        <ele>83.400001525879</ele>
        <time>2022-03-20T09:42:27.000Z</time>
      </trkpt>
      <trkpt lat="47.29287" lon="-2.25069">
        <ele>83.400001525879</ele>
        <time>2022-03-20T09:42:34.000Z</time>
      </trkpt>
      <trkpt lat="47.29294" lon="-2.25101">
        <ele>83.400001525879</ele>
        <time>2022-03-20T09:42:38.000Z</time>
      </trkpt>
      <trkpt lat="47.29296" lon="-2.25119">
        <ele>83.400001525879</ele>
        <time>2022-03-20T09:42:40.000Z</time>
      </trkpt>
      <trkpt lat="47.29298" lon="-2.25129">
        <ele>83</ele>
        <time>2022-03-20T09:42:41.000Z</time>
      </trkpt>
      <trkpt lat="47.29299" lon="-2.25139">
        <ele>82.599998474121</ele>
        <time>2022-03-20T09:42:42.000Z</time>
      </trkpt>
      <trkpt lat="47.29301" lon="-2.25149">
        <ele>82.199996948242</ele>
        <time>2022-03-20T09:42:43.000Z</time>
      </trkpt>
      <trkpt lat="47.29302" lon="-2.25159">
        <ele>81.800003051758</ele>
        <time>2022-03-20T09:42:44.000Z</time>
      </trkpt>
      <trkpt lat="47.29304" lon="-2.25168">
        <ele>81.400001525879</ele>
        <time>2022-03-20T09:42:45.000Z</time>
      </trkpt>
      <trkpt lat="47.29307" lon="-2.25187">
        <ele>81.400001525879</ele>
        <time>2022-03-20T09:42:47.000Z</time>
      </trkpt>
      <trkpt lat="47.29309" lon="-2.25195">
        <ele>81</ele>
        <time>2022-03-20T09:42:48.000Z</time>
      </trkpt>
      <trkpt lat="47.29313" lon="-2.252">
        <ele>80.599998474121</ele>
        <time>2022-03-20T09:42:49.000Z</time>
      </trkpt>
      <trkpt lat="47.29318" lon="-2.25199">
        <ele>80.199996948242</ele>
        <time>2022-03-20T09:42:50.000Z</time>
      </trkpt>
      <trkpt lat="47.29323" lon="-2.25197">
        <ele>79.800003051758</ele>
        <time>2022-03-20T09:42:51.000Z</time>
      </trkpt>
      <trkpt lat="47.29328" lon="-2.25196">
        <ele>79.400001525879</ele>
        <time>2022-03-20T09:42:52.000Z</time>
      </trkpt>
      <trkpt lat="47.29334" lon="-2.25195">
        <ele>79.400001525879</ele>
        <time>2022-03-20T09:42:53.000Z</time>
      </trkpt>
      <trkpt lat="47.29346" lon="-2.25196">
        <ele>79.400001525879</ele>
        <time>2022-03-20T09:42:55.000Z</time>
      </trkpt>
      <trkpt lat="47.29364" lon="-2.25201">
        <ele>79.400001525879</ele>
        <time>2022-03-20T09:42:58.000Z</time>
      </trkpt>
      <trkpt lat="47.294" lon="-2.25211">
        <ele>79.400001525879</ele>
        <time>2022-03-20T09:43:04.000Z</time>
      </trkpt>
      <trkpt lat="47.29412" lon="-2.25213">
        <ele>79.400001525879</ele>
        <time>2022-03-20T09:43:06.000Z</time>
      </trkpt>
      <trkpt lat="47.29429" lon="-2.25208">
        <ele>79.400001525879</ele>
        <time>2022-03-20T09:43:09.000Z</time>
      </trkpt>
      <trkpt lat="47.29435" lon="-2.25206">
        <ele>79.400001525879</ele>
        <time>2022-03-20T09:43:10.000Z</time>
      </trkpt>
      <trkpt lat="47.29463" lon="-2.25199">
        <ele>79.800003051758</ele>
        <time>2022-03-20T09:43:16.000Z</time>
      </trkpt>
      <trkpt lat="47.29468" lon="-2.25198">
        <ele>80.199996948242</ele>
        <time>2022-03-20T09:43:17.000Z</time>
      </trkpt>
      <trkpt lat="47.29472" lon="-2.25198">
        <ele>80.599998474121</ele>
        <time>2022-03-20T09:43:18.000Z</time>
      </trkpt>
      <trkpt lat="47.29476" lon="-2.25197">
        <ele>81</ele>
        <time>2022-03-20T09:43:19.000Z</time>
      </trkpt>
      <trkpt lat="47.2948" lon="-2.25196">
        <ele>81.400001525879</ele>
        <time>2022-03-20T09:43:20.000Z</time>
      </trkpt>
      <trkpt lat="47.29493" lon="-2.25192">
        <ele>81.400001525879</ele>
        <time>2022-03-20T09:43:23.000Z</time>
      </trkpt>
      <trkpt lat="47.29526" lon="-2.25179">
        <ele>81.400001525879</ele>
        <time>2022-03-20T09:43:31.000Z</time>
      </trkpt>
      <trkpt lat="47.29538" lon="-2.25177">
        <ele>81.800003051758</ele>
        <time>2022-03-20T09:43:34.000Z</time>
      </trkpt>
      <trkpt lat="47.29542" lon="-2.25178">
        <ele>82.199996948242</ele>
        <time>2022-03-20T09:43:35.000Z</time>
      </trkpt>
      <trkpt lat="47.29543" lon="-2.2518">
        <ele>82.599998474121</ele>
        <time>2022-03-20T09:43:36.000Z</time>
      </trkpt>
      <trkpt lat="47.29544" lon="-2.25183">
        <ele>83</ele>
        <time>2022-03-20T09:43:37.000Z</time>
      </trkpt>
      <trkpt lat="47.29544" lon="-2.25185">
        <ele>83.599998474121</ele>
        <time>2022-03-20T09:43:38.000Z</time>
      </trkpt>
      <trkpt lat="47.29546" lon="-2.25189">
        <ele>83.599998474121</ele>
        <time>2022-03-20T09:43:40.000Z</time>
      </trkpt>
      <trkpt lat="47.29545" lon="-2.2521">
        <ele>83.599998474121</ele>
        <time>2022-03-20T09:43:44.000Z</time>
      </trkpt>
      <trkpt lat="47.29542" lon="-2.25223">
        <ele>83.599998474121</ele>
        <time>2022-03-20T09:43:46.000Z</time>
      </trkpt>
      <trkpt lat="47.29539" lon="-2.25246">
        <ele>83.599998474121</ele>
        <time>2022-03-20T09:43:49.000Z</time>
      </trkpt>
      <trkpt lat="47.2954" lon="-2.25286">
        <ele>83.599998474121</ele>
        <time>2022-03-20T09:43:54.000Z</time>
      </trkpt>
      <trkpt lat="47.29542" lon="-2.25295">
        <ele>83.599998474121</ele>
        <time>2022-03-20T09:43:55.000Z</time>
      </trkpt>
      <trkpt lat="47.2955" lon="-2.25319">
        <ele>83.599998474121</ele>
        <time>2022-03-20T09:43:58.000Z</time>
      </trkpt>
      <trkpt lat="47.29557" lon="-2.25333">
        <ele>84</ele>
        <time>2022-03-20T09:44:00.000Z</time>
      </trkpt>
      <trkpt lat="47.29561" lon="-2.2534">
        <ele>84.400001525879</ele>
        <time>2022-03-20T09:44:01.000Z</time>
      </trkpt>
      <trkpt lat="47.29564" lon="-2.25347">
        <ele>84.800003051758</ele>
        <time>2022-03-20T09:44:02.000Z</time>
      </trkpt>
      <trkpt lat="47.29567" lon="-2.25354">
        <ele>85.199996948242</ele>
        <time>2022-03-20T09:44:03.000Z</time>
      </trkpt>
      <trkpt lat="47.2957" lon="-2.25361">
        <ele>85.599998474121</ele>
        <time>2022-03-20T09:44:04.000Z</time>
      </trkpt>
      <trkpt lat="47.29578" lon="-2.25383">
        <ele>85.599998474121</ele>
        <time>2022-03-20T09:44:07.000Z</time>
      </trkpt>
      <trkpt lat="47.29579" lon="-2.25391">
        <ele>85.599998474121</ele>
        <time>2022-03-20T09:44:08.000Z</time>
      </trkpt>
      <trkpt lat="47.29582" lon="-2.25406">
        <ele>85.599998474121</ele>
        <time>2022-03-20T09:44:10.000Z</time>
      </trkpt>
      <trkpt lat="47.29584" lon="-2.25431">
        <ele>85.599998474121</ele>
        <time>2022-03-20T09:44:13.000Z</time>
      </trkpt>
      <trkpt lat="47.29585" lon="-2.25439">
        <ele>86</ele>
        <time>2022-03-20T09:44:14.000Z</time>
      </trkpt>
      <trkpt lat="47.29585" lon="-2.25447">
        <ele>86.400001525879</ele>
        <time>2022-03-20T09:44:15.000Z</time>
      </trkpt>
      <trkpt lat="47.29586" lon="-2.25456">
        <ele>87.199996948242</ele>
        <time>2022-03-20T09:44:16.000Z</time>
      </trkpt>
      <trkpt lat="47.29587" lon="-2.25464">
        <ele>87.599998474121</ele>
        <time>2022-03-20T09:44:17.000Z</time>
      </trkpt>
      <trkpt lat="47.29587" lon="-2.2549">
        <ele>87.599998474121</ele>
        <time>2022-03-20T09:44:20.000Z</time>
      </trkpt>
      <trkpt lat="47.29586" lon="-2.25499">
        <ele>87.599998474121</ele>
        <time>2022-03-20T09:44:21.000Z</time>
      </trkpt>
      <trkpt lat="47.29577" lon="-2.25529">
        <ele>87.599998474121</ele>
        <time>2022-03-20T09:44:25.000Z</time>
      </trkpt>
      <trkpt lat="47.29558" lon="-2.2555">
        <ele>87.599998474121</ele>
        <time>2022-03-20T09:44:29.000Z</time>
      </trkpt>
      <trkpt lat="47.29548" lon="-2.25556">
        <ele>87.599998474121</ele>
        <time>2022-03-20T09:44:31.000Z</time>
      </trkpt>
      <trkpt lat="47.29538" lon="-2.25562">
        <ele>88</ele>
        <time>2022-03-20T09:44:33.000Z</time>
      </trkpt>
      <trkpt lat="47.29533" lon="-2.25566">
        <ele>88.599998474121</ele>
        <time>2022-03-20T09:44:34.000Z</time>
      </trkpt>
      <trkpt lat="47.29527" lon="-2.25568">
        <ele>89</ele>
        <time>2022-03-20T09:44:35.000Z</time>
      </trkpt>
      <trkpt lat="47.29522" lon="-2.25571">
        <ele>89.400001525879</ele>
        <time>2022-03-20T09:44:36.000Z</time>
      </trkpt>
      <trkpt lat="47.29517" lon="-2.25575">
        <ele>89.800003051758</ele>
        <time>2022-03-20T09:44:37.000Z</time>
      </trkpt>
      <trkpt lat="47.29492" lon="-2.25592">
        <ele>89.800003051758</ele>
        <time>2022-03-20T09:44:42.000Z</time>
      </trkpt>
      <trkpt lat="47.29475" lon="-2.25601">
        <ele>90.199996948242</ele>
        <time>2022-03-20T09:44:45.000Z</time>
      </trkpt>
      <trkpt lat="47.2947" lon="-2.25603">
        <ele>90.599998474121</ele>
        <time>2022-03-20T09:44:46.000Z</time>
      </trkpt>
      <trkpt lat="47.29465" lon="-2.25605">
        <ele>91</ele>
        <time>2022-03-20T09:44:47.000Z</time>
      </trkpt>
      <trkpt lat="47.29459" lon="-2.25607">
        <ele>91.400001525879</ele>
        <time>2022-03-20T09:44:48.000Z</time>
      </trkpt>
      <trkpt lat="47.29454" lon="-2.25609">
        <ele>91.800003051758</ele>
        <time>2022-03-20T09:44:49.000Z</time>
      </trkpt>
      <trkpt lat="47.29416" lon="-2.25624">
        <ele>91.800003051758</ele>
        <time>2022-03-20T09:44:57.000Z</time>
      </trkpt>
      <trkpt lat="47.29408" lon="-2.25629">
        <ele>91.800003051758</ele>
        <time>2022-03-20T09:44:59.000Z</time>
      </trkpt>
      <trkpt lat="47.29395" lon="-2.25637">
        <ele>91.800003051758</ele>
        <time>2022-03-20T09:45:03.000Z</time>
      </trkpt>
      <trkpt lat="47.2939" lon="-2.25642">
        <ele>91.800003051758</ele>
        <time>2022-03-20T09:45:05.000Z</time>
      </trkpt>
      <trkpt lat="47.2939" lon="-2.25646">
        <ele>91.800003051758</ele>
        <time>2022-03-20T09:45:07.000Z</time>
      </trkpt>
      <trkpt lat="47.29395" lon="-2.25655">
        <ele>91.800003051758</ele>
        <time>2022-03-20T09:45:12.000Z</time>
      </trkpt>
      <trkpt lat="47.29398" lon="-2.25656">
        <ele>91.800003051758</ele>
        <time>2022-03-20T09:45:13.000Z</time>
      </trkpt>
      <trkpt lat="47.29413" lon="-2.25668">
        <ele>91.800003051758</ele>
        <time>2022-03-20T09:45:17.000Z</time>
      </trkpt>
      <trkpt lat="47.29426" lon="-2.25692">
        <ele>91.800003051758</ele>
        <time>2022-03-20T09:45:21.000Z</time>
      </trkpt>
      <trkpt lat="47.29434" lon="-2.25715">
        <ele>91.400001525879</ele>
        <time>2022-03-20T09:45:24.000Z</time>
      </trkpt>
      <trkpt lat="47.29437" lon="-2.25723">
        <ele>91</ele>
        <time>2022-03-20T09:45:25.000Z</time>
      </trkpt>
      <trkpt lat="47.29439" lon="-2.25731">
        <ele>90.599998474121</ele>
        <time>2022-03-20T09:45:26.000Z</time>
      </trkpt>
      <trkpt lat="47.2944" lon="-2.25738">
        <ele>90.199996948242</ele>
        <time>2022-03-20T09:45:27.000Z</time>
      </trkpt>
      <trkpt lat="47.29443" lon="-2.25745">
        <ele>89.800003051758</ele>
        <time>2022-03-20T09:45:28.000Z</time>
      </trkpt>
      <trkpt lat="47.29445" lon="-2.25753">
        <ele>89.199996948242</ele>
        <time>2022-03-20T09:45:29.000Z</time>
      </trkpt>
      <trkpt lat="47.29446" lon="-2.25759">
        <ele>88.199996948242</ele>
        <time>2022-03-20T09:45:30.000Z</time>
      </trkpt>
      <trkpt lat="47.29448" lon="-2.25765">
        <ele>87.599998474121</ele>
        <time>2022-03-20T09:45:31.000Z</time>
      </trkpt>
      <trkpt lat="47.2945" lon="-2.25768">
        <ele>87.599998474121</ele>
        <time>2022-03-20T09:45:32.000Z</time>
      </trkpt>
      <trkpt lat="47.2945" lon="-2.25772">
        <ele>87.199996948242</ele>
        <time>2022-03-20T09:45:33.000Z</time>
      </trkpt>
      <trkpt lat="47.29449" lon="-2.25775">
        <ele>86.800003051758</ele>
        <time>2022-03-20T09:45:34.000Z</time>
      </trkpt>
      <trkpt lat="47.29448" lon="-2.25777">
        <ele>86.199996948242</ele>
        <time>2022-03-20T09:45:35.000Z</time>
      </trkpt>
      <trkpt lat="47.29448" lon="-2.25779">
        <ele>85.800003051758</ele>
        <time>2022-03-20T09:45:36.000Z</time>
      </trkpt>
      <trkpt lat="47.29447" lon="-2.2578">
        <ele>85.199996948242</ele>
        <time>2022-03-20T09:45:37.000Z</time>
      </trkpt>
      <trkpt lat="47.29445" lon="-2.2578">
        <ele>85.199996948242</ele>
        <time>2022-03-20T09:45:38.000Z</time>
      </trkpt>
      <trkpt lat="47.29441" lon="-2.25781">
        <ele>85.199996948242</ele>
        <time>2022-03-20T09:45:40.000Z</time>
      </trkpt>
      <trkpt lat="47.29428" lon="-2.25777">
        <ele>85.199996948242</ele>
        <time>2022-03-20T09:45:44.000Z</time>
      </trkpt>
      <trkpt lat="47.29421" lon="-2.25771">
        <ele>85.199996948242</ele>
        <time>2022-03-20T09:45:47.000Z</time>
      </trkpt>
      <trkpt lat="47.29417" lon="-2.25766">
        <ele>85.199996948242</ele>
        <time>2022-03-20T09:45:49.000Z</time>
      </trkpt>
      <trkpt lat="47.29412" lon="-2.25762">
        <ele>85.800003051758</ele>
        <time>2022-03-20T09:45:52.000Z</time>
      </trkpt>
      <trkpt lat="47.2941" lon="-2.25762">
        <ele>86.199996948242</ele>
        <time>2022-03-20T09:45:53.000Z</time>
      </trkpt>
      <trkpt lat="47.29408" lon="-2.25762">
        <ele>87</ele>
        <time>2022-03-20T09:45:54.000Z</time>
      </trkpt>
      <trkpt lat="47.29405" lon="-2.2576">
        <ele>87.400001525879</ele>
        <time>2022-03-20T09:45:55.000Z</time>
      </trkpt>
      <trkpt lat="47.29398" lon="-2.25756">
        <ele>87.400001525879</ele>
        <time>2022-03-20T09:45:58.000Z</time>
      </trkpt>
      <trkpt lat="47.29395" lon="-2.25757">
        <ele>87.400001525879</ele>
        <time>2022-03-20T09:46:00.000Z</time>
      </trkpt>
      <trkpt lat="47.29388" lon="-2.25764">
        <ele>87.400001525879</ele>
        <time>2022-03-20T09:46:03.000Z</time>
      </trkpt>
      <trkpt lat="47.29386" lon="-2.25765">
        <ele>87.400001525879</ele>
        <time>2022-03-20T09:46:04.000Z</time>
      </trkpt>
      <trkpt lat="47.29375" lon="-2.25776">
        <ele>87.400001525879</ele>
        <time>2022-03-20T09:46:10.000Z</time>
      </trkpt>
      <trkpt lat="47.29369" lon="-2.25792">
        <ele>87.400001525879</ele>
        <time>2022-03-20T09:46:15.000Z</time>
      </trkpt>
      <trkpt lat="47.29374" lon="-2.25807">
        <ele>87.400001525879</ele>
        <time>2022-03-20T09:46:20.000Z</time>
      </trkpt>
      <trkpt lat="47.29374" lon="-2.25813">
        <ele>87.400001525879</ele>
        <time>2022-03-20T09:46:22.000Z</time>
      </trkpt>
      <trkpt lat="47.2937" lon="-2.25823">
        <ele>87.400001525879</ele>
        <time>2022-03-20T09:46:24.000Z</time>
      </trkpt>
      <trkpt lat="47.29366" lon="-2.25833">
        <ele>87.400001525879</ele>
        <time>2022-03-20T09:46:27.000Z</time>
      </trkpt>
      <trkpt lat="47.29366" lon="-2.25839">
        <ele>87.400001525879</ele>
        <time>2022-03-20T09:46:29.000Z</time>
      </trkpt>
      <trkpt lat="47.29368" lon="-2.25852">
        <ele>87.400001525879</ele>
        <time>2022-03-20T09:46:33.000Z</time>
      </trkpt>
      <trkpt lat="47.29366" lon="-2.25855">
        <ele>87.400001525879</ele>
        <time>2022-03-20T09:46:34.000Z</time>
      </trkpt>
      <trkpt lat="47.29365" lon="-2.25856">
        <ele>87.400001525879</ele>
        <time>2022-03-20T09:46:35.000Z</time>
      </trkpt>
      <trkpt lat="47.2936" lon="-2.25864">
        <ele>87.400001525879</ele>
        <time>2022-03-20T09:46:40.000Z</time>
      </trkpt>
      <trkpt lat="47.29349" lon="-2.25875">
        <ele>87.400001525879</ele>
        <time>2022-03-20T09:46:46.000Z</time>
      </trkpt>
      <trkpt lat="47.29345" lon="-2.25876">
        <ele>87.400001525879</ele>
        <time>2022-03-20T09:46:48.000Z</time>
      </trkpt>
      <trkpt lat="47.2934" lon="-2.25873">
        <ele>87.400001525879</ele>
        <time>2022-03-20T09:46:51.000Z</time>
      </trkpt>
      <trkpt lat="47.29336" lon="-2.25868">
        <ele>87.800003051758</ele>
        <time>2022-03-20T09:46:54.000Z</time>
      </trkpt>
      <trkpt lat="47.29335" lon="-2.25865">
        <ele>88.400001525879</ele>
        <time>2022-03-20T09:46:55.000Z</time>
      </trkpt>
      <trkpt lat="47.29334" lon="-2.25861">
        <ele>88.800003051758</ele>
        <time>2022-03-20T09:46:56.000Z</time>
      </trkpt>
      <trkpt lat="47.29333" lon="-2.25858">
        <ele>89.199996948242</ele>
        <time>2022-03-20T09:46:57.000Z</time>
      </trkpt>
      <trkpt lat="47.29333" lon="-2.25854">
        <ele>89.599998474121</ele>
        <time>2022-03-20T09:46:58.000Z</time>
      </trkpt>
      <trkpt lat="47.29331" lon="-2.25845">
        <ele>89.599998474121</ele>
        <time>2022-03-20T09:47:01.000Z</time>
      </trkpt>
      <trkpt lat="47.29327" lon="-2.25842">
        <ele>89.599998474121</ele>
        <time>2022-03-20T09:47:05.000Z</time>
      </trkpt>
      <trkpt lat="47.29326" lon="-2.25845">
        <ele>89.599998474121</ele>
        <time>2022-03-20T09:47:06.000Z</time>
      </trkpt>
      <trkpt lat="47.29321" lon="-2.25858">
        <ele>89.599998474121</ele>
        <time>2022-03-20T09:47:09.000Z</time>
      </trkpt>
      <trkpt lat="47.29321" lon="-2.25862">
        <ele>89.599998474121</ele>
        <time>2022-03-20T09:47:10.000Z</time>
      </trkpt>
      <trkpt lat="47.29323" lon="-2.2588">
        <ele>89.599998474121</ele>
        <time>2022-03-20T09:47:15.000Z</time>
      </trkpt>
      <trkpt lat="47.29322" lon="-2.25884">
        <ele>89.599998474121</ele>
        <time>2022-03-20T09:47:16.000Z</time>
      </trkpt>
      <trkpt lat="47.2932" lon="-2.25897">
        <ele>89.599998474121</ele>
        <time>2022-03-20T09:47:19.000Z</time>
      </trkpt>
      <trkpt lat="47.29316" lon="-2.25911">
        <ele>89.599998474121</ele>
        <time>2022-03-20T09:47:23.000Z</time>
      </trkpt>
      <trkpt lat="47.29315" lon="-2.25912">
        <ele>89.599998474121</ele>
        <time>2022-03-20T09:47:24.000Z</time>
      </trkpt>
      <trkpt lat="47.29304" lon="-2.25921">
        <ele>89.599998474121</ele>
        <time>2022-03-20T09:47:29.000Z</time>
      </trkpt>
      <trkpt lat="47.293" lon="-2.25925">
        <ele>89.599998474121</ele>
        <time>2022-03-20T09:47:31.000Z</time>
      </trkpt>
      <trkpt lat="47.29295" lon="-2.25932">
        <ele>89.599998474121</ele>
        <time>2022-03-20T09:47:34.000Z</time>
      </trkpt>
      <trkpt lat="47.29294" lon="-2.25937">
        <ele>89.599998474121</ele>
        <time>2022-03-20T09:47:35.000Z</time>
      </trkpt>
      <trkpt lat="47.29298" lon="-2.25961">
        <ele>89.599998474121</ele>
        <time>2022-03-20T09:47:40.000Z</time>
      </trkpt>
      <trkpt lat="47.2929" lon="-2.25977">
        <ele>89.599998474121</ele>
        <time>2022-03-20T09:47:44.000Z</time>
      </trkpt>
      <trkpt lat="47.29277" lon="-2.25987">
        <ele>89.599998474121</ele>
        <time>2022-03-20T09:47:50.000Z</time>
      </trkpt>
      <trkpt lat="47.29265" lon="-2.25983">
        <ele>89.599998474121</ele>
        <time>2022-03-20T09:47:56.000Z</time>
      </trkpt>
      <trkpt lat="47.29264" lon="-2.25984">
        <ele>89.599998474121</ele>
        <time>2022-03-20T09:47:57.000Z</time>
      </trkpt>
      <trkpt lat="47.29259" lon="-2.2599">
        <ele>90.400001525879</ele>
        <time>2022-03-20T09:47:59.000Z</time>
      </trkpt>
      <trkpt lat="47.29256" lon="-2.25991">
        <ele>90.800003051758</ele>
        <time>2022-03-20T09:48:00.000Z</time>
      </trkpt>
      <trkpt lat="47.29254" lon="-2.25993">
        <ele>91.199996948242</ele>
        <time>2022-03-20T09:48:01.000Z</time>
      </trkpt>
      <trkpt lat="47.29251" lon="-2.25995">
        <ele>91.599998474121</ele>
        <time>2022-03-20T09:48:02.000Z</time>
      </trkpt>
      <trkpt lat="47.2925" lon="-2.26">
        <ele>91.599998474121</ele>
        <time>2022-03-20T09:48:04.000Z</time>
      </trkpt>
      <trkpt lat="47.29249" lon="-2.26007">
        <ele>91.599998474121</ele>
        <time>2022-03-20T09:48:07.000Z</time>
      </trkpt>
      <trkpt lat="47.29252" lon="-2.26013">
        <ele>91.599998474121</ele>
        <time>2022-03-20T09:48:10.000Z</time>
      </trkpt>
      <trkpt lat="47.29254" lon="-2.2602">
        <ele>91.599998474121</ele>
        <time>2022-03-20T09:48:13.000Z</time>
      </trkpt>
      <trkpt lat="47.29254" lon="-2.26025">
        <ele>91.599998474121</ele>
        <time>2022-03-20T09:48:15.000Z</time>
      </trkpt>
      <trkpt lat="47.29254" lon="-2.26028">
        <ele>91.599998474121</ele>
        <time>2022-03-20T09:48:17.000Z</time>
      </trkpt>
      <trkpt lat="47.2925" lon="-2.26036">
        <ele>91.599998474121</ele>
        <time>2022-03-20T09:48:20.000Z</time>
      </trkpt>
      <trkpt lat="47.2925" lon="-2.2604">
        <ele>91.599998474121</ele>
        <time>2022-03-20T09:48:21.000Z</time>
      </trkpt>
      <trkpt lat="47.29242" lon="-2.26056">
        <ele>91.599998474121</ele>
        <time>2022-03-20T09:48:26.000Z</time>
      </trkpt>
      <trkpt lat="47.2924" lon="-2.26059">
        <ele>92</ele>
        <time>2022-03-20T09:48:27.000Z</time>
      </trkpt>
      <trkpt lat="47.29238" lon="-2.26061">
        <ele>92.400001525879</ele>
        <time>2022-03-20T09:48:28.000Z</time>
      </trkpt>
      <trkpt lat="47.29237" lon="-2.26063">
        <ele>93</ele>
        <time>2022-03-20T09:48:29.000Z</time>
      </trkpt>
      <trkpt lat="47.29236" lon="-2.26064">
        <ele>93.400001525879</ele>
        <time>2022-03-20T09:48:30.000Z</time>
      </trkpt>
      <trkpt lat="47.29236" lon="-2.26065">
        <ele>93.800003051758</ele>
        <time>2022-03-20T09:48:31.000Z</time>
      </trkpt>
      <trkpt lat="47.29236" lon="-2.26066">
        <ele>93.800003051758</ele>
        <time>2022-03-20T09:48:32.000Z</time>
      </trkpt>
      <trkpt lat="47.29239" lon="-2.26068">
        <ele>93.800003051758</ele>
        <time>2022-03-20T09:48:33.000Z</time>
      </trkpt>
      <trkpt lat="47.29245" lon="-2.26069">
        <ele>93.800003051758</ele>
        <time>2022-03-20T09:48:35.000Z</time>
      </trkpt>
      <trkpt lat="47.29263" lon="-2.26065">
        <ele>93.800003051758</ele>
        <time>2022-03-20T09:48:40.000Z</time>
      </trkpt>
      <trkpt lat="47.2928" lon="-2.26062">
        <ele>93.800003051758</ele>
        <time>2022-03-20T09:48:44.000Z</time>
      </trkpt>
      <trkpt lat="47.29285" lon="-2.26066">
        <ele>93.800003051758</ele>
        <time>2022-03-20T09:48:45.000Z</time>
      </trkpt>
      <trkpt lat="47.293" lon="-2.26088">
        <ele>93.800003051758</ele>
        <time>2022-03-20T09:48:49.000Z</time>
      </trkpt>
      <trkpt lat="47.29301" lon="-2.26093">
        <ele>93.800003051758</ele>
        <time>2022-03-20T09:48:51.000Z</time>
      </trkpt>
      <trkpt lat="47.29301" lon="-2.26094">
        <ele>93.800003051758</ele>
        <time>2022-03-20T09:48:53.000Z</time>
      </trkpt>
      <trkpt lat="47.29299" lon="-2.26098">
        <ele>93.800003051758</ele>
        <time>2022-03-20T09:48:58.000Z</time>
      </trkpt>
      <trkpt lat="47.29299" lon="-2.26094">
        <ele>93.800003051758</ele>
        <time>2022-03-20T09:49:23.000Z</time>
      </trkpt>
      <trkpt lat="47.29299" lon="-2.26091">
        <ele>93.800003051758</ele>
        <time>2022-03-20T09:49:24.000Z</time>
      </trkpt>
      <trkpt lat="47.29298" lon="-2.26077">
        <ele>93.800003051758</ele>
        <time>2022-03-20T09:49:29.000Z</time>
      </trkpt>
      <trkpt lat="47.29303" lon="-2.2607">
        <ele>93.800003051758</ele>
        <time>2022-03-20T09:49:34.000Z</time>
      </trkpt>
      <trkpt lat="47.29308" lon="-2.26073">
        <ele>91.599998474121</ele>
        <time>2022-03-20T09:49:39.000Z</time>
      </trkpt>
      <trkpt lat="47.2931" lon="-2.26077">
        <ele>91.599998474121</ele>
        <time>2022-03-20T09:49:42.000Z</time>
      </trkpt>
      <trkpt lat="47.29313" lon="-2.26082">
        <ele>91.599998474121</ele>
        <time>2022-03-20T09:49:47.000Z</time>
      </trkpt>
      <trkpt lat="47.29315" lon="-2.26088">
        <ele>91.599998474121</ele>
        <time>2022-03-20T09:51:15.000Z</time>
      </trkpt>
      <trkpt lat="47.29317" lon="-2.26091">
        <ele>91.599998474121</ele>
        <time>2022-03-20T09:51:16.000Z</time>
      </trkpt>
      <trkpt lat="47.2933" lon="-2.26114">
        <ele>91.599998474121</ele>
        <time>2022-03-20T09:51:22.000Z</time>
      </trkpt>
      <trkpt lat="47.29338" lon="-2.26125">
        <ele>91.599998474121</ele>
        <time>2022-03-20T09:51:26.000Z</time>
      </trkpt>
      <trkpt lat="47.2934" lon="-2.26131">
        <ele>91.599998474121</ele>
        <time>2022-03-20T09:51:27.000Z</time>
      </trkpt>
      <trkpt lat="47.29342" lon="-2.2614">
        <ele>91.599998474121</ele>
        <time>2022-03-20T09:51:29.000Z</time>
      </trkpt>
      <trkpt lat="47.29341" lon="-2.26146">
        <ele>91.599998474121</ele>
        <time>2022-03-20T09:51:31.000Z</time>
      </trkpt>
      <trkpt lat="47.29338" lon="-2.26154">
        <ele>91.599998474121</ele>
        <time>2022-03-20T09:51:36.000Z</time>
      </trkpt>
      <trkpt lat="47.29333" lon="-2.26158">
        <ele>91.599998474121</ele>
        <time>2022-03-20T09:51:41.000Z</time>
      </trkpt>
      <trkpt lat="47.29325" lon="-2.26163">
        <ele>91.599998474121</ele>
        <time>2022-03-20T09:51:46.000Z</time>
      </trkpt>
      <trkpt lat="47.29322" lon="-2.26164">
        <ele>91.599998474121</ele>
        <time>2022-03-20T09:51:47.000Z</time>
      </trkpt>
      <trkpt lat="47.29314" lon="-2.26169">
        <ele>92</ele>
        <time>2022-03-20T09:51:53.000Z</time>
      </trkpt>
      <trkpt lat="47.29314" lon="-2.26171">
        <ele>92.400001525879</ele>
        <time>2022-03-20T09:51:54.000Z</time>
      </trkpt>
      <trkpt lat="47.29313" lon="-2.26173">
        <ele>93</ele>
        <time>2022-03-20T09:51:55.000Z</time>
      </trkpt>
      <trkpt lat="47.29313" lon="-2.26177">
        <ele>93.400001525879</ele>
        <time>2022-03-20T09:51:56.000Z</time>
      </trkpt>
      <trkpt lat="47.29313" lon="-2.2618">
        <ele>93.800003051758</ele>
        <time>2022-03-20T09:51:57.000Z</time>
      </trkpt>
      <trkpt lat="47.29305" lon="-2.2618">
        <ele>93.800003051758</ele>
        <time>2022-03-20T09:52:01.000Z</time>
      </trkpt>
      <trkpt lat="47.29294" lon="-2.26182">
        <ele>93.800003051758</ele>
        <time>2022-03-20T09:52:04.000Z</time>
      </trkpt>
      <trkpt lat="47.2929" lon="-2.26181">
        <ele>93.800003051758</ele>
        <time>2022-03-20T09:52:05.000Z</time>
      </trkpt>
      <trkpt lat="47.29274" lon="-2.2618">
        <ele>93.800003051758</ele>
        <time>2022-03-20T09:52:10.000Z</time>
      </trkpt>
      <trkpt lat="47.29265" lon="-2.26178">
        <ele>93.800003051758</ele>
        <time>2022-03-20T09:52:14.000Z</time>
      </trkpt>
      <trkpt lat="47.29264" lon="-2.26176">
        <ele>93.800003051758</ele>
        <time>2022-03-20T09:52:15.000Z</time>
      </trkpt>
      <trkpt lat="47.29261" lon="-2.26165">
        <ele>93.800003051758</ele>
        <time>2022-03-20T09:52:19.000Z</time>
      </trkpt>
      <trkpt lat="47.2926" lon="-2.26162">
        <ele>93.800003051758</ele>
        <time>2022-03-20T09:52:20.000Z</time>
      </trkpt>
      <trkpt lat="47.29253" lon="-2.26135">
        <ele>93.800003051758</ele>
        <time>2022-03-20T09:52:27.000Z</time>
      </trkpt>
      <trkpt lat="47.2924" lon="-2.26108">
        <ele>93.800003051758</ele>
        <time>2022-03-20T09:52:33.000Z</time>
      </trkpt>
      <trkpt lat="47.29224" lon="-2.2608">
        <ele>93.800003051758</ele>
        <time>2022-03-20T09:52:39.000Z</time>
      </trkpt>
      <trkpt lat="47.29214" lon="-2.26065">
        <ele>93.800003051758</ele>
        <time>2022-03-20T09:52:42.000Z</time>
      </trkpt>
      <trkpt lat="47.29199" lon="-2.26045">
        <ele>93.800003051758</ele>
        <time>2022-03-20T09:52:45.000Z</time>
      </trkpt>
      <trkpt lat="47.29188" lon="-2.26023">
        <ele>93.800003051758</ele>
        <time>2022-03-20T09:52:50.000Z</time>
      </trkpt>
      <trkpt lat="47.29188" lon="-2.2602">
        <ele>93.800003051758</ele>
        <time>2022-03-20T09:52:51.000Z</time>
      </trkpt>
      <trkpt lat="47.29191" lon="-2.26017">
        <ele>93.800003051758</ele>
        <time>2022-03-20T09:52:53.000Z</time>
      </trkpt>
      <trkpt lat="47.29195" lon="-2.26007">
        <ele>93.800003051758</ele>
        <time>2022-03-20T09:52:58.000Z</time>
      </trkpt>
      <trkpt lat="47.29206" lon="-2.25998">
        <ele>93.800003051758</ele>
        <time>2022-03-20T09:53:02.000Z</time>
      </trkpt>
      <trkpt lat="47.2921" lon="-2.25997">
        <ele>93.800003051758</ele>
        <time>2022-03-20T09:53:03.000Z</time>
      </trkpt>
      <trkpt lat="47.29229" lon="-2.25983">
        <ele>93.800003051758</ele>
        <time>2022-03-20T09:53:08.000Z</time>
      </trkpt>
      <trkpt lat="47.29235" lon="-2.25981">
        <ele>93.800003051758</ele>
        <time>2022-03-20T09:53:10.000Z</time>
      </trkpt>
      <trkpt lat="47.29238" lon="-2.25982">
        <ele>93.800003051758</ele>
        <time>2022-03-20T09:53:11.000Z</time>
      </trkpt>
      <trkpt lat="47.29245" lon="-2.25983">
        <ele>93.800003051758</ele>
        <time>2022-03-20T09:53:14.000Z</time>
      </trkpt>
      <trkpt lat="47.2925" lon="-2.25983">
        <ele>93.800003051758</ele>
        <time>2022-03-20T09:53:17.000Z</time>
      </trkpt>
      <trkpt lat="47.29254" lon="-2.25981">
        <ele>93.400001525879</ele>
        <time>2022-03-20T09:53:19.000Z</time>
      </trkpt>
      <trkpt lat="47.29258" lon="-2.25979">
        <ele>93</ele>
        <time>2022-03-20T09:53:20.000Z</time>
      </trkpt>
      <trkpt lat="47.29262" lon="-2.25978">
        <ele>92.599998474121</ele>
        <time>2022-03-20T09:53:21.000Z</time>
      </trkpt>
      <trkpt lat="47.29266" lon="-2.25978">
        <ele>92.199996948242</ele>
        <time>2022-03-20T09:53:22.000Z</time>
      </trkpt>
      <trkpt lat="47.29273" lon="-2.25978">
        <ele>91.800003051758</ele>
        <time>2022-03-20T09:53:23.000Z</time>
      </trkpt>
      <trkpt lat="47.29285" lon="-2.25975">
        <ele>91.800003051758</ele>
        <time>2022-03-20T09:53:25.000Z</time>
      </trkpt>
      <trkpt lat="47.29291" lon="-2.25974">
        <ele>91.800003051758</ele>
        <time>2022-03-20T09:53:26.000Z</time>
      </trkpt>
      <trkpt lat="47.29297" lon="-2.25974">
        <ele>91.800003051758</ele>
        <time>2022-03-20T09:53:27.000Z</time>
      </trkpt>
      <trkpt lat="47.29307" lon="-2.25977">
        <ele>91.800003051758</ele>
        <time>2022-03-20T09:53:29.000Z</time>
      </trkpt>
      <trkpt lat="47.29313" lon="-2.25979">
        <ele>91.800003051758</ele>
        <time>2022-03-20T09:53:30.000Z</time>
      </trkpt>
      <trkpt lat="47.29334" lon="-2.25974">
        <ele>91.800003051758</ele>
        <time>2022-03-20T09:53:33.000Z</time>
      </trkpt>
      <trkpt lat="47.29344" lon="-2.25965">
        <ele>91.800003051758</ele>
        <time>2022-03-20T09:53:35.000Z</time>
      </trkpt>
      <trkpt lat="47.2935" lon="-2.25955">
        <ele>91.800003051758</ele>
        <time>2022-03-20T09:53:37.000Z</time>
      </trkpt>
      <trkpt lat="47.29356" lon="-2.25941">
        <ele>91.800003051758</ele>
        <time>2022-03-20T09:53:41.000Z</time>
      </trkpt>
      <trkpt lat="47.29359" lon="-2.25942">
        <ele>91.400001525879</ele>
        <time>2022-03-20T09:53:42.000Z</time>
      </trkpt>
      <trkpt lat="47.29362" lon="-2.25944">
        <ele>91</ele>
        <time>2022-03-20T09:53:43.000Z</time>
      </trkpt>
      <trkpt lat="47.29367" lon="-2.25947">
        <ele>90.599998474121</ele>
        <time>2022-03-20T09:53:44.000Z</time>
      </trkpt>
      <trkpt lat="47.29371" lon="-2.25948">
        <ele>90.199996948242</ele>
        <time>2022-03-20T09:53:45.000Z</time>
      </trkpt>
      <trkpt lat="47.29376" lon="-2.25949">
        <ele>89.800003051758</ele>
        <time>2022-03-20T09:53:46.000Z</time>
      </trkpt>
      <trkpt lat="47.29394" lon="-2.25955">
        <ele>89.800003051758</ele>
        <time>2022-03-20T09:53:51.000Z</time>
      </trkpt>
      <trkpt lat="47.29401" lon="-2.25956">
        <ele>89.400001525879</ele>
        <time>2022-03-20T09:53:53.000Z</time>
      </trkpt>
      <trkpt lat="47.29404" lon="-2.25956">
        <ele>88.800003051758</ele>
        <time>2022-03-20T09:53:54.000Z</time>
      </trkpt>
      <trkpt lat="47.29407" lon="-2.25954">
        <ele>88.400001525879</ele>
        <time>2022-03-20T09:53:55.000Z</time>
      </trkpt>
      <trkpt lat="47.29411" lon="-2.25951">
        <ele>88</ele>
        <time>2022-03-20T09:53:56.000Z</time>
      </trkpt>
      <trkpt lat="47.29415" lon="-2.25948">
        <ele>87.599998474121</ele>
        <time>2022-03-20T09:53:57.000Z</time>
      </trkpt>
      <trkpt lat="47.2943" lon="-2.25939">
        <ele>87.599998474121</ele>
        <time>2022-03-20T09:54:00.000Z</time>
      </trkpt>
      <trkpt lat="47.29437" lon="-2.25931">
        <ele>87.599998474121</ele>
        <time>2022-03-20T09:54:02.000Z</time>
      </trkpt>
      <trkpt lat="47.29439" lon="-2.25927">
        <ele>87.599998474121</ele>
        <time>2022-03-20T09:54:03.000Z</time>
      </trkpt>
      <trkpt lat="47.29437" lon="-2.25911">
        <ele>87.599998474121</ele>
        <time>2022-03-20T09:54:07.000Z</time>
      </trkpt>
      <trkpt lat="47.29435" lon="-2.25901">
        <ele>87.599998474121</ele>
        <time>2022-03-20T09:54:09.000Z</time>
      </trkpt>
      <trkpt lat="47.29432" lon="-2.25883">
        <ele>87.599998474121</ele>
        <time>2022-03-20T09:54:13.000Z</time>
      </trkpt>
      <trkpt lat="47.29423" lon="-2.25867">
        <ele>87.599998474121</ele>
        <time>2022-03-20T09:54:17.000Z</time>
      </trkpt>
      <trkpt lat="47.2942" lon="-2.25867">
        <ele>87.599998474121</ele>
        <time>2022-03-20T09:54:18.000Z</time>
      </trkpt>
      <trkpt lat="47.29409" lon="-2.25867">
        <ele>87.599998474121</ele>
        <time>2022-03-20T09:54:21.000Z</time>
      </trkpt>
      <trkpt lat="47.29405" lon="-2.25866">
        <ele>88</ele>
        <time>2022-03-20T09:54:22.000Z</time>
      </trkpt>
      <trkpt lat="47.29401" lon="-2.25865">
        <ele>88.400001525879</ele>
        <time>2022-03-20T09:54:23.000Z</time>
      </trkpt>
      <trkpt lat="47.29398" lon="-2.25866">
        <ele>88.800003051758</ele>
        <time>2022-03-20T09:54:24.000Z</time>
      </trkpt>
      <trkpt lat="47.29394" lon="-2.25868">
        <ele>89.199996948242</ele>
        <time>2022-03-20T09:54:25.000Z</time>
      </trkpt>
      <trkpt lat="47.29391" lon="-2.25872">
        <ele>89.599998474121</ele>
        <time>2022-03-20T09:54:26.000Z</time>
      </trkpt>
      <trkpt lat="47.29381" lon="-2.25874">
        <ele>89.599998474121</ele>
        <time>2022-03-20T09:54:29.000Z</time>
      </trkpt>
      <trkpt lat="47.29368" lon="-2.25869">
        <ele>89.599998474121</ele>
        <time>2022-03-20T09:54:34.000Z</time>
      </trkpt>
      <trkpt lat="47.29367" lon="-2.25867">
        <ele>89.599998474121</ele>
        <time>2022-03-20T09:54:37.000Z</time>
      </trkpt>
      <trkpt lat="47.29364" lon="-2.2586">
        <ele>89.599998474121</ele>
        <time>2022-03-20T09:55:00.000Z</time>
      </trkpt>
      <trkpt lat="47.29363" lon="-2.25859">
        <ele>89.599998474121</ele>
        <time>2022-03-20T09:55:01.000Z</time>
      </trkpt>
      <trkpt lat="47.29362" lon="-2.25851">
        <ele>89.599998474121</ele>
        <time>2022-03-20T09:55:04.000Z</time>
      </trkpt>
      <trkpt lat="47.29362" lon="-2.25844">
        <ele>89.599998474121</ele>
        <time>2022-03-20T09:55:06.000Z</time>
      </trkpt>
      <trkpt lat="47.29356" lon="-2.25833">
        <ele>89.599998474121</ele>
        <time>2022-03-20T09:55:12.000Z</time>
      </trkpt>
      <trkpt lat="47.29347" lon="-2.25827">
        <ele>89.599998474121</ele>
        <time>2022-03-20T09:55:18.000Z</time>
      </trkpt>
      <trkpt lat="47.2934" lon="-2.25818">
        <ele>90</ele>
        <time>2022-03-20T09:55:24.000Z</time>
      </trkpt>
      <trkpt lat="47.29339" lon="-2.25816">
        <ele>90.599998474121</ele>
        <time>2022-03-20T09:55:25.000Z</time>
      </trkpt>
      <trkpt lat="47.29338" lon="-2.25815">
        <ele>91</ele>
        <time>2022-03-20T09:55:26.000Z</time>
      </trkpt>
      <trkpt lat="47.29337" lon="-2.25815">
        <ele>91.400001525879</ele>
        <time>2022-03-20T09:55:27.000Z</time>
      </trkpt>
      <trkpt lat="47.2933" lon="-2.25795">
        <ele>91.800003051758</ele>
        <time>2022-03-20T09:56:27.000Z</time>
      </trkpt>
      <trkpt lat="47.29327" lon="-2.25799">
        <ele>91.800003051758</ele>
        <time>2022-03-20T09:56:29.000Z</time>
      </trkpt>
      <trkpt lat="47.29324" lon="-2.25801">
        <ele>91.800003051758</ele>
        <time>2022-03-20T09:56:34.000Z</time>
      </trkpt>
      <trkpt lat="47.29319" lon="-2.25794">
        <ele>91.800003051758</ele>
        <time>2022-03-20T09:56:58.000Z</time>
      </trkpt>
      <trkpt lat="47.29308" lon="-2.25807">
        <ele>91.800003051758</ele>
        <time>2022-03-20T09:57:04.000Z</time>
      </trkpt>
      <trkpt lat="47.29287" lon="-2.25825">
        <ele>92.199996948242</ele>
        <time>2022-03-20T09:57:11.000Z</time>
      </trkpt>
      <trkpt lat="47.29284" lon="-2.25828">
        <ele>92.599998474121</ele>
        <time>2022-03-20T09:57:12.000Z</time>
      </trkpt>
      <trkpt lat="47.2928" lon="-2.2583">
        <ele>93</ele>
        <time>2022-03-20T09:57:13.000Z</time>
      </trkpt>
      <trkpt lat="47.29277" lon="-2.25833">
        <ele>93.400001525879</ele>
        <time>2022-03-20T09:57:14.000Z</time>
      </trkpt>
      <trkpt lat="47.29274" lon="-2.25836">
        <ele>93.800003051758</ele>
        <time>2022-03-20T09:57:15.000Z</time>
      </trkpt>
      <trkpt lat="47.29271" lon="-2.25842">
        <ele>93.800003051758</ele>
        <time>2022-03-20T09:57:17.000Z</time>
      </trkpt>
      <trkpt lat="47.2927" lon="-2.25849">
        <ele>93.800003051758</ele>
        <time>2022-03-20T09:57:20.000Z</time>
      </trkpt>
      <trkpt lat="47.29272" lon="-2.25853">
        <ele>93.800003051758</ele>
        <time>2022-03-20T09:57:22.000Z</time>
      </trkpt>
      <trkpt lat="47.29277" lon="-2.25869">
        <ele>93.800003051758</ele>
        <time>2022-03-20T09:57:26.000Z</time>
      </trkpt>
      <trkpt lat="47.29278" lon="-2.25875">
        <ele>93.800003051758</ele>
        <time>2022-03-20T09:57:27.000Z</time>
      </trkpt>
      <trkpt lat="47.29289" lon="-2.25917">
        <ele>93.400001525879</ele>
        <time>2022-03-20T09:57:34.000Z</time>
      </trkpt>
      <trkpt lat="47.2929" lon="-2.25923">
        <ele>93</ele>
        <time>2022-03-20T09:57:35.000Z</time>
      </trkpt>
      <trkpt lat="47.29291" lon="-2.25929">
        <ele>92.599998474121</ele>
        <time>2022-03-20T09:57:36.000Z</time>
      </trkpt>
      <trkpt lat="47.29293" lon="-2.25937">
        <ele>92.199996948242</ele>
        <time>2022-03-20T09:57:37.000Z</time>
      </trkpt>
      <trkpt lat="47.29295" lon="-2.25943">
        <ele>91.800003051758</ele>
        <time>2022-03-20T09:57:38.000Z</time>
      </trkpt>
      <trkpt lat="47.29299" lon="-2.25956">
        <ele>91.800003051758</ele>
        <time>2022-03-20T09:57:40.000Z</time>
      </trkpt>
      <trkpt lat="47.29304" lon="-2.25984">
        <ele>91.800003051758</ele>
        <time>2022-03-20T09:57:45.000Z</time>
      </trkpt>
      <trkpt lat="47.29315" lon="-2.26015">
        <ele>91.800003051758</ele>
        <time>2022-03-20T09:57:51.000Z</time>
      </trkpt>
      <trkpt lat="47.29316" lon="-2.26049">
        <ele>91.800003051758</ele>
        <time>2022-03-20T09:57:58.000Z</time>
      </trkpt>
      <trkpt lat="47.29317" lon="-2.26072">
        <ele>91.800003051758</ele>
        <time>2022-03-20T09:58:05.000Z</time>
      </trkpt>
      <trkpt lat="47.29324" lon="-2.26094">
        <ele>91.800003051758</ele>
        <time>2022-03-20T09:58:12.000Z</time>
      </trkpt>
      <trkpt lat="47.29342" lon="-2.26119">
        <ele>91.800003051758</ele>
        <time>2022-03-20T09:58:19.000Z</time>
      </trkpt>
      <trkpt lat="47.29367" lon="-2.26139">
        <ele>91.800003051758</ele>
        <time>2022-03-20T09:58:25.000Z</time>
      </trkpt>
      <trkpt lat="47.29397" lon="-2.26153">
        <ele>91.400001525879</ele>
        <time>2022-03-20T09:58:30.000Z</time>
      </trkpt>
      <trkpt lat="47.29403" lon="-2.26155">
        <ele>91</ele>
        <time>2022-03-20T09:58:31.000Z</time>
      </trkpt>
      <trkpt lat="47.29411" lon="-2.26159">
        <ele>90.599998474121</ele>
        <time>2022-03-20T09:58:32.000Z</time>
      </trkpt>
      <trkpt lat="47.29422" lon="-2.26162">
        <ele>89.599998474121</ele>
        <time>2022-03-20T09:58:33.000Z</time>
      </trkpt>
      <trkpt lat="47.29442" lon="-2.26166">
        <ele>89.599998474121</ele>
        <time>2022-03-20T09:58:36.000Z</time>
      </trkpt>
      <trkpt lat="47.29462" lon="-2.26167">
        <ele>89.199996948242</ele>
        <time>2022-03-20T09:58:39.000Z</time>
      </trkpt>
      <trkpt lat="47.29468" lon="-2.26169">
        <ele>88.800003051758</ele>
        <time>2022-03-20T09:58:40.000Z</time>
      </trkpt>
      <trkpt lat="47.29475" lon="-2.26171">
        <ele>88.400001525879</ele>
        <time>2022-03-20T09:58:41.000Z</time>
      </trkpt>
      <trkpt lat="47.29481" lon="-2.26175">
        <ele>88</ele>
        <time>2022-03-20T09:58:42.000Z</time>
      </trkpt>
      <trkpt lat="47.2949" lon="-2.26181">
        <ele>87.599998474121</ele>
        <time>2022-03-20T09:58:43.000Z</time>
      </trkpt>
      <trkpt lat="47.29496" lon="-2.26183">
        <ele>87.599998474121</ele>
        <time>2022-03-20T09:58:45.000Z</time>
      </trkpt>
      <trkpt lat="47.29499" lon="-2.26184">
        <ele>87.599998474121</ele>
        <time>2022-03-20T09:58:49.000Z</time>
      </trkpt>
      <trkpt lat="47.29501" lon="-2.2619">
        <ele>87.599998474121</ele>
        <time>2022-03-20T10:01:40.000Z</time>
      </trkpt>
      <trkpt lat="47.29511" lon="-2.26196">
        <ele>87.599998474121</ele>
        <time>2022-03-20T10:01:44.000Z</time>
      </trkpt>
      <trkpt lat="47.29514" lon="-2.26197">
        <ele>87.599998474121</ele>
        <time>2022-03-20T10:01:45.000Z</time>
      </trkpt>
      <trkpt lat="47.2952" lon="-2.262">
        <ele>87.199996948242</ele>
        <time>2022-03-20T10:01:47.000Z</time>
      </trkpt>
      <trkpt lat="47.29524" lon="-2.26202">
        <ele>86.800003051758</ele>
        <time>2022-03-20T10:01:48.000Z</time>
      </trkpt>
      <trkpt lat="47.2953" lon="-2.26205">
        <ele>86.400001525879</ele>
        <time>2022-03-20T10:01:49.000Z</time>
      </trkpt>
      <trkpt lat="47.29533" lon="-2.26207">
        <ele>85.800003051758</ele>
        <time>2022-03-20T10:01:50.000Z</time>
      </trkpt>
      <trkpt lat="47.29535" lon="-2.2621">
        <ele>85.400001525879</ele>
        <time>2022-03-20T10:01:51.000Z</time>
      </trkpt>
      <trkpt lat="47.29536" lon="-2.26212">
        <ele>85.400001525879</ele>
        <time>2022-03-20T10:01:52.000Z</time>
      </trkpt>
      <trkpt lat="47.29537" lon="-2.26219">
        <ele>85.400001525879</ele>
        <time>2022-03-20T10:01:54.000Z</time>
      </trkpt>
      <trkpt lat="47.29534" lon="-2.26233">
        <ele>85</ele>
        <time>2022-03-20T10:01:58.000Z</time>
      </trkpt>
      <trkpt lat="47.29533" lon="-2.26236">
        <ele>84.599998474121</ele>
        <time>2022-03-20T10:01:59.000Z</time>
      </trkpt>
      <trkpt lat="47.29533" lon="-2.2624">
        <ele>84.199996948242</ele>
        <time>2022-03-20T10:02:00.000Z</time>
      </trkpt>
      <trkpt lat="47.29535" lon="-2.26245">
        <ele>83.800003051758</ele>
        <time>2022-03-20T10:02:01.000Z</time>
      </trkpt>
      <trkpt lat="47.29538" lon="-2.26247">
        <ele>83.400001525879</ele>
        <time>2022-03-20T10:02:02.000Z</time>
      </trkpt>
      <trkpt lat="47.29552" lon="-2.26249">
        <ele>83.400001525879</ele>
        <time>2022-03-20T10:02:05.000Z</time>
      </trkpt>
      <trkpt lat="47.29575" lon="-2.26251">
        <ele>83</ele>
        <time>2022-03-20T10:02:09.000Z</time>
      </trkpt>
      <trkpt lat="47.29581" lon="-2.26252">
        <ele>82.599998474121</ele>
        <time>2022-03-20T10:02:10.000Z</time>
      </trkpt>
      <trkpt lat="47.29588" lon="-2.26252">
        <ele>82.199996948242</ele>
        <time>2022-03-20T10:02:11.000Z</time>
      </trkpt>
      <trkpt lat="47.29596" lon="-2.26252">
        <ele>81.800003051758</ele>
        <time>2022-03-20T10:02:12.000Z</time>
      </trkpt>
      <trkpt lat="47.29603" lon="-2.26252">
        <ele>81.400001525879</ele>
        <time>2022-03-20T10:02:13.000Z</time>
      </trkpt>
      <trkpt lat="47.29615" lon="-2.26253">
        <ele>81</ele>
        <time>2022-03-20T10:02:15.000Z</time>
      </trkpt>
      <trkpt lat="47.29619" lon="-2.26253">
        <ele>80</ele>
        <time>2022-03-20T10:02:16.000Z</time>
      </trkpt>
      <trkpt lat="47.29622" lon="-2.26252">
        <ele>79.599998474121</ele>
        <time>2022-03-20T10:02:17.000Z</time>
      </trkpt>
      <trkpt lat="47.29623" lon="-2.26253">
        <ele>79.199996948242</ele>
        <time>2022-03-20T10:02:18.000Z</time>
      </trkpt>
      <trkpt lat="47.29623" lon="-2.2626">
        <ele>79.199996948242</ele>
        <time>2022-03-20T10:02:21.000Z</time>
      </trkpt>
      <trkpt lat="47.29615" lon="-2.26269">
        <ele>79.199996948242</ele>
        <time>2022-03-20T10:02:26.000Z</time>
      </trkpt>
      <trkpt lat="47.29603" lon="-2.26281">
        <ele>78.800003051758</ele>
        <time>2022-03-20T10:02:31.000Z</time>
      </trkpt>
      <trkpt lat="47.29602" lon="-2.26283">
        <ele>78.400001525879</ele>
        <time>2022-03-20T10:02:32.000Z</time>
      </trkpt>
      <trkpt lat="47.296" lon="-2.26287">
        <ele>78</ele>
        <time>2022-03-20T10:02:33.000Z</time>
      </trkpt>
      <trkpt lat="47.296" lon="-2.2629">
        <ele>77.599998474121</ele>
        <time>2022-03-20T10:02:34.000Z</time>
      </trkpt>
      <trkpt lat="47.29599" lon="-2.26292">
        <ele>77.199996948242</ele>
        <time>2022-03-20T10:02:35.000Z</time>
      </trkpt>
      <trkpt lat="47.29599" lon="-2.26302">
        <ele>77.199996948242</ele>
        <time>2022-03-20T10:02:38.000Z</time>
      </trkpt>
      <trkpt lat="47.29603" lon="-2.26312">
        <ele>77.199996948242</ele>
        <time>2022-03-20T10:02:42.000Z</time>
      </trkpt>
      <trkpt lat="47.29604" lon="-2.26313">
        <ele>77.199996948242</ele>
        <time>2022-03-20T10:02:43.000Z</time>
      </trkpt>
      <trkpt lat="47.2961" lon="-2.26324">
        <ele>77.199996948242</ele>
        <time>2022-03-20T10:02:48.000Z</time>
      </trkpt>
      <trkpt lat="47.29611" lon="-2.26325">
        <ele>77.199996948242</ele>
        <time>2022-03-20T10:02:50.000Z</time>
      </trkpt>
      <trkpt lat="47.29614" lon="-2.26334">
        <ele>77.199996948242</ele>
        <time>2022-03-20T10:02:57.000Z</time>
      </trkpt>
      <trkpt lat="47.29614" lon="-2.26337">
        <ele>77.199996948242</ele>
        <time>2022-03-20T10:02:58.000Z</time>
      </trkpt>
      <trkpt lat="47.29611" lon="-2.26344">
        <ele>77.199996948242</ele>
        <time>2022-03-20T10:03:01.000Z</time>
      </trkpt>
      <trkpt lat="47.2961" lon="-2.26347">
        <ele>77.199996948242</ele>
        <time>2022-03-20T10:03:03.000Z</time>
      </trkpt>
      <trkpt lat="47.2961" lon="-2.26348">
        <ele>77.199996948242</ele>
        <time>2022-03-20T10:03:04.000Z</time>
      </trkpt>
      <trkpt lat="47.29609" lon="-2.26354">
        <ele>77.199996948242</ele>
        <time>2022-03-20T10:03:15.000Z</time>
      </trkpt>
      <trkpt lat="47.2961" lon="-2.26362">
        <ele>77.199996948242</ele>
        <time>2022-03-20T10:03:17.000Z</time>
      </trkpt>
      <trkpt lat="47.29616" lon="-2.26379">
        <ele>77.199996948242</ele>
        <time>2022-03-20T10:03:21.000Z</time>
      </trkpt>
      <trkpt lat="47.29616" lon="-2.26385">
        <ele>77.199996948242</ele>
        <time>2022-03-20T10:03:22.000Z</time>
      </trkpt>
      <trkpt lat="47.29614" lon="-2.2641">
        <ele>77.199996948242</ele>
        <time>2022-03-20T10:03:27.000Z</time>
      </trkpt>
      <trkpt lat="47.2961" lon="-2.26421">
        <ele>77.599998474121</ele>
        <time>2022-03-20T10:03:30.000Z</time>
      </trkpt>
      <trkpt lat="47.29608" lon="-2.26424">
        <ele>78</ele>
        <time>2022-03-20T10:03:31.000Z</time>
      </trkpt>
      <trkpt lat="47.29607" lon="-2.26427">
        <ele>78.400001525879</ele>
        <time>2022-03-20T10:03:32.000Z</time>
      </trkpt>
      <trkpt lat="47.29606" lon="-2.26431">
        <ele>78.800003051758</ele>
        <time>2022-03-20T10:03:33.000Z</time>
      </trkpt>
      <trkpt lat="47.29605" lon="-2.26434">
        <ele>79.199996948242</ele>
        <time>2022-03-20T10:03:34.000Z</time>
      </trkpt>
      <trkpt lat="47.29602" lon="-2.26452">
        <ele>79.599998474121</ele>
        <time>2022-03-20T10:03:39.000Z</time>
      </trkpt>
      <trkpt lat="47.29602" lon="-2.26456">
        <ele>80</ele>
        <time>2022-03-20T10:03:40.000Z</time>
      </trkpt>
      <trkpt lat="47.29603" lon="-2.26459">
        <ele>80.400001525879</ele>
        <time>2022-03-20T10:03:41.000Z</time>
      </trkpt>
      <trkpt lat="47.29603" lon="-2.26463">
        <ele>80.800003051758</ele>
        <time>2022-03-20T10:03:42.000Z</time>
      </trkpt>
      <trkpt lat="47.29603" lon="-2.26466">
        <ele>81.199996948242</ele>
        <time>2022-03-20T10:03:43.000Z</time>
      </trkpt>
      <trkpt lat="47.29602" lon="-2.26477">
        <ele>81.199996948242</ele>
        <time>2022-03-20T10:03:46.000Z</time>
      </trkpt>
      <trkpt lat="47.29597" lon="-2.26497">
        <ele>81.800003051758</ele>
        <time>2022-03-20T10:03:52.000Z</time>
      </trkpt>
      <trkpt lat="47.29596" lon="-2.26499">
        <ele>82.199996948242</ele>
        <time>2022-03-20T10:03:53.000Z</time>
      </trkpt>
      <trkpt lat="47.29594" lon="-2.26501">
        <ele>82.599998474121</ele>
        <time>2022-03-20T10:03:54.000Z</time>
      </trkpt>
      <trkpt lat="47.29592" lon="-2.26503">
        <ele>83.400001525879</ele>
        <time>2022-03-20T10:03:55.000Z</time>
      </trkpt>
      <trkpt lat="47.29584" lon="-2.26509">
        <ele>83.400001525879</ele>
        <time>2022-03-20T10:03:59.000Z</time>
      </trkpt>
      <trkpt lat="47.29569" lon="-2.26518">
        <ele>83.800003051758</ele>
        <time>2022-03-20T10:04:05.000Z</time>
      </trkpt>
      <trkpt lat="47.29567" lon="-2.26521">
        <ele>84.400001525879</ele>
        <time>2022-03-20T10:04:06.000Z</time>
      </trkpt>
      <trkpt lat="47.29565" lon="-2.26522">
        <ele>84.800003051758</ele>
        <time>2022-03-20T10:04:07.000Z</time>
      </trkpt>
      <trkpt lat="47.29563" lon="-2.26524">
        <ele>85.199996948242</ele>
        <time>2022-03-20T10:04:08.000Z</time>
      </trkpt>
      <trkpt lat="47.29561" lon="-2.26526">
        <ele>85.599998474121</ele>
        <time>2022-03-20T10:04:09.000Z</time>
      </trkpt>
      <trkpt lat="47.29553" lon="-2.2653">
        <ele>85.599998474121</ele>
        <time>2022-03-20T10:04:12.000Z</time>
      </trkpt>
      <trkpt lat="47.29534" lon="-2.26546">
        <ele>85.599998474121</ele>
        <time>2022-03-20T10:04:21.000Z</time>
      </trkpt>
      <trkpt lat="47.29521" lon="-2.2656">
        <ele>86</ele>
        <time>2022-03-20T10:04:27.000Z</time>
      </trkpt>
      <trkpt lat="47.29518" lon="-2.26563">
        <ele>86.400001525879</ele>
        <time>2022-03-20T10:04:28.000Z</time>
      </trkpt>
      <trkpt lat="47.29516" lon="-2.26566">
        <ele>86.800003051758</ele>
        <time>2022-03-20T10:04:29.000Z</time>
      </trkpt>
      <trkpt lat="47.29514" lon="-2.26569">
        <ele>87.199996948242</ele>
        <time>2022-03-20T10:04:30.000Z</time>
      </trkpt>
      <trkpt lat="47.29512" lon="-2.26571">
        <ele>87.599998474121</ele>
        <time>2022-03-20T10:04:31.000Z</time>
      </trkpt>
      <trkpt lat="47.29504" lon="-2.26579">
        <ele>87.599998474121</ele>
        <time>2022-03-20T10:04:34.000Z</time>
      </trkpt>
      <trkpt lat="47.29485" lon="-2.26594">
        <ele>87.599998474121</ele>
        <time>2022-03-20T10:04:41.000Z</time>
      </trkpt>
      <trkpt lat="47.29472" lon="-2.266">
        <ele>87.599998474121</ele>
        <time>2022-03-20T10:04:46.000Z</time>
      </trkpt>
      <trkpt lat="47.2945" lon="-2.26611">
        <ele>87.599998474121</ele>
        <time>2022-03-20T10:04:52.000Z</time>
      </trkpt>
      <trkpt lat="47.29425" lon="-2.26618">
        <ele>87.599998474121</ele>
        <time>2022-03-20T10:04:59.000Z</time>
      </trkpt>
      <trkpt lat="47.29402" lon="-2.26628">
        <ele>87.599998474121</ele>
        <time>2022-03-20T10:05:05.000Z</time>
      </trkpt>
      <trkpt lat="47.29372" lon="-2.26643">
        <ele>87.599998474121</ele>
        <time>2022-03-20T10:05:12.000Z</time>
      </trkpt>
      <trkpt lat="47.29367" lon="-2.26645">
        <ele>87.599998474121</ele>
        <time>2022-03-20T10:05:13.000Z</time>
      </trkpt>
      <trkpt lat="47.29359" lon="-2.26647">
        <ele>87.599998474121</ele>
        <time>2022-03-20T10:05:15.000Z</time>
      </trkpt>
      <trkpt lat="47.2934" lon="-2.26653">
        <ele>87.599998474121</ele>
        <time>2022-03-20T10:05:19.000Z</time>
      </trkpt>
      <trkpt lat="47.29314" lon="-2.26667">
        <ele>87.599998474121</ele>
        <time>2022-03-20T10:05:25.000Z</time>
      </trkpt>
      <trkpt lat="47.29296" lon="-2.26677">
        <ele>87.599998474121</ele>
        <time>2022-03-20T10:05:30.000Z</time>
      </trkpt>
      <trkpt lat="47.29287" lon="-2.26679">
        <ele>87.599998474121</ele>
        <time>2022-03-20T10:05:32.000Z</time>
      </trkpt>
      <trkpt lat="47.29273" lon="-2.26682">
        <ele>87.599998474121</ele>
        <time>2022-03-20T10:05:35.000Z</time>
      </trkpt>
      <trkpt lat="47.29243" lon="-2.26691">
        <ele>87.599998474121</ele>
        <time>2022-03-20T10:05:41.000Z</time>
      </trkpt>
      <trkpt lat="47.29239" lon="-2.26696">
        <ele>87.599998474121</ele>
        <time>2022-03-20T10:05:42.000Z</time>
      </trkpt>
      <trkpt lat="47.29224" lon="-2.26715">
        <ele>87.599998474121</ele>
        <time>2022-03-20T10:05:46.000Z</time>
      </trkpt>
      <trkpt lat="47.29214" lon="-2.26721">
        <ele>87.599998474121</ele>
        <time>2022-03-20T10:05:50.000Z</time>
      </trkpt>
      <trkpt lat="47.29207" lon="-2.2673">
        <ele>87.599998474121</ele>
        <time>2022-03-20T10:05:55.000Z</time>
      </trkpt>
      <trkpt lat="47.29208" lon="-2.26735">
        <ele>87.599998474121</ele>
        <time>2022-03-20T10:05:56.000Z</time>
      </trkpt>
      <trkpt lat="47.29213" lon="-2.26759">
        <ele>87.599998474121</ele>
        <time>2022-03-20T10:06:00.000Z</time>
      </trkpt>
      <trkpt lat="47.29219" lon="-2.26794">
        <ele>87.599998474121</ele>
        <time>2022-03-20T10:06:05.000Z</time>
      </trkpt>
      <trkpt lat="47.2923" lon="-2.26856">
        <ele>87.599998474121</ele>
        <time>2022-03-20T10:06:13.000Z</time>
      </trkpt>
      <trkpt lat="47.29236" lon="-2.26902">
        <ele>87.599998474121</ele>
        <time>2022-03-20T10:06:19.000Z</time>
      </trkpt>
      <trkpt lat="47.29237" lon="-2.2693">
        <ele>87.599998474121</ele>
        <time>2022-03-20T10:06:24.000Z</time>
      </trkpt>
      <trkpt lat="47.29236" lon="-2.26932">
        <ele>87.599998474121</ele>
        <time>2022-03-20T10:06:25.000Z</time>
      </trkpt>
      <trkpt lat="47.29231" lon="-2.26934">
        <ele>87.599998474121</ele>
        <time>2022-03-20T10:06:28.000Z</time>
      </trkpt>
      <trkpt lat="47.29231" lon="-2.26934">
        <ele>87.599998474121</ele>
        <time>2022-03-20T10:06:30.000Z</time>
      </trkpt>
      <trkpt lat="47.2923" lon="-2.26934">
        <ele>87.599998474121</ele>
        <time>2022-03-20T10:10:18.000Z</time>
      </trkpt>
      <trkpt lat="47.29229" lon="-2.26935">
        <ele>87.599998474121</ele>
        <time>2022-03-20T10:10:19.000Z</time>
      </trkpt>
      <trkpt lat="47.29228" lon="-2.26937">
        <ele>87.599998474121</ele>
        <time>2022-03-20T10:10:20.000Z</time>
      </trkpt>
      <trkpt lat="47.29223" lon="-2.26937">
        <ele>87.599998474121</ele>
        <time>2022-03-20T10:10:35.000Z</time>
      </trkpt>
      <trkpt lat="47.2922" lon="-2.26936">
        <ele>87.599998474121</ele>
        <time>2022-03-20T10:10:37.000Z</time>
      </trkpt>
      <trkpt lat="47.29214" lon="-2.26935">
        <ele>87.599998474121</ele>
        <time>2022-03-20T10:10:39.000Z</time>
      </trkpt>
      <trkpt lat="47.29213" lon="-2.26936">
        <ele>87.599998474121</ele>
        <time>2022-03-20T10:10:40.000Z</time>
      </trkpt>
      <trkpt lat="47.29211" lon="-2.26939">
        <ele>87.599998474121</ele>
        <time>2022-03-20T10:10:41.000Z</time>
      </trkpt>
      <trkpt lat="47.2921" lon="-2.26956">
        <ele>87.599998474121</ele>
        <time>2022-03-20T10:10:47.000Z</time>
      </trkpt>
      <trkpt lat="47.2921" lon="-2.26957">
        <ele>87.599998474121</ele>
        <time>2022-03-20T10:10:48.000Z</time>
      </trkpt>
      <trkpt lat="47.29209" lon="-2.26961">
        <ele>87.599998474121</ele>
        <time>2022-03-20T10:10:56.000Z</time>
      </trkpt>
      <trkpt lat="47.29208" lon="-2.26964">
        <ele>87.599998474121</ele>
        <time>2022-03-20T10:10:58.000Z</time>
      </trkpt>
      <trkpt lat="47.29208" lon="-2.26966">
        <ele>87.599998474121</ele>
        <time>2022-03-20T10:11:00.000Z</time>
      </trkpt>
      <trkpt lat="47.29207" lon="-2.26972">
        <ele>87.599998474121</ele>
        <time>2022-03-20T10:11:05.000Z</time>
      </trkpt>
      <trkpt lat="47.29207" lon="-2.26977">
        <ele>87.599998474121</ele>
        <time>2022-03-20T10:11:07.000Z</time>
      </trkpt>
      <trkpt lat="47.29207" lon="-2.26984">
        <ele>87.599998474121</ele>
        <time>2022-03-20T10:11:09.000Z</time>
      </trkpt>
      <trkpt lat="47.29206" lon="-2.2699">
        <ele>87.599998474121</ele>
        <time>2022-03-20T10:11:11.000Z</time>
      </trkpt>
      <trkpt lat="47.29203" lon="-2.27008">
        <ele>87.599998474121</ele>
        <time>2022-03-20T10:11:16.000Z</time>
      </trkpt>
      <trkpt lat="47.29202" lon="-2.27029">
        <ele>87.599998474121</ele>
        <time>2022-03-20T10:11:21.000Z</time>
      </trkpt>
      <trkpt lat="47.29202" lon="-2.27036">
        <ele>87.599998474121</ele>
        <time>2022-03-20T10:11:24.000Z</time>
      </trkpt>
      <trkpt lat="47.29208" lon="-2.27029">
        <ele>87.599998474121</ele>
        <time>2022-03-20T10:11:49.000Z</time>
      </trkpt>
      <trkpt lat="47.29208" lon="-2.27032">
        <ele>87.599998474121</ele>
        <time>2022-03-20T10:11:53.000Z</time>
      </trkpt>
      <trkpt lat="47.29211" lon="-2.27033">
        <ele>85.400001525879</ele>
        <time>2022-03-20T10:12:07.000Z</time>
      </trkpt>
      <trkpt lat="47.29215" lon="-2.27034">
        <ele>85.400001525879</ele>
        <time>2022-03-20T10:12:09.000Z</time>
      </trkpt>
      <trkpt lat="47.29223" lon="-2.27041">
        <ele>85.400001525879</ele>
        <time>2022-03-20T10:12:15.000Z</time>
      </trkpt>
      <trkpt lat="47.29224" lon="-2.27042">
        <ele>85.400001525879</ele>
        <time>2022-03-20T10:12:16.000Z</time>
      </trkpt>
      <trkpt lat="47.29225" lon="-2.27049">
        <ele>85.400001525879</ele>
        <time>2022-03-20T10:12:21.000Z</time>
      </trkpt>
      <trkpt lat="47.29226" lon="-2.27066">
        <ele>85.400001525879</ele>
        <time>2022-03-20T10:12:28.000Z</time>
      </trkpt>
      <trkpt lat="47.29226" lon="-2.27074">
        <ele>85.400001525879</ele>
        <time>2022-03-20T10:12:31.000Z</time>
      </trkpt>
      <trkpt lat="47.29226" lon="-2.27078">
        <ele>85.400001525879</ele>
        <time>2022-03-20T10:12:33.000Z</time>
      </trkpt>
      <trkpt lat="47.29226" lon="-2.27084">
        <ele>85.400001525879</ele>
        <time>2022-03-20T10:12:37.000Z</time>
      </trkpt>
      <trkpt lat="47.29227" lon="-2.27087">
        <ele>85.400001525879</ele>
        <time>2022-03-20T10:12:39.000Z</time>
      </trkpt>
      <trkpt lat="47.29227" lon="-2.27081">
        <ele>85.400001525879</ele>
        <time>2022-03-20T10:12:50.000Z</time>
      </trkpt>
      <trkpt lat="47.29228" lon="-2.27074">
        <ele>85.400001525879</ele>
        <time>2022-03-20T10:12:52.000Z</time>
      </trkpt>
      <trkpt lat="47.29229" lon="-2.27066">
        <ele>85.400001525879</ele>
        <time>2022-03-20T10:12:54.000Z</time>
      </trkpt>
      <trkpt lat="47.29228" lon="-2.27057">
        <ele>85.400001525879</ele>
        <time>2022-03-20T10:12:57.000Z</time>
      </trkpt>
      <trkpt lat="47.29227" lon="-2.27054">
        <ele>85.400001525879</ele>
        <time>2022-03-20T10:13:00.000Z</time>
      </trkpt>
      <trkpt lat="47.29228" lon="-2.27059">
        <ele>85.400001525879</ele>
        <time>2022-03-20T10:13:33.000Z</time>
      </trkpt>
      <trkpt lat="47.29229" lon="-2.27061">
        <ele>85.400001525879</ele>
        <time>2022-03-20T10:13:34.000Z</time>
      </trkpt>
      <trkpt lat="47.29229" lon="-2.27079">
        <ele>85.400001525879</ele>
        <time>2022-03-20T10:13:39.000Z</time>
      </trkpt>
      <trkpt lat="47.29231" lon="-2.27099">
        <ele>85.400001525879</ele>
        <time>2022-03-20T10:13:44.000Z</time>
      </trkpt>
      <trkpt lat="47.29226" lon="-2.27125">
        <ele>85.400001525879</ele>
        <time>2022-03-20T10:13:49.000Z</time>
      </trkpt>
      <trkpt lat="47.2922" lon="-2.27144">
        <ele>85.400001525879</ele>
        <time>2022-03-20T10:13:53.000Z</time>
      </trkpt>
      <trkpt lat="47.29215" lon="-2.27159">
        <ele>85.400001525879</ele>
        <time>2022-03-20T10:13:57.000Z</time>
      </trkpt>
      <trkpt lat="47.29208" lon="-2.27169">
        <ele>85.400001525879</ele>
        <time>2022-03-20T10:14:01.000Z</time>
      </trkpt>
      <trkpt lat="47.29191" lon="-2.27178">
        <ele>85.400001525879</ele>
        <time>2022-03-20T10:14:05.000Z</time>
      </trkpt>
      <trkpt lat="47.29175" lon="-2.27185">
        <ele>85.400001525879</ele>
        <time>2022-03-20T10:14:09.000Z</time>
      </trkpt>
      <trkpt lat="47.29157" lon="-2.2719">
        <ele>85.400001525879</ele>
        <time>2022-03-20T10:14:15.000Z</time>
      </trkpt>
      <trkpt lat="47.29155" lon="-2.27191">
        <ele>85.400001525879</ele>
        <time>2022-03-20T10:14:16.000Z</time>
      </trkpt>
      <trkpt lat="47.2915" lon="-2.2719">
        <ele>85.400001525879</ele>
        <time>2022-03-20T10:14:19.000Z</time>
      </trkpt>
      <trkpt lat="47.29146" lon="-2.27191">
        <ele>85.400001525879</ele>
        <time>2022-03-20T10:14:21.000Z</time>
      </trkpt>
      <trkpt lat="47.29141" lon="-2.27192">
        <ele>85.400001525879</ele>
        <time>2022-03-20T10:14:23.000Z</time>
      </trkpt>
      <trkpt lat="47.29133" lon="-2.27198">
        <ele>85.400001525879</ele>
        <time>2022-03-20T10:14:26.000Z</time>
      </trkpt>
      <trkpt lat="47.29132" lon="-2.27201">
        <ele>85.400001525879</ele>
        <time>2022-03-20T10:14:27.000Z</time>
      </trkpt>
      <trkpt lat="47.29127" lon="-2.27217">
        <ele>85.400001525879</ele>
        <time>2022-03-20T10:14:31.000Z</time>
      </trkpt>
      <trkpt lat="47.29126" lon="-2.27221">
        <ele>85.400001525879</ele>
        <time>2022-03-20T10:14:32.000Z</time>
      </trkpt>
      <trkpt lat="47.29122" lon="-2.27242">
        <ele>85.400001525879</ele>
        <time>2022-03-20T10:14:37.000Z</time>
      </trkpt>
      <trkpt lat="47.29119" lon="-2.27267">
        <ele>85.400001525879</ele>
        <time>2022-03-20T10:14:42.000Z</time>
      </trkpt>
      <trkpt lat="47.29112" lon="-2.27294">
        <ele>85.400001525879</ele>
        <time>2022-03-20T10:14:47.000Z</time>
      </trkpt>
      <trkpt lat="47.29106" lon="-2.27322">
        <ele>85.400001525879</ele>
        <time>2022-03-20T10:14:53.000Z</time>
      </trkpt>
      <trkpt lat="47.29102" lon="-2.27346">
        <ele>85.400001525879</ele>
        <time>2022-03-20T10:14:59.000Z</time>
      </trkpt>
      <trkpt lat="47.29102" lon="-2.27382">
        <ele>85.400001525879</ele>
        <time>2022-03-20T10:15:05.000Z</time>
      </trkpt>
      <trkpt lat="47.29108" lon="-2.27412">
        <ele>85.400001525879</ele>
        <time>2022-03-20T10:15:10.000Z</time>
      </trkpt>
      <trkpt lat="47.29108" lon="-2.2742">
        <ele>85.400001525879</ele>
        <time>2022-03-20T10:15:11.000Z</time>
      </trkpt>
      <trkpt lat="47.29107" lon="-2.27427">
        <ele>85.400001525879</ele>
        <time>2022-03-20T10:15:12.000Z</time>
      </trkpt>
      <trkpt lat="47.29105" lon="-2.27454">
        <ele>85.400001525879</ele>
        <time>2022-03-20T10:15:16.000Z</time>
      </trkpt>
      <trkpt lat="47.29105" lon="-2.27466">
        <ele>85.800003051758</ele>
        <time>2022-03-20T10:15:18.000Z</time>
      </trkpt>
      <trkpt lat="47.29104" lon="-2.27473">
        <ele>86.199996948242</ele>
        <time>2022-03-20T10:15:19.000Z</time>
      </trkpt>
      <trkpt lat="47.29105" lon="-2.27479">
        <ele>86.599998474121</ele>
        <time>2022-03-20T10:15:20.000Z</time>
      </trkpt>
      <trkpt lat="47.29105" lon="-2.27484">
        <ele>87</ele>
        <time>2022-03-20T10:15:21.000Z</time>
      </trkpt>
      <trkpt lat="47.29104" lon="-2.2749">
        <ele>87.400001525879</ele>
        <time>2022-03-20T10:15:22.000Z</time>
      </trkpt>
      <trkpt lat="47.29104" lon="-2.27494">
        <ele>87.400001525879</ele>
        <time>2022-03-20T10:15:23.000Z</time>
      </trkpt>
      <trkpt lat="47.29104" lon="-2.27513">
        <ele>87.400001525879</ele>
        <time>2022-03-20T10:15:29.000Z</time>
      </trkpt>
      <trkpt lat="47.29103" lon="-2.27518">
        <ele>87.400001525879</ele>
        <time>2022-03-20T10:15:33.000Z</time>
      </trkpt>
      <trkpt lat="47.29103" lon="-2.2752">
        <ele>87.400001525879</ele>
        <time>2022-03-20T10:15:50.000Z</time>
      </trkpt>
      <trkpt lat="47.29102" lon="-2.27524">
        <ele>87.400001525879</ele>
        <time>2022-03-20T10:15:52.000Z</time>
      </trkpt>
      <trkpt lat="47.29095" lon="-2.27526">
        <ele>87.400001525879</ele>
        <time>2022-03-20T10:15:55.000Z</time>
      </trkpt>
      <trkpt lat="47.29092" lon="-2.27526">
        <ele>87.400001525879</ele>
        <time>2022-03-20T10:15:56.000Z</time>
      </trkpt>
      <trkpt lat="47.29075" lon="-2.27525">
        <ele>87.400001525879</ele>
        <time>2022-03-20T10:16:00.000Z</time>
      </trkpt>
      <trkpt lat="47.29056" lon="-2.27525">
        <ele>87.400001525879</ele>
        <time>2022-03-20T10:16:04.000Z</time>
      </trkpt>
      <trkpt lat="47.29052" lon="-2.27526">
        <ele>87.400001525879</ele>
        <time>2022-03-20T10:16:05.000Z</time>
      </trkpt>
      <trkpt lat="47.29035" lon="-2.27525">
        <ele>87.400001525879</ele>
        <time>2022-03-20T10:16:09.000Z</time>
      </trkpt>
      <trkpt lat="47.29012" lon="-2.27523">
        <ele>87.400001525879</ele>
        <time>2022-03-20T10:16:15.000Z</time>
      </trkpt>
      <trkpt lat="47.28984" lon="-2.27523">
        <ele>87.400001525879</ele>
        <time>2022-03-20T10:16:22.000Z</time>
      </trkpt>
      <trkpt lat="47.28954" lon="-2.27522">
        <ele>87.400001525879</ele>
        <time>2022-03-20T10:16:29.000Z</time>
      </trkpt>
      <trkpt lat="47.28921" lon="-2.27521">
        <ele>87.400001525879</ele>
        <time>2022-03-20T10:16:36.000Z</time>
      </trkpt>
      <trkpt lat="47.28916" lon="-2.27521">
        <ele>87.400001525879</ele>
        <time>2022-03-20T10:16:37.000Z</time>
      </trkpt>
      <trkpt lat="47.28892" lon="-2.27525">
        <ele>87.400001525879</ele>
        <time>2022-03-20T10:16:42.000Z</time>
      </trkpt>
      <trkpt lat="47.2886" lon="-2.27531">
        <ele>87.400001525879</ele>
        <time>2022-03-20T10:16:48.000Z</time>
      </trkpt>
      <trkpt lat="47.28823" lon="-2.27538">
        <ele>87.400001525879</ele>
        <time>2022-03-20T10:16:56.000Z</time>
      </trkpt>
      <trkpt lat="47.28818" lon="-2.2754">
        <ele>87.400001525879</ele>
        <time>2022-03-20T10:16:57.000Z</time>
      </trkpt>
      <trkpt lat="47.288" lon="-2.27556">
        <ele>87.400001525879</ele>
        <time>2022-03-20T10:17:01.000Z</time>
      </trkpt>
      <trkpt lat="47.28774" lon="-2.27584">
        <ele>87.400001525879</ele>
        <time>2022-03-20T10:17:07.000Z</time>
      </trkpt>
      <trkpt lat="47.28752" lon="-2.27612">
        <ele>87.400001525879</ele>
        <time>2022-03-20T10:17:13.000Z</time>
      </trkpt>
      <trkpt lat="47.28733" lon="-2.2764">
        <ele>87.400001525879</ele>
        <time>2022-03-20T10:17:18.000Z</time>
      </trkpt>
      <trkpt lat="47.28724" lon="-2.27652">
        <ele>87.400001525879</ele>
        <time>2022-03-20T10:17:20.000Z</time>
      </trkpt>
      <trkpt lat="47.28694" lon="-2.27703">
        <ele>87.400001525879</ele>
        <time>2022-03-20T10:17:28.000Z</time>
      </trkpt>
      <trkpt lat="47.28679" lon="-2.27734">
        <ele>87.800003051758</ele>
        <time>2022-03-20T10:17:34.000Z</time>
      </trkpt>
      <trkpt lat="47.28675" lon="-2.2774">
        <ele>88.400001525879</ele>
        <time>2022-03-20T10:17:35.000Z</time>
      </trkpt>
      <trkpt lat="47.28672" lon="-2.27746">
        <ele>88.800003051758</ele>
        <time>2022-03-20T10:17:36.000Z</time>
      </trkpt>
      <trkpt lat="47.28669" lon="-2.27753">
        <ele>89.199996948242</ele>
        <time>2022-03-20T10:17:37.000Z</time>
      </trkpt>
      <trkpt lat="47.28665" lon="-2.2776">
        <ele>89.599998474121</ele>
        <time>2022-03-20T10:17:38.000Z</time>
      </trkpt>
      <trkpt lat="47.28663" lon="-2.27767">
        <ele>89.599998474121</ele>
        <time>2022-03-20T10:17:39.000Z</time>
      </trkpt>
      <trkpt lat="47.28657" lon="-2.2779">
        <ele>89.599998474121</ele>
        <time>2022-03-20T10:17:42.000Z</time>
      </trkpt>
      <trkpt lat="47.28647" lon="-2.27842">
        <ele>89.599998474121</ele>
        <time>2022-03-20T10:17:49.000Z</time>
      </trkpt>
      <trkpt lat="47.28636" lon="-2.27894">
        <ele>89.599998474121</ele>
        <time>2022-03-20T10:17:56.000Z</time>
      </trkpt>
      <trkpt lat="47.2863" lon="-2.27935">
        <ele>89.599998474121</ele>
        <time>2022-03-20T10:18:02.000Z</time>
      </trkpt>
      <trkpt lat="47.28619" lon="-2.2796">
        <ele>89.599998474121</ele>
        <time>2022-03-20T10:18:06.000Z</time>
      </trkpt>
      <trkpt lat="47.28617" lon="-2.27967">
        <ele>89.599998474121</ele>
        <time>2022-03-20T10:18:07.000Z</time>
      </trkpt>
      <trkpt lat="47.28612" lon="-2.2799">
        <ele>89.599998474121</ele>
        <time>2022-03-20T10:18:10.000Z</time>
      </trkpt>
      <trkpt lat="47.28608" lon="-2.28003">
        <ele>89.599998474121</ele>
        <time>2022-03-20T10:18:12.000Z</time>
      </trkpt>
      <trkpt lat="47.28603" lon="-2.28016">
        <ele>89.599998474121</ele>
        <time>2022-03-20T10:18:14.000Z</time>
      </trkpt>
      <trkpt lat="47.286" lon="-2.28021">
        <ele>89.599998474121</ele>
        <time>2022-03-20T10:18:15.000Z</time>
      </trkpt>
      <trkpt lat="47.28581" lon="-2.2804">
        <ele>89.599998474121</ele>
        <time>2022-03-20T10:18:20.000Z</time>
      </trkpt>
      <trkpt lat="47.28574" lon="-2.28046">
        <ele>89.599998474121</ele>
        <time>2022-03-20T10:18:22.000Z</time>
      </trkpt>
      <trkpt lat="47.2857" lon="-2.28047">
        <ele>90</ele>
        <time>2022-03-20T10:18:23.000Z</time>
      </trkpt>
      <trkpt lat="47.28566" lon="-2.28049">
        <ele>90.400001525879</ele>
        <time>2022-03-20T10:18:24.000Z</time>
      </trkpt>
      <trkpt lat="47.28561" lon="-2.2805">
        <ele>90.800003051758</ele>
        <time>2022-03-20T10:18:25.000Z</time>
      </trkpt>
      <trkpt lat="47.28557" lon="-2.2805">
        <ele>91.199996948242</ele>
        <time>2022-03-20T10:18:26.000Z</time>
      </trkpt>
      <trkpt lat="47.28553" lon="-2.28048">
        <ele>91.800003051758</ele>
        <time>2022-03-20T10:18:27.000Z</time>
      </trkpt>
      <trkpt lat="47.2855" lon="-2.28047">
        <ele>91.800003051758</ele>
        <time>2022-03-20T10:18:28.000Z</time>
      </trkpt>
      <trkpt lat="47.28537" lon="-2.28045">
        <ele>92.199996948242</ele>
        <time>2022-03-20T10:18:33.000Z</time>
      </trkpt>
      <trkpt lat="47.28534" lon="-2.28045">
        <ele>92.599998474121</ele>
        <time>2022-03-20T10:18:34.000Z</time>
      </trkpt>
      <trkpt lat="47.28531" lon="-2.28045">
        <ele>93</ele>
        <time>2022-03-20T10:18:35.000Z</time>
      </trkpt>
      <trkpt lat="47.28528" lon="-2.28046">
        <ele>93.599998474121</ele>
        <time>2022-03-20T10:18:36.000Z</time>
      </trkpt>
      <trkpt lat="47.28526" lon="-2.28047">
        <ele>94</ele>
        <time>2022-03-20T10:18:37.000Z</time>
      </trkpt>
      <trkpt lat="47.28521" lon="-2.28046">
        <ele>94.400001525879</ele>
        <time>2022-03-20T10:18:39.000Z</time>
      </trkpt>
      <trkpt lat="47.28519" lon="-2.28046">
        <ele>94.800003051758</ele>
        <time>2022-03-20T10:18:40.000Z</time>
      </trkpt>
      <trkpt lat="47.28517" lon="-2.28045">
        <ele>95.199996948242</ele>
        <time>2022-03-20T10:18:41.000Z</time>
      </trkpt>
      <trkpt lat="47.28515" lon="-2.28045">
        <ele>95.599998474121</ele>
        <time>2022-03-20T10:18:42.000Z</time>
      </trkpt>
      <trkpt lat="47.28513" lon="-2.28045">
        <ele>96.199996948242</ele>
        <time>2022-03-20T10:18:43.000Z</time>
      </trkpt>
      <trkpt lat="47.28512" lon="-2.28042">
        <ele>96.199996948242</ele>
        <time>2022-03-20T10:18:44.000Z</time>
      </trkpt>
      <trkpt lat="47.28509" lon="-2.28039">
        <ele>96.199996948242</ele>
        <time>2022-03-20T10:18:46.000Z</time>
      </trkpt>
      <trkpt lat="47.28508" lon="-2.28037">
        <ele>96.199996948242</ele>
        <time>2022-03-20T10:18:47.000Z</time>
      </trkpt>
      <trkpt lat="47.28506" lon="-2.28034">
        <ele>96.599998474121</ele>
        <time>2022-03-20T10:18:49.000Z</time>
      </trkpt>
      <trkpt lat="47.28504" lon="-2.28034">
        <ele>97</ele>
        <time>2022-03-20T10:18:50.000Z</time>
      </trkpt>
      <trkpt lat="47.28502" lon="-2.28034">
        <ele>97.400001525879</ele>
        <time>2022-03-20T10:18:51.000Z</time>
      </trkpt>
      <trkpt lat="47.285" lon="-2.28034">
        <ele>97.800003051758</ele>
        <time>2022-03-20T10:18:52.000Z</time>
      </trkpt>
      <trkpt lat="47.28499" lon="-2.28035">
        <ele>98.199996948242</ele>
        <time>2022-03-20T10:18:53.000Z</time>
      </trkpt>
      <trkpt lat="47.2849" lon="-2.28041">
        <ele>98.199996948242</ele>
        <time>2022-03-20T10:18:57.000Z</time>
      </trkpt>
      <trkpt lat="47.2849" lon="-2.28046">
        <ele>98.199996948242</ele>
        <time>2022-03-20T10:18:58.000Z</time>
      </trkpt>
      <trkpt lat="47.2849" lon="-2.28055">
        <ele>98.199996948242</ele>
        <time>2022-03-20T10:19:00.000Z</time>
      </trkpt>
      <trkpt lat="47.28492" lon="-2.28067">
        <ele>98.199996948242</ele>
        <time>2022-03-20T10:19:03.000Z</time>
      </trkpt>
      <trkpt lat="47.28494" lon="-2.28072">
        <ele>98.199996948242</ele>
        <time>2022-03-20T10:19:05.000Z</time>
      </trkpt>
      <trkpt lat="47.28492" lon="-2.28074">
        <ele>98.199996948242</ele>
        <time>2022-03-20T10:19:07.000Z</time>
      </trkpt>
      <trkpt lat="47.28489" lon="-2.28077">
        <ele>98.199996948242</ele>
        <time>2022-03-20T10:19:08.000Z</time>
      </trkpt>
      <trkpt lat="47.28482" lon="-2.28082">
        <ele>97.800003051758</ele>
        <time>2022-03-20T10:19:10.000Z</time>
      </trkpt>
      <trkpt lat="47.28477" lon="-2.28085">
        <ele>97.400001525879</ele>
        <time>2022-03-20T10:19:11.000Z</time>
      </trkpt>
      <trkpt lat="47.28472" lon="-2.28086">
        <ele>96.800003051758</ele>
        <time>2022-03-20T10:19:12.000Z</time>
      </trkpt>
      <trkpt lat="47.28468" lon="-2.28084">
        <ele>96.400001525879</ele>
        <time>2022-03-20T10:19:13.000Z</time>
      </trkpt>
      <trkpt lat="47.28465" lon="-2.28082">
        <ele>96</ele>
        <time>2022-03-20T10:19:14.000Z</time>
      </trkpt>
      <trkpt lat="47.28463" lon="-2.2808">
        <ele>96</ele>
        <time>2022-03-20T10:19:15.000Z</time>
      </trkpt>
      <trkpt lat="47.2846" lon="-2.2808">
        <ele>96</ele>
        <time>2022-03-20T10:19:16.000Z</time>
      </trkpt>
      <trkpt lat="47.28449" lon="-2.28078">
        <ele>96</ele>
        <time>2022-03-20T10:19:19.000Z</time>
      </trkpt>
      <trkpt lat="47.2844" lon="-2.2808">
        <ele>96</ele>
        <time>2022-03-20T10:19:22.000Z</time>
      </trkpt>
      <trkpt lat="47.28437" lon="-2.28081">
        <ele>96</ele>
        <time>2022-03-20T10:19:23.000Z</time>
      </trkpt>
      <trkpt lat="47.28428" lon="-2.28078">
        <ele>96</ele>
        <time>2022-03-20T10:19:27.000Z</time>
      </trkpt>
      <trkpt lat="47.28417" lon="-2.28075">
        <ele>96</ele>
        <time>2022-03-20T10:19:31.000Z</time>
      </trkpt>
      <trkpt lat="47.28404" lon="-2.28069">
        <ele>96</ele>
        <time>2022-03-20T10:19:36.000Z</time>
      </trkpt>
      <trkpt lat="47.284" lon="-2.28069">
        <ele>96</ele>
        <time>2022-03-20T10:19:37.000Z</time>
      </trkpt>
      <trkpt lat="47.28393" lon="-2.2807">
        <ele>96</ele>
        <time>2022-03-20T10:19:40.000Z</time>
      </trkpt>
      <trkpt lat="47.28383" lon="-2.2807">
        <ele>96</ele>
        <time>2022-03-20T10:19:45.000Z</time>
      </trkpt>
      <trkpt lat="47.28382" lon="-2.28069">
        <ele>96</ele>
        <time>2022-03-20T10:19:46.000Z</time>
      </trkpt>
      <trkpt lat="47.2838" lon="-2.28062">
        <ele>96</ele>
        <time>2022-03-20T10:19:49.000Z</time>
      </trkpt>
      <trkpt lat="47.2838" lon="-2.28059">
        <ele>96</ele>
        <time>2022-03-20T10:19:50.000Z</time>
      </trkpt>
      <trkpt lat="47.28378" lon="-2.28054">
        <ele>96</ele>
        <time>2022-03-20T10:19:54.000Z</time>
      </trkpt>
      <trkpt lat="47.28376" lon="-2.28055">
        <ele>96</ele>
        <time>2022-03-20T10:19:55.000Z</time>
      </trkpt>
      <trkpt lat="47.28374" lon="-2.28064">
        <ele>96</ele>
        <time>2022-03-20T10:19:57.000Z</time>
      </trkpt>
      <trkpt lat="47.28374" lon="-2.28073">
        <ele>96</ele>
        <time>2022-03-20T10:20:00.000Z</time>
      </trkpt>
      <trkpt lat="47.28374" lon="-2.28076">
        <ele>96</ele>
        <time>2022-03-20T10:20:01.000Z</time>
      </trkpt>
      <trkpt lat="47.28371" lon="-2.28086">
        <ele>95.599998474121</ele>
        <time>2022-03-20T10:20:04.000Z</time>
      </trkpt>
      <trkpt lat="47.28369" lon="-2.28087">
        <ele>95.199996948242</ele>
        <time>2022-03-20T10:20:05.000Z</time>
      </trkpt>
      <trkpt lat="47.28367" lon="-2.28087">
        <ele>94.599998474121</ele>
        <time>2022-03-20T10:20:06.000Z</time>
      </trkpt>
      <trkpt lat="47.28365" lon="-2.28088">
        <ele>94.199996948242</ele>
        <time>2022-03-20T10:20:07.000Z</time>
      </trkpt>
      <trkpt lat="47.28364" lon="-2.28089">
        <ele>93.800003051758</ele>
        <time>2022-03-20T10:20:08.000Z</time>
      </trkpt>
      <trkpt lat="47.28362" lon="-2.28089">
        <ele>93.800003051758</ele>
        <time>2022-03-20T10:20:09.000Z</time>
      </trkpt>
      <trkpt lat="47.28339" lon="-2.28081">
        <ele>93.800003051758</ele>
        <time>2022-03-20T10:20:16.000Z</time>
      </trkpt>
      <trkpt lat="47.28337" lon="-2.28076">
        <ele>93.800003051758</ele>
        <time>2022-03-20T10:20:17.000Z</time>
      </trkpt>
      <trkpt lat="47.28328" lon="-2.28058">
        <ele>93.800003051758</ele>
        <time>2022-03-20T10:20:21.000Z</time>
      </trkpt>
      <trkpt lat="47.28325" lon="-2.28037">
        <ele>94.199996948242</ele>
        <time>2022-03-20T10:20:25.000Z</time>
      </trkpt>
      <trkpt lat="47.28325" lon="-2.28031">
        <ele>94.800003051758</ele>
        <time>2022-03-20T10:20:26.000Z</time>
      </trkpt>
      <trkpt lat="47.28324" lon="-2.28026">
        <ele>95.199996948242</ele>
        <time>2022-03-20T10:20:27.000Z</time>
      </trkpt>
      <trkpt lat="47.28324" lon="-2.28023">
        <ele>95.599998474121</ele>
        <time>2022-03-20T10:20:28.000Z</time>
      </trkpt>
      <trkpt lat="47.28324" lon="-2.28019">
        <ele>96</ele>
        <time>2022-03-20T10:20:29.000Z</time>
      </trkpt>
      <trkpt lat="47.28322" lon="-2.28008">
        <ele>96.400001525879</ele>
        <time>2022-03-20T10:20:32.000Z</time>
      </trkpt>
      <trkpt lat="47.28322" lon="-2.28004">
        <ele>96.800003051758</ele>
        <time>2022-03-20T10:20:33.000Z</time>
      </trkpt>
      <trkpt lat="47.28321" lon="-2.28001">
        <ele>97.199996948242</ele>
        <time>2022-03-20T10:20:34.000Z</time>
      </trkpt>
      <trkpt lat="47.2832" lon="-2.27998">
        <ele>97.599998474121</ele>
        <time>2022-03-20T10:20:35.000Z</time>
      </trkpt>
      <trkpt lat="47.2832" lon="-2.27995">
        <ele>98</ele>
        <time>2022-03-20T10:20:36.000Z</time>
      </trkpt>
      <trkpt lat="47.28317" lon="-2.27982">
        <ele>98.400001525879</ele>
        <time>2022-03-20T10:20:40.000Z</time>
      </trkpt>
      <trkpt lat="47.28318" lon="-2.27979">
        <ele>99.199996948242</ele>
        <time>2022-03-20T10:20:41.000Z</time>
      </trkpt>
      <trkpt lat="47.28318" lon="-2.27977">
        <ele>99.800003051758</ele>
        <time>2022-03-20T10:20:42.000Z</time>
      </trkpt>
      <trkpt lat="47.28319" lon="-2.27973">
        <ele>100.19999694824</ele>
        <time>2022-03-20T10:20:43.000Z</time>
      </trkpt>
      <trkpt lat="47.2832" lon="-2.27959">
        <ele>100.19999694824</ele>
        <time>2022-03-20T10:20:46.000Z</time>
      </trkpt>
      <trkpt lat="47.28321" lon="-2.27918">
        <ele>100.19999694824</ele>
        <time>2022-03-20T10:20:54.000Z</time>
      </trkpt>
      <trkpt lat="47.28326" lon="-2.27865">
        <ele>100.19999694824</ele>
        <time>2022-03-20T10:21:03.000Z</time>
      </trkpt>
      <trkpt lat="47.2833" lon="-2.27822">
        <ele>100.19999694824</ele>
        <time>2022-03-20T10:21:10.000Z</time>
      </trkpt>
      <trkpt lat="47.28335" lon="-2.27768">
        <ele>100.19999694824</ele>
        <time>2022-03-20T10:21:17.000Z</time>
      </trkpt>
      <trkpt lat="47.28339" lon="-2.27714">
        <ele>100.19999694824</ele>
        <time>2022-03-20T10:21:24.000Z</time>
      </trkpt>
      <trkpt lat="47.2834" lon="-2.27701">
        <ele>100.19999694824</ele>
        <time>2022-03-20T10:21:26.000Z</time>
      </trkpt>
      <trkpt lat="47.28343" lon="-2.27683">
        <ele>100.19999694824</ele>
        <time>2022-03-20T10:21:29.000Z</time>
      </trkpt>
      <trkpt lat="47.28343" lon="-2.27677">
        <ele>100.19999694824</ele>
        <time>2022-03-20T10:21:30.000Z</time>
      </trkpt>
      <trkpt lat="47.28347" lon="-2.27648">
        <ele>100.59999847412</ele>
        <time>2022-03-20T10:21:35.000Z</time>
      </trkpt>
      <trkpt lat="47.28347" lon="-2.27643">
        <ele>101</ele>
        <time>2022-03-20T10:21:36.000Z</time>
      </trkpt>
      <trkpt lat="47.28348" lon="-2.27638">
        <ele>101.40000152588</ele>
        <time>2022-03-20T10:21:37.000Z</time>
      </trkpt>
      <trkpt lat="47.28348" lon="-2.27632">
        <ele>101.80000305176</ele>
        <time>2022-03-20T10:21:38.000Z</time>
      </trkpt>
      <trkpt lat="47.28348" lon="-2.27627">
        <ele>102.19999694824</ele>
        <time>2022-03-20T10:21:39.000Z</time>
      </trkpt>
      <trkpt lat="47.28349" lon="-2.27599">
        <ele>102.19999694824</ele>
        <time>2022-03-20T10:21:44.000Z</time>
      </trkpt>
      <trkpt lat="47.28351" lon="-2.27572">
        <ele>102.19999694824</ele>
        <time>2022-03-20T10:21:49.000Z</time>
      </trkpt>
      <trkpt lat="47.28353" lon="-2.27561">
        <ele>102.19999694824</ele>
        <time>2022-03-20T10:21:51.000Z</time>
      </trkpt>
      <trkpt lat="47.28355" lon="-2.2755">
        <ele>102.19999694824</ele>
        <time>2022-03-20T10:21:53.000Z</time>
      </trkpt>
      <trkpt lat="47.28362" lon="-2.27504">
        <ele>102.19999694824</ele>
        <time>2022-03-20T10:22:00.000Z</time>
      </trkpt>
      <trkpt lat="47.28362" lon="-2.27498">
        <ele>102.19999694824</ele>
        <time>2022-03-20T10:22:01.000Z</time>
      </trkpt>
      <trkpt lat="47.28366" lon="-2.27474">
        <ele>102.19999694824</ele>
        <time>2022-03-20T10:22:05.000Z</time>
      </trkpt>
      <trkpt lat="47.2837" lon="-2.27454">
        <ele>102.19999694824</ele>
        <time>2022-03-20T10:22:10.000Z</time>
      </trkpt>
      <trkpt lat="47.28373" lon="-2.27435">
        <ele>102.19999694824</ele>
        <time>2022-03-20T10:22:18.000Z</time>
      </trkpt>
      <trkpt lat="47.28373" lon="-2.27432">
        <ele>102.19999694824</ele>
        <time>2022-03-20T10:22:22.000Z</time>
      </trkpt>
      <trkpt lat="47.28373" lon="-2.27436">
        <ele>102.19999694824</ele>
        <time>2022-03-20T10:22:48.000Z</time>
      </trkpt>
      <trkpt lat="47.28372" lon="-2.27441">
        <ele>102.19999694824</ele>
        <time>2022-03-20T10:22:51.000Z</time>
      </trkpt>
      <trkpt lat="47.2837" lon="-2.27451">
        <ele>102.19999694824</ele>
        <time>2022-03-20T10:22:58.000Z</time>
      </trkpt>
      <trkpt lat="47.2837" lon="-2.27451">
        <ele>102.19999694824</ele>
        <time>2022-03-20T10:22:59.000Z</time>
      </trkpt>
      <trkpt lat="47.2837" lon="-2.27446">
        <ele>102.19999694824</ele>
        <time>2022-03-20T10:26:26.000Z</time>
      </trkpt>
      <trkpt lat="47.28371" lon="-2.27443">
        <ele>102.19999694824</ele>
        <time>2022-03-20T10:26:27.000Z</time>
      </trkpt>
      <trkpt lat="47.28373" lon="-2.27429">
        <ele>102.19999694824</ele>
        <time>2022-03-20T10:26:31.000Z</time>
      </trkpt>
      <trkpt lat="47.28374" lon="-2.27424">
        <ele>102.19999694824</ele>
        <time>2022-03-20T10:26:33.000Z</time>
      </trkpt>
      <trkpt lat="47.28374" lon="-2.27424">
        <ele>102.19999694824</ele>
        <time>2022-03-20T10:26:35.000Z</time>
      </trkpt>
      <trkpt lat="47.28375" lon="-2.27416">
        <ele>102.19999694824</ele>
        <time>2022-03-20T10:27:01.000Z</time>
      </trkpt>
      <trkpt lat="47.28376" lon="-2.27413">
        <ele>102.19999694824</ele>
        <time>2022-03-20T10:27:02.000Z</time>
      </trkpt>
      <trkpt lat="47.28379" lon="-2.27389">
        <ele>102.19999694824</ele>
        <time>2022-03-20T10:27:07.000Z</time>
      </trkpt>
      <trkpt lat="47.28384" lon="-2.27361">
        <ele>101.59999847412</ele>
        <time>2022-03-20T10:27:11.000Z</time>
      </trkpt>
      <trkpt lat="47.28385" lon="-2.27356">
        <ele>101</ele>
        <time>2022-03-20T10:27:12.000Z</time>
      </trkpt>
      <trkpt lat="47.28385" lon="-2.27352">
        <ele>100.59999847412</ele>
        <time>2022-03-20T10:27:13.000Z</time>
      </trkpt>
      <trkpt lat="47.28387" lon="-2.27347">
        <ele>100</ele>
        <time>2022-03-20T10:27:14.000Z</time>
      </trkpt>
      <trkpt lat="47.28388" lon="-2.27342">
        <ele>99.599998474121</ele>
        <time>2022-03-20T10:27:15.000Z</time>
      </trkpt>
      <trkpt lat="47.2839" lon="-2.27332">
        <ele>99.599998474121</ele>
        <time>2022-03-20T10:27:17.000Z</time>
      </trkpt>
      <trkpt lat="47.28397" lon="-2.27301">
        <ele>99.599998474121</ele>
        <time>2022-03-20T10:27:23.000Z</time>
      </trkpt>
      <trkpt lat="47.28399" lon="-2.27279">
        <ele>99.599998474121</ele>
        <time>2022-03-20T10:27:28.000Z</time>
      </trkpt>
      <trkpt lat="47.28398" lon="-2.27274">
        <ele>99.599998474121</ele>
        <time>2022-03-20T10:27:32.000Z</time>
      </trkpt>
      <trkpt lat="47.28398" lon="-2.2727">
        <ele>99.599998474121</ele>
        <time>2022-03-20T10:27:37.000Z</time>
      </trkpt>
      <trkpt lat="47.28399" lon="-2.27273">
        <ele>99.599998474121</ele>
        <time>2022-03-20T10:28:09.000Z</time>
      </trkpt>
      <trkpt lat="47.284" lon="-2.27281">
        <ele>99.599998474121</ele>
        <time>2022-03-20T10:28:11.000Z</time>
      </trkpt>
      <trkpt lat="47.28398" lon="-2.27297">
        <ele>99.599998474121</ele>
        <time>2022-03-20T10:28:15.000Z</time>
      </trkpt>
      <trkpt lat="47.28396" lon="-2.27305">
        <ele>99.599998474121</ele>
        <time>2022-03-20T10:28:17.000Z</time>
      </trkpt>
      <trkpt lat="47.2839" lon="-2.27343">
        <ele>99.599998474121</ele>
        <time>2022-03-20T10:28:25.000Z</time>
      </trkpt>
      <trkpt lat="47.28386" lon="-2.2735">
        <ele>99.599998474121</ele>
        <time>2022-03-20T10:28:27.000Z</time>
      </trkpt>
      <trkpt lat="47.28384" lon="-2.2735">
        <ele>99.599998474121</ele>
        <time>2022-03-20T10:28:28.000Z</time>
      </trkpt>
      <trkpt lat="47.28372" lon="-2.2735">
        <ele>99.599998474121</ele>
        <time>2022-03-20T10:28:33.000Z</time>
      </trkpt>
      <trkpt lat="47.28369" lon="-2.2735">
        <ele>99.599998474121</ele>
        <time>2022-03-20T10:28:34.000Z</time>
      </trkpt>
      <trkpt lat="47.28352" lon="-2.27346">
        <ele>100</ele>
        <time>2022-03-20T10:28:39.000Z</time>
      </trkpt>
      <trkpt lat="47.28348" lon="-2.27346">
        <ele>100.40000152588</ele>
        <time>2022-03-20T10:28:40.000Z</time>
      </trkpt>
      <trkpt lat="47.28345" lon="-2.27346">
        <ele>100.80000305176</ele>
        <time>2022-03-20T10:28:41.000Z</time>
      </trkpt>
      <trkpt lat="47.28342" lon="-2.27345">
        <ele>101.19999694824</ele>
        <time>2022-03-20T10:28:42.000Z</time>
      </trkpt>
      <trkpt lat="47.28338" lon="-2.27346">
        <ele>101.59999847412</ele>
        <time>2022-03-20T10:28:43.000Z</time>
      </trkpt>
      <trkpt lat="47.28329" lon="-2.27346">
        <ele>102</ele>
        <time>2022-03-20T10:28:46.000Z</time>
      </trkpt>
      <trkpt lat="47.28326" lon="-2.27346">
        <ele>102.40000152588</ele>
        <time>2022-03-20T10:28:47.000Z</time>
      </trkpt>
      <trkpt lat="47.28323" lon="-2.27347">
        <ele>102.80000305176</ele>
        <time>2022-03-20T10:28:48.000Z</time>
      </trkpt>
      <trkpt lat="47.28321" lon="-2.27347">
        <ele>103.19999694824</ele>
        <time>2022-03-20T10:28:49.000Z</time>
      </trkpt>
      <trkpt lat="47.28317" lon="-2.27348">
        <ele>103.59999847412</ele>
        <time>2022-03-20T10:28:50.000Z</time>
      </trkpt>
      <trkpt lat="47.28307" lon="-2.27349">
        <ele>103.59999847412</ele>
        <time>2022-03-20T10:28:53.000Z</time>
      </trkpt>
      <trkpt lat="47.283" lon="-2.27349">
        <ele>104.59999847412</ele>
        <time>2022-03-20T10:28:55.000Z</time>
      </trkpt>
      <trkpt lat="47.28296" lon="-2.27349">
        <ele>105</ele>
        <time>2022-03-20T10:28:56.000Z</time>
      </trkpt>
      <trkpt lat="47.28293" lon="-2.27349">
        <ele>105.40000152588</ele>
        <time>2022-03-20T10:28:57.000Z</time>
      </trkpt>
      <trkpt lat="47.2829" lon="-2.27349">
        <ele>105.80000305176</ele>
        <time>2022-03-20T10:28:58.000Z</time>
      </trkpt>
      <trkpt lat="47.28279" lon="-2.27348">
        <ele>105.80000305176</ele>
        <time>2022-03-20T10:29:01.000Z</time>
      </trkpt>
      <trkpt lat="47.28268" lon="-2.27348">
        <ele>106.19999694824</ele>
        <time>2022-03-20T10:29:04.000Z</time>
      </trkpt>
      <trkpt lat="47.28264" lon="-2.27349">
        <ele>106.59999847412</ele>
        <time>2022-03-20T10:29:05.000Z</time>
      </trkpt>
      <trkpt lat="47.28261" lon="-2.27349">
        <ele>107</ele>
        <time>2022-03-20T10:29:06.000Z</time>
      </trkpt>
      <trkpt lat="47.28258" lon="-2.27349">
        <ele>107.59999847412</ele>
        <time>2022-03-20T10:29:07.000Z</time>
      </trkpt>
      <trkpt lat="47.28254" lon="-2.27349">
        <ele>108</ele>
        <time>2022-03-20T10:29:08.000Z</time>
      </trkpt>
      <trkpt lat="47.28235" lon="-2.27353">
        <ele>108</ele>
        <time>2022-03-20T10:29:13.000Z</time>
      </trkpt>
      <trkpt lat="47.2822" lon="-2.27357">
        <ele>108.40000152588</ele>
        <time>2022-03-20T10:29:17.000Z</time>
      </trkpt>
      <trkpt lat="47.28216" lon="-2.27358">
        <ele>108.80000305176</ele>
        <time>2022-03-20T10:29:18.000Z</time>
      </trkpt>
      <trkpt lat="47.28212" lon="-2.27359">
        <ele>109.59999847412</ele>
        <time>2022-03-20T10:29:19.000Z</time>
      </trkpt>
      <trkpt lat="47.28208" lon="-2.2736">
        <ele>110</ele>
        <time>2022-03-20T10:29:20.000Z</time>
      </trkpt>
      <trkpt lat="47.28168" lon="-2.27369">
        <ele>110</ele>
        <time>2022-03-20T10:29:29.000Z</time>
      </trkpt>
      <trkpt lat="47.28145" lon="-2.27372">
        <ele>110</ele>
        <time>2022-03-20T10:29:35.000Z</time>
      </trkpt>
      <trkpt lat="47.28131" lon="-2.27381">
        <ele>110</ele>
        <time>2022-03-20T10:29:40.000Z</time>
      </trkpt>
      <trkpt lat="47.28121" lon="-2.27402">
        <ele>110</ele>
        <time>2022-03-20T10:29:45.000Z</time>
      </trkpt>
      <trkpt lat="47.2811" lon="-2.27437">
        <ele>110</ele>
        <time>2022-03-20T10:29:52.000Z</time>
      </trkpt>
      <trkpt lat="47.28106" lon="-2.27448">
        <ele>110</ele>
        <time>2022-03-20T10:29:54.000Z</time>
      </trkpt>
      <trkpt lat="47.28098" lon="-2.27474">
        <ele>110</ele>
        <time>2022-03-20T10:29:58.000Z</time>
      </trkpt>
      <trkpt lat="47.28087" lon="-2.27505">
        <ele>109.59999847412</ele>
        <time>2022-03-20T10:30:02.000Z</time>
      </trkpt>
      <trkpt lat="47.28084" lon="-2.27513">
        <ele>109.19999694824</ele>
        <time>2022-03-20T10:30:03.000Z</time>
      </trkpt>
      <trkpt lat="47.28081" lon="-2.27521">
        <ele>108.59999847412</ele>
        <time>2022-03-20T10:30:04.000Z</time>
      </trkpt>
      <trkpt lat="47.28079" lon="-2.27529">
        <ele>108.19999694824</ele>
        <time>2022-03-20T10:30:05.000Z</time>
      </trkpt>
      <trkpt lat="47.28076" lon="-2.27536">
        <ele>107.80000305176</ele>
        <time>2022-03-20T10:30:06.000Z</time>
      </trkpt>
      <trkpt lat="47.28076" lon="-2.27542">
        <ele>107.80000305176</ele>
        <time>2022-03-20T10:30:07.000Z</time>
      </trkpt>
      <trkpt lat="47.28075" lon="-2.27548">
        <ele>107.19999694824</ele>
        <time>2022-03-20T10:30:08.000Z</time>
      </trkpt>
      <trkpt lat="47.28074" lon="-2.27554">
        <ele>106.40000152588</ele>
        <time>2022-03-20T10:30:09.000Z</time>
      </trkpt>
      <trkpt lat="47.28072" lon="-2.27558">
        <ele>106</ele>
        <time>2022-03-20T10:30:10.000Z</time>
      </trkpt>
      <trkpt lat="47.28071" lon="-2.27561">
        <ele>105.40000152588</ele>
        <time>2022-03-20T10:30:11.000Z</time>
      </trkpt>
      <trkpt lat="47.28069" lon="-2.27567">
        <ele>105.40000152588</ele>
        <time>2022-03-20T10:30:13.000Z</time>
      </trkpt>
      <trkpt lat="47.28068" lon="-2.2757">
        <ele>105.40000152588</ele>
        <time>2022-03-20T10:30:14.000Z</time>
      </trkpt>
      <trkpt lat="47.28064" lon="-2.27566">
        <ele>105.40000152588</ele>
        <time>2022-03-20T10:30:16.000Z</time>
      </trkpt>
      <trkpt lat="47.28062" lon="-2.27553">
        <ele>105.40000152588</ele>
        <time>2022-03-20T10:30:19.000Z</time>
      </trkpt>
      <trkpt lat="47.28048" lon="-2.27551">
        <ele>105.40000152588</ele>
        <time>2022-03-20T10:30:23.000Z</time>
      </trkpt>
      <trkpt lat="47.28026" lon="-2.27557">
        <ele>105.40000152588</ele>
        <time>2022-03-20T10:30:27.000Z</time>
      </trkpt>
      <trkpt lat="47.28019" lon="-2.27558">
        <ele>105.40000152588</ele>
        <time>2022-03-20T10:30:28.000Z</time>
      </trkpt>
      <trkpt lat="47.28006" lon="-2.27559">
        <ele>105</ele>
        <time>2022-03-20T10:30:30.000Z</time>
      </trkpt>
      <trkpt lat="47.27999" lon="-2.27559">
        <ele>104.40000152588</ele>
        <time>2022-03-20T10:30:31.000Z</time>
      </trkpt>
      <trkpt lat="47.27992" lon="-2.27558">
        <ele>104</ele>
        <time>2022-03-20T10:30:32.000Z</time>
      </trkpt>
      <trkpt lat="47.27985" lon="-2.27558">
        <ele>103.59999847412</ele>
        <time>2022-03-20T10:30:33.000Z</time>
      </trkpt>
      <trkpt lat="47.27978" lon="-2.27557">
        <ele>103</ele>
        <time>2022-03-20T10:30:34.000Z</time>
      </trkpt>
      <trkpt lat="47.27966" lon="-2.27558">
        <ele>102.59999847412</ele>
        <time>2022-03-20T10:30:36.000Z</time>
      </trkpt>
      <trkpt lat="47.2796" lon="-2.2756">
        <ele>102.19999694824</ele>
        <time>2022-03-20T10:30:37.000Z</time>
      </trkpt>
      <trkpt lat="47.27954" lon="-2.27561">
        <ele>101.80000305176</ele>
        <time>2022-03-20T10:30:38.000Z</time>
      </trkpt>
      <trkpt lat="47.27949" lon="-2.27561">
        <ele>101.40000152588</ele>
        <time>2022-03-20T10:30:39.000Z</time>
      </trkpt>
      <trkpt lat="47.27943" lon="-2.27564">
        <ele>101</ele>
        <time>2022-03-20T10:30:40.000Z</time>
      </trkpt>
      <trkpt lat="47.27925" lon="-2.27576">
        <ele>101</ele>
        <time>2022-03-20T10:30:43.000Z</time>
      </trkpt>
      <trkpt lat="47.2792" lon="-2.27582">
        <ele>100.59999847412</ele>
        <time>2022-03-20T10:30:44.000Z</time>
      </trkpt>
      <trkpt lat="47.27916" lon="-2.2759">
        <ele>100</ele>
        <time>2022-03-20T10:30:45.000Z</time>
      </trkpt>
      <trkpt lat="47.27913" lon="-2.27599">
        <ele>99.599998474121</ele>
        <time>2022-03-20T10:30:46.000Z</time>
      </trkpt>
      <trkpt lat="47.27911" lon="-2.27607">
        <ele>99.199996948242</ele>
        <time>2022-03-20T10:30:47.000Z</time>
      </trkpt>
      <trkpt lat="47.27908" lon="-2.27615">
        <ele>98.599998474121</ele>
        <time>2022-03-20T10:30:48.000Z</time>
      </trkpt>
      <trkpt lat="47.27905" lon="-2.27631">
        <ele>98.599998474121</ele>
        <time>2022-03-20T10:30:50.000Z</time>
      </trkpt>
      <trkpt lat="47.27903" lon="-2.27639">
        <ele>98.599998474121</ele>
        <time>2022-03-20T10:30:51.000Z</time>
      </trkpt>
      <trkpt lat="47.2789" lon="-2.27684">
        <ele>98.599998474121</ele>
        <time>2022-03-20T10:30:57.000Z</time>
      </trkpt>
      <trkpt lat="47.27887" lon="-2.2769">
        <ele>98.599998474121</ele>
        <time>2022-03-20T10:30:58.000Z</time>
      </trkpt>
      <trkpt lat="47.27862" lon="-2.27743">
        <ele>98.599998474121</ele>
        <time>2022-03-20T10:31:06.000Z</time>
      </trkpt>
      <trkpt lat="47.27835" lon="-2.27801">
        <ele>98.599998474121</ele>
        <time>2022-03-20T10:31:14.000Z</time>
      </trkpt>
      <trkpt lat="47.27811" lon="-2.27852">
        <ele>98.599998474121</ele>
        <time>2022-03-20T10:31:21.000Z</time>
      </trkpt>
      <trkpt lat="47.27791" lon="-2.2789">
        <ele>98.599998474121</ele>
        <time>2022-03-20T10:31:27.000Z</time>
      </trkpt>
      <trkpt lat="47.27775" lon="-2.27926">
        <ele>98.599998474121</ele>
        <time>2022-03-20T10:31:32.000Z</time>
      </trkpt>
      <trkpt lat="47.27773" lon="-2.27934">
        <ele>98.599998474121</ele>
        <time>2022-03-20T10:31:33.000Z</time>
      </trkpt>
      <trkpt lat="47.27772" lon="-2.27943">
        <ele>99</ele>
        <time>2022-03-20T10:31:34.000Z</time>
      </trkpt>
      <trkpt lat="47.2777" lon="-2.27951">
        <ele>99.400001525879</ele>
        <time>2022-03-20T10:31:35.000Z</time>
      </trkpt>
      <trkpt lat="47.27769" lon="-2.2796">
        <ele>100</ele>
        <time>2022-03-20T10:31:36.000Z</time>
      </trkpt>
      <trkpt lat="47.27767" lon="-2.27968">
        <ele>100.40000152588</ele>
        <time>2022-03-20T10:31:37.000Z</time>
      </trkpt>
      <trkpt lat="47.27765" lon="-2.27977">
        <ele>100.80000305176</ele>
        <time>2022-03-20T10:31:38.000Z</time>
      </trkpt>
      <trkpt lat="47.27756" lon="-2.28026">
        <ele>100.80000305176</ele>
        <time>2022-03-20T10:31:43.000Z</time>
      </trkpt>
      <trkpt lat="47.27749" lon="-2.28069">
        <ele>100.80000305176</ele>
        <time>2022-03-20T10:31:49.000Z</time>
      </trkpt>
      <trkpt lat="47.27737" lon="-2.28139">
        <ele>100.80000305176</ele>
        <time>2022-03-20T10:31:57.000Z</time>
      </trkpt>
      <trkpt lat="47.27725" lon="-2.28179">
        <ele>100.80000305176</ele>
        <time>2022-03-20T10:32:02.000Z</time>
      </trkpt>
      <trkpt lat="47.277" lon="-2.28231">
        <ele>100.80000305176</ele>
        <time>2022-03-20T10:32:09.000Z</time>
      </trkpt>
      <trkpt lat="47.27678" lon="-2.28264">
        <ele>100.80000305176</ele>
        <time>2022-03-20T10:32:15.000Z</time>
      </trkpt>
      <trkpt lat="47.27664" lon="-2.28283">
        <ele>100.80000305176</ele>
        <time>2022-03-20T10:32:21.000Z</time>
      </trkpt>
      <trkpt lat="47.27659" lon="-2.28293">
        <ele>100.80000305176</ele>
        <time>2022-03-20T10:32:26.000Z</time>
      </trkpt>
      <trkpt lat="47.27642" lon="-2.28309">
        <ele>100.80000305176</ele>
        <time>2022-03-20T10:32:31.000Z</time>
      </trkpt>
      <trkpt lat="47.27628" lon="-2.28321">
        <ele>100.80000305176</ele>
        <time>2022-03-20T10:32:34.000Z</time>
      </trkpt>
      <trkpt lat="47.27624" lon="-2.28327">
        <ele>100.80000305176</ele>
        <time>2022-03-20T10:32:35.000Z</time>
      </trkpt>
      <trkpt lat="47.27617" lon="-2.28337">
        <ele>100.80000305176</ele>
        <time>2022-03-20T10:32:37.000Z</time>
      </trkpt>
      <trkpt lat="47.27588" lon="-2.28372">
        <ele>100.80000305176</ele>
        <time>2022-03-20T10:32:44.000Z</time>
      </trkpt>
      <trkpt lat="47.27558" lon="-2.28407">
        <ele>100.80000305176</ele>
        <time>2022-03-20T10:32:51.000Z</time>
      </trkpt>
      <trkpt lat="47.27532" lon="-2.28453">
        <ele>100.80000305176</ele>
        <time>2022-03-20T10:32:58.000Z</time>
      </trkpt>
      <trkpt lat="47.27518" lon="-2.28496">
        <ele>100.80000305176</ele>
        <time>2022-03-20T10:33:04.000Z</time>
      </trkpt>
      <trkpt lat="47.27503" lon="-2.28535">
        <ele>100.80000305176</ele>
        <time>2022-03-20T10:33:09.000Z</time>
      </trkpt>
      <trkpt lat="47.27485" lon="-2.28579">
        <ele>100.80000305176</ele>
        <time>2022-03-20T10:33:14.000Z</time>
      </trkpt>
      <trkpt lat="47.27471" lon="-2.28614">
        <ele>100.80000305176</ele>
        <time>2022-03-20T10:33:18.000Z</time>
      </trkpt>
      <trkpt lat="47.27461" lon="-2.2863">
        <ele>100.80000305176</ele>
        <time>2022-03-20T10:33:20.000Z</time>
      </trkpt>
      <trkpt lat="47.27439" lon="-2.28668">
        <ele>100.80000305176</ele>
        <time>2022-03-20T10:33:25.000Z</time>
      </trkpt>
      <trkpt lat="47.27419" lon="-2.28708">
        <ele>100.80000305176</ele>
        <time>2022-03-20T10:33:30.000Z</time>
      </trkpt>
      <trkpt lat="47.27396" lon="-2.28757">
        <ele>100.80000305176</ele>
        <time>2022-03-20T10:33:36.000Z</time>
      </trkpt>
      <trkpt lat="47.27372" lon="-2.28814">
        <ele>100.80000305176</ele>
        <time>2022-03-20T10:33:43.000Z</time>
      </trkpt>
      <trkpt lat="47.27358" lon="-2.28866">
        <ele>100.80000305176</ele>
        <time>2022-03-20T10:33:48.000Z</time>
      </trkpt>
      <trkpt lat="47.27346" lon="-2.2894">
        <ele>100.80000305176</ele>
        <time>2022-03-20T10:33:56.000Z</time>
      </trkpt>
      <trkpt lat="47.27343" lon="-2.2895">
        <ele>100.80000305176</ele>
        <time>2022-03-20T10:33:59.000Z</time>
      </trkpt>
      <trkpt lat="47.27337" lon="-2.28945">
        <ele>100.80000305176</ele>
        <time>2022-03-20T10:34:02.000Z</time>
      </trkpt>
      <trkpt lat="47.27321" lon="-2.28943">
        <ele>100.80000305176</ele>
        <time>2022-03-20T10:34:06.000Z</time>
      </trkpt>
      <trkpt lat="47.27316" lon="-2.28952">
        <ele>100.80000305176</ele>
        <time>2022-03-20T10:34:09.000Z</time>
      </trkpt>
      <trkpt lat="47.27314" lon="-2.28954">
        <ele>100.80000305176</ele>
        <time>2022-03-20T10:34:10.000Z</time>
      </trkpt>
      <trkpt lat="47.27311" lon="-2.2897">
        <ele>100.80000305176</ele>
        <time>2022-03-20T10:34:14.000Z</time>
      </trkpt>
      <trkpt lat="47.27308" lon="-2.2897">
        <ele>100.80000305176</ele>
        <time>2022-03-20T10:34:15.000Z</time>
      </trkpt>
      <trkpt lat="47.27303" lon="-2.28975">
        <ele>100.80000305176</ele>
        <time>2022-03-20T10:34:17.000Z</time>
      </trkpt>
      <trkpt lat="47.27291" lon="-2.28994">
        <ele>100.80000305176</ele>
        <time>2022-03-20T10:34:21.000Z</time>
      </trkpt>
      <trkpt lat="47.27285" lon="-2.29004">
        <ele>100.80000305176</ele>
        <time>2022-03-20T10:34:23.000Z</time>
      </trkpt>
      <trkpt lat="47.2728" lon="-2.29016">
        <ele>100.80000305176</ele>
        <time>2022-03-20T10:34:25.000Z</time>
      </trkpt>
      <trkpt lat="47.2727" lon="-2.29032">
        <ele>100.80000305176</ele>
        <time>2022-03-20T10:34:29.000Z</time>
      </trkpt>
      <trkpt lat="47.27267" lon="-2.29037">
        <ele>100.80000305176</ele>
        <time>2022-03-20T10:34:30.000Z</time>
      </trkpt>
      <trkpt lat="47.27252" lon="-2.29054">
        <ele>100.80000305176</ele>
        <time>2022-03-20T10:34:34.000Z</time>
      </trkpt>
      <trkpt lat="47.27231" lon="-2.29074">
        <ele>100.80000305176</ele>
        <time>2022-03-20T10:34:39.000Z</time>
      </trkpt>
      <trkpt lat="47.27226" lon="-2.2908">
        <ele>100.80000305176</ele>
        <time>2022-03-20T10:34:40.000Z</time>
      </trkpt>
      <trkpt lat="47.27201" lon="-2.29106">
        <ele>100.80000305176</ele>
        <time>2022-03-20T10:34:46.000Z</time>
      </trkpt>
      <trkpt lat="47.27196" lon="-2.29108">
        <ele>100.80000305176</ele>
        <time>2022-03-20T10:34:47.000Z</time>
      </trkpt>
      <trkpt lat="47.27183" lon="-2.29108">
        <ele>100.80000305176</ele>
        <time>2022-03-20T10:34:49.000Z</time>
      </trkpt>
      <trkpt lat="47.27162" lon="-2.29101">
        <ele>100.80000305176</ele>
        <time>2022-03-20T10:34:53.000Z</time>
      </trkpt>
      <trkpt lat="47.27156" lon="-2.291">
        <ele>100.80000305176</ele>
        <time>2022-03-20T10:34:54.000Z</time>
      </trkpt>
      <trkpt lat="47.27144" lon="-2.29095">
        <ele>100.80000305176</ele>
        <time>2022-03-20T10:34:56.000Z</time>
      </trkpt>
      <trkpt lat="47.27128" lon="-2.29084">
        <ele>100.80000305176</ele>
        <time>2022-03-20T10:34:59.000Z</time>
      </trkpt>
      <trkpt lat="47.27093" lon="-2.29065">
        <ele>100.80000305176</ele>
        <time>2022-03-20T10:35:05.000Z</time>
      </trkpt>
      <trkpt lat="47.27057" lon="-2.2905">
        <ele>100.80000305176</ele>
        <time>2022-03-20T10:35:12.000Z</time>
      </trkpt>
      <trkpt lat="47.27043" lon="-2.29031">
        <ele>100.80000305176</ele>
        <time>2022-03-20T10:35:16.000Z</time>
      </trkpt>
      <trkpt lat="47.27041" lon="-2.29024">
        <ele>100.80000305176</ele>
        <time>2022-03-20T10:35:17.000Z</time>
      </trkpt>
      <trkpt lat="47.27027" lon="-2.2901">
        <ele>100.80000305176</ele>
        <time>2022-03-20T10:35:20.000Z</time>
      </trkpt>
      <trkpt lat="47.27015" lon="-2.29007">
        <ele>100.80000305176</ele>
        <time>2022-03-20T10:35:22.000Z</time>
      </trkpt>
      <trkpt lat="47.26991" lon="-2.29003">
        <ele>100.80000305176</ele>
        <time>2022-03-20T10:35:26.000Z</time>
      </trkpt>
      <trkpt lat="47.26949" lon="-2.28991">
        <ele>100.80000305176</ele>
        <time>2022-03-20T10:35:33.000Z</time>
      </trkpt>
      <trkpt lat="47.26937" lon="-2.2899">
        <ele>100.80000305176</ele>
        <time>2022-03-20T10:35:35.000Z</time>
      </trkpt>
      <trkpt lat="47.26925" lon="-2.28994">
        <ele>100.80000305176</ele>
        <time>2022-03-20T10:35:37.000Z</time>
      </trkpt>
      <trkpt lat="47.26895" lon="-2.29009">
        <ele>100.80000305176</ele>
        <time>2022-03-20T10:35:42.000Z</time>
      </trkpt>
      <trkpt lat="47.2689" lon="-2.29013">
        <ele>100.80000305176</ele>
        <time>2022-03-20T10:35:43.000Z</time>
      </trkpt>
      <trkpt lat="47.26857" lon="-2.29043">
        <ele>101.19999694824</ele>
        <time>2022-03-20T10:35:49.000Z</time>
      </trkpt>
      <trkpt lat="47.26851" lon="-2.29048">
        <ele>101.59999847412</ele>
        <time>2022-03-20T10:35:50.000Z</time>
      </trkpt>
      <trkpt lat="47.26846" lon="-2.29054">
        <ele>102</ele>
        <time>2022-03-20T10:35:51.000Z</time>
      </trkpt>
      <trkpt lat="47.26841" lon="-2.29059">
        <ele>102.40000152588</ele>
        <time>2022-03-20T10:35:52.000Z</time>
      </trkpt>
      <trkpt lat="47.26835" lon="-2.29064">
        <ele>102.80000305176</ele>
        <time>2022-03-20T10:35:53.000Z</time>
      </trkpt>
      <trkpt lat="47.26814" lon="-2.29085">
        <ele>102.80000305176</ele>
        <time>2022-03-20T10:35:57.000Z</time>
      </trkpt>
      <trkpt lat="47.26785" lon="-2.29115">
        <ele>102.80000305176</ele>
        <time>2022-03-20T10:36:03.000Z</time>
      </trkpt>
      <trkpt lat="47.2678" lon="-2.29119">
        <ele>103.19999694824</ele>
        <time>2022-03-20T10:36:04.000Z</time>
      </trkpt>
      <trkpt lat="47.26775" lon="-2.29123">
        <ele>103.59999847412</ele>
        <time>2022-03-20T10:36:05.000Z</time>
      </trkpt>
      <trkpt lat="47.26771" lon="-2.29128">
        <ele>104</ele>
        <time>2022-03-20T10:36:06.000Z</time>
      </trkpt>
      <trkpt lat="47.26766" lon="-2.29133">
        <ele>104.40000152588</ele>
        <time>2022-03-20T10:36:07.000Z</time>
      </trkpt>
      <trkpt lat="47.26762" lon="-2.29137">
        <ele>104.80000305176</ele>
        <time>2022-03-20T10:36:08.000Z</time>
      </trkpt>
      <trkpt lat="47.26753" lon="-2.29145">
        <ele>104.80000305176</ele>
        <time>2022-03-20T10:36:10.000Z</time>
      </trkpt>
      <trkpt lat="47.26731" lon="-2.29167">
        <ele>105.40000152588</ele>
        <time>2022-03-20T10:36:15.000Z</time>
      </trkpt>
      <trkpt lat="47.26727" lon="-2.29171">
        <ele>105.80000305176</ele>
        <time>2022-03-20T10:36:16.000Z</time>
      </trkpt>
      <trkpt lat="47.26723" lon="-2.29175">
        <ele>106.19999694824</ele>
        <time>2022-03-20T10:36:17.000Z</time>
      </trkpt>
      <trkpt lat="47.26718" lon="-2.29179">
        <ele>106.59999847412</ele>
        <time>2022-03-20T10:36:18.000Z</time>
      </trkpt>
      <trkpt lat="47.26713" lon="-2.29184">
        <ele>107</ele>
        <time>2022-03-20T10:36:19.000Z</time>
      </trkpt>
      <trkpt lat="47.26696" lon="-2.29202">
        <ele>107</ele>
        <time>2022-03-20T10:36:23.000Z</time>
      </trkpt>
      <trkpt lat="47.26691" lon="-2.29206">
        <ele>107.40000152588</ele>
        <time>2022-03-20T10:36:24.000Z</time>
      </trkpt>
      <trkpt lat="47.26687" lon="-2.29211">
        <ele>107.80000305176</ele>
        <time>2022-03-20T10:36:25.000Z</time>
      </trkpt>
      <trkpt lat="47.26682" lon="-2.29216">
        <ele>108.19999694824</ele>
        <time>2022-03-20T10:36:26.000Z</time>
      </trkpt>
      <trkpt lat="47.26678" lon="-2.29221">
        <ele>108.59999847412</ele>
        <time>2022-03-20T10:36:27.000Z</time>
      </trkpt>
      <trkpt lat="47.26674" lon="-2.29225">
        <ele>109</ele>
        <time>2022-03-20T10:36:28.000Z</time>
      </trkpt>
      <trkpt lat="47.26661" lon="-2.29239">
        <ele>109</ele>
        <time>2022-03-20T10:36:31.000Z</time>
      </trkpt>
      <trkpt lat="47.26656" lon="-2.29242">
        <ele>109</ele>
        <time>2022-03-20T10:36:32.000Z</time>
      </trkpt>
      <trkpt lat="47.26639" lon="-2.29257">
        <ele>109</ele>
        <time>2022-03-20T10:36:36.000Z</time>
      </trkpt>
      <trkpt lat="47.26621" lon="-2.29272">
        <ele>109.40000152588</ele>
        <time>2022-03-20T10:36:40.000Z</time>
      </trkpt>
      <trkpt lat="47.26616" lon="-2.29275">
        <ele>109.80000305176</ele>
        <time>2022-03-20T10:36:41.000Z</time>
      </trkpt>
      <trkpt lat="47.26612" lon="-2.29278">
        <ele>110.19999694824</ele>
        <time>2022-03-20T10:36:42.000Z</time>
      </trkpt>
      <trkpt lat="47.26607" lon="-2.29281">
        <ele>110.59999847412</ele>
        <time>2022-03-20T10:36:43.000Z</time>
      </trkpt>
      <trkpt lat="47.26602" lon="-2.29284">
        <ele>111</ele>
        <time>2022-03-20T10:36:44.000Z</time>
      </trkpt>
      <trkpt lat="47.26567" lon="-2.29306">
        <ele>111</ele>
        <time>2022-03-20T10:36:51.000Z</time>
      </trkpt>
      <trkpt lat="47.26525" lon="-2.29329">
        <ele>111</ele>
        <time>2022-03-20T10:36:59.000Z</time>
      </trkpt>
      <trkpt lat="47.26514" lon="-2.29334">
        <ele>111.40000152588</ele>
        <time>2022-03-20T10:37:01.000Z</time>
      </trkpt>
      <trkpt lat="47.26509" lon="-2.29335">
        <ele>111.80000305176</ele>
        <time>2022-03-20T10:37:02.000Z</time>
      </trkpt>
      <trkpt lat="47.26504" lon="-2.29337">
        <ele>112.19999694824</ele>
        <time>2022-03-20T10:37:03.000Z</time>
      </trkpt>
      <trkpt lat="47.26498" lon="-2.29338">
        <ele>112.59999847412</ele>
        <time>2022-03-20T10:37:04.000Z</time>
      </trkpt>
      <trkpt lat="47.26493" lon="-2.29339">
        <ele>113</ele>
        <time>2022-03-20T10:37:05.000Z</time>
      </trkpt>
      <trkpt lat="47.26476" lon="-2.29336">
        <ele>113</ele>
        <time>2022-03-20T10:37:08.000Z</time>
      </trkpt>
      <trkpt lat="47.26465" lon="-2.29332">
        <ele>113</ele>
        <time>2022-03-20T10:37:10.000Z</time>
      </trkpt>
      <trkpt lat="47.26431" lon="-2.29315">
        <ele>113</ele>
        <time>2022-03-20T10:37:16.000Z</time>
      </trkpt>
      <trkpt lat="47.2639" lon="-2.29294">
        <ele>113</ele>
        <time>2022-03-20T10:37:23.000Z</time>
      </trkpt>
      <trkpt lat="47.26372" lon="-2.29284">
        <ele>113</ele>
        <time>2022-03-20T10:37:26.000Z</time>
      </trkpt>
      <trkpt lat="47.26353" lon="-2.29277">
        <ele>113</ele>
        <time>2022-03-20T10:37:29.000Z</time>
      </trkpt>
      <trkpt lat="47.2632" lon="-2.29272">
        <ele>113</ele>
        <time>2022-03-20T10:37:34.000Z</time>
      </trkpt>
      <trkpt lat="47.26286" lon="-2.2928">
        <ele>113</ele>
        <time>2022-03-20T10:37:39.000Z</time>
      </trkpt>
      <trkpt lat="47.2626" lon="-2.29295">
        <ele>112.59999847412</ele>
        <time>2022-03-20T10:37:43.000Z</time>
      </trkpt>
      <trkpt lat="47.26253" lon="-2.29299">
        <ele>112.19999694824</ele>
        <time>2022-03-20T10:37:44.000Z</time>
      </trkpt>
      <trkpt lat="47.26247" lon="-2.29304">
        <ele>111.80000305176</ele>
        <time>2022-03-20T10:37:45.000Z</time>
      </trkpt>
      <trkpt lat="47.2624" lon="-2.2931">
        <ele>111.40000152588</ele>
        <time>2022-03-20T10:37:46.000Z</time>
      </trkpt>
      <trkpt lat="47.26234" lon="-2.29315">
        <ele>111</ele>
        <time>2022-03-20T10:37:47.000Z</time>
      </trkpt>
      <trkpt lat="47.26209" lon="-2.29336">
        <ele>110.59999847412</ele>
        <time>2022-03-20T10:37:51.000Z</time>
      </trkpt>
      <trkpt lat="47.26204" lon="-2.2934">
        <ele>110.19999694824</ele>
        <time>2022-03-20T10:37:52.000Z</time>
      </trkpt>
      <trkpt lat="47.26199" lon="-2.29344">
        <ele>109.80000305176</ele>
        <time>2022-03-20T10:37:53.000Z</time>
      </trkpt>
      <trkpt lat="47.26194" lon="-2.29348">
        <ele>109.40000152588</ele>
        <time>2022-03-20T10:37:54.000Z</time>
      </trkpt>
      <trkpt lat="47.26189" lon="-2.29352">
        <ele>109</ele>
        <time>2022-03-20T10:37:55.000Z</time>
      </trkpt>
      <trkpt lat="47.26179" lon="-2.29359">
        <ele>109</ele>
        <time>2022-03-20T10:37:57.000Z</time>
      </trkpt>
      <trkpt lat="47.26163" lon="-2.29358">
        <ele>108.59999847412</ele>
        <time>2022-03-20T10:38:00.000Z</time>
      </trkpt>
      <trkpt lat="47.26158" lon="-2.29356">
        <ele>108</ele>
        <time>2022-03-20T10:38:01.000Z</time>
      </trkpt>
      <trkpt lat="47.26153" lon="-2.29354">
        <ele>107.59999847412</ele>
        <time>2022-03-20T10:38:02.000Z</time>
      </trkpt>
      <trkpt lat="47.26147" lon="-2.29354">
        <ele>107.19999694824</ele>
        <time>2022-03-20T10:38:03.000Z</time>
      </trkpt>
      <trkpt lat="47.26143" lon="-2.29354">
        <ele>106.80000305176</ele>
        <time>2022-03-20T10:38:04.000Z</time>
      </trkpt>
      <trkpt lat="47.2614" lon="-2.29357">
        <ele>106.19999694824</ele>
        <time>2022-03-20T10:38:05.000Z</time>
      </trkpt>
      <trkpt lat="47.26138" lon="-2.29361">
        <ele>105.80000305176</ele>
        <time>2022-03-20T10:38:06.000Z</time>
      </trkpt>
      <trkpt lat="47.26137" lon="-2.29366">
        <ele>105.40000152588</ele>
        <time>2022-03-20T10:38:07.000Z</time>
      </trkpt>
      <trkpt lat="47.26136" lon="-2.29371">
        <ele>104.80000305176</ele>
        <time>2022-03-20T10:38:08.000Z</time>
      </trkpt>
      <trkpt lat="47.26135" lon="-2.29376">
        <ele>104.80000305176</ele>
        <time>2022-03-20T10:38:09.000Z</time>
      </trkpt>
      <trkpt lat="47.26128" lon="-2.29415">
        <ele>104.80000305176</ele>
        <time>2022-03-20T10:38:17.000Z</time>
      </trkpt>
      <trkpt lat="47.26126" lon="-2.29439">
        <ele>104.80000305176</ele>
        <time>2022-03-20T10:38:22.000Z</time>
      </trkpt>
      <trkpt lat="47.26128" lon="-2.29466">
        <ele>104.80000305176</ele>
        <time>2022-03-20T10:38:27.000Z</time>
      </trkpt>
      <trkpt lat="47.26136" lon="-2.29484">
        <ele>104.80000305176</ele>
        <time>2022-03-20T10:38:31.000Z</time>
      </trkpt>
      <trkpt lat="47.2615" lon="-2.29512">
        <ele>104.80000305176</ele>
        <time>2022-03-20T10:38:38.000Z</time>
      </trkpt>
      <trkpt lat="47.26168" lon="-2.29529">
        <ele>104.80000305176</ele>
        <time>2022-03-20T10:38:44.000Z</time>
      </trkpt>
      <trkpt lat="47.26187" lon="-2.29548">
        <ele>104.80000305176</ele>
        <time>2022-03-20T10:38:50.000Z</time>
      </trkpt>
      <trkpt lat="47.26189" lon="-2.29552">
        <ele>105.19999694824</ele>
        <time>2022-03-20T10:38:51.000Z</time>
      </trkpt>
      <trkpt lat="47.2619" lon="-2.29556">
        <ele>105.59999847412</ele>
        <time>2022-03-20T10:38:52.000Z</time>
      </trkpt>
      <trkpt lat="47.26192" lon="-2.29561">
        <ele>106</ele>
        <time>2022-03-20T10:38:53.000Z</time>
      </trkpt>
      <trkpt lat="47.26194" lon="-2.29566">
        <ele>106.40000152588</ele>
        <time>2022-03-20T10:38:54.000Z</time>
      </trkpt>
      <trkpt lat="47.26195" lon="-2.29571">
        <ele>106.80000305176</ele>
        <time>2022-03-20T10:38:55.000Z</time>
      </trkpt>
      <trkpt lat="47.26209" lon="-2.29605">
        <ele>106.80000305176</ele>
        <time>2022-03-20T10:39:03.000Z</time>
      </trkpt>
      <trkpt lat="47.26212" lon="-2.29624">
        <ele>106.80000305176</ele>
        <time>2022-03-20T10:39:10.000Z</time>
      </trkpt>
      <trkpt lat="47.26217" lon="-2.29639">
        <ele>106.80000305176</ele>
        <time>2022-03-20T10:39:14.000Z</time>
      </trkpt>
      <trkpt lat="47.26233" lon="-2.29659">
        <ele>106.80000305176</ele>
        <time>2022-03-20T10:39:20.000Z</time>
      </trkpt>
      <trkpt lat="47.26237" lon="-2.29661">
        <ele>106.80000305176</ele>
        <time>2022-03-20T10:39:21.000Z</time>
      </trkpt>
      <trkpt lat="47.26258" lon="-2.29669">
        <ele>106.80000305176</ele>
        <time>2022-03-20T10:39:26.000Z</time>
      </trkpt>
      <trkpt lat="47.26275" lon="-2.29673">
        <ele>107.40000152588</ele>
        <time>2022-03-20T10:39:30.000Z</time>
      </trkpt>
      <trkpt lat="47.26279" lon="-2.29674">
        <ele>107.80000305176</ele>
        <time>2022-03-20T10:39:31.000Z</time>
      </trkpt>
      <trkpt lat="47.26284" lon="-2.29676">
        <ele>108.19999694824</ele>
        <time>2022-03-20T10:39:32.000Z</time>
      </trkpt>
      <trkpt lat="47.26288" lon="-2.29677">
        <ele>108.59999847412</ele>
        <time>2022-03-20T10:39:33.000Z</time>
      </trkpt>
      <trkpt lat="47.26292" lon="-2.29679">
        <ele>109</ele>
        <time>2022-03-20T10:39:34.000Z</time>
      </trkpt>
      <trkpt lat="47.26304" lon="-2.29683">
        <ele>109</ele>
        <time>2022-03-20T10:39:37.000Z</time>
      </trkpt>
      <trkpt lat="47.26313" lon="-2.29684">
        <ele>109</ele>
        <time>2022-03-20T10:39:39.000Z</time>
      </trkpt>
      <trkpt lat="47.26317" lon="-2.29686">
        <ele>109</ele>
        <time>2022-03-20T10:39:40.000Z</time>
      </trkpt>
      <trkpt lat="47.26324" lon="-2.29695">
        <ele>109</ele>
        <time>2022-03-20T10:39:42.000Z</time>
      </trkpt>
      <trkpt lat="47.2633" lon="-2.29715">
        <ele>109</ele>
        <time>2022-03-20T10:39:45.000Z</time>
      </trkpt>
      <trkpt lat="47.26331" lon="-2.29721">
        <ele>109</ele>
        <time>2022-03-20T10:39:46.000Z</time>
      </trkpt>
      <trkpt lat="47.26343" lon="-2.29772">
        <ele>109</ele>
        <time>2022-03-20T10:39:53.000Z</time>
      </trkpt>
      <trkpt lat="47.26343" lon="-2.29779">
        <ele>109</ele>
        <time>2022-03-20T10:39:54.000Z</time>
      </trkpt>
      <trkpt lat="47.26338" lon="-2.29799">
        <ele>109</ele>
        <time>2022-03-20T10:39:57.000Z</time>
      </trkpt>
      <trkpt lat="47.26329" lon="-2.29808">
        <ele>109</ele>
        <time>2022-03-20T10:39:59.000Z</time>
      </trkpt>
      <trkpt lat="47.26324" lon="-2.29812">
        <ele>109</ele>
        <time>2022-03-20T10:40:00.000Z</time>
      </trkpt>
      <trkpt lat="47.26319" lon="-2.29814">
        <ele>109</ele>
        <time>2022-03-20T10:40:01.000Z</time>
      </trkpt>
      <trkpt lat="47.26279" lon="-2.29828">
        <ele>109</ele>
        <time>2022-03-20T10:40:08.000Z</time>
      </trkpt>
      <trkpt lat="47.26272" lon="-2.2983">
        <ele>108.59999847412</ele>
        <time>2022-03-20T10:40:09.000Z</time>
      </trkpt>
      <trkpt lat="47.26266" lon="-2.29831">
        <ele>108.19999694824</ele>
        <time>2022-03-20T10:40:10.000Z</time>
      </trkpt>
      <trkpt lat="47.26259" lon="-2.29833">
        <ele>107.80000305176</ele>
        <time>2022-03-20T10:40:11.000Z</time>
      </trkpt>
      <trkpt lat="47.26252" lon="-2.29835">
        <ele>107.40000152588</ele>
        <time>2022-03-20T10:40:12.000Z</time>
      </trkpt>
      <trkpt lat="47.26246" lon="-2.29836">
        <ele>107</ele>
        <time>2022-03-20T10:40:13.000Z</time>
      </trkpt>
      <trkpt lat="47.26233" lon="-2.29837">
        <ele>107</ele>
        <time>2022-03-20T10:40:15.000Z</time>
      </trkpt>
      <trkpt lat="47.26223" lon="-2.29842">
        <ele>106.40000152588</ele>
        <time>2022-03-20T10:40:17.000Z</time>
      </trkpt>
      <trkpt lat="47.2622" lon="-2.29848">
        <ele>106</ele>
        <time>2022-03-20T10:40:18.000Z</time>
      </trkpt>
      <trkpt lat="47.26219" lon="-2.29856">
        <ele>105.59999847412</ele>
        <time>2022-03-20T10:40:19.000Z</time>
      </trkpt>
      <trkpt lat="47.26219" lon="-2.29864">
        <ele>105.19999694824</ele>
        <time>2022-03-20T10:40:20.000Z</time>
      </trkpt>
      <trkpt lat="47.26219" lon="-2.29872">
        <ele>104.80000305176</ele>
        <time>2022-03-20T10:40:21.000Z</time>
      </trkpt>
      <trkpt lat="47.2622" lon="-2.29887">
        <ele>104.80000305176</ele>
        <time>2022-03-20T10:40:23.000Z</time>
      </trkpt>
      <trkpt lat="47.26221" lon="-2.29894">
        <ele>104.80000305176</ele>
        <time>2022-03-20T10:40:24.000Z</time>
      </trkpt>
      <trkpt lat="47.26223" lon="-2.29908">
        <ele>104.80000305176</ele>
        <time>2022-03-20T10:40:26.000Z</time>
      </trkpt>
      <trkpt lat="47.26225" lon="-2.2995">
        <ele>104.80000305176</ele>
        <time>2022-03-20T10:40:32.000Z</time>
      </trkpt>
      <trkpt lat="47.26227" lon="-2.30001">
        <ele>104.80000305176</ele>
        <time>2022-03-20T10:40:39.000Z</time>
      </trkpt>
      <trkpt lat="47.26227" lon="-2.30009">
        <ele>104.80000305176</ele>
        <time>2022-03-20T10:40:40.000Z</time>
      </trkpt>
      <trkpt lat="47.26226" lon="-2.30026">
        <ele>104.80000305176</ele>
        <time>2022-03-20T10:40:42.000Z</time>
      </trkpt>
      <trkpt lat="47.26227" lon="-2.30043">
        <ele>104.80000305176</ele>
        <time>2022-03-20T10:40:44.000Z</time>
      </trkpt>
      <trkpt lat="47.26231" lon="-2.30068">
        <ele>104.80000305176</ele>
        <time>2022-03-20T10:40:47.000Z</time>
      </trkpt>
      <trkpt lat="47.26236" lon="-2.30083">
        <ele>104.80000305176</ele>
        <time>2022-03-20T10:40:49.000Z</time>
      </trkpt>
      <trkpt lat="47.26247" lon="-2.30119">
        <ele>104.80000305176</ele>
        <time>2022-03-20T10:40:55.000Z</time>
      </trkpt>
      <trkpt lat="47.26246" lon="-2.30125">
        <ele>104.80000305176</ele>
        <time>2022-03-20T10:40:56.000Z</time>
      </trkpt>
      <trkpt lat="47.2624" lon="-2.3013">
        <ele>104.80000305176</ele>
        <time>2022-03-20T10:40:58.000Z</time>
      </trkpt>
      <trkpt lat="47.26233" lon="-2.30133">
        <ele>104.40000152588</ele>
        <time>2022-03-20T10:41:00.000Z</time>
      </trkpt>
      <trkpt lat="47.26229" lon="-2.30135">
        <ele>104</ele>
        <time>2022-03-20T10:41:01.000Z</time>
      </trkpt>
      <trkpt lat="47.26225" lon="-2.30136">
        <ele>103.59999847412</ele>
        <time>2022-03-20T10:41:02.000Z</time>
      </trkpt>
      <trkpt lat="47.26221" lon="-2.30137">
        <ele>103.19999694824</ele>
        <time>2022-03-20T10:41:03.000Z</time>
      </trkpt>
      <trkpt lat="47.26216" lon="-2.30139">
        <ele>102.80000305176</ele>
        <time>2022-03-20T10:41:04.000Z</time>
      </trkpt>
      <trkpt lat="47.26192" lon="-2.30149">
        <ele>102.80000305176</ele>
        <time>2022-03-20T10:41:09.000Z</time>
      </trkpt>
      <trkpt lat="47.26179" lon="-2.30155">
        <ele>102.19999694824</ele>
        <time>2022-03-20T10:41:12.000Z</time>
      </trkpt>
      <trkpt lat="47.26175" lon="-2.30154">
        <ele>101.80000305176</ele>
        <time>2022-03-20T10:41:13.000Z</time>
      </trkpt>
      <trkpt lat="47.26174" lon="-2.30151">
        <ele>101.40000152588</ele>
        <time>2022-03-20T10:41:14.000Z</time>
      </trkpt>
      <trkpt lat="47.26173" lon="-2.30148">
        <ele>101</ele>
        <time>2022-03-20T10:41:15.000Z</time>
      </trkpt>
      <trkpt lat="47.26172" lon="-2.30145">
        <ele>100.59999847412</ele>
        <time>2022-03-20T10:41:16.000Z</time>
      </trkpt>
      <trkpt lat="47.26166" lon="-2.30146">
        <ele>100.59999847412</ele>
        <time>2022-03-20T10:41:19.000Z</time>
      </trkpt>
      <trkpt lat="47.26155" lon="-2.30149">
        <ele>100.59999847412</ele>
        <time>2022-03-20T10:41:22.000Z</time>
      </trkpt>
      <trkpt lat="47.2615" lon="-2.30151">
        <ele>100.59999847412</ele>
        <time>2022-03-20T10:41:23.000Z</time>
      </trkpt>
      <trkpt lat="47.26145" lon="-2.30153">
        <ele>100.19999694824</ele>
        <time>2022-03-20T10:41:24.000Z</time>
      </trkpt>
      <trkpt lat="47.2614" lon="-2.30154">
        <ele>99.800003051758</ele>
        <time>2022-03-20T10:41:25.000Z</time>
      </trkpt>
      <trkpt lat="47.26135" lon="-2.30156">
        <ele>99.199996948242</ele>
        <time>2022-03-20T10:41:26.000Z</time>
      </trkpt>
      <trkpt lat="47.26129" lon="-2.30158">
        <ele>98.800003051758</ele>
        <time>2022-03-20T10:41:27.000Z</time>
      </trkpt>
      <trkpt lat="47.26124" lon="-2.30159">
        <ele>98.400001525879</ele>
        <time>2022-03-20T10:41:28.000Z</time>
      </trkpt>
      <trkpt lat="47.26119" lon="-2.30161">
        <ele>98.400001525879</ele>
        <time>2022-03-20T10:41:29.000Z</time>
      </trkpt>
      <trkpt lat="47.2611" lon="-2.30163">
        <ele>98.400001525879</ele>
        <time>2022-03-20T10:41:31.000Z</time>
      </trkpt>
      <trkpt lat="47.26107" lon="-2.30162">
        <ele>98</ele>
        <time>2022-03-20T10:41:32.000Z</time>
      </trkpt>
      <trkpt lat="47.26105" lon="-2.30159">
        <ele>97.400001525879</ele>
        <time>2022-03-20T10:41:33.000Z</time>
      </trkpt>
      <trkpt lat="47.26103" lon="-2.30155">
        <ele>97</ele>
        <time>2022-03-20T10:41:34.000Z</time>
      </trkpt>
      <trkpt lat="47.26102" lon="-2.30152">
        <ele>96.599998474121</ele>
        <time>2022-03-20T10:41:35.000Z</time>
      </trkpt>
      <trkpt lat="47.261" lon="-2.3015">
        <ele>96.199996948242</ele>
        <time>2022-03-20T10:41:36.000Z</time>
      </trkpt>
      <trkpt lat="47.26091" lon="-2.30153">
        <ele>96.199996948242</ele>
        <time>2022-03-20T10:41:39.000Z</time>
      </trkpt>
      <trkpt lat="47.26087" lon="-2.30154">
        <ele>96.199996948242</ele>
        <time>2022-03-20T10:41:40.000Z</time>
      </trkpt>
      <trkpt lat="47.26079" lon="-2.30154">
        <ele>95.800003051758</ele>
        <time>2022-03-20T10:41:42.000Z</time>
      </trkpt>
      <trkpt lat="47.26074" lon="-2.30151">
        <ele>95.400001525879</ele>
        <time>2022-03-20T10:41:43.000Z</time>
      </trkpt>
      <trkpt lat="47.26069" lon="-2.30148">
        <ele>95</ele>
        <time>2022-03-20T10:41:44.000Z</time>
      </trkpt>
      <trkpt lat="47.26065" lon="-2.30144">
        <ele>94.599998474121</ele>
        <time>2022-03-20T10:41:45.000Z</time>
      </trkpt>
      <trkpt lat="47.26061" lon="-2.3014">
        <ele>94.199996948242</ele>
        <time>2022-03-20T10:41:46.000Z</time>
      </trkpt>
      <trkpt lat="47.26057" lon="-2.30139">
        <ele>94.199996948242</ele>
        <time>2022-03-20T10:41:47.000Z</time>
      </trkpt>
      <trkpt lat="47.26037" lon="-2.30142">
        <ele>94.199996948242</ele>
        <time>2022-03-20T10:41:51.000Z</time>
      </trkpt>
      <trkpt lat="47.26032" lon="-2.30141">
        <ele>93.800003051758</ele>
        <time>2022-03-20T10:41:52.000Z</time>
      </trkpt>
      <trkpt lat="47.26028" lon="-2.30138">
        <ele>93.199996948242</ele>
        <time>2022-03-20T10:41:53.000Z</time>
      </trkpt>
      <trkpt lat="47.26023" lon="-2.30135">
        <ele>92.800003051758</ele>
        <time>2022-03-20T10:41:54.000Z</time>
      </trkpt>
      <trkpt lat="47.26019" lon="-2.30133">
        <ele>92.400001525879</ele>
        <time>2022-03-20T10:41:55.000Z</time>
      </trkpt>
      <trkpt lat="47.26014" lon="-2.30132">
        <ele>92</ele>
        <time>2022-03-20T10:41:56.000Z</time>
      </trkpt>
      <trkpt lat="47.25997" lon="-2.30132">
        <ele>92</ele>
        <time>2022-03-20T10:42:00.000Z</time>
      </trkpt>
      <trkpt lat="47.25983" lon="-2.30135">
        <ele>92</ele>
        <time>2022-03-20T10:42:03.000Z</time>
      </trkpt>
      <trkpt lat="47.25978" lon="-2.30138">
        <ele>91.599998474121</ele>
        <time>2022-03-20T10:42:04.000Z</time>
      </trkpt>
      <trkpt lat="47.25974" lon="-2.30143">
        <ele>90.599998474121</ele>
        <time>2022-03-20T10:42:05.000Z</time>
      </trkpt>
      <trkpt lat="47.25969" lon="-2.30148">
        <ele>90.199996948242</ele>
        <time>2022-03-20T10:42:06.000Z</time>
      </trkpt>
      <trkpt lat="47.25966" lon="-2.30154">
        <ele>89.800003051758</ele>
        <time>2022-03-20T10:42:07.000Z</time>
      </trkpt>
      <trkpt lat="47.2596" lon="-2.3016">
        <ele>89.800003051758</ele>
        <time>2022-03-20T10:42:08.000Z</time>
      </trkpt>
      <trkpt lat="47.25955" lon="-2.30164">
        <ele>89.800003051758</ele>
        <time>2022-03-20T10:42:09.000Z</time>
      </trkpt>
      <trkpt lat="47.25939" lon="-2.3017">
        <ele>89.800003051758</ele>
        <time>2022-03-20T10:42:12.000Z</time>
      </trkpt>
      <trkpt lat="47.25934" lon="-2.30172">
        <ele>89.800003051758</ele>
        <time>2022-03-20T10:42:13.000Z</time>
      </trkpt>
      <trkpt lat="47.25902" lon="-2.30184">
        <ele>89.800003051758</ele>
        <time>2022-03-20T10:42:19.000Z</time>
      </trkpt>
      <trkpt lat="47.25899" lon="-2.30187">
        <ele>89.800003051758</ele>
        <time>2022-03-20T10:42:20.000Z</time>
      </trkpt>
      <trkpt lat="47.2589" lon="-2.30207">
        <ele>89.800003051758</ele>
        <time>2022-03-20T10:42:24.000Z</time>
      </trkpt>
      <trkpt lat="47.25891" lon="-2.30221">
        <ele>89.800003051758</ele>
        <time>2022-03-20T10:42:26.000Z</time>
      </trkpt>
      <trkpt lat="47.25892" lon="-2.30235">
        <ele>89.800003051758</ele>
        <time>2022-03-20T10:42:28.000Z</time>
      </trkpt>
      <trkpt lat="47.25892" lon="-2.30242">
        <ele>89.800003051758</ele>
        <time>2022-03-20T10:42:29.000Z</time>
      </trkpt>
      <trkpt lat="47.25884" lon="-2.30261">
        <ele>89.800003051758</ele>
        <time>2022-03-20T10:42:33.000Z</time>
      </trkpt>
      <trkpt lat="47.25881" lon="-2.30264">
        <ele>90.199996948242</ele>
        <time>2022-03-20T10:42:34.000Z</time>
      </trkpt>
      <trkpt lat="47.25878" lon="-2.30266">
        <ele>90.599998474121</ele>
        <time>2022-03-20T10:42:35.000Z</time>
      </trkpt>
      <trkpt lat="47.25875" lon="-2.30268">
        <ele>91</ele>
        <time>2022-03-20T10:42:36.000Z</time>
      </trkpt>
      <trkpt lat="47.25873" lon="-2.3027">
        <ele>91.400001525879</ele>
        <time>2022-03-20T10:42:37.000Z</time>
      </trkpt>
      <trkpt lat="47.25871" lon="-2.30271">
        <ele>91.800003051758</ele>
        <time>2022-03-20T10:42:38.000Z</time>
      </trkpt>
      <trkpt lat="47.25863" lon="-2.30271">
        <ele>91.800003051758</ele>
        <time>2022-03-20T10:42:40.000Z</time>
      </trkpt>
      <trkpt lat="47.25859" lon="-2.30269">
        <ele>91.800003051758</ele>
        <time>2022-03-20T10:42:41.000Z</time>
      </trkpt>
      <trkpt lat="47.25844" lon="-2.30263">
        <ele>91.800003051758</ele>
        <time>2022-03-20T10:42:44.000Z</time>
      </trkpt>
      <trkpt lat="47.25833" lon="-2.30258">
        <ele>91.800003051758</ele>
        <time>2022-03-20T10:42:46.000Z</time>
      </trkpt>
      <trkpt lat="47.25795" lon="-2.3024">
        <ele>91.800003051758</ele>
        <time>2022-03-20T10:42:52.000Z</time>
      </trkpt>
      <trkpt lat="47.25759" lon="-2.30223">
        <ele>91.800003051758</ele>
        <time>2022-03-20T10:42:58.000Z</time>
      </trkpt>
      <trkpt lat="47.25749" lon="-2.30218">
        <ele>91.800003051758</ele>
        <time>2022-03-20T10:43:00.000Z</time>
      </trkpt>
      <trkpt lat="47.25733" lon="-2.3021">
        <ele>91.800003051758</ele>
        <time>2022-03-20T10:43:03.000Z</time>
      </trkpt>
      <trkpt lat="47.25728" lon="-2.30208">
        <ele>91.800003051758</ele>
        <time>2022-03-20T10:43:04.000Z</time>
      </trkpt>
      <trkpt lat="47.25717" lon="-2.30207">
        <ele>91.800003051758</ele>
        <time>2022-03-20T10:43:06.000Z</time>
      </trkpt>
      <trkpt lat="47.25702" lon="-2.30212">
        <ele>91.800003051758</ele>
        <time>2022-03-20T10:43:09.000Z</time>
      </trkpt>
      <trkpt lat="47.25685" lon="-2.3023">
        <ele>91.800003051758</ele>
        <time>2022-03-20T10:43:13.000Z</time>
      </trkpt>
      <trkpt lat="47.25681" lon="-2.30242">
        <ele>91.800003051758</ele>
        <time>2022-03-20T10:43:15.000Z</time>
      </trkpt>
      <trkpt lat="47.25678" lon="-2.30254">
        <ele>92.199996948242</ele>
        <time>2022-03-20T10:43:17.000Z</time>
      </trkpt>
      <trkpt lat="47.25676" lon="-2.30259">
        <ele>92.599998474121</ele>
        <time>2022-03-20T10:43:18.000Z</time>
      </trkpt>
      <trkpt lat="47.25673" lon="-2.30264">
        <ele>93</ele>
        <time>2022-03-20T10:43:19.000Z</time>
      </trkpt>
      <trkpt lat="47.2567" lon="-2.30268">
        <ele>93.800003051758</ele>
        <time>2022-03-20T10:43:20.000Z</time>
      </trkpt>
      <trkpt lat="47.25661" lon="-2.30282">
        <ele>93.800003051758</ele>
        <time>2022-03-20T10:43:23.000Z</time>
      </trkpt>
      <trkpt lat="47.25656" lon="-2.30308">
        <ele>93.800003051758</ele>
        <time>2022-03-20T10:43:27.000Z</time>
      </trkpt>
      <trkpt lat="47.25654" lon="-2.30314">
        <ele>93.800003051758</ele>
        <time>2022-03-20T10:43:28.000Z</time>
      </trkpt>
      <trkpt lat="47.25648" lon="-2.3033">
        <ele>93.800003051758</ele>
        <time>2022-03-20T10:43:31.000Z</time>
      </trkpt>
      <trkpt lat="47.25642" lon="-2.3034">
        <ele>93.800003051758</ele>
        <time>2022-03-20T10:43:33.000Z</time>
      </trkpt>
      <trkpt lat="47.25636" lon="-2.30343">
        <ele>93.800003051758</ele>
        <time>2022-03-20T10:43:35.000Z</time>
      </trkpt>
      <trkpt lat="47.25629" lon="-2.30331">
        <ele>93.800003051758</ele>
        <time>2022-03-20T10:43:38.000Z</time>
      </trkpt>
      <trkpt lat="47.25628" lon="-2.30319">
        <ele>93.800003051758</ele>
        <time>2022-03-20T10:43:40.000Z</time>
      </trkpt>
      <trkpt lat="47.25626" lon="-2.303">
        <ele>93.800003051758</ele>
        <time>2022-03-20T10:43:43.000Z</time>
      </trkpt>
      <trkpt lat="47.25623" lon="-2.30272">
        <ele>93.800003051758</ele>
        <time>2022-03-20T10:43:47.000Z</time>
      </trkpt>
      <trkpt lat="47.2562" lon="-2.30258">
        <ele>93.800003051758</ele>
        <time>2022-03-20T10:43:49.000Z</time>
      </trkpt>
      <trkpt lat="47.25614" lon="-2.30229">
        <ele>93.800003051758</ele>
        <time>2022-03-20T10:43:53.000Z</time>
      </trkpt>
      <trkpt lat="47.25609" lon="-2.30218">
        <ele>93.800003051758</ele>
        <time>2022-03-20T10:43:55.000Z</time>
      </trkpt>
      <trkpt lat="47.25581" lon="-2.3019">
        <ele>93.800003051758</ele>
        <time>2022-03-20T10:44:01.000Z</time>
      </trkpt>
      <trkpt lat="47.25555" lon="-2.30187">
        <ele>93.800003051758</ele>
        <time>2022-03-20T10:44:06.000Z</time>
      </trkpt>
      <trkpt lat="47.2555" lon="-2.30189">
        <ele>93.800003051758</ele>
        <time>2022-03-20T10:44:07.000Z</time>
      </trkpt>
      <trkpt lat="47.25531" lon="-2.30197">
        <ele>93.800003051758</ele>
        <time>2022-03-20T10:44:11.000Z</time>
      </trkpt>
      <trkpt lat="47.2551" lon="-2.30196">
        <ele>93.800003051758</ele>
        <time>2022-03-20T10:44:16.000Z</time>
      </trkpt>
      <trkpt lat="47.25506" lon="-2.30198">
        <ele>93.800003051758</ele>
        <time>2022-03-20T10:44:17.000Z</time>
      </trkpt>
      <trkpt lat="47.25501" lon="-2.30206">
        <ele>93.800003051758</ele>
        <time>2022-03-20T10:44:19.000Z</time>
      </trkpt>
      <trkpt lat="47.25497" lon="-2.3021">
        <ele>93.800003051758</ele>
        <time>2022-03-20T10:44:20.000Z</time>
      </trkpt>
      <trkpt lat="47.25491" lon="-2.30218">
        <ele>93.800003051758</ele>
        <time>2022-03-20T10:44:22.000Z</time>
      </trkpt>
      <trkpt lat="47.25489" lon="-2.30224">
        <ele>94.199996948242</ele>
        <time>2022-03-20T10:44:23.000Z</time>
      </trkpt>
      <trkpt lat="47.25487" lon="-2.30229">
        <ele>94.800003051758</ele>
        <time>2022-03-20T10:44:24.000Z</time>
      </trkpt>
      <trkpt lat="47.25486" lon="-2.30235">
        <ele>95.199996948242</ele>
        <time>2022-03-20T10:44:25.000Z</time>
      </trkpt>
      <trkpt lat="47.25484" lon="-2.30239">
        <ele>95.599998474121</ele>
        <time>2022-03-20T10:44:26.000Z</time>
      </trkpt>
      <trkpt lat="47.25482" lon="-2.30241">
        <ele>96</ele>
        <time>2022-03-20T10:44:27.000Z</time>
      </trkpt>
      <trkpt lat="47.25472" lon="-2.3024">
        <ele>96</ele>
        <time>2022-03-20T10:44:31.000Z</time>
      </trkpt>
      <trkpt lat="47.25469" lon="-2.30239">
        <ele>96</ele>
        <time>2022-03-20T10:44:32.000Z</time>
      </trkpt>
      <trkpt lat="47.25449" lon="-2.30233">
        <ele>96</ele>
        <time>2022-03-20T10:44:37.000Z</time>
      </trkpt>
      <trkpt lat="47.25433" lon="-2.3023">
        <ele>96.400001525879</ele>
        <time>2022-03-20T10:44:40.000Z</time>
      </trkpt>
      <trkpt lat="47.25428" lon="-2.30229">
        <ele>96.800003051758</ele>
        <time>2022-03-20T10:44:41.000Z</time>
      </trkpt>
      <trkpt lat="47.25422" lon="-2.30228">
        <ele>97.199996948242</ele>
        <time>2022-03-20T10:44:42.000Z</time>
      </trkpt>
      <trkpt lat="47.25417" lon="-2.30227">
        <ele>97.599998474121</ele>
        <time>2022-03-20T10:44:43.000Z</time>
      </trkpt>
      <trkpt lat="47.25411" lon="-2.30225">
        <ele>98</ele>
        <time>2022-03-20T10:44:44.000Z</time>
      </trkpt>
      <trkpt lat="47.25393" lon="-2.30219">
        <ele>98</ele>
        <time>2022-03-20T10:44:49.000Z</time>
      </trkpt>
      <trkpt lat="47.25374" lon="-2.3021">
        <ele>98</ele>
        <time>2022-03-20T10:44:56.000Z</time>
      </trkpt>
      <trkpt lat="47.25348" lon="-2.30208">
        <ele>98</ele>
        <time>2022-03-20T10:45:02.000Z</time>
      </trkpt>
      <trkpt lat="47.25319" lon="-2.30203">
        <ele>98.400001525879</ele>
        <time>2022-03-20T10:45:09.000Z</time>
      </trkpt>
      <trkpt lat="47.25315" lon="-2.30203">
        <ele>98.800003051758</ele>
        <time>2022-03-20T10:45:10.000Z</time>
      </trkpt>
      <trkpt lat="47.25312" lon="-2.30205">
        <ele>99.199996948242</ele>
        <time>2022-03-20T10:45:11.000Z</time>
      </trkpt>
      <trkpt lat="47.2531" lon="-2.30209">
        <ele>99.599998474121</ele>
        <time>2022-03-20T10:45:12.000Z</time>
      </trkpt>
      <trkpt lat="47.25307" lon="-2.30211">
        <ele>100</ele>
        <time>2022-03-20T10:45:13.000Z</time>
      </trkpt>
      <trkpt lat="47.25299" lon="-2.3021">
        <ele>100</ele>
        <time>2022-03-20T10:45:16.000Z</time>
      </trkpt>
      <trkpt lat="47.25293" lon="-2.30207">
        <ele>100</ele>
        <time>2022-03-20T10:45:18.000Z</time>
      </trkpt>
      <trkpt lat="47.25282" lon="-2.30201">
        <ele>100</ele>
        <time>2022-03-20T10:45:21.000Z</time>
      </trkpt>
      <trkpt lat="47.25277" lon="-2.30199">
        <ele>100</ele>
        <time>2022-03-20T10:45:22.000Z</time>
      </trkpt>
      <trkpt lat="47.25253" lon="-2.30187">
        <ele>100</ele>
        <time>2022-03-20T10:45:27.000Z</time>
      </trkpt>
      <trkpt lat="47.25238" lon="-2.3018">
        <ele>100.40000152588</ele>
        <time>2022-03-20T10:45:30.000Z</time>
      </trkpt>
      <trkpt lat="47.25233" lon="-2.30178">
        <ele>100.80000305176</ele>
        <time>2022-03-20T10:45:31.000Z</time>
      </trkpt>
      <trkpt lat="47.25228" lon="-2.30176">
        <ele>101.19999694824</ele>
        <time>2022-03-20T10:45:32.000Z</time>
      </trkpt>
      <trkpt lat="47.25223" lon="-2.30173">
        <ele>101.59999847412</ele>
        <time>2022-03-20T10:45:33.000Z</time>
      </trkpt>
      <trkpt lat="47.25218" lon="-2.3017">
        <ele>102.19999694824</ele>
        <time>2022-03-20T10:45:34.000Z</time>
      </trkpt>
      <trkpt lat="47.25214" lon="-2.30166">
        <ele>102.19999694824</ele>
        <time>2022-03-20T10:45:35.000Z</time>
      </trkpt>
      <trkpt lat="47.25209" lon="-2.30161">
        <ele>102.19999694824</ele>
        <time>2022-03-20T10:45:36.000Z</time>
      </trkpt>
      <trkpt lat="47.25195" lon="-2.30147">
        <ele>102.19999694824</ele>
        <time>2022-03-20T10:45:39.000Z</time>
      </trkpt>
      <trkpt lat="47.25188" lon="-2.30135">
        <ele>102.59999847412</ele>
        <time>2022-03-20T10:45:41.000Z</time>
      </trkpt>
      <trkpt lat="47.25185" lon="-2.30129">
        <ele>103</ele>
        <time>2022-03-20T10:45:42.000Z</time>
      </trkpt>
      <trkpt lat="47.25181" lon="-2.30124">
        <ele>103.40000152588</ele>
        <time>2022-03-20T10:45:43.000Z</time>
      </trkpt>
      <trkpt lat="47.25177" lon="-2.30119">
        <ele>103.80000305176</ele>
        <time>2022-03-20T10:45:44.000Z</time>
      </trkpt>
      <trkpt lat="47.25173" lon="-2.30118">
        <ele>104.19999694824</ele>
        <time>2022-03-20T10:45:45.000Z</time>
      </trkpt>
      <trkpt lat="47.25163" lon="-2.3012">
        <ele>104.19999694824</ele>
        <time>2022-03-20T10:45:47.000Z</time>
      </trkpt>
      <trkpt lat="47.25152" lon="-2.30122">
        <ele>104.19999694824</ele>
        <time>2022-03-20T10:45:49.000Z</time>
      </trkpt>
      <trkpt lat="47.25131" lon="-2.30127">
        <ele>104.19999694824</ele>
        <time>2022-03-20T10:45:53.000Z</time>
      </trkpt>
      <trkpt lat="47.25121" lon="-2.30127">
        <ele>104.59999847412</ele>
        <time>2022-03-20T10:45:55.000Z</time>
      </trkpt>
      <trkpt lat="47.25117" lon="-2.30128">
        <ele>105</ele>
        <time>2022-03-20T10:45:56.000Z</time>
      </trkpt>
      <trkpt lat="47.25112" lon="-2.30129">
        <ele>105.40000152588</ele>
        <time>2022-03-20T10:45:57.000Z</time>
      </trkpt>
      <trkpt lat="47.25107" lon="-2.3013">
        <ele>105.80000305176</ele>
        <time>2022-03-20T10:45:58.000Z</time>
      </trkpt>
      <trkpt lat="47.25102" lon="-2.30132">
        <ele>106.19999694824</ele>
        <time>2022-03-20T10:45:59.000Z</time>
      </trkpt>
      <trkpt lat="47.25097" lon="-2.30133">
        <ele>106.19999694824</ele>
        <time>2022-03-20T10:46:00.000Z</time>
      </trkpt>
      <trkpt lat="47.25079" lon="-2.30135">
        <ele>106.19999694824</ele>
        <time>2022-03-20T10:46:04.000Z</time>
      </trkpt>
      <trkpt lat="47.25067" lon="-2.30126">
        <ele>106.19999694824</ele>
        <time>2022-03-20T10:46:08.000Z</time>
      </trkpt>
      <trkpt lat="47.25068" lon="-2.30107">
        <ele>106.19999694824</ele>
        <time>2022-03-20T10:46:12.000Z</time>
      </trkpt>
      <trkpt lat="47.25069" lon="-2.30082">
        <ele>106.19999694824</ele>
        <time>2022-03-20T10:46:18.000Z</time>
      </trkpt>
      <trkpt lat="47.25071" lon="-2.3006">
        <ele>106.19999694824</ele>
        <time>2022-03-20T10:46:25.000Z</time>
      </trkpt>
      <trkpt lat="47.25071" lon="-2.30059">
        <ele>106.19999694824</ele>
        <time>2022-03-20T10:46:26.000Z</time>
      </trkpt>
      <trkpt lat="47.2507" lon="-2.30057">
        <ele>106.19999694824</ele>
        <time>2022-03-20T10:46:29.000Z</time>
      </trkpt>
      <trkpt lat="47.25068" lon="-2.30057">
        <ele>106.19999694824</ele>
        <time>2022-03-20T10:46:32.000Z</time>
      </trkpt>
      <trkpt lat="47.25057" lon="-2.30056">
        <ele>106.19999694824</ele>
        <time>2022-03-20T10:46:38.000Z</time>
      </trkpt>
      <trkpt lat="47.25053" lon="-2.30055">
        <ele>106.19999694824</ele>
        <time>2022-03-20T10:46:43.000Z</time>
      </trkpt>
      <trkpt lat="47.25039" lon="-2.30053">
        <ele>106.59999847412</ele>
        <time>2022-03-20T10:46:48.000Z</time>
      </trkpt>
      <trkpt lat="47.25035" lon="-2.30052">
        <ele>107</ele>
        <time>2022-03-20T10:46:49.000Z</time>
      </trkpt>
      <trkpt lat="47.25031" lon="-2.30052">
        <ele>107.40000152588</ele>
        <time>2022-03-20T10:46:50.000Z</time>
      </trkpt>
      <trkpt lat="47.25028" lon="-2.30052">
        <ele>108</ele>
        <time>2022-03-20T10:46:51.000Z</time>
      </trkpt>
      <trkpt lat="47.25024" lon="-2.30052">
        <ele>108.40000152588</ele>
        <time>2022-03-20T10:46:52.000Z</time>
      </trkpt>
      <trkpt lat="47.25012" lon="-2.30051">
        <ele>108.40000152588</ele>
        <time>2022-03-20T10:46:55.000Z</time>
      </trkpt>
      <trkpt lat="47.24995" lon="-2.30052">
        <ele>108.40000152588</ele>
        <time>2022-03-20T10:46:59.000Z</time>
      </trkpt>
      <trkpt lat="47.24987" lon="-2.30054">
        <ele>108.40000152588</ele>
        <time>2022-03-20T10:47:01.000Z</time>
      </trkpt>
      <trkpt lat="47.24957" lon="-2.30054">
        <ele>108.40000152588</ele>
        <time>2022-03-20T10:47:08.000Z</time>
      </trkpt>
      <trkpt lat="47.24926" lon="-2.30055">
        <ele>108.40000152588</ele>
        <time>2022-03-20T10:47:15.000Z</time>
      </trkpt>
      <trkpt lat="47.24904" lon="-2.30048">
        <ele>108.40000152588</ele>
        <time>2022-03-20T10:47:21.000Z</time>
      </trkpt>
      <trkpt lat="47.24902" lon="-2.30028">
        <ele>108.40000152588</ele>
        <time>2022-03-20T10:47:24.000Z</time>
      </trkpt>
      <trkpt lat="47.24902" lon="-2.30021">
        <ele>108.40000152588</ele>
        <time>2022-03-20T10:47:25.000Z</time>
      </trkpt>
      <trkpt lat="47.24898" lon="-2.29997">
        <ele>108.40000152588</ele>
        <time>2022-03-20T10:47:28.000Z</time>
      </trkpt>
      <trkpt lat="47.24896" lon="-2.29989">
        <ele>108.40000152588</ele>
        <time>2022-03-20T10:47:29.000Z</time>
      </trkpt>
      <trkpt lat="47.24881" lon="-2.29926">
        <ele>108.40000152588</ele>
        <time>2022-03-20T10:47:37.000Z</time>
      </trkpt>
      <trkpt lat="47.24878" lon="-2.29903">
        <ele>108.40000152588</ele>
        <time>2022-03-20T10:47:40.000Z</time>
      </trkpt>
      <trkpt lat="47.24877" lon="-2.29886">
        <ele>108.40000152588</ele>
        <time>2022-03-20T10:47:42.000Z</time>
      </trkpt>
      <trkpt lat="47.24876" lon="-2.29878">
        <ele>108.80000305176</ele>
        <time>2022-03-20T10:47:43.000Z</time>
      </trkpt>
      <trkpt lat="47.24874" lon="-2.2987">
        <ele>109.19999694824</ele>
        <time>2022-03-20T10:47:44.000Z</time>
      </trkpt>
      <trkpt lat="47.24873" lon="-2.29863">
        <ele>109.59999847412</ele>
        <time>2022-03-20T10:47:45.000Z</time>
      </trkpt>
      <trkpt lat="47.24871" lon="-2.29855">
        <ele>110</ele>
        <time>2022-03-20T10:47:46.000Z</time>
      </trkpt>
      <trkpt lat="47.2487" lon="-2.29848">
        <ele>110.40000152588</ele>
        <time>2022-03-20T10:47:47.000Z</time>
      </trkpt>
      <trkpt lat="47.24869" lon="-2.29841">
        <ele>110.40000152588</ele>
        <time>2022-03-20T10:47:48.000Z</time>
      </trkpt>
      <trkpt lat="47.24859" lon="-2.29829">
        <ele>110.40000152588</ele>
        <time>2022-03-20T10:47:51.000Z</time>
      </trkpt>
      <trkpt lat="47.24847" lon="-2.29837">
        <ele>110.40000152588</ele>
        <time>2022-03-20T10:47:54.000Z</time>
      </trkpt>
      <trkpt lat="47.24842" lon="-2.2984">
        <ele>110.40000152588</ele>
        <time>2022-03-20T10:47:55.000Z</time>
      </trkpt>
      <trkpt lat="47.24822" lon="-2.29847">
        <ele>110.40000152588</ele>
        <time>2022-03-20T10:47:59.000Z</time>
      </trkpt>
      <trkpt lat="47.24805" lon="-2.29854">
        <ele>110.40000152588</ele>
        <time>2022-03-20T10:48:02.000Z</time>
      </trkpt>
      <trkpt lat="47.24788" lon="-2.29863">
        <ele>110.40000152588</ele>
        <time>2022-03-20T10:48:05.000Z</time>
      </trkpt>
      <trkpt lat="47.24746" lon="-2.29895">
        <ele>110.40000152588</ele>
        <time>2022-03-20T10:48:13.000Z</time>
      </trkpt>
      <trkpt lat="47.2474" lon="-2.29898">
        <ele>110.40000152588</ele>
        <time>2022-03-20T10:48:14.000Z</time>
      </trkpt>
      <trkpt lat="47.24709" lon="-2.2991">
        <ele>110.40000152588</ele>
        <time>2022-03-20T10:48:19.000Z</time>
      </trkpt>
      <trkpt lat="47.24667" lon="-2.29922">
        <ele>110.40000152588</ele>
        <time>2022-03-20T10:48:26.000Z</time>
      </trkpt>
      <trkpt lat="47.24661" lon="-2.29924">
        <ele>110</ele>
        <time>2022-03-20T10:48:27.000Z</time>
      </trkpt>
      <trkpt lat="47.24655" lon="-2.29926">
        <ele>109.59999847412</ele>
        <time>2022-03-20T10:48:28.000Z</time>
      </trkpt>
      <trkpt lat="47.2465" lon="-2.29928">
        <ele>109.19999694824</ele>
        <time>2022-03-20T10:48:29.000Z</time>
      </trkpt>
      <trkpt lat="47.24645" lon="-2.2993">
        <ele>108.80000305176</ele>
        <time>2022-03-20T10:48:30.000Z</time>
      </trkpt>
      <trkpt lat="47.2464" lon="-2.29932">
        <ele>108.40000152588</ele>
        <time>2022-03-20T10:48:31.000Z</time>
      </trkpt>
      <trkpt lat="47.24629" lon="-2.29936">
        <ele>108.40000152588</ele>
        <time>2022-03-20T10:48:33.000Z</time>
      </trkpt>
      <trkpt lat="47.24609" lon="-2.29943">
        <ele>108.40000152588</ele>
        <time>2022-03-20T10:48:37.000Z</time>
      </trkpt>
      <trkpt lat="47.24605" lon="-2.29944">
        <ele>108.40000152588</ele>
        <time>2022-03-20T10:48:38.000Z</time>
      </trkpt>
      <trkpt lat="47.24594" lon="-2.29941">
        <ele>108.40000152588</ele>
        <time>2022-03-20T10:48:41.000Z</time>
      </trkpt>
      <trkpt lat="47.24584" lon="-2.2992">
        <ele>108.40000152588</ele>
        <time>2022-03-20T10:48:45.000Z</time>
      </trkpt>
      <trkpt lat="47.2458" lon="-2.29916">
        <ele>108.40000152588</ele>
        <time>2022-03-20T10:48:46.000Z</time>
      </trkpt>
      <trkpt lat="47.24574" lon="-2.29906">
        <ele>108.40000152588</ele>
        <time>2022-03-20T10:48:48.000Z</time>
      </trkpt>
      <trkpt lat="47.24572" lon="-2.299">
        <ele>108.40000152588</ele>
        <time>2022-03-20T10:48:49.000Z</time>
      </trkpt>
      <trkpt lat="47.24563" lon="-2.2988">
        <ele>108.40000152588</ele>
        <time>2022-03-20T10:48:53.000Z</time>
      </trkpt>
      <trkpt lat="47.24548" lon="-2.29869">
        <ele>108.40000152588</ele>
        <time>2022-03-20T10:48:57.000Z</time>
      </trkpt>
      <trkpt lat="47.24539" lon="-2.29865">
        <ele>108.40000152588</ele>
        <time>2022-03-20T10:48:59.000Z</time>
      </trkpt>
      <trkpt lat="47.24519" lon="-2.29856">
        <ele>108.40000152588</ele>
        <time>2022-03-20T10:49:03.000Z</time>
      </trkpt>
      <trkpt lat="47.24488" lon="-2.29836">
        <ele>108.40000152588</ele>
        <time>2022-03-20T10:49:09.000Z</time>
      </trkpt>
      <trkpt lat="47.24473" lon="-2.29811">
        <ele>108.40000152588</ele>
        <time>2022-03-20T10:49:13.000Z</time>
      </trkpt>
      <trkpt lat="47.24469" lon="-2.29804">
        <ele>108.40000152588</ele>
        <time>2022-03-20T10:49:14.000Z</time>
      </trkpt>
      <trkpt lat="47.24466" lon="-2.29796">
        <ele>108.40000152588</ele>
        <time>2022-03-20T10:49:15.000Z</time>
      </trkpt>
      <trkpt lat="47.24461" lon="-2.29781">
        <ele>108</ele>
        <time>2022-03-20T10:49:17.000Z</time>
      </trkpt>
      <trkpt lat="47.2446" lon="-2.29772">
        <ele>107.59999847412</ele>
        <time>2022-03-20T10:49:18.000Z</time>
      </trkpt>
      <trkpt lat="47.24458" lon="-2.29763">
        <ele>107</ele>
        <time>2022-03-20T10:49:19.000Z</time>
      </trkpt>
      <trkpt lat="47.24456" lon="-2.29754">
        <ele>106.59999847412</ele>
        <time>2022-03-20T10:49:20.000Z</time>
      </trkpt>
      <trkpt lat="47.24454" lon="-2.29745">
        <ele>106.19999694824</ele>
        <time>2022-03-20T10:49:21.000Z</time>
      </trkpt>
      <trkpt lat="47.24448" lon="-2.29728">
        <ele>106.19999694824</ele>
        <time>2022-03-20T10:49:23.000Z</time>
      </trkpt>
      <trkpt lat="47.24444" lon="-2.29711">
        <ele>106.19999694824</ele>
        <time>2022-03-20T10:49:25.000Z</time>
      </trkpt>
      <trkpt lat="47.24437" lon="-2.29695">
        <ele>106.19999694824</ele>
        <time>2022-03-20T10:49:27.000Z</time>
      </trkpt>
      <trkpt lat="47.24426" lon="-2.29693">
        <ele>106.19999694824</ele>
        <time>2022-03-20T10:49:29.000Z</time>
      </trkpt>
      <trkpt lat="47.24414" lon="-2.29698">
        <ele>106.19999694824</ele>
        <time>2022-03-20T10:49:31.000Z</time>
      </trkpt>
      <trkpt lat="47.24409" lon="-2.29701">
        <ele>106.19999694824</ele>
        <time>2022-03-20T10:49:32.000Z</time>
      </trkpt>
      <trkpt lat="47.24403" lon="-2.29705">
        <ele>106.19999694824</ele>
        <time>2022-03-20T10:49:33.000Z</time>
      </trkpt>
      <trkpt lat="47.24398" lon="-2.29711">
        <ele>106.19999694824</ele>
        <time>2022-03-20T10:49:34.000Z</time>
      </trkpt>
      <trkpt lat="47.24392" lon="-2.29726">
        <ele>106.19999694824</ele>
        <time>2022-03-20T10:49:36.000Z</time>
      </trkpt>
      <trkpt lat="47.24387" lon="-2.29743">
        <ele>106.19999694824</ele>
        <time>2022-03-20T10:49:38.000Z</time>
      </trkpt>
      <trkpt lat="47.24385" lon="-2.2975">
        <ele>106.19999694824</ele>
        <time>2022-03-20T10:49:39.000Z</time>
      </trkpt>
      <trkpt lat="47.24379" lon="-2.29764">
        <ele>106.19999694824</ele>
        <time>2022-03-20T10:49:41.000Z</time>
      </trkpt>
      <trkpt lat="47.24372" lon="-2.29781">
        <ele>106.19999694824</ele>
        <time>2022-03-20T10:49:44.000Z</time>
      </trkpt>
      <trkpt lat="47.24366" lon="-2.29791">
        <ele>106.19999694824</ele>
        <time>2022-03-20T10:49:46.000Z</time>
      </trkpt>
      <trkpt lat="47.24358" lon="-2.29802">
        <ele>106.19999694824</ele>
        <time>2022-03-20T10:49:48.000Z</time>
      </trkpt>
      <trkpt lat="47.24347" lon="-2.29807">
        <ele>106.19999694824</ele>
        <time>2022-03-20T10:49:50.000Z</time>
      </trkpt>
      <trkpt lat="47.24334" lon="-2.29812">
        <ele>106.19999694824</ele>
        <time>2022-03-20T10:49:52.000Z</time>
      </trkpt>
      <trkpt lat="47.24321" lon="-2.29829">
        <ele>105.40000152588</ele>
        <time>2022-03-20T10:49:55.000Z</time>
      </trkpt>
      <trkpt lat="47.2432" lon="-2.29839">
        <ele>105</ele>
        <time>2022-03-20T10:49:56.000Z</time>
      </trkpt>
      <trkpt lat="47.24321" lon="-2.29849">
        <ele>104.59999847412</ele>
        <time>2022-03-20T10:49:57.000Z</time>
      </trkpt>
      <trkpt lat="47.24322" lon="-2.29859">
        <ele>104.19999694824</ele>
        <time>2022-03-20T10:49:58.000Z</time>
      </trkpt>
      <trkpt lat="47.24322" lon="-2.29869">
        <ele>104.19999694824</ele>
        <time>2022-03-20T10:49:59.000Z</time>
      </trkpt>
      <trkpt lat="47.24318" lon="-2.29885">
        <ele>104.19999694824</ele>
        <time>2022-03-20T10:50:01.000Z</time>
      </trkpt>
      <trkpt lat="47.24302" lon="-2.29899">
        <ele>104.19999694824</ele>
        <time>2022-03-20T10:50:04.000Z</time>
      </trkpt>
      <trkpt lat="47.24277" lon="-2.29919">
        <ele>104.19999694824</ele>
        <time>2022-03-20T10:50:08.000Z</time>
      </trkpt>
      <trkpt lat="47.24265" lon="-2.2993">
        <ele>104.19999694824</ele>
        <time>2022-03-20T10:50:10.000Z</time>
      </trkpt>
      <trkpt lat="47.2426" lon="-2.29936">
        <ele>103.80000305176</ele>
        <time>2022-03-20T10:50:11.000Z</time>
      </trkpt>
      <trkpt lat="47.24254" lon="-2.29943">
        <ele>103.40000152588</ele>
        <time>2022-03-20T10:50:12.000Z</time>
      </trkpt>
      <trkpt lat="47.24248" lon="-2.29947">
        <ele>103</ele>
        <time>2022-03-20T10:50:13.000Z</time>
      </trkpt>
      <trkpt lat="47.24242" lon="-2.2995">
        <ele>102.40000152588</ele>
        <time>2022-03-20T10:50:14.000Z</time>
      </trkpt>
      <trkpt lat="47.24236" lon="-2.29954">
        <ele>102</ele>
        <time>2022-03-20T10:50:15.000Z</time>
      </trkpt>
      <trkpt lat="47.24225" lon="-2.29959">
        <ele>102</ele>
        <time>2022-03-20T10:50:17.000Z</time>
      </trkpt>
      <trkpt lat="47.2421" lon="-2.29966">
        <ele>102</ele>
        <time>2022-03-20T10:50:21.000Z</time>
      </trkpt>
      <trkpt lat="47.24206" lon="-2.29969">
        <ele>102</ele>
        <time>2022-03-20T10:50:22.000Z</time>
      </trkpt>
      <trkpt lat="47.24193" lon="-2.29973">
        <ele>102</ele>
        <time>2022-03-20T10:50:25.000Z</time>
      </trkpt>
      <trkpt lat="47.24188" lon="-2.29974">
        <ele>102.59999847412</ele>
        <time>2022-03-20T10:50:26.000Z</time>
      </trkpt>
      <trkpt lat="47.24183" lon="-2.29975">
        <ele>103</ele>
        <time>2022-03-20T10:50:27.000Z</time>
      </trkpt>
      <trkpt lat="47.24179" lon="-2.29976">
        <ele>103.40000152588</ele>
        <time>2022-03-20T10:50:28.000Z</time>
      </trkpt>
      <trkpt lat="47.24175" lon="-2.29978">
        <ele>103.80000305176</ele>
        <time>2022-03-20T10:50:29.000Z</time>
      </trkpt>
      <trkpt lat="47.24172" lon="-2.29979">
        <ele>104.40000152588</ele>
        <time>2022-03-20T10:50:30.000Z</time>
      </trkpt>
      <trkpt lat="47.2417" lon="-2.2998">
        <ele>104.40000152588</ele>
        <time>2022-03-20T10:50:31.000Z</time>
      </trkpt>
      <trkpt lat="47.24167" lon="-2.29983">
        <ele>104.40000152588</ele>
        <time>2022-03-20T10:50:35.000Z</time>
      </trkpt>
      <trkpt lat="47.24166" lon="-2.29982">
        <ele>104.40000152588</ele>
        <time>2022-03-20T10:53:36.000Z</time>
      </trkpt>
      <trkpt lat="47.24174" lon="-2.29998">
        <ele>104.40000152588</ele>
        <time>2022-03-20T10:53:40.000Z</time>
      </trkpt>
      <trkpt lat="47.24183" lon="-2.30023">
        <ele>104.40000152588</ele>
        <time>2022-03-20T10:53:46.000Z</time>
      </trkpt>
      <trkpt lat="47.24183" lon="-2.30026">
        <ele>104.40000152588</ele>
        <time>2022-03-20T10:53:47.000Z</time>
      </trkpt>
      <trkpt lat="47.2418" lon="-2.30025">
        <ele>104.40000152588</ele>
        <time>2022-03-20T10:53:50.000Z</time>
      </trkpt>
      <trkpt lat="47.24177" lon="-2.30024">
        <ele>104.40000152588</ele>
        <time>2022-03-20T10:53:52.000Z</time>
      </trkpt>
      <trkpt lat="47.24166" lon="-2.3002">
        <ele>104.40000152588</ele>
        <time>2022-03-20T10:53:55.000Z</time>
      </trkpt>
      <trkpt lat="47.24157" lon="-2.30022">
        <ele>104.40000152588</ele>
        <time>2022-03-20T10:53:58.000Z</time>
      </trkpt>
      <trkpt lat="47.24155" lon="-2.30025">
        <ele>104.40000152588</ele>
        <time>2022-03-20T10:53:59.000Z</time>
      </trkpt>
      <trkpt lat="47.24153" lon="-2.30042">
        <ele>103.80000305176</ele>
        <time>2022-03-20T10:54:04.000Z</time>
      </trkpt>
      <trkpt lat="47.24152" lon="-2.30045">
        <ele>103.40000152588</ele>
        <time>2022-03-20T10:54:05.000Z</time>
      </trkpt>
      <trkpt lat="47.24149" lon="-2.30048">
        <ele>103</ele>
        <time>2022-03-20T10:54:06.000Z</time>
      </trkpt>
      <trkpt lat="47.24148" lon="-2.30051">
        <ele>102.59999847412</ele>
        <time>2022-03-20T10:54:07.000Z</time>
      </trkpt>
      <trkpt lat="47.24147" lon="-2.30056">
        <ele>102.19999694824</ele>
        <time>2022-03-20T10:54:08.000Z</time>
      </trkpt>
      <trkpt lat="47.24147" lon="-2.3006">
        <ele>102.19999694824</ele>
        <time>2022-03-20T10:54:09.000Z</time>
      </trkpt>
      <trkpt lat="47.24149" lon="-2.30069">
        <ele>102.19999694824</ele>
        <time>2022-03-20T10:54:11.000Z</time>
      </trkpt>
      <trkpt lat="47.24151" lon="-2.3008">
        <ele>102.19999694824</ele>
        <time>2022-03-20T10:54:13.000Z</time>
      </trkpt>
      <trkpt lat="47.24151" lon="-2.30092">
        <ele>102.19999694824</ele>
        <time>2022-03-20T10:54:15.000Z</time>
      </trkpt>
      <trkpt lat="47.24151" lon="-2.30098">
        <ele>101.80000305176</ele>
        <time>2022-03-20T10:54:16.000Z</time>
      </trkpt>
      <trkpt lat="47.2415" lon="-2.30103">
        <ele>101.40000152588</ele>
        <time>2022-03-20T10:54:17.000Z</time>
      </trkpt>
      <trkpt lat="47.24148" lon="-2.3011">
        <ele>101</ele>
        <time>2022-03-20T10:54:18.000Z</time>
      </trkpt>
      <trkpt lat="47.24146" lon="-2.30116">
        <ele>100.40000152588</ele>
        <time>2022-03-20T10:54:19.000Z</time>
      </trkpt>
      <trkpt lat="47.24144" lon="-2.30123">
        <ele>100</ele>
        <time>2022-03-20T10:54:20.000Z</time>
      </trkpt>
      <trkpt lat="47.24141" lon="-2.30127">
        <ele>100</ele>
        <time>2022-03-20T10:54:21.000Z</time>
      </trkpt>
      <trkpt lat="47.24133" lon="-2.3014">
        <ele>100</ele>
        <time>2022-03-20T10:54:25.000Z</time>
      </trkpt>
      <trkpt lat="47.2413" lon="-2.30153">
        <ele>100</ele>
        <time>2022-03-20T10:54:29.000Z</time>
      </trkpt>
      <trkpt lat="47.24132" lon="-2.30155">
        <ele>100</ele>
        <time>2022-03-20T10:54:31.000Z</time>
      </trkpt>
      <trkpt lat="47.24135" lon="-2.30159">
        <ele>99.599998474121</ele>
        <time>2022-03-20T10:54:33.000Z</time>
      </trkpt>
      <trkpt lat="47.24136" lon="-2.30162">
        <ele>99.199996948242</ele>
        <time>2022-03-20T10:54:34.000Z</time>
      </trkpt>
      <trkpt lat="47.24138" lon="-2.30166">
        <ele>98.599998474121</ele>
        <time>2022-03-20T10:54:35.000Z</time>
      </trkpt>
      <trkpt lat="47.2414" lon="-2.3017">
        <ele>98.199996948242</ele>
        <time>2022-03-20T10:54:36.000Z</time>
      </trkpt>
      <trkpt lat="47.24142" lon="-2.30177">
        <ele>97.800003051758</ele>
        <time>2022-03-20T10:54:37.000Z</time>
      </trkpt>
      <trkpt lat="47.24145" lon="-2.30182">
        <ele>97.800003051758</ele>
        <time>2022-03-20T10:54:38.000Z</time>
      </trkpt>
      <trkpt lat="47.24156" lon="-2.30205">
        <ele>97.800003051758</ele>
        <time>2022-03-20T10:54:41.000Z</time>
      </trkpt>
      <trkpt lat="47.24159" lon="-2.30213">
        <ele>97.400001525879</ele>
        <time>2022-03-20T10:54:42.000Z</time>
      </trkpt>
      <trkpt lat="47.24162" lon="-2.30222">
        <ele>96.800003051758</ele>
        <time>2022-03-20T10:54:43.000Z</time>
      </trkpt>
      <trkpt lat="47.24165" lon="-2.30229">
        <ele>96.400001525879</ele>
        <time>2022-03-20T10:54:44.000Z</time>
      </trkpt>
      <trkpt lat="47.2417" lon="-2.30233">
        <ele>96</ele>
        <time>2022-03-20T10:54:45.000Z</time>
      </trkpt>
      <trkpt lat="47.24174" lon="-2.30234">
        <ele>95.599998474121</ele>
        <time>2022-03-20T10:54:46.000Z</time>
      </trkpt>
      <trkpt lat="47.24183" lon="-2.30229">
        <ele>95.199996948242</ele>
        <time>2022-03-20T10:54:48.000Z</time>
      </trkpt>
      <trkpt lat="47.24187" lon="-2.30231">
        <ele>94.800003051758</ele>
        <time>2022-03-20T10:54:49.000Z</time>
      </trkpt>
      <trkpt lat="47.24189" lon="-2.30236">
        <ele>94.400001525879</ele>
        <time>2022-03-20T10:54:50.000Z</time>
      </trkpt>
      <trkpt lat="47.24191" lon="-2.30243">
        <ele>94</ele>
        <time>2022-03-20T10:54:51.000Z</time>
      </trkpt>
      <trkpt lat="47.24192" lon="-2.30251">
        <ele>93.400001525879</ele>
        <time>2022-03-20T10:54:52.000Z</time>
      </trkpt>
      <trkpt lat="47.24196" lon="-2.30266">
        <ele>93.400001525879</ele>
        <time>2022-03-20T10:54:54.000Z</time>
      </trkpt>
      <trkpt lat="47.24198" lon="-2.30282">
        <ele>93.400001525879</ele>
        <time>2022-03-20T10:54:56.000Z</time>
      </trkpt>
      <trkpt lat="47.24203" lon="-2.30316">
        <ele>93.400001525879</ele>
        <time>2022-03-20T10:55:00.000Z</time>
      </trkpt>
      <trkpt lat="47.24205" lon="-2.30322">
        <ele>93.400001525879</ele>
        <time>2022-03-20T10:55:01.000Z</time>
      </trkpt>
      <trkpt lat="47.24214" lon="-2.30327">
        <ele>94</ele>
        <time>2022-03-20T10:55:04.000Z</time>
      </trkpt>
      <trkpt lat="47.24217" lon="-2.30326">
        <ele>94.400001525879</ele>
        <time>2022-03-20T10:55:05.000Z</time>
      </trkpt>
      <trkpt lat="47.2422" lon="-2.30324">
        <ele>94.800003051758</ele>
        <time>2022-03-20T10:55:06.000Z</time>
      </trkpt>
      <trkpt lat="47.24222" lon="-2.30323">
        <ele>95.199996948242</ele>
        <time>2022-03-20T10:55:07.000Z</time>
      </trkpt>
      <trkpt lat="47.24224" lon="-2.30322">
        <ele>95.599998474121</ele>
        <time>2022-03-20T10:55:08.000Z</time>
      </trkpt>
      <trkpt lat="47.24226" lon="-2.3032">
        <ele>95.599998474121</ele>
        <time>2022-03-20T10:55:09.000Z</time>
      </trkpt>
      <trkpt lat="47.24228" lon="-2.30321">
        <ele>96.199996948242</ele>
        <time>2022-03-20T10:55:10.000Z</time>
      </trkpt>
      <trkpt lat="47.2423" lon="-2.30321">
        <ele>96.599998474121</ele>
        <time>2022-03-20T10:55:11.000Z</time>
      </trkpt>
      <trkpt lat="47.24232" lon="-2.30324">
        <ele>97.199996948242</ele>
        <time>2022-03-20T10:55:12.000Z</time>
      </trkpt>
      <trkpt lat="47.24236" lon="-2.30327">
        <ele>97.599998474121</ele>
        <time>2022-03-20T10:55:13.000Z</time>
      </trkpt>
      <trkpt lat="47.24239" lon="-2.30331">
        <ele>98.199996948242</ele>
        <time>2022-03-20T10:55:14.000Z</time>
      </trkpt>
      <trkpt lat="47.2425" lon="-2.3035">
        <ele>98.599998474121</ele>
        <time>2022-03-20T10:55:18.000Z</time>
      </trkpt>
      <trkpt lat="47.24253" lon="-2.30354">
        <ele>99</ele>
        <time>2022-03-20T10:55:19.000Z</time>
      </trkpt>
      <trkpt lat="47.24255" lon="-2.30359">
        <ele>99.400001525879</ele>
        <time>2022-03-20T10:55:20.000Z</time>
      </trkpt>
      <trkpt lat="47.24258" lon="-2.30364">
        <ele>99.800003051758</ele>
        <time>2022-03-20T10:55:21.000Z</time>
      </trkpt>
      <trkpt lat="47.24261" lon="-2.30369">
        <ele>100.19999694824</ele>
        <time>2022-03-20T10:55:22.000Z</time>
      </trkpt>
      <trkpt lat="47.2428" lon="-2.30399">
        <ele>100.19999694824</ele>
        <time>2022-03-20T10:55:28.000Z</time>
      </trkpt>
      <trkpt lat="47.24285" lon="-2.30402">
        <ele>100.19999694824</ele>
        <time>2022-03-20T10:55:29.000Z</time>
      </trkpt>
      <trkpt lat="47.24301" lon="-2.30416">
        <ele>100.19999694824</ele>
        <time>2022-03-20T10:55:33.000Z</time>
      </trkpt>
      <trkpt lat="47.24308" lon="-2.30419">
        <ele>100.19999694824</ele>
        <time>2022-03-20T10:55:35.000Z</time>
      </trkpt>
      <trkpt lat="47.24324" lon="-2.30433">
        <ele>100.19999694824</ele>
        <time>2022-03-20T10:55:39.000Z</time>
      </trkpt>
      <trkpt lat="47.2433" lon="-2.30435">
        <ele>100.19999694824</ele>
        <time>2022-03-20T10:55:40.000Z</time>
      </trkpt>
      <trkpt lat="47.24349" lon="-2.30446">
        <ele>100.19999694824</ele>
        <time>2022-03-20T10:55:44.000Z</time>
      </trkpt>
      <trkpt lat="47.24358" lon="-2.30448">
        <ele>100.19999694824</ele>
        <time>2022-03-20T10:55:46.000Z</time>
      </trkpt>
      <trkpt lat="47.24363" lon="-2.30446">
        <ele>99.800003051758</ele>
        <time>2022-03-20T10:55:47.000Z</time>
      </trkpt>
      <trkpt lat="47.24367" lon="-2.30446">
        <ele>99.400001525879</ele>
        <time>2022-03-20T10:55:48.000Z</time>
      </trkpt>
      <trkpt lat="47.24371" lon="-2.30448">
        <ele>98.800003051758</ele>
        <time>2022-03-20T10:55:49.000Z</time>
      </trkpt>
      <trkpt lat="47.24374" lon="-2.30452">
        <ele>98.400001525879</ele>
        <time>2022-03-20T10:55:50.000Z</time>
      </trkpt>
      <trkpt lat="47.24375" lon="-2.30458">
        <ele>98</ele>
        <time>2022-03-20T10:55:51.000Z</time>
      </trkpt>
      <trkpt lat="47.24373" lon="-2.30478">
        <ele>98</ele>
        <time>2022-03-20T10:55:54.000Z</time>
      </trkpt>
      <trkpt lat="47.24369" lon="-2.30491">
        <ele>97.599998474121</ele>
        <time>2022-03-20T10:55:56.000Z</time>
      </trkpt>
      <trkpt lat="47.24367" lon="-2.30498">
        <ele>97.199996948242</ele>
        <time>2022-03-20T10:55:57.000Z</time>
      </trkpt>
      <trkpt lat="47.24365" lon="-2.30505">
        <ele>96.800003051758</ele>
        <time>2022-03-20T10:55:58.000Z</time>
      </trkpt>
      <trkpt lat="47.24364" lon="-2.30513">
        <ele>96.400001525879</ele>
        <time>2022-03-20T10:55:59.000Z</time>
      </trkpt>
      <trkpt lat="47.24363" lon="-2.3052">
        <ele>95.800003051758</ele>
        <time>2022-03-20T10:56:00.000Z</time>
      </trkpt>
      <trkpt lat="47.24363" lon="-2.30529">
        <ele>95.199996948242</ele>
        <time>2022-03-20T10:56:01.000Z</time>
      </trkpt>
      <trkpt lat="47.24363" lon="-2.30538">
        <ele>94.800003051758</ele>
        <time>2022-03-20T10:56:02.000Z</time>
      </trkpt>
      <trkpt lat="47.24364" lon="-2.30546">
        <ele>94.199996948242</ele>
        <time>2022-03-20T10:56:03.000Z</time>
      </trkpt>
      <trkpt lat="47.24365" lon="-2.30552">
        <ele>93.599998474121</ele>
        <time>2022-03-20T10:56:04.000Z</time>
      </trkpt>
      <trkpt lat="47.24366" lon="-2.30557">
        <ele>93.199996948242</ele>
        <time>2022-03-20T10:56:05.000Z</time>
      </trkpt>
      <trkpt lat="47.24368" lon="-2.30562">
        <ele>92.599998474121</ele>
        <time>2022-03-20T10:56:06.000Z</time>
      </trkpt>
      <trkpt lat="47.2437" lon="-2.30566">
        <ele>91.599998474121</ele>
        <time>2022-03-20T10:56:07.000Z</time>
      </trkpt>
      <trkpt lat="47.24385" lon="-2.30576">
        <ele>91.599998474121</ele>
        <time>2022-03-20T10:56:10.000Z</time>
      </trkpt>
      <trkpt lat="47.24413" lon="-2.30572">
        <ele>91.599998474121</ele>
        <time>2022-03-20T10:56:14.000Z</time>
      </trkpt>
      <trkpt lat="47.24419" lon="-2.30569">
        <ele>91.599998474121</ele>
        <time>2022-03-20T10:56:15.000Z</time>
      </trkpt>
      <trkpt lat="47.24438" lon="-2.30559">
        <ele>92</ele>
        <time>2022-03-20T10:56:18.000Z</time>
      </trkpt>
      <trkpt lat="47.24443" lon="-2.30554">
        <ele>92.400001525879</ele>
        <time>2022-03-20T10:56:19.000Z</time>
      </trkpt>
      <trkpt lat="47.24448" lon="-2.30551">
        <ele>92.800003051758</ele>
        <time>2022-03-20T10:56:20.000Z</time>
      </trkpt>
      <trkpt lat="47.24454" lon="-2.30549">
        <ele>93.199996948242</ele>
        <time>2022-03-20T10:56:21.000Z</time>
      </trkpt>
      <trkpt lat="47.24458" lon="-2.30551">
        <ele>93.599998474121</ele>
        <time>2022-03-20T10:56:22.000Z</time>
      </trkpt>
      <trkpt lat="47.24461" lon="-2.30554">
        <ele>93.599998474121</ele>
        <time>2022-03-20T10:56:23.000Z</time>
      </trkpt>
      <trkpt lat="47.24463" lon="-2.30558">
        <ele>94</ele>
        <time>2022-03-20T10:56:24.000Z</time>
      </trkpt>
      <trkpt lat="47.24464" lon="-2.30563">
        <ele>94.400001525879</ele>
        <time>2022-03-20T10:56:25.000Z</time>
      </trkpt>
      <trkpt lat="47.24462" lon="-2.30568">
        <ele>94.800003051758</ele>
        <time>2022-03-20T10:56:26.000Z</time>
      </trkpt>
      <trkpt lat="47.24462" lon="-2.30573">
        <ele>95.199996948242</ele>
        <time>2022-03-20T10:56:27.000Z</time>
      </trkpt>
      <trkpt lat="47.24462" lon="-2.30578">
        <ele>95.599998474121</ele>
        <time>2022-03-20T10:56:28.000Z</time>
      </trkpt>
      <trkpt lat="47.24461" lon="-2.30584">
        <ele>95.599998474121</ele>
        <time>2022-03-20T10:56:29.000Z</time>
      </trkpt>
      <trkpt lat="47.24457" lon="-2.30593">
        <ele>95.599998474121</ele>
        <time>2022-03-20T10:56:31.000Z</time>
      </trkpt>
      <trkpt lat="47.24449" lon="-2.30604">
        <ele>96.199996948242</ele>
        <time>2022-03-20T10:56:34.000Z</time>
      </trkpt>
      <trkpt lat="47.24446" lon="-2.30607">
        <ele>96.599998474121</ele>
        <time>2022-03-20T10:56:35.000Z</time>
      </trkpt>
      <trkpt lat="47.24443" lon="-2.3061">
        <ele>97</ele>
        <time>2022-03-20T10:56:36.000Z</time>
      </trkpt>
      <trkpt lat="47.2444" lon="-2.30614">
        <ele>97.400001525879</ele>
        <time>2022-03-20T10:56:37.000Z</time>
      </trkpt>
      <trkpt lat="47.24436" lon="-2.30618">
        <ele>98</ele>
        <time>2022-03-20T10:56:38.000Z</time>
      </trkpt>
      <trkpt lat="47.24422" lon="-2.30638">
        <ele>98</ele>
        <time>2022-03-20T10:56:43.000Z</time>
      </trkpt>
      <trkpt lat="47.24419" lon="-2.30645">
        <ele>98</ele>
        <time>2022-03-20T10:56:44.000Z</time>
      </trkpt>
      <trkpt lat="47.24413" lon="-2.30662">
        <ele>98</ele>
        <time>2022-03-20T10:56:47.000Z</time>
      </trkpt>
      <trkpt lat="47.24403" lon="-2.3071">
        <ele>98</ele>
        <time>2022-03-20T10:56:54.000Z</time>
      </trkpt>
      <trkpt lat="47.24403" lon="-2.30716">
        <ele>98</ele>
        <time>2022-03-20T10:56:55.000Z</time>
      </trkpt>
      <trkpt lat="47.24403" lon="-2.30723">
        <ele>98.800003051758</ele>
        <time>2022-03-20T10:56:56.000Z</time>
      </trkpt>
      <trkpt lat="47.24402" lon="-2.30729">
        <ele>99.199996948242</ele>
        <time>2022-03-20T10:56:57.000Z</time>
      </trkpt>
      <trkpt lat="47.24401" lon="-2.30736">
        <ele>99.599998474121</ele>
        <time>2022-03-20T10:56:58.000Z</time>
      </trkpt>
      <trkpt lat="47.244" lon="-2.30743">
        <ele>100</ele>
        <time>2022-03-20T10:56:59.000Z</time>
      </trkpt>
      <trkpt lat="47.2439" lon="-2.30758">
        <ele>100</ele>
        <time>2022-03-20T10:57:03.000Z</time>
      </trkpt>
      <trkpt lat="47.24386" lon="-2.30765">
        <ele>100</ele>
        <time>2022-03-20T10:57:04.000Z</time>
      </trkpt>
      <trkpt lat="47.24365" lon="-2.30782">
        <ele>100</ele>
        <time>2022-03-20T10:57:07.000Z</time>
      </trkpt>
      <trkpt lat="47.24357" lon="-2.30787">
        <ele>99.599998474121</ele>
        <time>2022-03-20T10:57:08.000Z</time>
      </trkpt>
      <trkpt lat="47.2435" lon="-2.30791">
        <ele>99</ele>
        <time>2022-03-20T10:57:09.000Z</time>
      </trkpt>
      <trkpt lat="47.24342" lon="-2.30793">
        <ele>98.599998474121</ele>
        <time>2022-03-20T10:57:10.000Z</time>
      </trkpt>
      <trkpt lat="47.24334" lon="-2.30795">
        <ele>98.199996948242</ele>
        <time>2022-03-20T10:57:11.000Z</time>
      </trkpt>
      <trkpt lat="47.24327" lon="-2.30797">
        <ele>97.800003051758</ele>
        <time>2022-03-20T10:57:12.000Z</time>
      </trkpt>
      <trkpt lat="47.24312" lon="-2.30803">
        <ele>97.199996948242</ele>
        <time>2022-03-20T10:57:14.000Z</time>
      </trkpt>
      <trkpt lat="47.24306" lon="-2.30807">
        <ele>96.800003051758</ele>
        <time>2022-03-20T10:57:15.000Z</time>
      </trkpt>
      <trkpt lat="47.243" lon="-2.30811">
        <ele>96.400001525879</ele>
        <time>2022-03-20T10:57:16.000Z</time>
      </trkpt>
      <trkpt lat="47.24294" lon="-2.30819">
        <ele>96</ele>
        <time>2022-03-20T10:57:17.000Z</time>
      </trkpt>
      <trkpt lat="47.24289" lon="-2.30828">
        <ele>95.599998474121</ele>
        <time>2022-03-20T10:57:18.000Z</time>
      </trkpt>
      <trkpt lat="47.24283" lon="-2.30846">
        <ele>95.599998474121</ele>
        <time>2022-03-20T10:57:20.000Z</time>
      </trkpt>
      <trkpt lat="47.24279" lon="-2.30878">
        <ele>95.199996948242</ele>
        <time>2022-03-20T10:57:23.000Z</time>
      </trkpt>
      <trkpt lat="47.2428" lon="-2.30889">
        <ele>94.599998474121</ele>
        <time>2022-03-20T10:57:24.000Z</time>
      </trkpt>
      <trkpt lat="47.24282" lon="-2.309">
        <ele>94.199996948242</ele>
        <time>2022-03-20T10:57:25.000Z</time>
      </trkpt>
      <trkpt lat="47.24283" lon="-2.30911">
        <ele>93.800003051758</ele>
        <time>2022-03-20T10:57:26.000Z</time>
      </trkpt>
      <trkpt lat="47.24284" lon="-2.30921">
        <ele>93.400001525879</ele>
        <time>2022-03-20T10:57:27.000Z</time>
      </trkpt>
      <trkpt lat="47.24285" lon="-2.30954">
        <ele>93.400001525879</ele>
        <time>2022-03-20T10:57:30.000Z</time>
      </trkpt>
      <trkpt lat="47.24284" lon="-2.30966">
        <ele>93</ele>
        <time>2022-03-20T10:57:31.000Z</time>
      </trkpt>
      <trkpt lat="47.24283" lon="-2.30981">
        <ele>92.400001525879</ele>
        <time>2022-03-20T10:57:32.000Z</time>
      </trkpt>
      <trkpt lat="47.24281" lon="-2.30993">
        <ele>92</ele>
        <time>2022-03-20T10:57:33.000Z</time>
      </trkpt>
      <trkpt lat="47.24279" lon="-2.31004">
        <ele>91.599998474121</ele>
        <time>2022-03-20T10:57:34.000Z</time>
      </trkpt>
      <trkpt lat="47.24277" lon="-2.31014">
        <ele>91</ele>
        <time>2022-03-20T10:57:35.000Z</time>
      </trkpt>
      <trkpt lat="47.24275" lon="-2.31023">
        <ele>90.400001525879</ele>
        <time>2022-03-20T10:57:36.000Z</time>
      </trkpt>
      <trkpt lat="47.24274" lon="-2.31031">
        <ele>89.800003051758</ele>
        <time>2022-03-20T10:57:37.000Z</time>
      </trkpt>
      <trkpt lat="47.24273" lon="-2.31038">
        <ele>89</ele>
        <time>2022-03-20T10:57:38.000Z</time>
      </trkpt>
      <trkpt lat="47.24273" lon="-2.31043">
        <ele>88.199996948242</ele>
        <time>2022-03-20T10:57:39.000Z</time>
      </trkpt>
      <trkpt lat="47.24275" lon="-2.31046">
        <ele>87.599998474121</ele>
        <time>2022-03-20T10:57:40.000Z</time>
      </trkpt>
      <trkpt lat="47.24278" lon="-2.31047">
        <ele>86.800003051758</ele>
        <time>2022-03-20T10:57:41.000Z</time>
      </trkpt>
      <trkpt lat="47.24281" lon="-2.31048">
        <ele>86.199996948242</ele>
        <time>2022-03-20T10:57:42.000Z</time>
      </trkpt>
      <trkpt lat="47.24284" lon="-2.31048">
        <ele>86.199996948242</ele>
        <time>2022-03-20T10:57:43.000Z</time>
      </trkpt>
      <trkpt lat="47.24296" lon="-2.31047">
        <ele>86.199996948242</ele>
        <time>2022-03-20T10:57:45.000Z</time>
      </trkpt>
      <trkpt lat="47.24303" lon="-2.31046">
        <ele>86.599998474121</ele>
        <time>2022-03-20T10:57:46.000Z</time>
      </trkpt>
      <trkpt lat="47.24309" lon="-2.31046">
        <ele>87</ele>
        <time>2022-03-20T10:57:47.000Z</time>
      </trkpt>
      <trkpt lat="47.24314" lon="-2.31047">
        <ele>87.400001525879</ele>
        <time>2022-03-20T10:57:48.000Z</time>
      </trkpt>
      <trkpt lat="47.24318" lon="-2.31049">
        <ele>87.800003051758</ele>
        <time>2022-03-20T10:57:49.000Z</time>
      </trkpt>
      <trkpt lat="47.24322" lon="-2.31052">
        <ele>88.400001525879</ele>
        <time>2022-03-20T10:57:50.000Z</time>
      </trkpt>
      <trkpt lat="47.24328" lon="-2.31063">
        <ele>88.400001525879</ele>
        <time>2022-03-20T10:57:52.000Z</time>
      </trkpt>
      <trkpt lat="47.24331" lon="-2.31069">
        <ele>88.400001525879</ele>
        <time>2022-03-20T10:57:53.000Z</time>
      </trkpt>
      <trkpt lat="47.24346" lon="-2.31095">
        <ele>88.400001525879</ele>
        <time>2022-03-20T10:57:57.000Z</time>
      </trkpt>
      <trkpt lat="47.24362" lon="-2.31138">
        <ele>88.400001525879</ele>
        <time>2022-03-20T10:58:03.000Z</time>
      </trkpt>
      <trkpt lat="47.24366" lon="-2.31144">
        <ele>88.400001525879</ele>
        <time>2022-03-20T10:58:04.000Z</time>
      </trkpt>
      <trkpt lat="47.24373" lon="-2.31154">
        <ele>88.400001525879</ele>
        <time>2022-03-20T10:58:06.000Z</time>
      </trkpt>
      <trkpt lat="47.24382" lon="-2.31163">
        <ele>88.400001525879</ele>
        <time>2022-03-20T10:58:08.000Z</time>
      </trkpt>
      <trkpt lat="47.24406" lon="-2.31186">
        <ele>88.400001525879</ele>
        <time>2022-03-20T10:58:15.000Z</time>
      </trkpt>
      <trkpt lat="47.24408" lon="-2.3119">
        <ele>88.400001525879</ele>
        <time>2022-03-20T10:58:17.000Z</time>
      </trkpt>
      <trkpt lat="47.2441" lon="-2.31195">
        <ele>88.400001525879</ele>
        <time>2022-03-20T10:58:19.000Z</time>
      </trkpt>
      <trkpt lat="47.24414" lon="-2.31206">
        <ele>88</ele>
        <time>2022-03-20T10:58:21.000Z</time>
      </trkpt>
      <trkpt lat="47.24416" lon="-2.31214">
        <ele>87.400001525879</ele>
        <time>2022-03-20T10:58:22.000Z</time>
      </trkpt>
      <trkpt lat="47.24418" lon="-2.31218">
        <ele>87</ele>
        <time>2022-03-20T10:58:23.000Z</time>
      </trkpt>
      <trkpt lat="47.2442" lon="-2.31222">
        <ele>86.599998474121</ele>
        <time>2022-03-20T10:58:24.000Z</time>
      </trkpt>
      <trkpt lat="47.24425" lon="-2.31222">
        <ele>86.199996948242</ele>
        <time>2022-03-20T10:58:25.000Z</time>
      </trkpt>
      <trkpt lat="47.24437" lon="-2.31221">
        <ele>86.199996948242</ele>
        <time>2022-03-20T10:58:28.000Z</time>
      </trkpt>
      <trkpt lat="47.24448" lon="-2.31236">
        <ele>86.199996948242</ele>
        <time>2022-03-20T10:58:32.000Z</time>
      </trkpt>
      <trkpt lat="47.2445" lon="-2.31241">
        <ele>86.599998474121</ele>
        <time>2022-03-20T10:58:33.000Z</time>
      </trkpt>
      <trkpt lat="47.24454" lon="-2.31247">
        <ele>87</ele>
        <time>2022-03-20T10:58:34.000Z</time>
      </trkpt>
      <trkpt lat="47.24457" lon="-2.31253">
        <ele>87.800003051758</ele>
        <time>2022-03-20T10:58:35.000Z</time>
      </trkpt>
      <trkpt lat="47.2446" lon="-2.31259">
        <ele>88.199996948242</ele>
        <time>2022-03-20T10:58:36.000Z</time>
      </trkpt>
      <trkpt lat="47.24463" lon="-2.31265">
        <ele>88.199996948242</ele>
        <time>2022-03-20T10:58:37.000Z</time>
      </trkpt>
      <trkpt lat="47.24478" lon="-2.31296">
        <ele>88.199996948242</ele>
        <time>2022-03-20T10:58:42.000Z</time>
      </trkpt>
      <trkpt lat="47.24483" lon="-2.31311">
        <ele>88.199996948242</ele>
        <time>2022-03-20T10:58:46.000Z</time>
      </trkpt>
      <trkpt lat="47.24484" lon="-2.31313">
        <ele>88.599998474121</ele>
        <time>2022-03-20T10:58:48.000Z</time>
      </trkpt>
      <trkpt lat="47.24484" lon="-2.31315">
        <ele>89</ele>
        <time>2022-03-20T10:58:49.000Z</time>
      </trkpt>
      <trkpt lat="47.24485" lon="-2.31318">
        <ele>89.400001525879</ele>
        <time>2022-03-20T10:58:50.000Z</time>
      </trkpt>
      <trkpt lat="47.24487" lon="-2.31321">
        <ele>89.800003051758</ele>
        <time>2022-03-20T10:58:51.000Z</time>
      </trkpt>
      <trkpt lat="47.24488" lon="-2.31326">
        <ele>90.400001525879</ele>
        <time>2022-03-20T10:58:52.000Z</time>
      </trkpt>
      <trkpt lat="47.24496" lon="-2.31343">
        <ele>90.400001525879</ele>
        <time>2022-03-20T10:58:56.000Z</time>
      </trkpt>
      <trkpt lat="47.24508" lon="-2.31355">
        <ele>91.199996948242</ele>
        <time>2022-03-20T10:59:00.000Z</time>
      </trkpt>
      <trkpt lat="47.2451" lon="-2.31359">
        <ele>91.599998474121</ele>
        <time>2022-03-20T10:59:01.000Z</time>
      </trkpt>
      <trkpt lat="47.24513" lon="-2.31362">
        <ele>92</ele>
        <time>2022-03-20T10:59:02.000Z</time>
      </trkpt>
      <trkpt lat="47.24516" lon="-2.31365">
        <ele>92.599998474121</ele>
        <time>2022-03-20T10:59:03.000Z</time>
      </trkpt>
      <trkpt lat="47.2453" lon="-2.31379">
        <ele>93</ele>
        <time>2022-03-20T10:59:07.000Z</time>
      </trkpt>
      <trkpt lat="47.24533" lon="-2.31382">
        <ele>93.400001525879</ele>
        <time>2022-03-20T10:59:08.000Z</time>
      </trkpt>
      <trkpt lat="47.24537" lon="-2.31385">
        <ele>93.800003051758</ele>
        <time>2022-03-20T10:59:09.000Z</time>
      </trkpt>
      <trkpt lat="47.24541" lon="-2.31389">
        <ele>94.199996948242</ele>
        <time>2022-03-20T10:59:10.000Z</time>
      </trkpt>
      <trkpt lat="47.24545" lon="-2.3139">
        <ele>94.599998474121</ele>
        <time>2022-03-20T10:59:11.000Z</time>
      </trkpt>
      <trkpt lat="47.2455" lon="-2.31391">
        <ele>94.599998474121</ele>
        <time>2022-03-20T10:59:12.000Z</time>
      </trkpt>
      <trkpt lat="47.24572" lon="-2.31391">
        <ele>94.599998474121</ele>
        <time>2022-03-20T10:59:17.000Z</time>
      </trkpt>
      <trkpt lat="47.24579" lon="-2.31411">
        <ele>94.599998474121</ele>
        <time>2022-03-20T10:59:21.000Z</time>
      </trkpt>
      <trkpt lat="47.2459" lon="-2.3145">
        <ele>94.599998474121</ele>
        <time>2022-03-20T10:59:28.000Z</time>
      </trkpt>
      <trkpt lat="47.24593" lon="-2.31484">
        <ele>94.599998474121</ele>
        <time>2022-03-20T10:59:33.000Z</time>
      </trkpt>
      <trkpt lat="47.24599" lon="-2.31533">
        <ele>94.599998474121</ele>
        <time>2022-03-20T10:59:40.000Z</time>
      </trkpt>
      <trkpt lat="47.24603" lon="-2.31567">
        <ele>94.599998474121</ele>
        <time>2022-03-20T10:59:45.000Z</time>
      </trkpt>
      <trkpt lat="47.24609" lon="-2.31578">
        <ele>94.599998474121</ele>
        <time>2022-03-20T10:59:47.000Z</time>
      </trkpt>
      <trkpt lat="47.24617" lon="-2.31588">
        <ele>94.599998474121</ele>
        <time>2022-03-20T10:59:49.000Z</time>
      </trkpt>
      <trkpt lat="47.24626" lon="-2.31604">
        <ele>94.599998474121</ele>
        <time>2022-03-20T10:59:52.000Z</time>
      </trkpt>
      <trkpt lat="47.24636" lon="-2.3162">
        <ele>94.599998474121</ele>
        <time>2022-03-20T10:59:55.000Z</time>
      </trkpt>
      <trkpt lat="47.2464" lon="-2.31623">
        <ele>94.599998474121</ele>
        <time>2022-03-20T10:59:56.000Z</time>
      </trkpt>
      <trkpt lat="47.24655" lon="-2.31645">
        <ele>94.599998474121</ele>
        <time>2022-03-20T11:00:00.000Z</time>
      </trkpt>
      <trkpt lat="47.24657" lon="-2.31648">
        <ele>94.599998474121</ele>
        <time>2022-03-20T11:00:01.000Z</time>
      </trkpt>
      <trkpt lat="47.24669" lon="-2.31665">
        <ele>94.599998474121</ele>
        <time>2022-03-20T11:00:06.000Z</time>
      </trkpt>
      <trkpt lat="47.24687" lon="-2.31694">
        <ele>94.599998474121</ele>
        <time>2022-03-20T11:00:11.000Z</time>
      </trkpt>
      <trkpt lat="47.24718" lon="-2.31744">
        <ele>94.599998474121</ele>
        <time>2022-03-20T11:00:19.000Z</time>
      </trkpt>
      <trkpt lat="47.24735" lon="-2.31767">
        <ele>94.599998474121</ele>
        <time>2022-03-20T11:00:23.000Z</time>
      </trkpt>
      <trkpt lat="47.24743" lon="-2.3178">
        <ele>94.599998474121</ele>
        <time>2022-03-20T11:00:25.000Z</time>
      </trkpt>
      <trkpt lat="47.24777" lon="-2.31832">
        <ele>94.599998474121</ele>
        <time>2022-03-20T11:00:33.000Z</time>
      </trkpt>
      <trkpt lat="47.248" lon="-2.3187">
        <ele>94.599998474121</ele>
        <time>2022-03-20T11:00:40.000Z</time>
      </trkpt>
      <trkpt lat="47.24792" lon="-2.31885">
        <ele>94.599998474121</ele>
        <time>2022-03-20T11:00:43.000Z</time>
      </trkpt>
      <trkpt lat="47.24787" lon="-2.31891">
        <ele>94.599998474121</ele>
        <time>2022-03-20T11:00:44.000Z</time>
      </trkpt>
      <trkpt lat="47.24781" lon="-2.31895">
        <ele>94.599998474121</ele>
        <time>2022-03-20T11:00:45.000Z</time>
      </trkpt>
      <trkpt lat="47.24775" lon="-2.31899">
        <ele>94.599998474121</ele>
        <time>2022-03-20T11:00:46.000Z</time>
      </trkpt>
      <trkpt lat="47.24758" lon="-2.31913">
        <ele>94.599998474121</ele>
        <time>2022-03-20T11:00:49.000Z</time>
      </trkpt>
      <trkpt lat="47.24757" lon="-2.31922">
        <ele>94.599998474121</ele>
        <time>2022-03-20T11:00:50.000Z</time>
      </trkpt>
      <trkpt lat="47.24764" lon="-2.31944">
        <ele>94.599998474121</ele>
        <time>2022-03-20T11:00:53.000Z</time>
      </trkpt>
      <trkpt lat="47.24771" lon="-2.31959">
        <ele>94.599998474121</ele>
        <time>2022-03-20T11:00:55.000Z</time>
      </trkpt>
      <trkpt lat="47.24781" lon="-2.31982">
        <ele>94.599998474121</ele>
        <time>2022-03-20T11:00:58.000Z</time>
      </trkpt>
      <trkpt lat="47.2481" lon="-2.32043">
        <ele>94.599998474121</ele>
        <time>2022-03-20T11:01:06.000Z</time>
      </trkpt>
      <trkpt lat="47.24832" lon="-2.32093">
        <ele>94.599998474121</ele>
        <time>2022-03-20T11:01:12.000Z</time>
      </trkpt>
      <trkpt lat="47.24847" lon="-2.32128">
        <ele>94.199996948242</ele>
        <time>2022-03-20T11:01:16.000Z</time>
      </trkpt>
      <trkpt lat="47.2485" lon="-2.32137">
        <ele>93.800003051758</ele>
        <time>2022-03-20T11:01:17.000Z</time>
      </trkpt>
      <trkpt lat="47.24854" lon="-2.32145">
        <ele>93.400001525879</ele>
        <time>2022-03-20T11:01:18.000Z</time>
      </trkpt>
      <trkpt lat="47.24858" lon="-2.32154">
        <ele>93</ele>
        <time>2022-03-20T11:01:19.000Z</time>
      </trkpt>
      <trkpt lat="47.24862" lon="-2.32163">
        <ele>92.599998474121</ele>
        <time>2022-03-20T11:01:20.000Z</time>
      </trkpt>
      <trkpt lat="47.24878" lon="-2.322">
        <ele>92.599998474121</ele>
        <time>2022-03-20T11:01:25.000Z</time>
      </trkpt>
      <trkpt lat="47.24877" lon="-2.32205">
        <ele>92.599998474121</ele>
        <time>2022-03-20T11:01:26.000Z</time>
      </trkpt>
      <trkpt lat="47.24874" lon="-2.3221">
        <ele>92.599998474121</ele>
        <time>2022-03-20T11:01:27.000Z</time>
      </trkpt>
      <trkpt lat="47.2487" lon="-2.32217">
        <ele>92</ele>
        <time>2022-03-20T11:01:29.000Z</time>
      </trkpt>
      <trkpt lat="47.24866" lon="-2.32222">
        <ele>91.599998474121</ele>
        <time>2022-03-20T11:01:30.000Z</time>
      </trkpt>
      <trkpt lat="47.24862" lon="-2.32228">
        <ele>91.199996948242</ele>
        <time>2022-03-20T11:01:31.000Z</time>
      </trkpt>
      <trkpt lat="47.24858" lon="-2.32234">
        <ele>90.599998474121</ele>
        <time>2022-03-20T11:01:32.000Z</time>
      </trkpt>
      <trkpt lat="47.24853" lon="-2.32241">
        <ele>90.199996948242</ele>
        <time>2022-03-20T11:01:33.000Z</time>
      </trkpt>
      <trkpt lat="47.24847" lon="-2.32248">
        <ele>89.599998474121</ele>
        <time>2022-03-20T11:01:34.000Z</time>
      </trkpt>
      <trkpt lat="47.2484" lon="-2.32255">
        <ele>89.199996948242</ele>
        <time>2022-03-20T11:01:35.000Z</time>
      </trkpt>
      <trkpt lat="47.24831" lon="-2.32263">
        <ele>88.599998474121</ele>
        <time>2022-03-20T11:01:36.000Z</time>
      </trkpt>
      <trkpt lat="47.24823" lon="-2.3227">
        <ele>88</ele>
        <time>2022-03-20T11:01:37.000Z</time>
      </trkpt>
      <trkpt lat="47.24815" lon="-2.32277">
        <ele>87.400001525879</ele>
        <time>2022-03-20T11:01:38.000Z</time>
      </trkpt>
      <trkpt lat="47.24808" lon="-2.32282">
        <ele>86.800003051758</ele>
        <time>2022-03-20T11:01:39.000Z</time>
      </trkpt>
      <trkpt lat="47.24802" lon="-2.32288">
        <ele>86.199996948242</ele>
        <time>2022-03-20T11:01:40.000Z</time>
      </trkpt>
      <trkpt lat="47.24797" lon="-2.32294">
        <ele>85.599998474121</ele>
        <time>2022-03-20T11:01:41.000Z</time>
      </trkpt>
      <trkpt lat="47.24796" lon="-2.323">
        <ele>84.800003051758</ele>
        <time>2022-03-20T11:01:42.000Z</time>
      </trkpt>
      <trkpt lat="47.24797" lon="-2.32308">
        <ele>84.199996948242</ele>
        <time>2022-03-20T11:01:43.000Z</time>
      </trkpt>
      <trkpt lat="47.24799" lon="-2.32315">
        <ele>83.599998474121</ele>
        <time>2022-03-20T11:01:44.000Z</time>
      </trkpt>
      <trkpt lat="47.24806" lon="-2.32331">
        <ele>83.599998474121</ele>
        <time>2022-03-20T11:01:46.000Z</time>
      </trkpt>
      <trkpt lat="47.24814" lon="-2.32346">
        <ele>83.599998474121</ele>
        <time>2022-03-20T11:01:48.000Z</time>
      </trkpt>
      <trkpt lat="47.24827" lon="-2.32372">
        <ele>83.599998474121</ele>
        <time>2022-03-20T11:01:51.000Z</time>
      </trkpt>
      <trkpt lat="47.24855" lon="-2.32426">
        <ele>83.599998474121</ele>
        <time>2022-03-20T11:01:57.000Z</time>
      </trkpt>
      <trkpt lat="47.24875" lon="-2.32475">
        <ele>83.599998474121</ele>
        <time>2022-03-20T11:02:02.000Z</time>
      </trkpt>
      <trkpt lat="47.24902" lon="-2.32547">
        <ele>83.599998474121</ele>
        <time>2022-03-20T11:02:09.000Z</time>
      </trkpt>
      <trkpt lat="47.2491" lon="-2.32567">
        <ele>83.599998474121</ele>
        <time>2022-03-20T11:02:11.000Z</time>
      </trkpt>
      <trkpt lat="47.24932" lon="-2.32627">
        <ele>83.199996948242</ele>
        <time>2022-03-20T11:02:17.000Z</time>
      </trkpt>
      <trkpt lat="47.24935" lon="-2.32637">
        <ele>82.599998474121</ele>
        <time>2022-03-20T11:02:18.000Z</time>
      </trkpt>
      <trkpt lat="47.24939" lon="-2.32648">
        <ele>82.199996948242</ele>
        <time>2022-03-20T11:02:19.000Z</time>
      </trkpt>
      <trkpt lat="47.24943" lon="-2.32658">
        <ele>81.800003051758</ele>
        <time>2022-03-20T11:02:20.000Z</time>
      </trkpt>
      <trkpt lat="47.24947" lon="-2.32668">
        <ele>81.199996948242</ele>
        <time>2022-03-20T11:02:21.000Z</time>
      </trkpt>
      <trkpt lat="47.24958" lon="-2.32698">
        <ele>81.199996948242</ele>
        <time>2022-03-20T11:02:24.000Z</time>
      </trkpt>
      <trkpt lat="47.24962" lon="-2.32709">
        <ele>80.800003051758</ele>
        <time>2022-03-20T11:02:25.000Z</time>
      </trkpt>
      <trkpt lat="47.24966" lon="-2.32719">
        <ele>80.400001525879</ele>
        <time>2022-03-20T11:02:26.000Z</time>
      </trkpt>
      <trkpt lat="47.24969" lon="-2.32729">
        <ele>80</ele>
        <time>2022-03-20T11:02:27.000Z</time>
      </trkpt>
      <trkpt lat="47.24973" lon="-2.32739">
        <ele>79.599998474121</ele>
        <time>2022-03-20T11:02:28.000Z</time>
      </trkpt>
      <trkpt lat="47.24976" lon="-2.32749">
        <ele>79.199996948242</ele>
        <time>2022-03-20T11:02:29.000Z</time>
      </trkpt>
      <trkpt lat="47.24982" lon="-2.32768">
        <ele>79.199996948242</ele>
        <time>2022-03-20T11:02:31.000Z</time>
      </trkpt>
      <trkpt lat="47.2499" lon="-2.32786">
        <ele>79.199996948242</ele>
        <time>2022-03-20T11:02:34.000Z</time>
      </trkpt>
      <trkpt lat="47.24999" lon="-2.32783">
        <ele>79.199996948242</ele>
        <time>2022-03-20T11:02:36.000Z</time>
      </trkpt>
      <trkpt lat="47.25011" lon="-2.32768">
        <ele>79.199996948242</ele>
        <time>2022-03-20T11:02:39.000Z</time>
      </trkpt>
      <trkpt lat="47.25024" lon="-2.32755">
        <ele>79.199996948242</ele>
        <time>2022-03-20T11:02:42.000Z</time>
      </trkpt>
      <trkpt lat="47.25031" lon="-2.32759">
        <ele>79.199996948242</ele>
        <time>2022-03-20T11:02:44.000Z</time>
      </trkpt>
      <trkpt lat="47.25039" lon="-2.32773">
        <ele>79.199996948242</ele>
        <time>2022-03-20T11:02:47.000Z</time>
      </trkpt>
      <trkpt lat="47.25041" lon="-2.32777">
        <ele>79.199996948242</ele>
        <time>2022-03-20T11:02:48.000Z</time>
      </trkpt>
      <trkpt lat="47.25045" lon="-2.32787">
        <ele>79.199996948242</ele>
        <time>2022-03-20T11:02:50.000Z</time>
      </trkpt>
      <trkpt lat="47.25053" lon="-2.32814">
        <ele>79.199996948242</ele>
        <time>2022-03-20T11:02:54.000Z</time>
      </trkpt>
      <trkpt lat="47.25055" lon="-2.32819">
        <ele>79.199996948242</ele>
        <time>2022-03-20T11:02:55.000Z</time>
      </trkpt>
      <trkpt lat="47.25066" lon="-2.32832">
        <ele>79.199996948242</ele>
        <time>2022-03-20T11:02:58.000Z</time>
      </trkpt>
      <trkpt lat="47.2507" lon="-2.32837">
        <ele>79.199996948242</ele>
        <time>2022-03-20T11:02:59.000Z</time>
      </trkpt>
      <trkpt lat="47.25074" lon="-2.32839">
        <ele>79.199996948242</ele>
        <time>2022-03-20T11:03:00.000Z</time>
      </trkpt>
      <trkpt lat="47.25077" lon="-2.32847">
        <ele>79.199996948242</ele>
        <time>2022-03-20T11:03:02.000Z</time>
      </trkpt>
      <trkpt lat="47.25077" lon="-2.32864">
        <ele>79.199996948242</ele>
        <time>2022-03-20T11:03:06.000Z</time>
      </trkpt>
      <trkpt lat="47.25077" lon="-2.32879">
        <ele>79.199996948242</ele>
        <time>2022-03-20T11:03:09.000Z</time>
      </trkpt>
      <trkpt lat="47.25081" lon="-2.32886">
        <ele>79.199996948242</ele>
        <time>2022-03-20T11:03:11.000Z</time>
      </trkpt>
      <trkpt lat="47.25091" lon="-2.32911">
        <ele>79.199996948242</ele>
        <time>2022-03-20T11:03:17.000Z</time>
      </trkpt>
      <trkpt lat="47.25097" lon="-2.32922">
        <ele>79.199996948242</ele>
        <time>2022-03-20T11:03:19.000Z</time>
      </trkpt>
      <trkpt lat="47.25104" lon="-2.32934">
        <ele>79.199996948242</ele>
        <time>2022-03-20T11:03:21.000Z</time>
      </trkpt>
      <trkpt lat="47.25113" lon="-2.32954">
        <ele>79.199996948242</ele>
        <time>2022-03-20T11:03:23.000Z</time>
      </trkpt>
      <trkpt lat="47.25121" lon="-2.32974">
        <ele>79.199996948242</ele>
        <time>2022-03-20T11:03:25.000Z</time>
      </trkpt>
      <trkpt lat="47.25129" lon="-2.32989">
        <ele>79.199996948242</ele>
        <time>2022-03-20T11:03:27.000Z</time>
      </trkpt>
      <trkpt lat="47.25136" lon="-2.33006">
        <ele>79.199996948242</ele>
        <time>2022-03-20T11:03:29.000Z</time>
      </trkpt>
      <trkpt lat="47.25138" lon="-2.33013">
        <ele>79.199996948242</ele>
        <time>2022-03-20T11:03:30.000Z</time>
      </trkpt>
      <trkpt lat="47.25136" lon="-2.3303">
        <ele>79.199996948242</ele>
        <time>2022-03-20T11:03:33.000Z</time>
      </trkpt>
      <trkpt lat="47.2513" lon="-2.33041">
        <ele>79.199996948242</ele>
        <time>2022-03-20T11:03:35.000Z</time>
      </trkpt>
      <trkpt lat="47.25122" lon="-2.33053">
        <ele>79.199996948242</ele>
        <time>2022-03-20T11:03:37.000Z</time>
      </trkpt>
      <trkpt lat="47.25114" lon="-2.3308">
        <ele>79.199996948242</ele>
        <time>2022-03-20T11:03:42.000Z</time>
      </trkpt>
      <trkpt lat="47.25116" lon="-2.33084">
        <ele>79.199996948242</ele>
        <time>2022-03-20T11:03:43.000Z</time>
      </trkpt>
      <trkpt lat="47.25127" lon="-2.33083">
        <ele>79.199996948242</ele>
        <time>2022-03-20T11:03:46.000Z</time>
      </trkpt>
      <trkpt lat="47.25141" lon="-2.33075">
        <ele>79.199996948242</ele>
        <time>2022-03-20T11:03:49.000Z</time>
      </trkpt>
      <trkpt lat="47.25147" lon="-2.33071">
        <ele>79.199996948242</ele>
        <time>2022-03-20T11:03:50.000Z</time>
      </trkpt>
      <trkpt lat="47.25175" lon="-2.33049">
        <ele>79.199996948242</ele>
        <time>2022-03-20T11:03:55.000Z</time>
      </trkpt>
      <trkpt lat="47.25206" lon="-2.33019">
        <ele>79.199996948242</ele>
        <time>2022-03-20T11:04:01.000Z</time>
      </trkpt>
      <trkpt lat="47.25232" lon="-2.32995">
        <ele>79.599998474121</ele>
        <time>2022-03-20T11:04:06.000Z</time>
      </trkpt>
      <trkpt lat="47.25237" lon="-2.32991">
        <ele>80</ele>
        <time>2022-03-20T11:04:07.000Z</time>
      </trkpt>
      <trkpt lat="47.25242" lon="-2.32987">
        <ele>80.599998474121</ele>
        <time>2022-03-20T11:04:08.000Z</time>
      </trkpt>
      <trkpt lat="47.25247" lon="-2.32982">
        <ele>81</ele>
        <time>2022-03-20T11:04:09.000Z</time>
      </trkpt>
      <trkpt lat="47.25252" lon="-2.32977">
        <ele>81.400001525879</ele>
        <time>2022-03-20T11:04:10.000Z</time>
      </trkpt>
      <trkpt lat="47.2528" lon="-2.32949">
        <ele>81.400001525879</ele>
        <time>2022-03-20T11:04:16.000Z</time>
      </trkpt>
      <trkpt lat="47.25302" lon="-2.32933">
        <ele>81.400001525879</ele>
        <time>2022-03-20T11:04:21.000Z</time>
      </trkpt>
      <trkpt lat="47.25306" lon="-2.32936">
        <ele>81.400001525879</ele>
        <time>2022-03-20T11:04:22.000Z</time>
      </trkpt>
      <trkpt lat="47.25314" lon="-2.32955">
        <ele>81.400001525879</ele>
        <time>2022-03-20T11:04:25.000Z</time>
      </trkpt>
      <trkpt lat="47.25315" lon="-2.32961">
        <ele>81.400001525879</ele>
        <time>2022-03-20T11:04:26.000Z</time>
      </trkpt>
      <trkpt lat="47.25326" lon="-2.32994">
        <ele>81.400001525879</ele>
        <time>2022-03-20T11:04:31.000Z</time>
      </trkpt>
      <trkpt lat="47.25331" lon="-2.33006">
        <ele>81.400001525879</ele>
        <time>2022-03-20T11:04:33.000Z</time>
      </trkpt>
      <trkpt lat="47.25341" lon="-2.33029">
        <ele>81.400001525879</ele>
        <time>2022-03-20T11:04:37.000Z</time>
      </trkpt>
      <trkpt lat="47.25355" lon="-2.33066">
        <ele>81.400001525879</ele>
        <time>2022-03-20T11:04:43.000Z</time>
      </trkpt>
      <trkpt lat="47.25358" lon="-2.33072">
        <ele>81.400001525879</ele>
        <time>2022-03-20T11:04:44.000Z</time>
      </trkpt>
      <trkpt lat="47.25366" lon="-2.33092">
        <ele>81.400001525879</ele>
        <time>2022-03-20T11:04:48.000Z</time>
      </trkpt>
      <trkpt lat="47.25367" lon="-2.33095">
        <ele>81.400001525879</ele>
        <time>2022-03-20T11:04:51.000Z</time>
      </trkpt>
      <trkpt lat="47.25365" lon="-2.33086">
        <ele>79.400001525879</ele>
        <time>2022-03-20T11:30:10.000Z</time>
      </trkpt>
      <trkpt lat="47.25361" lon="-2.33077">
        <ele>79.400001525879</ele>
        <time>2022-03-20T11:30:14.000Z</time>
      </trkpt>
      <trkpt lat="47.25358" lon="-2.33071">
        <ele>79.400001525879</ele>
        <time>2022-03-20T11:30:16.000Z</time>
      </trkpt>
      <trkpt lat="47.25348" lon="-2.33047">
        <ele>79.400001525879</ele>
        <time>2022-03-20T11:30:21.000Z</time>
      </trkpt>
      <trkpt lat="47.25337" lon="-2.33022">
        <ele>79.400001525879</ele>
        <time>2022-03-20T11:30:26.000Z</time>
      </trkpt>
      <trkpt lat="47.25323" lon="-2.3299">
        <ele>79.400001525879</ele>
        <time>2022-03-20T11:30:32.000Z</time>
      </trkpt>
      <trkpt lat="47.25306" lon="-2.32943">
        <ele>79.400001525879</ele>
        <time>2022-03-20T11:30:40.000Z</time>
      </trkpt>
      <trkpt lat="47.25304" lon="-2.32932">
        <ele>79.400001525879</ele>
        <time>2022-03-20T11:30:42.000Z</time>
      </trkpt>
      <trkpt lat="47.25306" lon="-2.32919">
        <ele>79.400001525879</ele>
        <time>2022-03-20T11:30:44.000Z</time>
      </trkpt>
      <trkpt lat="47.2532" lon="-2.32902">
        <ele>79.400001525879</ele>
        <time>2022-03-20T11:30:48.000Z</time>
      </trkpt>
      <trkpt lat="47.25324" lon="-2.32898">
        <ele>79.400001525879</ele>
        <time>2022-03-20T11:30:49.000Z</time>
      </trkpt>
      <trkpt lat="47.25351" lon="-2.32874">
        <ele>79.400001525879</ele>
        <time>2022-03-20T11:30:55.000Z</time>
      </trkpt>
      <trkpt lat="47.25383" lon="-2.3284">
        <ele>79.400001525879</ele>
        <time>2022-03-20T11:31:03.000Z</time>
      </trkpt>
      <trkpt lat="47.25409" lon="-2.32809">
        <ele>79.400001525879</ele>
        <time>2022-03-20T11:31:10.000Z</time>
      </trkpt>
      <trkpt lat="47.25423" lon="-2.32788">
        <ele>79.400001525879</ele>
        <time>2022-03-20T11:31:15.000Z</time>
      </trkpt>
      <trkpt lat="47.25428" lon="-2.32777">
        <ele>79.400001525879</ele>
        <time>2022-03-20T11:31:17.000Z</time>
      </trkpt>
      <trkpt lat="47.25431" lon="-2.32772">
        <ele>79.800003051758</ele>
        <time>2022-03-20T11:31:18.000Z</time>
      </trkpt>
      <trkpt lat="47.25434" lon="-2.32767">
        <ele>80.199996948242</ele>
        <time>2022-03-20T11:31:19.000Z</time>
      </trkpt>
      <trkpt lat="47.25438" lon="-2.32762">
        <ele>80.599998474121</ele>
        <time>2022-03-20T11:31:20.000Z</time>
      </trkpt>
      <trkpt lat="47.25441" lon="-2.32756">
        <ele>81</ele>
        <time>2022-03-20T11:31:21.000Z</time>
      </trkpt>
      <trkpt lat="47.25445" lon="-2.32751">
        <ele>81.400001525879</ele>
        <time>2022-03-20T11:31:22.000Z</time>
      </trkpt>
      <trkpt lat="47.25473" lon="-2.3271">
        <ele>81.400001525879</ele>
        <time>2022-03-20T11:31:30.000Z</time>
      </trkpt>
      <trkpt lat="47.25483" lon="-2.32694">
        <ele>81.400001525879</ele>
        <time>2022-03-20T11:31:33.000Z</time>
      </trkpt>
      <trkpt lat="47.25486" lon="-2.3268">
        <ele>81.400001525879</ele>
        <time>2022-03-20T11:31:35.000Z</time>
      </trkpt>
      <trkpt lat="47.25487" lon="-2.32657">
        <ele>81.400001525879</ele>
        <time>2022-03-20T11:31:38.000Z</time>
      </trkpt>
      <trkpt lat="47.25486" lon="-2.32649">
        <ele>81.400001525879</ele>
        <time>2022-03-20T11:31:39.000Z</time>
      </trkpt>
      <trkpt lat="47.25485" lon="-2.32642">
        <ele>81.400001525879</ele>
        <time>2022-03-20T11:31:40.000Z</time>
      </trkpt>
      <trkpt lat="47.25481" lon="-2.3262">
        <ele>81.400001525879</ele>
        <time>2022-03-20T11:31:43.000Z</time>
      </trkpt>
      <trkpt lat="47.25479" lon="-2.32613">
        <ele>81.800003051758</ele>
        <time>2022-03-20T11:31:44.000Z</time>
      </trkpt>
      <trkpt lat="47.25478" lon="-2.32606">
        <ele>82.199996948242</ele>
        <time>2022-03-20T11:31:45.000Z</time>
      </trkpt>
      <trkpt lat="47.25476" lon="-2.32599">
        <ele>82.800003051758</ele>
        <time>2022-03-20T11:31:46.000Z</time>
      </trkpt>
      <trkpt lat="47.25474" lon="-2.32592">
        <ele>83.199996948242</ele>
        <time>2022-03-20T11:31:47.000Z</time>
      </trkpt>
      <trkpt lat="47.25473" lon="-2.32585">
        <ele>83.599998474121</ele>
        <time>2022-03-20T11:31:48.000Z</time>
      </trkpt>
      <trkpt lat="47.25476" lon="-2.32566">
        <ele>83.599998474121</ele>
        <time>2022-03-20T11:31:51.000Z</time>
      </trkpt>
      <trkpt lat="47.25489" lon="-2.32546">
        <ele>83.599998474121</ele>
        <time>2022-03-20T11:31:55.000Z</time>
      </trkpt>
      <trkpt lat="47.25499" lon="-2.32538">
        <ele>83.599998474121</ele>
        <time>2022-03-20T11:31:57.000Z</time>
      </trkpt>
      <trkpt lat="47.25519" lon="-2.32521">
        <ele>83.599998474121</ele>
        <time>2022-03-20T11:32:01.000Z</time>
      </trkpt>
      <trkpt lat="47.2555" lon="-2.32493">
        <ele>83.199996948242</ele>
        <time>2022-03-20T11:32:07.000Z</time>
      </trkpt>
      <trkpt lat="47.25555" lon="-2.32488">
        <ele>82.800003051758</ele>
        <time>2022-03-20T11:32:08.000Z</time>
      </trkpt>
      <trkpt lat="47.25561" lon="-2.32483">
        <ele>82.400001525879</ele>
        <time>2022-03-20T11:32:09.000Z</time>
      </trkpt>
      <trkpt lat="47.25566" lon="-2.32477">
        <ele>82</ele>
        <time>2022-03-20T11:32:10.000Z</time>
      </trkpt>
      <trkpt lat="47.25572" lon="-2.32472">
        <ele>81.599998474121</ele>
        <time>2022-03-20T11:32:11.000Z</time>
      </trkpt>
      <trkpt lat="47.2559" lon="-2.32454">
        <ele>81.199996948242</ele>
        <time>2022-03-20T11:32:14.000Z</time>
      </trkpt>
      <trkpt lat="47.25596" lon="-2.32447">
        <ele>80.800003051758</ele>
        <time>2022-03-20T11:32:15.000Z</time>
      </trkpt>
      <trkpt lat="47.25601" lon="-2.32441">
        <ele>80.400001525879</ele>
        <time>2022-03-20T11:32:16.000Z</time>
      </trkpt>
      <trkpt lat="47.25607" lon="-2.32435">
        <ele>79.800003051758</ele>
        <time>2022-03-20T11:32:17.000Z</time>
      </trkpt>
      <trkpt lat="47.25614" lon="-2.32428">
        <ele>79.400001525879</ele>
        <time>2022-03-20T11:32:18.000Z</time>
      </trkpt>
      <trkpt lat="47.25643" lon="-2.32403">
        <ele>79</ele>
        <time>2022-03-20T11:32:23.000Z</time>
      </trkpt>
      <trkpt lat="47.25649" lon="-2.32402">
        <ele>78.599998474121</ele>
        <time>2022-03-20T11:32:24.000Z</time>
      </trkpt>
      <trkpt lat="47.25655" lon="-2.32403">
        <ele>78</ele>
        <time>2022-03-20T11:32:25.000Z</time>
      </trkpt>
      <trkpt lat="47.25661" lon="-2.32405">
        <ele>77.599998474121</ele>
        <time>2022-03-20T11:32:26.000Z</time>
      </trkpt>
      <trkpt lat="47.25667" lon="-2.32409">
        <ele>77.199996948242</ele>
        <time>2022-03-20T11:32:27.000Z</time>
      </trkpt>
      <trkpt lat="47.25685" lon="-2.32421">
        <ele>77.199996948242</ele>
        <time>2022-03-20T11:32:30.000Z</time>
      </trkpt>
      <trkpt lat="47.25706" lon="-2.32422">
        <ele>77.199996948242</ele>
        <time>2022-03-20T11:32:33.000Z</time>
      </trkpt>
      <trkpt lat="47.25712" lon="-2.32422">
        <ele>77.199996948242</ele>
        <time>2022-03-20T11:32:34.000Z</time>
      </trkpt>
      <trkpt lat="47.25755" lon="-2.32422">
        <ele>77.199996948242</ele>
        <time>2022-03-20T11:32:41.000Z</time>
      </trkpt>
      <trkpt lat="47.25761" lon="-2.32421">
        <ele>77.199996948242</ele>
        <time>2022-03-20T11:32:42.000Z</time>
      </trkpt>
      <trkpt lat="47.25775" lon="-2.32413">
        <ele>77.199996948242</ele>
        <time>2022-03-20T11:32:45.000Z</time>
      </trkpt>
      <trkpt lat="47.25779" lon="-2.32413">
        <ele>77.199996948242</ele>
        <time>2022-03-20T11:32:46.000Z</time>
      </trkpt>
      <trkpt lat="47.25787" lon="-2.32421">
        <ele>77.199996948242</ele>
        <time>2022-03-20T11:32:48.000Z</time>
      </trkpt>
      <trkpt lat="47.25797" lon="-2.32443">
        <ele>77.199996948242</ele>
        <time>2022-03-20T11:32:51.000Z</time>
      </trkpt>
      <trkpt lat="47.25801" lon="-2.32449">
        <ele>77.199996948242</ele>
        <time>2022-03-20T11:32:52.000Z</time>
      </trkpt>
      <trkpt lat="47.25819" lon="-2.32461">
        <ele>77.199996948242</ele>
        <time>2022-03-20T11:32:55.000Z</time>
      </trkpt>
      <trkpt lat="47.25851" lon="-2.32473">
        <ele>77.199996948242</ele>
        <time>2022-03-20T11:33:00.000Z</time>
      </trkpt>
      <trkpt lat="47.25857" lon="-2.32473">
        <ele>77.199996948242</ele>
        <time>2022-03-20T11:33:01.000Z</time>
      </trkpt>
      <trkpt lat="47.25897" lon="-2.32463">
        <ele>77.199996948242</ele>
        <time>2022-03-20T11:33:08.000Z</time>
      </trkpt>
      <trkpt lat="47.25916" lon="-2.3244">
        <ele>76.800003051758</ele>
        <time>2022-03-20T11:33:12.000Z</time>
      </trkpt>
      <trkpt lat="47.25921" lon="-2.32434">
        <ele>76.400001525879</ele>
        <time>2022-03-20T11:33:13.000Z</time>
      </trkpt>
      <trkpt lat="47.25925" lon="-2.32429">
        <ele>76</ele>
        <time>2022-03-20T11:33:14.000Z</time>
      </trkpt>
      <trkpt lat="47.2593" lon="-2.32423">
        <ele>75.400001525879</ele>
        <time>2022-03-20T11:33:15.000Z</time>
      </trkpt>
      <trkpt lat="47.25935" lon="-2.32417">
        <ele>75</ele>
        <time>2022-03-20T11:33:16.000Z</time>
      </trkpt>
      <trkpt lat="47.25948" lon="-2.32399">
        <ele>75</ele>
        <time>2022-03-20T11:33:19.000Z</time>
      </trkpt>
      <trkpt lat="47.25981" lon="-2.32356">
        <ele>75</ele>
        <time>2022-03-20T11:33:27.000Z</time>
      </trkpt>
      <trkpt lat="47.26008" lon="-2.32319">
        <ele>75</ele>
        <time>2022-03-20T11:33:34.000Z</time>
      </trkpt>
      <trkpt lat="47.26045" lon="-2.32275">
        <ele>75</ele>
        <time>2022-03-20T11:33:43.000Z</time>
      </trkpt>
      <trkpt lat="47.26074" lon="-2.32241">
        <ele>75</ele>
        <time>2022-03-20T11:33:50.000Z</time>
      </trkpt>
      <trkpt lat="47.26099" lon="-2.32205">
        <ele>75</ele>
        <time>2022-03-20T11:33:57.000Z</time>
      </trkpt>
      <trkpt lat="47.26102" lon="-2.32198">
        <ele>75</ele>
        <time>2022-03-20T11:33:58.000Z</time>
      </trkpt>
      <trkpt lat="47.26111" lon="-2.32178">
        <ele>75</ele>
        <time>2022-03-20T11:34:01.000Z</time>
      </trkpt>
      <trkpt lat="47.26113" lon="-2.32171">
        <ele>75</ele>
        <time>2022-03-20T11:34:02.000Z</time>
      </trkpt>
      <trkpt lat="47.26131" lon="-2.32121">
        <ele>75</ele>
        <time>2022-03-20T11:34:09.000Z</time>
      </trkpt>
      <trkpt lat="47.26147" lon="-2.32064">
        <ele>75</ele>
        <time>2022-03-20T11:34:17.000Z</time>
      </trkpt>
      <trkpt lat="47.26159" lon="-2.32024">
        <ele>75</ele>
        <time>2022-03-20T11:34:23.000Z</time>
      </trkpt>
      <trkpt lat="47.26162" lon="-2.3202">
        <ele>75</ele>
        <time>2022-03-20T11:34:24.000Z</time>
      </trkpt>
      <trkpt lat="47.26174" lon="-2.32019">
        <ele>75</ele>
        <time>2022-03-20T11:34:27.000Z</time>
      </trkpt>
      <trkpt lat="47.26182" lon="-2.32022">
        <ele>75</ele>
        <time>2022-03-20T11:34:29.000Z</time>
      </trkpt>
      <trkpt lat="47.2619" lon="-2.32023">
        <ele>75</ele>
        <time>2022-03-20T11:34:32.000Z</time>
      </trkpt>
      <trkpt lat="47.26192" lon="-2.3202">
        <ele>75</ele>
        <time>2022-03-20T11:34:34.000Z</time>
      </trkpt>
      <trkpt lat="47.26193" lon="-2.32015">
        <ele>75</ele>
        <time>2022-03-20T11:34:35.000Z</time>
      </trkpt>
      <trkpt lat="47.26195" lon="-2.32004">
        <ele>75</ele>
        <time>2022-03-20T11:34:38.000Z</time>
      </trkpt>
      <trkpt lat="47.26201" lon="-2.31999">
        <ele>75</ele>
        <time>2022-03-20T11:34:40.000Z</time>
      </trkpt>
      <trkpt lat="47.2622" lon="-2.3198">
        <ele>75</ele>
        <time>2022-03-20T11:34:46.000Z</time>
      </trkpt>
      <trkpt lat="47.26224" lon="-2.3198">
        <ele>75</ele>
        <time>2022-03-20T11:34:47.000Z</time>
      </trkpt>
      <trkpt lat="47.26232" lon="-2.31979">
        <ele>75</ele>
        <time>2022-03-20T11:34:49.000Z</time>
      </trkpt>
      <trkpt lat="47.26238" lon="-2.31969">
        <ele>75</ele>
        <time>2022-03-20T11:34:52.000Z</time>
      </trkpt>
      <trkpt lat="47.26239" lon="-2.31965">
        <ele>75</ele>
        <time>2022-03-20T11:34:53.000Z</time>
      </trkpt>
      <trkpt lat="47.26254" lon="-2.31939">
        <ele>75</ele>
        <time>2022-03-20T11:34:59.000Z</time>
      </trkpt>
      <trkpt lat="47.26265" lon="-2.31919">
        <ele>75</ele>
        <time>2022-03-20T11:35:04.000Z</time>
      </trkpt>
      <trkpt lat="47.26282" lon="-2.31901">
        <ele>75</ele>
        <time>2022-03-20T11:35:10.000Z</time>
      </trkpt>
      <trkpt lat="47.26287" lon="-2.319">
        <ele>75</ele>
        <time>2022-03-20T11:35:15.000Z</time>
      </trkpt>
      <trkpt lat="47.26287" lon="-2.319">
        <ele>75</ele>
        <time>2022-03-20T11:35:16.000Z</time>
      </trkpt>
      <trkpt lat="47.26293" lon="-2.31897">
        <ele>73</ele>
        <time>2022-03-20T11:36:07.000Z</time>
      </trkpt>
      <trkpt lat="47.26296" lon="-2.31895">
        <ele>73</ele>
        <time>2022-03-20T11:36:09.000Z</time>
      </trkpt>
      <trkpt lat="47.26298" lon="-2.31889">
        <ele>73</ele>
        <time>2022-03-20T11:36:11.000Z</time>
      </trkpt>
      <trkpt lat="47.26299" lon="-2.31875">
        <ele>73</ele>
        <time>2022-03-20T11:36:14.000Z</time>
      </trkpt>
      <trkpt lat="47.26301" lon="-2.31834">
        <ele>73</ele>
        <time>2022-03-20T11:36:21.000Z</time>
      </trkpt>
      <trkpt lat="47.26302" lon="-2.31795">
        <ele>73</ele>
        <time>2022-03-20T11:36:27.000Z</time>
      </trkpt>
      <trkpt lat="47.26301" lon="-2.31775">
        <ele>73.400001525879</ele>
        <time>2022-03-20T11:36:30.000Z</time>
      </trkpt>
      <trkpt lat="47.26301" lon="-2.31768">
        <ele>73.800003051758</ele>
        <time>2022-03-20T11:36:31.000Z</time>
      </trkpt>
      <trkpt lat="47.263" lon="-2.31761">
        <ele>74.199996948242</ele>
        <time>2022-03-20T11:36:32.000Z</time>
      </trkpt>
      <trkpt lat="47.26299" lon="-2.31754">
        <ele>74.599998474121</ele>
        <time>2022-03-20T11:36:33.000Z</time>
      </trkpt>
      <trkpt lat="47.26298" lon="-2.31747">
        <ele>75</ele>
        <time>2022-03-20T11:36:34.000Z</time>
      </trkpt>
      <trkpt lat="47.26299" lon="-2.3172">
        <ele>75</ele>
        <time>2022-03-20T11:36:38.000Z</time>
      </trkpt>
      <trkpt lat="47.26307" lon="-2.31714">
        <ele>75</ele>
        <time>2022-03-20T11:36:40.000Z</time>
      </trkpt>
      <trkpt lat="47.26311" lon="-2.31712">
        <ele>75</ele>
        <time>2022-03-20T11:36:41.000Z</time>
      </trkpt>
      <trkpt lat="47.26331" lon="-2.31696">
        <ele>75</ele>
        <time>2022-03-20T11:36:47.000Z</time>
      </trkpt>
      <trkpt lat="47.26339" lon="-2.31687">
        <ele>75.800003051758</ele>
        <time>2022-03-20T11:36:51.000Z</time>
      </trkpt>
      <trkpt lat="47.26341" lon="-2.31686">
        <ele>76.199996948242</ele>
        <time>2022-03-20T11:36:52.000Z</time>
      </trkpt>
      <trkpt lat="47.26344" lon="-2.31684">
        <ele>76.599998474121</ele>
        <time>2022-03-20T11:36:53.000Z</time>
      </trkpt>
      <trkpt lat="47.26347" lon="-2.31682">
        <ele>77</ele>
        <time>2022-03-20T11:36:54.000Z</time>
      </trkpt>
      <trkpt lat="47.26356" lon="-2.31677">
        <ele>77</ele>
        <time>2022-03-20T11:36:57.000Z</time>
      </trkpt>
      <trkpt lat="47.26375" lon="-2.31669">
        <ele>77</ele>
        <time>2022-03-20T11:37:03.000Z</time>
      </trkpt>
      <trkpt lat="47.2639" lon="-2.3166">
        <ele>77</ele>
        <time>2022-03-20T11:37:08.000Z</time>
      </trkpt>
      <trkpt lat="47.26398" lon="-2.31655">
        <ele>77.400001525879</ele>
        <time>2022-03-20T11:37:10.000Z</time>
      </trkpt>
      <trkpt lat="47.264" lon="-2.31654">
        <ele>77.800003051758</ele>
        <time>2022-03-20T11:37:11.000Z</time>
      </trkpt>
      <trkpt lat="47.26402" lon="-2.31653">
        <ele>78.199996948242</ele>
        <time>2022-03-20T11:37:12.000Z</time>
      </trkpt>
      <trkpt lat="47.26405" lon="-2.31651">
        <ele>78.599998474121</ele>
        <time>2022-03-20T11:37:13.000Z</time>
      </trkpt>
      <trkpt lat="47.26408" lon="-2.31648">
        <ele>79</ele>
        <time>2022-03-20T11:37:14.000Z</time>
      </trkpt>
      <trkpt lat="47.2641" lon="-2.3164">
        <ele>79</ele>
        <time>2022-03-20T11:37:16.000Z</time>
      </trkpt>
      <trkpt lat="47.26409" lon="-2.31637">
        <ele>79</ele>
        <time>2022-03-20T11:37:17.000Z</time>
      </trkpt>
      <trkpt lat="47.26408" lon="-2.31615">
        <ele>79</ele>
        <time>2022-03-20T11:37:22.000Z</time>
      </trkpt>
      <trkpt lat="47.26408" lon="-2.3159">
        <ele>79</ele>
        <time>2022-03-20T11:37:27.000Z</time>
      </trkpt>
      <trkpt lat="47.26408" lon="-2.31558">
        <ele>79</ele>
        <time>2022-03-20T11:37:33.000Z</time>
      </trkpt>
      <trkpt lat="47.26409" lon="-2.31552">
        <ele>79</ele>
        <time>2022-03-20T11:37:35.000Z</time>
      </trkpt>
      <trkpt lat="47.26414" lon="-2.31552">
        <ele>79</ele>
        <time>2022-03-20T11:37:37.000Z</time>
      </trkpt>
      <trkpt lat="47.26415" lon="-2.31552">
        <ele>79</ele>
        <time>2022-03-20T11:37:39.000Z</time>
      </trkpt>
    </trkseg>
  </trk>
</gpx>